<?xml version="1.0" encoding="UTF-8" standalone="no" ?>
<gpx xmlns="http://www.topografix.com/GPX/1/1" xmlns:xsi="http://www.w3.org/2001/XMLSchema-instance" xsi:schemaLocation="http://www.topografix.com/GPX/1/1 http://www.topografix.com/GPX/1/1/gpx.xsd" version="1.1" creator="VisuGPX - https://www.visugpx.com">
  <metadata>
    <name>esmouliere</name>
  </metadata>
  <trk>
    <name><![CDATA[esmouliere]]></name>
    <trkseg>
      <trkpt lat="47.79261" lon="6.53588">
        <ele>471</ele>
        <time>2016-07-03T07:38:23Z</time>
      </trkpt>
      <trkpt lat="47.79261" lon="6.53588">
        <ele>471</ele>
        <time>2016-07-03T07:38:24Z</time>
      </trkpt>
      <trkpt lat="47.79257" lon="6.53602">
        <ele>475.1</ele>
        <time>2016-07-03T07:38:42Z</time>
      </trkpt>
      <trkpt lat="47.7926" lon="6.53615">
        <ele>474.8</ele>
        <time>2016-07-03T07:38:49Z</time>
      </trkpt>
      <trkpt lat="47.79269" lon="6.53619">
        <ele>473</ele>
        <time>2016-07-03T07:38:53Z</time>
      </trkpt>
      <trkpt lat="47.79281" lon="6.53623">
        <ele>470.7</ele>
        <time>2016-07-03T07:38:57Z</time>
      </trkpt>
      <trkpt lat="47.79289" lon="6.53628">
        <ele>469.9</ele>
        <time>2016-07-03T07:39:00Z</time>
      </trkpt>
      <trkpt lat="47.79298" lon="6.53632">
        <ele>469.5</ele>
        <time>2016-07-03T07:39:03Z</time>
      </trkpt>
      <trkpt lat="47.79309" lon="6.53637">
        <ele>469.6</ele>
        <time>2016-07-03T07:39:06Z</time>
      </trkpt>
      <trkpt lat="47.79319" lon="6.53643">
        <ele>469.5</ele>
        <time>2016-07-03T07:39:09Z</time>
      </trkpt>
      <trkpt lat="47.7933" lon="6.53648">
        <ele>469.2</ele>
        <time>2016-07-03T07:39:12Z</time>
      </trkpt>
      <trkpt lat="47.7934" lon="6.53654">
        <ele>468.8</ele>
        <time>2016-07-03T07:39:15Z</time>
      </trkpt>
      <trkpt lat="47.79349" lon="6.53658">
        <ele>468.8</ele>
        <time>2016-07-03T07:39:18Z</time>
      </trkpt>
      <trkpt lat="47.79358" lon="6.53664">
        <ele>469.5</ele>
        <time>2016-07-03T07:39:25Z</time>
      </trkpt>
      <trkpt lat="47.79369" lon="6.53667">
        <ele>469</ele>
        <time>2016-07-03T07:39:29Z</time>
      </trkpt>
      <trkpt lat="47.79379" lon="6.5367">
        <ele>469</ele>
        <time>2016-07-03T07:39:32Z</time>
      </trkpt>
      <trkpt lat="47.79391" lon="6.53676">
        <ele>468.7</ele>
        <time>2016-07-03T07:39:35Z</time>
      </trkpt>
      <trkpt lat="47.79399" lon="6.53681">
        <ele>468.5</ele>
        <time>2016-07-03T07:39:37Z</time>
      </trkpt>
      <trkpt lat="47.79408" lon="6.53687">
        <ele>468.1</ele>
        <time>2016-07-03T07:39:39Z</time>
      </trkpt>
      <trkpt lat="47.79417" lon="6.53692">
        <ele>467.7</ele>
        <time>2016-07-03T07:39:41Z</time>
      </trkpt>
      <trkpt lat="47.79427" lon="6.53698">
        <ele>467.3</ele>
        <time>2016-07-03T07:39:43Z</time>
      </trkpt>
      <trkpt lat="47.79437" lon="6.53704">
        <ele>467.7</ele>
        <time>2016-07-03T07:39:45Z</time>
      </trkpt>
      <trkpt lat="47.79445" lon="6.53713">
        <ele>467.4</ele>
        <time>2016-07-03T07:39:47Z</time>
      </trkpt>
      <trkpt lat="47.79453" lon="6.53726">
        <ele>466.2</ele>
        <time>2016-07-03T07:39:49Z</time>
      </trkpt>
      <trkpt lat="47.79458" lon="6.53741">
        <ele>465.3</ele>
        <time>2016-07-03T07:39:51Z</time>
      </trkpt>
      <trkpt lat="47.79461" lon="6.53758">
        <ele>463.9</ele>
        <time>2016-07-03T07:39:53Z</time>
      </trkpt>
      <trkpt lat="47.79464" lon="6.53776">
        <ele>462.5</ele>
        <time>2016-07-03T07:39:55Z</time>
      </trkpt>
      <trkpt lat="47.79468" lon="6.53794">
        <ele>462.1</ele>
        <time>2016-07-03T07:39:57Z</time>
      </trkpt>
      <trkpt lat="47.79473" lon="6.53811">
        <ele>460.6</ele>
        <time>2016-07-03T07:39:59Z</time>
      </trkpt>
      <trkpt lat="47.79479" lon="6.53827">
        <ele>459.3</ele>
        <time>2016-07-03T07:40:01Z</time>
      </trkpt>
      <trkpt lat="47.79486" lon="6.53841">
        <ele>458.6</ele>
        <time>2016-07-03T07:40:03Z</time>
      </trkpt>
      <trkpt lat="47.79495" lon="6.53851">
        <ele>457.5</ele>
        <time>2016-07-03T07:40:05Z</time>
      </trkpt>
      <trkpt lat="47.79504" lon="6.53856">
        <ele>456.7</ele>
        <time>2016-07-03T07:40:07Z</time>
      </trkpt>
      <trkpt lat="47.79517" lon="6.53861">
        <ele>455.9</ele>
        <time>2016-07-03T07:40:10Z</time>
      </trkpt>
      <trkpt lat="47.79528" lon="6.53865">
        <ele>457</ele>
        <time>2016-07-03T07:40:12Z</time>
      </trkpt>
      <trkpt lat="47.79541" lon="6.53869">
        <ele>456.6</ele>
        <time>2016-07-03T07:40:14Z</time>
      </trkpt>
      <trkpt lat="47.79554" lon="6.53874">
        <ele>456.4</ele>
        <time>2016-07-03T07:40:16Z</time>
      </trkpt>
      <trkpt lat="47.79567" lon="6.53876">
        <ele>456.9</ele>
        <time>2016-07-03T07:40:18Z</time>
      </trkpt>
      <trkpt lat="47.7958" lon="6.53879">
        <ele>457</ele>
        <time>2016-07-03T07:40:20Z</time>
      </trkpt>
      <trkpt lat="47.79593" lon="6.53883">
        <ele>457.2</ele>
        <time>2016-07-03T07:40:22Z</time>
      </trkpt>
      <trkpt lat="47.79607" lon="6.53886">
        <ele>456.9</ele>
        <time>2016-07-03T07:40:24Z</time>
      </trkpt>
      <trkpt lat="47.79621" lon="6.5389">
        <ele>456.2</ele>
        <time>2016-07-03T07:40:26Z</time>
      </trkpt>
      <trkpt lat="47.79636" lon="6.53894">
        <ele>456.1</ele>
        <time>2016-07-03T07:40:28Z</time>
      </trkpt>
      <trkpt lat="47.7965" lon="6.53897">
        <ele>456.5</ele>
        <time>2016-07-03T07:40:30Z</time>
      </trkpt>
      <trkpt lat="47.79664" lon="6.53901">
        <ele>456.5</ele>
        <time>2016-07-03T07:40:32Z</time>
      </trkpt>
      <trkpt lat="47.79677" lon="6.53905">
        <ele>457.1</ele>
        <time>2016-07-03T07:40:34Z</time>
      </trkpt>
      <trkpt lat="47.79689" lon="6.53909">
        <ele>457.5</ele>
        <time>2016-07-03T07:40:36Z</time>
      </trkpt>
      <trkpt lat="47.79702" lon="6.53913">
        <ele>457.3</ele>
        <time>2016-07-03T07:40:38Z</time>
      </trkpt>
      <trkpt lat="47.79714" lon="6.53917">
        <ele>456.9</ele>
        <time>2016-07-03T07:40:40Z</time>
      </trkpt>
      <trkpt lat="47.79727" lon="6.53921">
        <ele>456.6</ele>
        <time>2016-07-03T07:40:42Z</time>
      </trkpt>
      <trkpt lat="47.7974" lon="6.53925">
        <ele>456.7</ele>
        <time>2016-07-03T07:40:44Z</time>
      </trkpt>
      <trkpt lat="47.79752" lon="6.53928">
        <ele>457</ele>
        <time>2016-07-03T07:40:46Z</time>
      </trkpt>
      <trkpt lat="47.79765" lon="6.53931">
        <ele>457.3</ele>
        <time>2016-07-03T07:40:48Z</time>
      </trkpt>
      <trkpt lat="47.79776" lon="6.53933">
        <ele>457.7</ele>
        <time>2016-07-03T07:40:50Z</time>
      </trkpt>
      <trkpt lat="47.79787" lon="6.53934">
        <ele>457.8</ele>
        <time>2016-07-03T07:40:52Z</time>
      </trkpt>
      <trkpt lat="47.79796" lon="6.53934">
        <ele>458.5</ele>
        <time>2016-07-03T07:40:54Z</time>
      </trkpt>
      <trkpt lat="47.79809" lon="6.5393">
        <ele>459.1</ele>
        <time>2016-07-03T07:40:57Z</time>
      </trkpt>
      <trkpt lat="47.79818" lon="6.53925">
        <ele>459.3</ele>
        <time>2016-07-03T07:40:59Z</time>
      </trkpt>
      <trkpt lat="47.79829" lon="6.53913">
        <ele>460.3</ele>
        <time>2016-07-03T07:41:02Z</time>
      </trkpt>
      <trkpt lat="47.79838" lon="6.53902">
        <ele>461.6</ele>
        <time>2016-07-03T07:41:05Z</time>
      </trkpt>
      <trkpt lat="47.79847" lon="6.53891">
        <ele>463.3</ele>
        <time>2016-07-03T07:41:08Z</time>
      </trkpt>
      <trkpt lat="47.79857" lon="6.53878">
        <ele>464.6</ele>
        <time>2016-07-03T07:41:11Z</time>
      </trkpt>
      <trkpt lat="47.79866" lon="6.53866">
        <ele>465.1</ele>
        <time>2016-07-03T07:41:14Z</time>
      </trkpt>
      <trkpt lat="47.79877" lon="6.53857">
        <ele>465.7</ele>
        <time>2016-07-03T07:41:17Z</time>
      </trkpt>
      <trkpt lat="47.79887" lon="6.53849">
        <ele>466.2</ele>
        <time>2016-07-03T07:41:20Z</time>
      </trkpt>
      <trkpt lat="47.79898" lon="6.53843">
        <ele>465.4</ele>
        <time>2016-07-03T07:41:23Z</time>
      </trkpt>
      <trkpt lat="47.79909" lon="6.5384">
        <ele>464.5</ele>
        <time>2016-07-03T07:41:26Z</time>
      </trkpt>
      <trkpt lat="47.79919" lon="6.53836">
        <ele>463.3</ele>
        <time>2016-07-03T07:41:29Z</time>
      </trkpt>
      <trkpt lat="47.7993" lon="6.53833">
        <ele>464.4</ele>
        <time>2016-07-03T07:41:32Z</time>
      </trkpt>
      <trkpt lat="47.79941" lon="6.53829">
        <ele>464.4</ele>
        <time>2016-07-03T07:41:35Z</time>
      </trkpt>
      <trkpt lat="47.79953" lon="6.53824">
        <ele>466.7</ele>
        <time>2016-07-03T07:41:39Z</time>
      </trkpt>
      <trkpt lat="47.79962" lon="6.53819">
        <ele>468.1</ele>
        <time>2016-07-03T07:41:42Z</time>
      </trkpt>
      <trkpt lat="47.7997" lon="6.53814">
        <ele>469.3</ele>
        <time>2016-07-03T07:41:45Z</time>
      </trkpt>
      <trkpt lat="47.7998" lon="6.5381">
        <ele>470.2</ele>
        <time>2016-07-03T07:41:49Z</time>
      </trkpt>
      <trkpt lat="47.79989" lon="6.53804">
        <ele>471.3</ele>
        <time>2016-07-03T07:41:52Z</time>
      </trkpt>
      <trkpt lat="47.79998" lon="6.53799">
        <ele>471.9</ele>
        <time>2016-07-03T07:41:55Z</time>
      </trkpt>
      <trkpt lat="47.80008" lon="6.53793">
        <ele>471.7</ele>
        <time>2016-07-03T07:41:58Z</time>
      </trkpt>
      <trkpt lat="47.80017" lon="6.53789">
        <ele>472.3</ele>
        <time>2016-07-03T07:42:01Z</time>
      </trkpt>
      <trkpt lat="47.80026" lon="6.53783">
        <ele>473.3</ele>
        <time>2016-07-03T07:42:04Z</time>
      </trkpt>
      <trkpt lat="47.80035" lon="6.53779">
        <ele>474</ele>
        <time>2016-07-03T07:42:07Z</time>
      </trkpt>
      <trkpt lat="47.80046" lon="6.53778">
        <ele>475.6</ele>
        <time>2016-07-03T07:42:11Z</time>
      </trkpt>
      <trkpt lat="47.80057" lon="6.53782">
        <ele>475.4</ele>
        <time>2016-07-03T07:42:15Z</time>
      </trkpt>
      <trkpt lat="47.80065" lon="6.53793">
        <ele>473.8</ele>
        <time>2016-07-03T07:42:19Z</time>
      </trkpt>
      <trkpt lat="47.80072" lon="6.53803">
        <ele>472.5</ele>
        <time>2016-07-03T07:42:22Z</time>
      </trkpt>
      <trkpt lat="47.80079" lon="6.53813">
        <ele>473.5</ele>
        <time>2016-07-03T07:42:25Z</time>
      </trkpt>
      <trkpt lat="47.80086" lon="6.53824">
        <ele>473.3</ele>
        <time>2016-07-03T07:42:28Z</time>
      </trkpt>
      <trkpt lat="47.80092" lon="6.53836">
        <ele>473.4</ele>
        <time>2016-07-03T07:42:31Z</time>
      </trkpt>
      <trkpt lat="47.80098" lon="6.53848">
        <ele>473.4</ele>
        <time>2016-07-03T07:42:34Z</time>
      </trkpt>
      <trkpt lat="47.80103" lon="6.5386">
        <ele>471.4</ele>
        <time>2016-07-03T07:42:37Z</time>
      </trkpt>
      <trkpt lat="47.80108" lon="6.53872">
        <ele>468.8</ele>
        <time>2016-07-03T07:42:40Z</time>
      </trkpt>
      <trkpt lat="47.80112" lon="6.53886">
        <ele>467.6</ele>
        <time>2016-07-03T07:42:43Z</time>
      </trkpt>
      <trkpt lat="47.80115" lon="6.53899">
        <ele>465.1</ele>
        <time>2016-07-03T07:42:46Z</time>
      </trkpt>
      <trkpt lat="47.80117" lon="6.53917">
        <ele>464.8</ele>
        <time>2016-07-03T07:42:49Z</time>
      </trkpt>
      <trkpt lat="47.80121" lon="6.53935">
        <ele>465.8</ele>
        <time>2016-07-03T07:42:52Z</time>
      </trkpt>
      <trkpt lat="47.80127" lon="6.53954">
        <ele>467.7</ele>
        <time>2016-07-03T07:42:55Z</time>
      </trkpt>
      <trkpt lat="47.80132" lon="6.53971">
        <ele>469.1</ele>
        <time>2016-07-03T07:42:58Z</time>
      </trkpt>
      <trkpt lat="47.80136" lon="6.53988">
        <ele>470.7</ele>
        <time>2016-07-03T07:43:01Z</time>
      </trkpt>
      <trkpt lat="47.8014" lon="6.54002">
        <ele>471.7</ele>
        <time>2016-07-03T07:43:04Z</time>
      </trkpt>
      <trkpt lat="47.80144" lon="6.54017">
        <ele>472.1</ele>
        <time>2016-07-03T07:43:07Z</time>
      </trkpt>
      <trkpt lat="47.80148" lon="6.54032">
        <ele>473.1</ele>
        <time>2016-07-03T07:43:10Z</time>
      </trkpt>
      <trkpt lat="47.80152" lon="6.54046">
        <ele>474</ele>
        <time>2016-07-03T07:43:13Z</time>
      </trkpt>
      <trkpt lat="47.80156" lon="6.5406">
        <ele>475</ele>
        <time>2016-07-03T07:43:16Z</time>
      </trkpt>
      <trkpt lat="47.8016" lon="6.54074">
        <ele>475.9</ele>
        <time>2016-07-03T07:43:19Z</time>
      </trkpt>
      <trkpt lat="47.80163" lon="6.5409">
        <ele>477</ele>
        <time>2016-07-03T07:43:22Z</time>
      </trkpt>
      <trkpt lat="47.80164" lon="6.54107">
        <ele>477.9</ele>
        <time>2016-07-03T07:43:25Z</time>
      </trkpt>
      <trkpt lat="47.80164" lon="6.54124">
        <ele>479</ele>
        <time>2016-07-03T07:43:28Z</time>
      </trkpt>
      <trkpt lat="47.80164" lon="6.54142">
        <ele>479.5</ele>
        <time>2016-07-03T07:43:31Z</time>
      </trkpt>
      <trkpt lat="47.80164" lon="6.5416">
        <ele>479.6</ele>
        <time>2016-07-03T07:43:34Z</time>
      </trkpt>
      <trkpt lat="47.80164" lon="6.5418">
        <ele>479.8</ele>
        <time>2016-07-03T07:43:37Z</time>
      </trkpt>
      <trkpt lat="47.80166" lon="6.54199">
        <ele>479.8</ele>
        <time>2016-07-03T07:43:40Z</time>
      </trkpt>
      <trkpt lat="47.80168" lon="6.54219">
        <ele>480.3</ele>
        <time>2016-07-03T07:43:43Z</time>
      </trkpt>
      <trkpt lat="47.8017" lon="6.54238">
        <ele>479.9</ele>
        <time>2016-07-03T07:43:46Z</time>
      </trkpt>
      <trkpt lat="47.80172" lon="6.54258">
        <ele>479.3</ele>
        <time>2016-07-03T07:43:49Z</time>
      </trkpt>
      <trkpt lat="47.80173" lon="6.54272">
        <ele>478.9</ele>
        <time>2016-07-03T07:43:51Z</time>
      </trkpt>
      <trkpt lat="47.80174" lon="6.54286">
        <ele>478.7</ele>
        <time>2016-07-03T07:43:53Z</time>
      </trkpt>
      <trkpt lat="47.80175" lon="6.54301">
        <ele>477.7</ele>
        <time>2016-07-03T07:43:55Z</time>
      </trkpt>
      <trkpt lat="47.80177" lon="6.54316">
        <ele>478.4</ele>
        <time>2016-07-03T07:43:57Z</time>
      </trkpt>
      <trkpt lat="47.80179" lon="6.54329">
        <ele>478.2</ele>
        <time>2016-07-03T07:43:59Z</time>
      </trkpt>
      <trkpt lat="47.80182" lon="6.54343">
        <ele>477.9</ele>
        <time>2016-07-03T07:44:01Z</time>
      </trkpt>
      <trkpt lat="47.80185" lon="6.54357">
        <ele>477</ele>
        <time>2016-07-03T07:44:03Z</time>
      </trkpt>
      <trkpt lat="47.80187" lon="6.5437">
        <ele>476.1</ele>
        <time>2016-07-03T07:44:05Z</time>
      </trkpt>
      <trkpt lat="47.8019" lon="6.54386">
        <ele>475.3</ele>
        <time>2016-07-03T07:44:07Z</time>
      </trkpt>
      <trkpt lat="47.80193" lon="6.544">
        <ele>478.2</ele>
        <time>2016-07-03T07:44:09Z</time>
      </trkpt>
      <trkpt lat="47.80195" lon="6.54414">
        <ele>478.8</ele>
        <time>2016-07-03T07:44:11Z</time>
      </trkpt>
      <trkpt lat="47.80198" lon="6.54428">
        <ele>479.7</ele>
        <time>2016-07-03T07:44:13Z</time>
      </trkpt>
      <trkpt lat="47.80199" lon="6.54441">
        <ele>480.4</ele>
        <time>2016-07-03T07:44:15Z</time>
      </trkpt>
      <trkpt lat="47.80201" lon="6.54455">
        <ele>480.2</ele>
        <time>2016-07-03T07:44:17Z</time>
      </trkpt>
      <trkpt lat="47.80206" lon="6.54468">
        <ele>479.9</ele>
        <time>2016-07-03T07:44:19Z</time>
      </trkpt>
      <trkpt lat="47.80212" lon="6.54483">
        <ele>479.3</ele>
        <time>2016-07-03T07:44:21Z</time>
      </trkpt>
      <trkpt lat="47.80216" lon="6.54499">
        <ele>478.1</ele>
        <time>2016-07-03T07:44:23Z</time>
      </trkpt>
      <trkpt lat="47.80221" lon="6.54516">
        <ele>477.2</ele>
        <time>2016-07-03T07:44:25Z</time>
      </trkpt>
      <trkpt lat="47.80226" lon="6.54532">
        <ele>477.2</ele>
        <time>2016-07-03T07:44:27Z</time>
      </trkpt>
      <trkpt lat="47.80231" lon="6.54549">
        <ele>476.6</ele>
        <time>2016-07-03T07:44:29Z</time>
      </trkpt>
      <trkpt lat="47.80236" lon="6.54566">
        <ele>476.3</ele>
        <time>2016-07-03T07:44:31Z</time>
      </trkpt>
      <trkpt lat="47.80241" lon="6.54583">
        <ele>475.8</ele>
        <time>2016-07-03T07:44:33Z</time>
      </trkpt>
      <trkpt lat="47.80249" lon="6.54599">
        <ele>475.3</ele>
        <time>2016-07-03T07:44:35Z</time>
      </trkpt>
      <trkpt lat="47.80256" lon="6.54617">
        <ele>474.7</ele>
        <time>2016-07-03T07:44:37Z</time>
      </trkpt>
      <trkpt lat="47.80259" lon="6.54638">
        <ele>473.9</ele>
        <time>2016-07-03T07:44:39Z</time>
      </trkpt>
      <trkpt lat="47.80259" lon="6.54658">
        <ele>473.9</ele>
        <time>2016-07-03T07:44:41Z</time>
      </trkpt>
      <trkpt lat="47.80258" lon="6.54677">
        <ele>473.8</ele>
        <time>2016-07-03T07:44:43Z</time>
      </trkpt>
      <trkpt lat="47.80255" lon="6.54696">
        <ele>473.7</ele>
        <time>2016-07-03T07:44:45Z</time>
      </trkpt>
      <trkpt lat="47.80252" lon="6.54713">
        <ele>473.3</ele>
        <time>2016-07-03T07:44:47Z</time>
      </trkpt>
      <trkpt lat="47.80247" lon="6.54731">
        <ele>473.1</ele>
        <time>2016-07-03T07:44:49Z</time>
      </trkpt>
      <trkpt lat="47.80243" lon="6.54748">
        <ele>473.3</ele>
        <time>2016-07-03T07:44:51Z</time>
      </trkpt>
      <trkpt lat="47.8024" lon="6.54764">
        <ele>473.5</ele>
        <time>2016-07-03T07:44:53Z</time>
      </trkpt>
      <trkpt lat="47.80238" lon="6.5478">
        <ele>473.5</ele>
        <time>2016-07-03T07:44:55Z</time>
      </trkpt>
      <trkpt lat="47.80237" lon="6.54797">
        <ele>473.3</ele>
        <time>2016-07-03T07:44:57Z</time>
      </trkpt>
      <trkpt lat="47.80236" lon="6.54813">
        <ele>473.6</ele>
        <time>2016-07-03T07:44:59Z</time>
      </trkpt>
      <trkpt lat="47.80233" lon="6.54828">
        <ele>473.4</ele>
        <time>2016-07-03T07:45:01Z</time>
      </trkpt>
      <trkpt lat="47.80233" lon="6.54845">
        <ele>473.5</ele>
        <time>2016-07-03T07:45:03Z</time>
      </trkpt>
      <trkpt lat="47.80234" lon="6.5486">
        <ele>473.8</ele>
        <time>2016-07-03T07:45:05Z</time>
      </trkpt>
      <trkpt lat="47.80235" lon="6.54874">
        <ele>473.5</ele>
        <time>2016-07-03T07:45:07Z</time>
      </trkpt>
      <trkpt lat="47.80237" lon="6.54889">
        <ele>472.8</ele>
        <time>2016-07-03T07:45:10Z</time>
      </trkpt>
      <trkpt lat="47.80241" lon="6.54901">
        <ele>471.2</ele>
        <time>2016-07-03T07:45:13Z</time>
      </trkpt>
      <trkpt lat="47.80249" lon="6.54911">
        <ele>468.7</ele>
        <time>2016-07-03T07:45:16Z</time>
      </trkpt>
      <trkpt lat="47.80255" lon="6.54922">
        <ele>467.8</ele>
        <time>2016-07-03T07:45:19Z</time>
      </trkpt>
      <trkpt lat="47.80262" lon="6.54935">
        <ele>467.7</ele>
        <time>2016-07-03T07:45:22Z</time>
      </trkpt>
      <trkpt lat="47.80268" lon="6.54951">
        <ele>464.4</ele>
        <time>2016-07-03T07:45:25Z</time>
      </trkpt>
      <trkpt lat="47.80272" lon="6.54966">
        <ele>460.5</ele>
        <time>2016-07-03T07:45:28Z</time>
      </trkpt>
      <trkpt lat="47.80277" lon="6.5498">
        <ele>458.6</ele>
        <time>2016-07-03T07:45:31Z</time>
      </trkpt>
      <trkpt lat="47.8028" lon="6.54995">
        <ele>458.9</ele>
        <time>2016-07-03T07:45:35Z</time>
      </trkpt>
      <trkpt lat="47.80279" lon="6.55014">
        <ele>459.1</ele>
        <time>2016-07-03T07:45:38Z</time>
      </trkpt>
      <trkpt lat="47.80273" lon="6.55029">
        <ele>459.3</ele>
        <time>2016-07-03T07:45:41Z</time>
      </trkpt>
      <trkpt lat="47.80265" lon="6.55044">
        <ele>461.9</ele>
        <time>2016-07-03T07:45:44Z</time>
      </trkpt>
      <trkpt lat="47.80258" lon="6.55057">
        <ele>466.4</ele>
        <time>2016-07-03T07:45:46Z</time>
      </trkpt>
      <trkpt lat="47.80254" lon="6.5507">
        <ele>472.2</ele>
        <time>2016-07-03T07:45:48Z</time>
      </trkpt>
      <trkpt lat="47.80246" lon="6.55083">
        <ele>474.5</ele>
        <time>2016-07-03T07:45:51Z</time>
      </trkpt>
      <trkpt lat="47.80238" lon="6.55091">
        <ele>475.3</ele>
        <time>2016-07-03T07:45:53Z</time>
      </trkpt>
      <trkpt lat="47.8023" lon="6.551">
        <ele>476</ele>
        <time>2016-07-03T07:45:55Z</time>
      </trkpt>
      <trkpt lat="47.80217" lon="6.55109">
        <ele>477.9</ele>
        <time>2016-07-03T07:45:58Z</time>
      </trkpt>
      <trkpt lat="47.80205" lon="6.55115">
        <ele>480.9</ele>
        <time>2016-07-03T07:46:01Z</time>
      </trkpt>
      <trkpt lat="47.80197" lon="6.55118">
        <ele>480</ele>
        <time>2016-07-03T07:46:03Z</time>
      </trkpt>
      <trkpt lat="47.80183" lon="6.55122">
        <ele>477.3</ele>
        <time>2016-07-03T07:46:06Z</time>
      </trkpt>
      <trkpt lat="47.80174" lon="6.55125">
        <ele>479.5</ele>
        <time>2016-07-03T07:46:08Z</time>
      </trkpt>
      <trkpt lat="47.80165" lon="6.55129">
        <ele>480.4</ele>
        <time>2016-07-03T07:46:10Z</time>
      </trkpt>
      <trkpt lat="47.80158" lon="6.55144">
        <ele>480.2</ele>
        <time>2016-07-03T07:46:13Z</time>
      </trkpt>
      <trkpt lat="47.8015" lon="6.55159">
        <ele>479</ele>
        <time>2016-07-03T07:46:16Z</time>
      </trkpt>
      <trkpt lat="47.80139" lon="6.55169">
        <ele>477.9</ele>
        <time>2016-07-03T07:46:19Z</time>
      </trkpt>
      <trkpt lat="47.80135" lon="6.55185">
        <ele>475.6</ele>
        <time>2016-07-03T07:46:22Z</time>
      </trkpt>
      <trkpt lat="47.80134" lon="6.55203">
        <ele>476.5</ele>
        <time>2016-07-03T07:46:25Z</time>
      </trkpt>
      <trkpt lat="47.80135" lon="6.55222">
        <ele>475.3</ele>
        <time>2016-07-03T07:46:28Z</time>
      </trkpt>
      <trkpt lat="47.80143" lon="6.55238">
        <ele>473.2</ele>
        <time>2016-07-03T07:46:31Z</time>
      </trkpt>
      <trkpt lat="47.80148" lon="6.5525">
        <ele>479</ele>
        <time>2016-07-03T07:46:33Z</time>
      </trkpt>
      <trkpt lat="47.80156" lon="6.55264">
        <ele>481.9</ele>
        <time>2016-07-03T07:46:36Z</time>
      </trkpt>
      <trkpt lat="47.80165" lon="6.55279">
        <ele>482.1</ele>
        <time>2016-07-03T07:46:39Z</time>
      </trkpt>
      <trkpt lat="47.80175" lon="6.55288">
        <ele>483.1</ele>
        <time>2016-07-03T07:46:41Z</time>
      </trkpt>
      <trkpt lat="47.80183" lon="6.55298">
        <ele>482</ele>
        <time>2016-07-03T07:46:43Z</time>
      </trkpt>
      <trkpt lat="47.80191" lon="6.55307">
        <ele>482.2</ele>
        <time>2016-07-03T07:46:45Z</time>
      </trkpt>
      <trkpt lat="47.802" lon="6.55314">
        <ele>482</ele>
        <time>2016-07-03T07:46:47Z</time>
      </trkpt>
      <trkpt lat="47.8021" lon="6.55323">
        <ele>482.3</ele>
        <time>2016-07-03T07:46:50Z</time>
      </trkpt>
      <trkpt lat="47.8022" lon="6.55328">
        <ele>484</ele>
        <time>2016-07-03T07:46:53Z</time>
      </trkpt>
      <trkpt lat="47.80229" lon="6.5533">
        <ele>487.4</ele>
        <time>2016-07-03T07:46:56Z</time>
      </trkpt>
      <trkpt lat="47.8024" lon="6.55332">
        <ele>488.2</ele>
        <time>2016-07-03T07:46:59Z</time>
      </trkpt>
      <trkpt lat="47.8025" lon="6.55332">
        <ele>487.3</ele>
        <time>2016-07-03T07:47:02Z</time>
      </trkpt>
      <trkpt lat="47.8026" lon="6.55344">
        <ele>485.5</ele>
        <time>2016-07-03T07:47:05Z</time>
      </trkpt>
      <trkpt lat="47.80259" lon="6.55363">
        <ele>484.2</ele>
        <time>2016-07-03T07:47:08Z</time>
      </trkpt>
      <trkpt lat="47.80253" lon="6.55379">
        <ele>482.4</ele>
        <time>2016-07-03T07:47:10Z</time>
      </trkpt>
      <trkpt lat="47.80247" lon="6.55392">
        <ele>483.1</ele>
        <time>2016-07-03T07:47:12Z</time>
      </trkpt>
      <trkpt lat="47.80241" lon="6.55404">
        <ele>479</ele>
        <time>2016-07-03T07:47:15Z</time>
      </trkpt>
      <trkpt lat="47.80231" lon="6.55417">
        <ele>476.8</ele>
        <time>2016-07-03T07:47:18Z</time>
      </trkpt>
      <trkpt lat="47.80227" lon="6.55434">
        <ele>474.5</ele>
        <time>2016-07-03T07:47:22Z</time>
      </trkpt>
      <trkpt lat="47.80227" lon="6.55454">
        <ele>473.6</ele>
        <time>2016-07-03T07:47:25Z</time>
      </trkpt>
      <trkpt lat="47.80224" lon="6.55469">
        <ele>471.1</ele>
        <time>2016-07-03T07:47:27Z</time>
      </trkpt>
      <trkpt lat="47.80222" lon="6.55484">
        <ele>470.3</ele>
        <time>2016-07-03T07:47:30Z</time>
      </trkpt>
      <trkpt lat="47.80221" lon="6.55498">
        <ele>470.2</ele>
        <time>2016-07-03T07:47:33Z</time>
      </trkpt>
      <trkpt lat="47.80221" lon="6.55516">
        <ele>471.7</ele>
        <time>2016-07-03T07:47:36Z</time>
      </trkpt>
      <trkpt lat="47.80221" lon="6.55531">
        <ele>468.9</ele>
        <time>2016-07-03T07:47:39Z</time>
      </trkpt>
      <trkpt lat="47.80226" lon="6.55546">
        <ele>465.8</ele>
        <time>2016-07-03T07:47:42Z</time>
      </trkpt>
      <trkpt lat="47.80231" lon="6.5556">
        <ele>463.8</ele>
        <time>2016-07-03T07:47:44Z</time>
      </trkpt>
      <trkpt lat="47.80235" lon="6.55576">
        <ele>461.3</ele>
        <time>2016-07-03T07:47:47Z</time>
      </trkpt>
      <trkpt lat="47.80242" lon="6.5559">
        <ele>458.3</ele>
        <time>2016-07-03T07:47:50Z</time>
      </trkpt>
      <trkpt lat="47.80249" lon="6.55601">
        <ele>455.6</ele>
        <time>2016-07-03T07:47:52Z</time>
      </trkpt>
      <trkpt lat="47.80253" lon="6.55614">
        <ele>453.8</ele>
        <time>2016-07-03T07:47:54Z</time>
      </trkpt>
      <trkpt lat="47.80259" lon="6.55624">
        <ele>450.9</ele>
        <time>2016-07-03T07:47:56Z</time>
      </trkpt>
      <trkpt lat="47.80266" lon="6.55637">
        <ele>448.3</ele>
        <time>2016-07-03T07:47:58Z</time>
      </trkpt>
      <trkpt lat="47.80271" lon="6.5565">
        <ele>447.4</ele>
        <time>2016-07-03T07:48:00Z</time>
      </trkpt>
      <trkpt lat="47.80275" lon="6.55662">
        <ele>446.9</ele>
        <time>2016-07-03T07:48:02Z</time>
      </trkpt>
      <trkpt lat="47.80283" lon="6.55681">
        <ele>445.4</ele>
        <time>2016-07-03T07:48:05Z</time>
      </trkpt>
      <trkpt lat="47.80288" lon="6.55693">
        <ele>445.1</ele>
        <time>2016-07-03T07:48:07Z</time>
      </trkpt>
      <trkpt lat="47.8029" lon="6.55709">
        <ele>443.5</ele>
        <time>2016-07-03T07:48:09Z</time>
      </trkpt>
      <trkpt lat="47.80295" lon="6.55727">
        <ele>441.7</ele>
        <time>2016-07-03T07:48:11Z</time>
      </trkpt>
      <trkpt lat="47.80303" lon="6.55744">
        <ele>441</ele>
        <time>2016-07-03T07:48:13Z</time>
      </trkpt>
      <trkpt lat="47.80308" lon="6.55762">
        <ele>439.7</ele>
        <time>2016-07-03T07:48:15Z</time>
      </trkpt>
      <trkpt lat="47.80311" lon="6.55779">
        <ele>440.3</ele>
        <time>2016-07-03T07:48:17Z</time>
      </trkpt>
      <trkpt lat="47.80319" lon="6.55796">
        <ele>438.5</ele>
        <time>2016-07-03T07:48:19Z</time>
      </trkpt>
      <trkpt lat="47.80326" lon="6.55813">
        <ele>438</ele>
        <time>2016-07-03T07:48:21Z</time>
      </trkpt>
      <trkpt lat="47.8033" lon="6.55832">
        <ele>436.5</ele>
        <time>2016-07-03T07:48:23Z</time>
      </trkpt>
      <trkpt lat="47.80334" lon="6.55847">
        <ele>437.1</ele>
        <time>2016-07-03T07:48:25Z</time>
      </trkpt>
      <trkpt lat="47.80336" lon="6.55865">
        <ele>436.8</ele>
        <time>2016-07-03T07:48:27Z</time>
      </trkpt>
      <trkpt lat="47.80338" lon="6.55882">
        <ele>437.3</ele>
        <time>2016-07-03T07:48:29Z</time>
      </trkpt>
      <trkpt lat="47.80339" lon="6.559">
        <ele>438.9</ele>
        <time>2016-07-03T07:48:31Z</time>
      </trkpt>
      <trkpt lat="47.80344" lon="6.55917">
        <ele>439.3</ele>
        <time>2016-07-03T07:48:33Z</time>
      </trkpt>
      <trkpt lat="47.80349" lon="6.55936">
        <ele>440.1</ele>
        <time>2016-07-03T07:48:35Z</time>
      </trkpt>
      <trkpt lat="47.80353" lon="6.55951">
        <ele>441</ele>
        <time>2016-07-03T07:48:36Z</time>
      </trkpt>
      <trkpt lat="47.80358" lon="6.55962">
        <ele>439.7</ele>
        <time>2016-07-03T07:48:37Z</time>
      </trkpt>
      <trkpt lat="47.80369" lon="6.55983">
        <ele>441.1</ele>
        <time>2016-07-03T07:48:39Z</time>
      </trkpt>
      <trkpt lat="47.80374" lon="6.55994">
        <ele>442.8</ele>
        <time>2016-07-03T07:48:40Z</time>
      </trkpt>
      <trkpt lat="47.80382" lon="6.56015">
        <ele>443.3</ele>
        <time>2016-07-03T07:48:42Z</time>
      </trkpt>
      <trkpt lat="47.8039" lon="6.56034">
        <ele>443.4</ele>
        <time>2016-07-03T07:48:44Z</time>
      </trkpt>
      <trkpt lat="47.80398" lon="6.56053">
        <ele>443.5</ele>
        <time>2016-07-03T07:48:46Z</time>
      </trkpt>
      <trkpt lat="47.80406" lon="6.56071">
        <ele>441.1</ele>
        <time>2016-07-03T07:48:48Z</time>
      </trkpt>
      <trkpt lat="47.80414" lon="6.56088">
        <ele>438.9</ele>
        <time>2016-07-03T07:48:50Z</time>
      </trkpt>
      <trkpt lat="47.80417" lon="6.56105">
        <ele>437.3</ele>
        <time>2016-07-03T07:48:52Z</time>
      </trkpt>
      <trkpt lat="47.80421" lon="6.56118">
        <ele>436.3</ele>
        <time>2016-07-03T07:48:54Z</time>
      </trkpt>
      <trkpt lat="47.80425" lon="6.56132">
        <ele>438</ele>
        <time>2016-07-03T07:48:58Z</time>
      </trkpt>
      <trkpt lat="47.80426" lon="6.5615">
        <ele>441.6</ele>
        <time>2016-07-03T07:49:01Z</time>
      </trkpt>
      <trkpt lat="47.80428" lon="6.56163">
        <ele>443.3</ele>
        <time>2016-07-03T07:49:03Z</time>
      </trkpt>
      <trkpt lat="47.8043" lon="6.56179">
        <ele>444.1</ele>
        <time>2016-07-03T07:49:05Z</time>
      </trkpt>
      <trkpt lat="47.80432" lon="6.56196">
        <ele>444</ele>
        <time>2016-07-03T07:49:07Z</time>
      </trkpt>
      <trkpt lat="47.80433" lon="6.56215">
        <ele>443.8</ele>
        <time>2016-07-03T07:49:09Z</time>
      </trkpt>
      <trkpt lat="47.80435" lon="6.56234">
        <ele>444.7</ele>
        <time>2016-07-03T07:49:11Z</time>
      </trkpt>
      <trkpt lat="47.80435" lon="6.56256">
        <ele>443.2</ele>
        <time>2016-07-03T07:49:13Z</time>
      </trkpt>
      <trkpt lat="47.80437" lon="6.5628">
        <ele>442.7</ele>
        <time>2016-07-03T07:49:15Z</time>
      </trkpt>
      <trkpt lat="47.80438" lon="6.56302">
        <ele>441.9</ele>
        <time>2016-07-03T07:49:17Z</time>
      </trkpt>
      <trkpt lat="47.80444" lon="6.56322">
        <ele>440.4</ele>
        <time>2016-07-03T07:49:19Z</time>
      </trkpt>
      <trkpt lat="47.80449" lon="6.5634">
        <ele>438.3</ele>
        <time>2016-07-03T07:49:21Z</time>
      </trkpt>
      <trkpt lat="47.80459" lon="6.56357">
        <ele>435.8</ele>
        <time>2016-07-03T07:49:23Z</time>
      </trkpt>
      <trkpt lat="47.8047" lon="6.56372">
        <ele>435.7</ele>
        <time>2016-07-03T07:49:25Z</time>
      </trkpt>
      <trkpt lat="47.80476" lon="6.5639">
        <ele>435.2</ele>
        <time>2016-07-03T07:49:27Z</time>
      </trkpt>
      <trkpt lat="47.8048" lon="6.56407">
        <ele>433.7</ele>
        <time>2016-07-03T07:49:29Z</time>
      </trkpt>
      <trkpt lat="47.80483" lon="6.56426">
        <ele>432.2</ele>
        <time>2016-07-03T07:49:31Z</time>
      </trkpt>
      <trkpt lat="47.80485" lon="6.56445">
        <ele>431.6</ele>
        <time>2016-07-03T07:49:33Z</time>
      </trkpt>
      <trkpt lat="47.80486" lon="6.56464">
        <ele>430.4</ele>
        <time>2016-07-03T07:49:35Z</time>
      </trkpt>
      <trkpt lat="47.80484" lon="6.56485">
        <ele>428.2</ele>
        <time>2016-07-03T07:49:37Z</time>
      </trkpt>
      <trkpt lat="47.80481" lon="6.56509">
        <ele>426.3</ele>
        <time>2016-07-03T07:49:39Z</time>
      </trkpt>
      <trkpt lat="47.80476" lon="6.56533">
        <ele>424.3</ele>
        <time>2016-07-03T07:49:41Z</time>
      </trkpt>
      <trkpt lat="47.80473" lon="6.56548">
        <ele>424.5</ele>
        <time>2016-07-03T07:49:42Z</time>
      </trkpt>
      <trkpt lat="47.80469" lon="6.56564">
        <ele>423.2</ele>
        <time>2016-07-03T07:49:43Z</time>
      </trkpt>
      <trkpt lat="47.80465" lon="6.56582">
        <ele>422.7</ele>
        <time>2016-07-03T07:49:44Z</time>
      </trkpt>
      <trkpt lat="47.80463" lon="6.56596">
        <ele>425.7</ele>
        <time>2016-07-03T07:49:45Z</time>
      </trkpt>
      <trkpt lat="47.80459" lon="6.56616">
        <ele>429.4</ele>
        <time>2016-07-03T07:49:47Z</time>
      </trkpt>
      <trkpt lat="47.80456" lon="6.56631">
        <ele>432.7</ele>
        <time>2016-07-03T07:49:50Z</time>
      </trkpt>
      <trkpt lat="47.80455" lon="6.56648">
        <ele>435.8</ele>
        <time>2016-07-03T07:49:54Z</time>
      </trkpt>
      <trkpt lat="47.80454" lon="6.56661">
        <ele>435.8</ele>
        <time>2016-07-03T07:49:57Z</time>
      </trkpt>
      <trkpt lat="47.80456" lon="6.56678">
        <ele>435.5</ele>
        <time>2016-07-03T07:50:00Z</time>
      </trkpt>
      <trkpt lat="47.80457" lon="6.56691">
        <ele>436.6</ele>
        <time>2016-07-03T07:50:02Z</time>
      </trkpt>
      <trkpt lat="47.8046" lon="6.56709">
        <ele>437.9</ele>
        <time>2016-07-03T07:50:05Z</time>
      </trkpt>
      <trkpt lat="47.80457" lon="6.56725">
        <ele>437.8</ele>
        <time>2016-07-03T07:50:08Z</time>
      </trkpt>
      <trkpt lat="47.80452" lon="6.56738">
        <ele>437.8</ele>
        <time>2016-07-03T07:50:11Z</time>
      </trkpt>
      <trkpt lat="47.80457" lon="6.5675">
        <ele>438.1</ele>
        <time>2016-07-03T07:50:15Z</time>
      </trkpt>
      <trkpt lat="47.80465" lon="6.56758">
        <ele>439.5</ele>
        <time>2016-07-03T07:50:18Z</time>
      </trkpt>
      <trkpt lat="47.80477" lon="6.56767">
        <ele>439.9</ele>
        <time>2016-07-03T07:50:21Z</time>
      </trkpt>
      <trkpt lat="47.80486" lon="6.56772">
        <ele>440.6</ele>
        <time>2016-07-03T07:50:23Z</time>
      </trkpt>
      <trkpt lat="47.80495" lon="6.56778">
        <ele>440.8</ele>
        <time>2016-07-03T07:50:25Z</time>
      </trkpt>
      <trkpt lat="47.80505" lon="6.56783">
        <ele>440.5</ele>
        <time>2016-07-03T07:50:27Z</time>
      </trkpt>
      <trkpt lat="47.80514" lon="6.5679">
        <ele>440.4</ele>
        <time>2016-07-03T07:50:29Z</time>
      </trkpt>
      <trkpt lat="47.80523" lon="6.56797">
        <ele>440.8</ele>
        <time>2016-07-03T07:50:31Z</time>
      </trkpt>
      <trkpt lat="47.80533" lon="6.56804">
        <ele>441.2</ele>
        <time>2016-07-03T07:50:33Z</time>
      </trkpt>
      <trkpt lat="47.80543" lon="6.56812">
        <ele>443.1</ele>
        <time>2016-07-03T07:50:35Z</time>
      </trkpt>
      <trkpt lat="47.80552" lon="6.5682">
        <ele>443.6</ele>
        <time>2016-07-03T07:50:37Z</time>
      </trkpt>
      <trkpt lat="47.80561" lon="6.56828">
        <ele>444.4</ele>
        <time>2016-07-03T07:50:39Z</time>
      </trkpt>
      <trkpt lat="47.80569" lon="6.56836">
        <ele>444.9</ele>
        <time>2016-07-03T07:50:41Z</time>
      </trkpt>
      <trkpt lat="47.80577" lon="6.56844">
        <ele>445.2</ele>
        <time>2016-07-03T07:50:43Z</time>
      </trkpt>
      <trkpt lat="47.80586" lon="6.56851">
        <ele>445.4</ele>
        <time>2016-07-03T07:50:45Z</time>
      </trkpt>
      <trkpt lat="47.80594" lon="6.56857">
        <ele>445.5</ele>
        <time>2016-07-03T07:50:47Z</time>
      </trkpt>
      <trkpt lat="47.80602" lon="6.56864">
        <ele>445.8</ele>
        <time>2016-07-03T07:50:49Z</time>
      </trkpt>
      <trkpt lat="47.80606" lon="6.56877">
        <ele>445.4</ele>
        <time>2016-07-03T07:50:51Z</time>
      </trkpt>
      <trkpt lat="47.80603" lon="6.56891">
        <ele>444.9</ele>
        <time>2016-07-03T07:50:53Z</time>
      </trkpt>
      <trkpt lat="47.80597" lon="6.56905">
        <ele>444.9</ele>
        <time>2016-07-03T07:50:55Z</time>
      </trkpt>
      <trkpt lat="47.80589" lon="6.56918">
        <ele>444.5</ele>
        <time>2016-07-03T07:50:57Z</time>
      </trkpt>
      <trkpt lat="47.80583" lon="6.5693">
        <ele>442.8</ele>
        <time>2016-07-03T07:50:59Z</time>
      </trkpt>
      <trkpt lat="47.80586" lon="6.5695">
        <ele>441.8</ele>
        <time>2016-07-03T07:51:02Z</time>
      </trkpt>
      <trkpt lat="47.8059" lon="6.56963">
        <ele>441.1</ele>
        <time>2016-07-03T07:51:04Z</time>
      </trkpt>
      <trkpt lat="47.80593" lon="6.56978">
        <ele>441.2</ele>
        <time>2016-07-03T07:51:06Z</time>
      </trkpt>
      <trkpt lat="47.80596" lon="6.56992">
        <ele>440.6</ele>
        <time>2016-07-03T07:51:08Z</time>
      </trkpt>
      <trkpt lat="47.806" lon="6.57009">
        <ele>442.2</ele>
        <time>2016-07-03T07:51:11Z</time>
      </trkpt>
      <trkpt lat="47.80607" lon="6.57026">
        <ele>442.7</ele>
        <time>2016-07-03T07:51:14Z</time>
      </trkpt>
      <trkpt lat="47.80615" lon="6.57043">
        <ele>440.3</ele>
        <time>2016-07-03T07:51:17Z</time>
      </trkpt>
      <trkpt lat="47.80618" lon="6.5706">
        <ele>433.3</ele>
        <time>2016-07-03T07:51:20Z</time>
      </trkpt>
      <trkpt lat="47.80617" lon="6.57075">
        <ele>431</ele>
        <time>2016-07-03T07:51:22Z</time>
      </trkpt>
      <trkpt lat="47.80614" lon="6.5709">
        <ele>430.2</ele>
        <time>2016-07-03T07:51:24Z</time>
      </trkpt>
      <trkpt lat="47.8061" lon="6.57107">
        <ele>427.4</ele>
        <time>2016-07-03T07:51:27Z</time>
      </trkpt>
      <trkpt lat="47.80606" lon="6.57124">
        <ele>424.8</ele>
        <time>2016-07-03T07:51:30Z</time>
      </trkpt>
      <trkpt lat="47.80604" lon="6.57146">
        <ele>424.6</ele>
        <time>2016-07-03T07:51:33Z</time>
      </trkpt>
      <trkpt lat="47.80604" lon="6.57159">
        <ele>424.8</ele>
        <time>2016-07-03T07:51:35Z</time>
      </trkpt>
      <trkpt lat="47.80606" lon="6.57175">
        <ele>426.7</ele>
        <time>2016-07-03T07:51:37Z</time>
      </trkpt>
      <trkpt lat="47.80605" lon="6.57195">
        <ele>425.6</ele>
        <time>2016-07-03T07:51:40Z</time>
      </trkpt>
      <trkpt lat="47.80605" lon="6.57212">
        <ele>423.9</ele>
        <time>2016-07-03T07:51:43Z</time>
      </trkpt>
      <trkpt lat="47.80606" lon="6.5723">
        <ele>423.1</ele>
        <time>2016-07-03T07:51:45Z</time>
      </trkpt>
      <trkpt lat="47.80608" lon="6.57249">
        <ele>419.7</ele>
        <time>2016-07-03T07:51:48Z</time>
      </trkpt>
      <trkpt lat="47.80609" lon="6.57262">
        <ele>418.6</ele>
        <time>2016-07-03T07:51:50Z</time>
      </trkpt>
      <trkpt lat="47.80613" lon="6.57277">
        <ele>416.3</ele>
        <time>2016-07-03T07:51:53Z</time>
      </trkpt>
      <trkpt lat="47.80615" lon="6.57291">
        <ele>415</ele>
        <time>2016-07-03T07:51:55Z</time>
      </trkpt>
      <trkpt lat="47.80618" lon="6.5731">
        <ele>417.5</ele>
        <time>2016-07-03T07:51:58Z</time>
      </trkpt>
      <trkpt lat="47.80618" lon="6.57325">
        <ele>415.4</ele>
        <time>2016-07-03T07:52:00Z</time>
      </trkpt>
      <trkpt lat="47.8062" lon="6.57342">
        <ele>414.1</ele>
        <time>2016-07-03T07:52:03Z</time>
      </trkpt>
      <trkpt lat="47.80619" lon="6.57356">
        <ele>416.1</ele>
        <time>2016-07-03T07:52:05Z</time>
      </trkpt>
      <trkpt lat="47.8062" lon="6.57374">
        <ele>413.6</ele>
        <time>2016-07-03T07:52:08Z</time>
      </trkpt>
      <trkpt lat="47.8062" lon="6.57388">
        <ele>415.9</ele>
        <time>2016-07-03T07:52:11Z</time>
      </trkpt>
      <trkpt lat="47.80618" lon="6.57403">
        <ele>416.7</ele>
        <time>2016-07-03T07:52:13Z</time>
      </trkpt>
      <trkpt lat="47.80613" lon="6.57417">
        <ele>420.4</ele>
        <time>2016-07-03T07:52:15Z</time>
      </trkpt>
      <trkpt lat="47.8061" lon="6.57431">
        <ele>420.6</ele>
        <time>2016-07-03T07:52:17Z</time>
      </trkpt>
      <trkpt lat="47.80606" lon="6.57444">
        <ele>421.5</ele>
        <time>2016-07-03T07:52:19Z</time>
      </trkpt>
      <trkpt lat="47.80602" lon="6.57456">
        <ele>423.6</ele>
        <time>2016-07-03T07:52:21Z</time>
      </trkpt>
      <trkpt lat="47.80594" lon="6.57472">
        <ele>422.1</ele>
        <time>2016-07-03T07:52:24Z</time>
      </trkpt>
      <trkpt lat="47.8059" lon="6.57485">
        <ele>420.8</ele>
        <time>2016-07-03T07:52:26Z</time>
      </trkpt>
      <trkpt lat="47.80581" lon="6.57499">
        <ele>420</ele>
        <time>2016-07-03T07:52:28Z</time>
      </trkpt>
      <trkpt lat="47.80572" lon="6.57511">
        <ele>418</ele>
        <time>2016-07-03T07:52:30Z</time>
      </trkpt>
      <trkpt lat="47.80567" lon="6.57523">
        <ele>417.5</ele>
        <time>2016-07-03T07:52:32Z</time>
      </trkpt>
      <trkpt lat="47.80562" lon="6.57535">
        <ele>419.2</ele>
        <time>2016-07-03T07:52:34Z</time>
      </trkpt>
      <trkpt lat="47.80562" lon="6.57552">
        <ele>423.2</ele>
        <time>2016-07-03T07:52:38Z</time>
      </trkpt>
      <trkpt lat="47.80566" lon="6.57568">
        <ele>425.2</ele>
        <time>2016-07-03T07:52:42Z</time>
      </trkpt>
      <trkpt lat="47.80568" lon="6.57584">
        <ele>427.1</ele>
        <time>2016-07-03T07:52:45Z</time>
      </trkpt>
      <trkpt lat="47.80571" lon="6.57598">
        <ele>428.6</ele>
        <time>2016-07-03T07:52:48Z</time>
      </trkpt>
      <trkpt lat="47.80577" lon="6.57615">
        <ele>426.1</ele>
        <time>2016-07-03T07:52:52Z</time>
      </trkpt>
      <trkpt lat="47.80582" lon="6.57632">
        <ele>427.5</ele>
        <time>2016-07-03T07:52:55Z</time>
      </trkpt>
      <trkpt lat="47.8058" lon="6.57645">
        <ele>429.5</ele>
        <time>2016-07-03T07:52:57Z</time>
      </trkpt>
      <trkpt lat="47.80584" lon="6.57663">
        <ele>430.2</ele>
        <time>2016-07-03T07:53:00Z</time>
      </trkpt>
      <trkpt lat="47.80588" lon="6.57675">
        <ele>430.1</ele>
        <time>2016-07-03T07:53:03Z</time>
      </trkpt>
      <trkpt lat="47.80595" lon="6.57689">
        <ele>432.2</ele>
        <time>2016-07-03T07:53:06Z</time>
      </trkpt>
      <trkpt lat="47.80595" lon="6.57707">
        <ele>433.6</ele>
        <time>2016-07-03T07:53:10Z</time>
      </trkpt>
      <trkpt lat="47.80589" lon="6.57722">
        <ele>432.7</ele>
        <time>2016-07-03T07:53:13Z</time>
      </trkpt>
      <trkpt lat="47.80583" lon="6.57733">
        <ele>431.6</ele>
        <time>2016-07-03T07:53:16Z</time>
      </trkpt>
      <trkpt lat="47.8058" lon="6.57754">
        <ele>431.2</ele>
        <time>2016-07-03T07:53:19Z</time>
      </trkpt>
      <trkpt lat="47.80582" lon="6.5777">
        <ele>430.2</ele>
        <time>2016-07-03T07:53:21Z</time>
      </trkpt>
      <trkpt lat="47.80579" lon="6.57787">
        <ele>427.9</ele>
        <time>2016-07-03T07:53:23Z</time>
      </trkpt>
      <trkpt lat="47.80577" lon="6.57802">
        <ele>427.7</ele>
        <time>2016-07-03T07:53:25Z</time>
      </trkpt>
      <trkpt lat="47.80575" lon="6.57816">
        <ele>426.6</ele>
        <time>2016-07-03T07:53:27Z</time>
      </trkpt>
      <trkpt lat="47.80574" lon="6.57831">
        <ele>426.1</ele>
        <time>2016-07-03T07:53:30Z</time>
      </trkpt>
      <trkpt lat="47.80575" lon="6.57849">
        <ele>424.8</ele>
        <time>2016-07-03T07:53:33Z</time>
      </trkpt>
      <trkpt lat="47.80571" lon="6.57867">
        <ele>424.7</ele>
        <time>2016-07-03T07:53:36Z</time>
      </trkpt>
      <trkpt lat="47.80567" lon="6.57879">
        <ele>425</ele>
        <time>2016-07-03T07:53:38Z</time>
      </trkpt>
      <trkpt lat="47.80564" lon="6.57896">
        <ele>425.1</ele>
        <time>2016-07-03T07:53:40Z</time>
      </trkpt>
      <trkpt lat="47.80563" lon="6.57912">
        <ele>423.8</ele>
        <time>2016-07-03T07:53:42Z</time>
      </trkpt>
      <trkpt lat="47.80565" lon="6.57928">
        <ele>422.3</ele>
        <time>2016-07-03T07:53:44Z</time>
      </trkpt>
      <trkpt lat="47.80567" lon="6.57943">
        <ele>422.4</ele>
        <time>2016-07-03T07:53:46Z</time>
      </trkpt>
      <trkpt lat="47.80571" lon="6.57956">
        <ele>421.7</ele>
        <time>2016-07-03T07:53:48Z</time>
      </trkpt>
      <trkpt lat="47.80577" lon="6.57973">
        <ele>421</ele>
        <time>2016-07-03T07:53:51Z</time>
      </trkpt>
      <trkpt lat="47.80582" lon="6.57989">
        <ele>420.8</ele>
        <time>2016-07-03T07:53:54Z</time>
      </trkpt>
      <trkpt lat="47.80589" lon="6.58002">
        <ele>420.6</ele>
        <time>2016-07-03T07:53:58Z</time>
      </trkpt>
      <trkpt lat="47.80595" lon="6.58012">
        <ele>420.5</ele>
        <time>2016-07-03T07:54:01Z</time>
      </trkpt>
      <trkpt lat="47.80602" lon="6.58023">
        <ele>419.9</ele>
        <time>2016-07-03T07:54:04Z</time>
      </trkpt>
      <trkpt lat="47.80612" lon="6.58032">
        <ele>421.9</ele>
        <time>2016-07-03T07:54:08Z</time>
      </trkpt>
      <trkpt lat="47.80622" lon="6.58036">
        <ele>425.7</ele>
        <time>2016-07-03T07:54:13Z</time>
      </trkpt>
      <trkpt lat="47.80632" lon="6.58037">
        <ele>429.5</ele>
        <time>2016-07-03T07:54:19Z</time>
      </trkpt>
      <trkpt lat="47.80641" lon="6.58045">
        <ele>430.5</ele>
        <time>2016-07-03T07:54:23Z</time>
      </trkpt>
      <trkpt lat="47.8065" lon="6.58055">
        <ele>430.7</ele>
        <time>2016-07-03T07:54:27Z</time>
      </trkpt>
      <trkpt lat="47.80659" lon="6.58066">
        <ele>430.5</ele>
        <time>2016-07-03T07:54:31Z</time>
      </trkpt>
      <trkpt lat="47.80666" lon="6.58077">
        <ele>431.5</ele>
        <time>2016-07-03T07:54:35Z</time>
      </trkpt>
      <trkpt lat="47.80673" lon="6.58088">
        <ele>430.3</ele>
        <time>2016-07-03T07:54:39Z</time>
      </trkpt>
      <trkpt lat="47.80678" lon="6.581">
        <ele>431.5</ele>
        <time>2016-07-03T07:54:42Z</time>
      </trkpt>
      <trkpt lat="47.80685" lon="6.58112">
        <ele>431.1</ele>
        <time>2016-07-03T07:54:45Z</time>
      </trkpt>
      <trkpt lat="47.80692" lon="6.58125">
        <ele>432.8</ele>
        <time>2016-07-03T07:54:49Z</time>
      </trkpt>
      <trkpt lat="47.807" lon="6.58137">
        <ele>432.1</ele>
        <time>2016-07-03T07:54:52Z</time>
      </trkpt>
      <trkpt lat="47.80708" lon="6.58144">
        <ele>432.5</ele>
        <time>2016-07-03T07:54:55Z</time>
      </trkpt>
      <trkpt lat="47.80717" lon="6.58157">
        <ele>432.4</ele>
        <time>2016-07-03T07:54:59Z</time>
      </trkpt>
      <trkpt lat="47.80726" lon="6.58166">
        <ele>431.5</ele>
        <time>2016-07-03T07:55:02Z</time>
      </trkpt>
      <trkpt lat="47.80737" lon="6.58168">
        <ele>432.9</ele>
        <time>2016-07-03T07:55:05Z</time>
      </trkpt>
      <trkpt lat="47.80747" lon="6.58177">
        <ele>435</ele>
        <time>2016-07-03T07:55:09Z</time>
      </trkpt>
      <trkpt lat="47.80758" lon="6.5818">
        <ele>439.3</ele>
        <time>2016-07-03T07:55:16Z</time>
      </trkpt>
      <trkpt lat="47.80767" lon="6.58186">
        <ele>441.7</ele>
        <time>2016-07-03T07:55:22Z</time>
      </trkpt>
      <trkpt lat="47.80777" lon="6.58189">
        <ele>442.7</ele>
        <time>2016-07-03T07:55:25Z</time>
      </trkpt>
      <trkpt lat="47.80787" lon="6.58193">
        <ele>445.1</ele>
        <time>2016-07-03T07:55:29Z</time>
      </trkpt>
      <trkpt lat="47.80799" lon="6.58196">
        <ele>446</ele>
        <time>2016-07-03T07:55:34Z</time>
      </trkpt>
      <trkpt lat="47.80808" lon="6.58203">
        <ele>445.2</ele>
        <time>2016-07-03T07:55:37Z</time>
      </trkpt>
      <trkpt lat="47.80816" lon="6.58214">
        <ele>443.3</ele>
        <time>2016-07-03T07:55:41Z</time>
      </trkpt>
      <trkpt lat="47.80825" lon="6.58225">
        <ele>443.5</ele>
        <time>2016-07-03T07:55:45Z</time>
      </trkpt>
      <trkpt lat="47.80835" lon="6.58229">
        <ele>443.8</ele>
        <time>2016-07-03T07:55:48Z</time>
      </trkpt>
      <trkpt lat="47.80845" lon="6.58229">
        <ele>447.8</ele>
        <time>2016-07-03T07:55:54Z</time>
      </trkpt>
      <trkpt lat="47.80854" lon="6.58221">
        <ele>449.7</ele>
        <time>2016-07-03T07:56:00Z</time>
      </trkpt>
      <trkpt lat="47.80864" lon="6.58217">
        <ele>453.7</ele>
        <time>2016-07-03T07:56:04Z</time>
      </trkpt>
      <trkpt lat="47.80872" lon="6.58223">
        <ele>454.4</ele>
        <time>2016-07-03T07:56:09Z</time>
      </trkpt>
      <trkpt lat="47.80884" lon="6.58222">
        <ele>456.3</ele>
        <time>2016-07-03T07:56:13Z</time>
      </trkpt>
      <trkpt lat="47.80894" lon="6.58222">
        <ele>457.9</ele>
        <time>2016-07-03T07:56:18Z</time>
      </trkpt>
      <trkpt lat="47.80904" lon="6.58221">
        <ele>458.2</ele>
        <time>2016-07-03T07:56:22Z</time>
      </trkpt>
      <trkpt lat="47.80913" lon="6.58221">
        <ele>458.2</ele>
        <time>2016-07-03T07:56:27Z</time>
      </trkpt>
      <trkpt lat="47.80924" lon="6.5822">
        <ele>458</ele>
        <time>2016-07-03T07:56:33Z</time>
      </trkpt>
      <trkpt lat="47.80934" lon="6.58215">
        <ele>456.2</ele>
        <time>2016-07-03T07:56:37Z</time>
      </trkpt>
      <trkpt lat="47.80944" lon="6.58215">
        <ele>455</ele>
        <time>2016-07-03T07:56:40Z</time>
      </trkpt>
      <trkpt lat="47.80955" lon="6.58212">
        <ele>455</ele>
        <time>2016-07-03T07:56:44Z</time>
      </trkpt>
      <trkpt lat="47.80965" lon="6.58208">
        <ele>455</ele>
        <time>2016-07-03T07:56:47Z</time>
      </trkpt>
      <trkpt lat="47.80976" lon="6.58203">
        <ele>454.6</ele>
        <time>2016-07-03T07:56:51Z</time>
      </trkpt>
      <trkpt lat="47.80984" lon="6.58195">
        <ele>456.9</ele>
        <time>2016-07-03T07:56:55Z</time>
      </trkpt>
      <trkpt lat="47.80992" lon="6.58188">
        <ele>463.7</ele>
        <time>2016-07-03T07:57:13Z</time>
      </trkpt>
      <trkpt lat="47.80999" lon="6.58179">
        <ele>467.9</ele>
        <time>2016-07-03T07:57:29Z</time>
      </trkpt>
      <trkpt lat="47.81007" lon="6.58187">
        <ele>466.4</ele>
        <time>2016-07-03T07:57:38Z</time>
      </trkpt>
      <trkpt lat="47.81014" lon="6.58196">
        <ele>466</ele>
        <time>2016-07-03T07:57:42Z</time>
      </trkpt>
      <trkpt lat="47.81022" lon="6.58204">
        <ele>465.4</ele>
        <time>2016-07-03T07:57:46Z</time>
      </trkpt>
      <trkpt lat="47.8103" lon="6.58211">
        <ele>466</ele>
        <time>2016-07-03T07:57:56Z</time>
      </trkpt>
      <trkpt lat="47.81038" lon="6.5822">
        <ele>467</ele>
        <time>2016-07-03T07:58:07Z</time>
      </trkpt>
      <trkpt lat="47.81045" lon="6.58228">
        <ele>467.3</ele>
        <time>2016-07-03T07:58:11Z</time>
      </trkpt>
      <trkpt lat="47.81053" lon="6.58236">
        <ele>466.8</ele>
        <time>2016-07-03T07:58:15Z</time>
      </trkpt>
      <trkpt lat="47.8106" lon="6.58248">
        <ele>467.2</ele>
        <time>2016-07-03T07:58:20Z</time>
      </trkpt>
      <trkpt lat="47.81067" lon="6.58259">
        <ele>465.6</ele>
        <time>2016-07-03T07:58:23Z</time>
      </trkpt>
      <trkpt lat="47.81074" lon="6.58267">
        <ele>465.7</ele>
        <time>2016-07-03T07:58:26Z</time>
      </trkpt>
      <trkpt lat="47.81079" lon="6.58281">
        <ele>461.8</ele>
        <time>2016-07-03T07:58:30Z</time>
      </trkpt>
      <trkpt lat="47.81083" lon="6.58296">
        <ele>461.8</ele>
        <time>2016-07-03T07:58:34Z</time>
      </trkpt>
      <trkpt lat="47.81089" lon="6.58312">
        <ele>460</ele>
        <time>2016-07-03T07:58:38Z</time>
      </trkpt>
      <trkpt lat="47.81093" lon="6.58325">
        <ele>457.1</ele>
        <time>2016-07-03T07:58:42Z</time>
      </trkpt>
      <trkpt lat="47.81096" lon="6.58337">
        <ele>455.1</ele>
        <time>2016-07-03T07:58:45Z</time>
      </trkpt>
      <trkpt lat="47.81102" lon="6.58348">
        <ele>453.7</ele>
        <time>2016-07-03T07:58:48Z</time>
      </trkpt>
      <trkpt lat="47.81102" lon="6.58362">
        <ele>451.3</ele>
        <time>2016-07-03T07:58:52Z</time>
      </trkpt>
      <trkpt lat="47.81106" lon="6.58375">
        <ele>447.5</ele>
        <time>2016-07-03T07:58:55Z</time>
      </trkpt>
      <trkpt lat="47.81103" lon="6.5839">
        <ele>448</ele>
        <time>2016-07-03T07:58:58Z</time>
      </trkpt>
      <trkpt lat="47.81105" lon="6.58404">
        <ele>451</ele>
        <time>2016-07-03T07:59:01Z</time>
      </trkpt>
      <trkpt lat="47.81108" lon="6.58421">
        <ele>453.7</ele>
        <time>2016-07-03T07:59:05Z</time>
      </trkpt>
      <trkpt lat="47.81112" lon="6.58434">
        <ele>454.8</ele>
        <time>2016-07-03T07:59:08Z</time>
      </trkpt>
      <trkpt lat="47.81116" lon="6.58448">
        <ele>454.1</ele>
        <time>2016-07-03T07:59:11Z</time>
      </trkpt>
      <trkpt lat="47.81124" lon="6.58463">
        <ele>454.5</ele>
        <time>2016-07-03T07:59:14Z</time>
      </trkpt>
      <trkpt lat="47.81129" lon="6.58474">
        <ele>454.6</ele>
        <time>2016-07-03T07:59:16Z</time>
      </trkpt>
      <trkpt lat="47.81135" lon="6.58491">
        <ele>457.4</ele>
        <time>2016-07-03T07:59:19Z</time>
      </trkpt>
      <trkpt lat="47.81142" lon="6.58507">
        <ele>459.5</ele>
        <time>2016-07-03T07:59:22Z</time>
      </trkpt>
      <trkpt lat="47.8115" lon="6.58523">
        <ele>462.2</ele>
        <time>2016-07-03T07:59:25Z</time>
      </trkpt>
      <trkpt lat="47.81157" lon="6.58539">
        <ele>462.6</ele>
        <time>2016-07-03T07:59:28Z</time>
      </trkpt>
      <trkpt lat="47.81164" lon="6.58555">
        <ele>464.6</ele>
        <time>2016-07-03T07:59:31Z</time>
      </trkpt>
      <trkpt lat="47.8117" lon="6.58571">
        <ele>467.2</ele>
        <time>2016-07-03T07:59:34Z</time>
      </trkpt>
      <trkpt lat="47.81177" lon="6.58587">
        <ele>466.8</ele>
        <time>2016-07-03T07:59:37Z</time>
      </trkpt>
      <trkpt lat="47.81185" lon="6.58603">
        <ele>467.6</ele>
        <time>2016-07-03T07:59:40Z</time>
      </trkpt>
      <trkpt lat="47.81189" lon="6.58615">
        <ele>468.6</ele>
        <time>2016-07-03T07:59:42Z</time>
      </trkpt>
      <trkpt lat="47.81192" lon="6.58628">
        <ele>468.3</ele>
        <time>2016-07-03T07:59:44Z</time>
      </trkpt>
      <trkpt lat="47.81196" lon="6.58641">
        <ele>468.4</ele>
        <time>2016-07-03T07:59:46Z</time>
      </trkpt>
      <trkpt lat="47.81202" lon="6.58654">
        <ele>467.9</ele>
        <time>2016-07-03T07:59:48Z</time>
      </trkpt>
      <trkpt lat="47.81207" lon="6.58667">
        <ele>466.7</ele>
        <time>2016-07-03T07:59:50Z</time>
      </trkpt>
      <trkpt lat="47.81212" lon="6.58679">
        <ele>466.3</ele>
        <time>2016-07-03T07:59:52Z</time>
      </trkpt>
      <trkpt lat="47.81218" lon="6.58691">
        <ele>466.6</ele>
        <time>2016-07-03T07:59:54Z</time>
      </trkpt>
      <trkpt lat="47.81228" lon="6.58703">
        <ele>466.8</ele>
        <time>2016-07-03T07:59:57Z</time>
      </trkpt>
      <trkpt lat="47.81237" lon="6.58705">
        <ele>466.5</ele>
        <time>2016-07-03T07:59:59Z</time>
      </trkpt>
      <trkpt lat="47.81247" lon="6.58702">
        <ele>465.8</ele>
        <time>2016-07-03T08:00:01Z</time>
      </trkpt>
      <trkpt lat="47.81257" lon="6.58698">
        <ele>465.9</ele>
        <time>2016-07-03T08:00:03Z</time>
      </trkpt>
      <trkpt lat="47.81269" lon="6.58694">
        <ele>464</ele>
        <time>2016-07-03T08:00:05Z</time>
      </trkpt>
      <trkpt lat="47.81281" lon="6.58692">
        <ele>464.4</ele>
        <time>2016-07-03T08:00:07Z</time>
      </trkpt>
      <trkpt lat="47.8129" lon="6.58688">
        <ele>464.1</ele>
        <time>2016-07-03T08:00:09Z</time>
      </trkpt>
      <trkpt lat="47.81296" lon="6.58675">
        <ele>463</ele>
        <time>2016-07-03T08:00:11Z</time>
      </trkpt>
      <trkpt lat="47.81304" lon="6.58657">
        <ele>463.5</ele>
        <time>2016-07-03T08:00:14Z</time>
      </trkpt>
      <trkpt lat="47.81312" lon="6.58645">
        <ele>463.6</ele>
        <time>2016-07-03T08:00:16Z</time>
      </trkpt>
      <trkpt lat="47.81321" lon="6.58632">
        <ele>464.4</ele>
        <time>2016-07-03T08:00:18Z</time>
      </trkpt>
      <trkpt lat="47.81331" lon="6.58622">
        <ele>466.1</ele>
        <time>2016-07-03T08:00:20Z</time>
      </trkpt>
      <trkpt lat="47.81341" lon="6.58614">
        <ele>467.3</ele>
        <time>2016-07-03T08:00:22Z</time>
      </trkpt>
      <trkpt lat="47.81351" lon="6.58605">
        <ele>467.7</ele>
        <time>2016-07-03T08:00:24Z</time>
      </trkpt>
      <trkpt lat="47.8136" lon="6.58596">
        <ele>467.9</ele>
        <time>2016-07-03T08:00:26Z</time>
      </trkpt>
      <trkpt lat="47.81369" lon="6.58585">
        <ele>468</ele>
        <time>2016-07-03T08:00:28Z</time>
      </trkpt>
      <trkpt lat="47.81376" lon="6.58574">
        <ele>467.8</ele>
        <time>2016-07-03T08:00:30Z</time>
      </trkpt>
      <trkpt lat="47.81385" lon="6.58564">
        <ele>467.2</ele>
        <time>2016-07-03T08:00:32Z</time>
      </trkpt>
      <trkpt lat="47.81394" lon="6.58552">
        <ele>467</ele>
        <time>2016-07-03T08:00:34Z</time>
      </trkpt>
      <trkpt lat="47.814" lon="6.58539">
        <ele>467.2</ele>
        <time>2016-07-03T08:00:36Z</time>
      </trkpt>
      <trkpt lat="47.81404" lon="6.58526">
        <ele>467.5</ele>
        <time>2016-07-03T08:00:38Z</time>
      </trkpt>
      <trkpt lat="47.81411" lon="6.58514">
        <ele>467.2</ele>
        <time>2016-07-03T08:00:40Z</time>
      </trkpt>
      <trkpt lat="47.81418" lon="6.58506">
        <ele>467</ele>
        <time>2016-07-03T08:00:42Z</time>
      </trkpt>
      <trkpt lat="47.81426" lon="6.58497">
        <ele>466.8</ele>
        <time>2016-07-03T08:00:44Z</time>
      </trkpt>
      <trkpt lat="47.81433" lon="6.58487">
        <ele>466.7</ele>
        <time>2016-07-03T08:00:46Z</time>
      </trkpt>
      <trkpt lat="47.81442" lon="6.58472">
        <ele>467</ele>
        <time>2016-07-03T08:00:48Z</time>
      </trkpt>
      <trkpt lat="47.81448" lon="6.58461">
        <ele>467.2</ele>
        <time>2016-07-03T08:00:50Z</time>
      </trkpt>
      <trkpt lat="47.81457" lon="6.58449">
        <ele>465.7</ele>
        <time>2016-07-03T08:00:52Z</time>
      </trkpt>
      <trkpt lat="47.81467" lon="6.5844">
        <ele>464.3</ele>
        <time>2016-07-03T08:00:54Z</time>
      </trkpt>
      <trkpt lat="47.8148" lon="6.58439">
        <ele>462.2</ele>
        <time>2016-07-03T08:00:56Z</time>
      </trkpt>
      <trkpt lat="47.81491" lon="6.58441">
        <ele>461.6</ele>
        <time>2016-07-03T08:00:58Z</time>
      </trkpt>
      <trkpt lat="47.81502" lon="6.58445">
        <ele>460.8</ele>
        <time>2016-07-03T08:01:00Z</time>
      </trkpt>
      <trkpt lat="47.81513" lon="6.58442">
        <ele>460.3</ele>
        <time>2016-07-03T08:01:02Z</time>
      </trkpt>
      <trkpt lat="47.81527" lon="6.58432">
        <ele>467.5</ele>
        <time>2016-07-03T08:01:04Z</time>
      </trkpt>
      <trkpt lat="47.81536" lon="6.58417">
        <ele>471.2</ele>
        <time>2016-07-03T08:01:06Z</time>
      </trkpt>
      <trkpt lat="47.81541" lon="6.58404">
        <ele>474.2</ele>
        <time>2016-07-03T08:01:08Z</time>
      </trkpt>
      <trkpt lat="47.81552" lon="6.58404">
        <ele>472.7</ele>
        <time>2016-07-03T08:01:11Z</time>
      </trkpt>
      <trkpt lat="47.81562" lon="6.5841">
        <ele>471.9</ele>
        <time>2016-07-03T08:01:13Z</time>
      </trkpt>
      <trkpt lat="47.81572" lon="6.58416">
        <ele>471.9</ele>
        <time>2016-07-03T08:01:15Z</time>
      </trkpt>
      <trkpt lat="47.81582" lon="6.58423">
        <ele>471.5</ele>
        <time>2016-07-03T08:01:17Z</time>
      </trkpt>
      <trkpt lat="47.81592" lon="6.58431">
        <ele>471.2</ele>
        <time>2016-07-03T08:01:19Z</time>
      </trkpt>
      <trkpt lat="47.81601" lon="6.5844">
        <ele>470.2</ele>
        <time>2016-07-03T08:01:21Z</time>
      </trkpt>
      <trkpt lat="47.81607" lon="6.58453">
        <ele>468.7</ele>
        <time>2016-07-03T08:01:23Z</time>
      </trkpt>
      <trkpt lat="47.8161" lon="6.58471">
        <ele>466.7</ele>
        <time>2016-07-03T08:01:26Z</time>
      </trkpt>
      <trkpt lat="47.81611" lon="6.58489">
        <ele>464.9</ele>
        <time>2016-07-03T08:01:29Z</time>
      </trkpt>
      <trkpt lat="47.81612" lon="6.58504">
        <ele>464</ele>
        <time>2016-07-03T08:01:31Z</time>
      </trkpt>
      <trkpt lat="47.81612" lon="6.5852">
        <ele>458.7</ele>
        <time>2016-07-03T08:01:33Z</time>
      </trkpt>
      <trkpt lat="47.81608" lon="6.58536">
        <ele>457</ele>
        <time>2016-07-03T08:01:36Z</time>
      </trkpt>
      <trkpt lat="47.81601" lon="6.58554">
        <ele>451</ele>
        <time>2016-07-03T08:01:39Z</time>
      </trkpt>
      <trkpt lat="47.81597" lon="6.58566">
        <ele>449.5</ele>
        <time>2016-07-03T08:01:41Z</time>
      </trkpt>
      <trkpt lat="47.8159" lon="6.58581">
        <ele>447.8</ele>
        <time>2016-07-03T08:01:43Z</time>
      </trkpt>
      <trkpt lat="47.81582" lon="6.58597">
        <ele>449.2</ele>
        <time>2016-07-03T08:01:45Z</time>
      </trkpt>
      <trkpt lat="47.81577" lon="6.58613">
        <ele>449.1</ele>
        <time>2016-07-03T08:01:47Z</time>
      </trkpt>
      <trkpt lat="47.81571" lon="6.5863">
        <ele>451.2</ele>
        <time>2016-07-03T08:01:49Z</time>
      </trkpt>
      <trkpt lat="47.81568" lon="6.58647">
        <ele>452.5</ele>
        <time>2016-07-03T08:01:51Z</time>
      </trkpt>
      <trkpt lat="47.81566" lon="6.58664">
        <ele>454.7</ele>
        <time>2016-07-03T08:01:53Z</time>
      </trkpt>
      <trkpt lat="47.81565" lon="6.58681">
        <ele>456.9</ele>
        <time>2016-07-03T08:01:55Z</time>
      </trkpt>
      <trkpt lat="47.81566" lon="6.58696">
        <ele>458.8</ele>
        <time>2016-07-03T08:01:57Z</time>
      </trkpt>
      <trkpt lat="47.81566" lon="6.58712">
        <ele>459.6</ele>
        <time>2016-07-03T08:01:59Z</time>
      </trkpt>
      <trkpt lat="47.81567" lon="6.58727">
        <ele>460.5</ele>
        <time>2016-07-03T08:02:01Z</time>
      </trkpt>
      <trkpt lat="47.81568" lon="6.58744">
        <ele>460</ele>
        <time>2016-07-03T08:02:03Z</time>
      </trkpt>
      <trkpt lat="47.81569" lon="6.5876">
        <ele>459.5</ele>
        <time>2016-07-03T08:02:05Z</time>
      </trkpt>
      <trkpt lat="47.81569" lon="6.58779">
        <ele>459.1</ele>
        <time>2016-07-03T08:02:07Z</time>
      </trkpt>
      <trkpt lat="47.81568" lon="6.58799">
        <ele>458.1</ele>
        <time>2016-07-03T08:02:09Z</time>
      </trkpt>
      <trkpt lat="47.81567" lon="6.58818">
        <ele>457.9</ele>
        <time>2016-07-03T08:02:11Z</time>
      </trkpt>
      <trkpt lat="47.81559" lon="6.58834">
        <ele>456.6</ele>
        <time>2016-07-03T08:02:13Z</time>
      </trkpt>
      <trkpt lat="47.81552" lon="6.58846">
        <ele>456.6</ele>
        <time>2016-07-03T08:02:15Z</time>
      </trkpt>
      <trkpt lat="47.81545" lon="6.5886">
        <ele>456.7</ele>
        <time>2016-07-03T08:02:17Z</time>
      </trkpt>
      <trkpt lat="47.81541" lon="6.58878">
        <ele>456.2</ele>
        <time>2016-07-03T08:02:19Z</time>
      </trkpt>
      <trkpt lat="47.81539" lon="6.58897">
        <ele>456.6</ele>
        <time>2016-07-03T08:02:21Z</time>
      </trkpt>
      <trkpt lat="47.81538" lon="6.58914">
        <ele>456.5</ele>
        <time>2016-07-03T08:02:23Z</time>
      </trkpt>
      <trkpt lat="47.81536" lon="6.58929">
        <ele>455.4</ele>
        <time>2016-07-03T08:02:25Z</time>
      </trkpt>
      <trkpt lat="47.81534" lon="6.58945">
        <ele>455.2</ele>
        <time>2016-07-03T08:02:27Z</time>
      </trkpt>
      <trkpt lat="47.81532" lon="6.58961">
        <ele>455.3</ele>
        <time>2016-07-03T08:02:29Z</time>
      </trkpt>
      <trkpt lat="47.81528" lon="6.58976">
        <ele>457.3</ele>
        <time>2016-07-03T08:02:31Z</time>
      </trkpt>
      <trkpt lat="47.81522" lon="6.58989">
        <ele>458.1</ele>
        <time>2016-07-03T08:02:34Z</time>
      </trkpt>
      <trkpt lat="47.81513" lon="6.59002">
        <ele>456.4</ele>
        <time>2016-07-03T08:02:37Z</time>
      </trkpt>
      <trkpt lat="47.81511" lon="6.59017">
        <ele>457.3</ele>
        <time>2016-07-03T08:02:39Z</time>
      </trkpt>
      <trkpt lat="47.81512" lon="6.59039">
        <ele>457.9</ele>
        <time>2016-07-03T08:02:41Z</time>
      </trkpt>
      <trkpt lat="47.81511" lon="6.59064">
        <ele>453.9</ele>
        <time>2016-07-03T08:02:43Z</time>
      </trkpt>
      <trkpt lat="47.81509" lon="6.59077">
        <ele>452.5</ele>
        <time>2016-07-03T08:02:44Z</time>
      </trkpt>
      <trkpt lat="47.81506" lon="6.59099">
        <ele>451.1</ele>
        <time>2016-07-03T08:02:46Z</time>
      </trkpt>
      <trkpt lat="47.81507" lon="6.59122">
        <ele>450.6</ele>
        <time>2016-07-03T08:02:48Z</time>
      </trkpt>
      <trkpt lat="47.81509" lon="6.59146">
        <ele>449.1</ele>
        <time>2016-07-03T08:02:50Z</time>
      </trkpt>
      <trkpt lat="47.81508" lon="6.59169">
        <ele>448.7</ele>
        <time>2016-07-03T08:02:52Z</time>
      </trkpt>
      <trkpt lat="47.81507" lon="6.59192">
        <ele>447.9</ele>
        <time>2016-07-03T08:02:54Z</time>
      </trkpt>
      <trkpt lat="47.81506" lon="6.59214">
        <ele>449</ele>
        <time>2016-07-03T08:02:56Z</time>
      </trkpt>
      <trkpt lat="47.81507" lon="6.59236">
        <ele>450</ele>
        <time>2016-07-03T08:02:58Z</time>
      </trkpt>
      <trkpt lat="47.81508" lon="6.59257">
        <ele>451.7</ele>
        <time>2016-07-03T08:03:00Z</time>
      </trkpt>
      <trkpt lat="47.81509" lon="6.59277">
        <ele>450.8</ele>
        <time>2016-07-03T08:03:02Z</time>
      </trkpt>
      <trkpt lat="47.81509" lon="6.59296">
        <ele>450.3</ele>
        <time>2016-07-03T08:03:04Z</time>
      </trkpt>
      <trkpt lat="47.81508" lon="6.59315">
        <ele>450.4</ele>
        <time>2016-07-03T08:03:06Z</time>
      </trkpt>
      <trkpt lat="47.81505" lon="6.59332">
        <ele>449.4</ele>
        <time>2016-07-03T08:03:08Z</time>
      </trkpt>
      <trkpt lat="47.81506" lon="6.59353">
        <ele>448.6</ele>
        <time>2016-07-03T08:03:11Z</time>
      </trkpt>
      <trkpt lat="47.81511" lon="6.59367">
        <ele>448.4</ele>
        <time>2016-07-03T08:03:13Z</time>
      </trkpt>
      <trkpt lat="47.81516" lon="6.59383">
        <ele>447.9</ele>
        <time>2016-07-03T08:03:15Z</time>
      </trkpt>
      <trkpt lat="47.81522" lon="6.59396">
        <ele>448.4</ele>
        <time>2016-07-03T08:03:17Z</time>
      </trkpt>
      <trkpt lat="47.81529" lon="6.59407">
        <ele>449.5</ele>
        <time>2016-07-03T08:03:19Z</time>
      </trkpt>
      <trkpt lat="47.81539" lon="6.59418">
        <ele>449</ele>
        <time>2016-07-03T08:03:22Z</time>
      </trkpt>
      <trkpt lat="47.81551" lon="6.59424">
        <ele>449.8</ele>
        <time>2016-07-03T08:03:25Z</time>
      </trkpt>
      <trkpt lat="47.81562" lon="6.59432">
        <ele>448.8</ele>
        <time>2016-07-03T08:03:28Z</time>
      </trkpt>
      <trkpt lat="47.81573" lon="6.59438">
        <ele>449.5</ele>
        <time>2016-07-03T08:03:30Z</time>
      </trkpt>
      <trkpt lat="47.8158" lon="6.59449">
        <ele>449.2</ele>
        <time>2016-07-03T08:03:32Z</time>
      </trkpt>
      <trkpt lat="47.81585" lon="6.5946">
        <ele>448.8</ele>
        <time>2016-07-03T08:03:34Z</time>
      </trkpt>
      <trkpt lat="47.8159" lon="6.59475">
        <ele>448.5</ele>
        <time>2016-07-03T08:03:37Z</time>
      </trkpt>
      <trkpt lat="47.81601" lon="6.59483">
        <ele>449.2</ele>
        <time>2016-07-03T08:03:39Z</time>
      </trkpt>
      <trkpt lat="47.81606" lon="6.59496">
        <ele>450.8</ele>
        <time>2016-07-03T08:03:42Z</time>
      </trkpt>
      <trkpt lat="47.81607" lon="6.59512">
        <ele>451.1</ele>
        <time>2016-07-03T08:03:45Z</time>
      </trkpt>
      <trkpt lat="47.81606" lon="6.5953">
        <ele>451.9</ele>
        <time>2016-07-03T08:03:48Z</time>
      </trkpt>
      <trkpt lat="47.8161" lon="6.59546">
        <ele>452.7</ele>
        <time>2016-07-03T08:03:51Z</time>
      </trkpt>
      <trkpt lat="47.81612" lon="6.59559">
        <ele>452.7</ele>
        <time>2016-07-03T08:03:53Z</time>
      </trkpt>
      <trkpt lat="47.81613" lon="6.59577">
        <ele>453</ele>
        <time>2016-07-03T08:03:55Z</time>
      </trkpt>
      <trkpt lat="47.81615" lon="6.59594">
        <ele>452.8</ele>
        <time>2016-07-03T08:03:57Z</time>
      </trkpt>
      <trkpt lat="47.81617" lon="6.59612">
        <ele>454.4</ele>
        <time>2016-07-03T08:04:00Z</time>
      </trkpt>
      <trkpt lat="47.81618" lon="6.59631">
        <ele>456.3</ele>
        <time>2016-07-03T08:04:03Z</time>
      </trkpt>
      <trkpt lat="47.81621" lon="6.59648">
        <ele>457.6</ele>
        <time>2016-07-03T08:04:06Z</time>
      </trkpt>
      <trkpt lat="47.81626" lon="6.59665">
        <ele>461.3</ele>
        <time>2016-07-03T08:04:09Z</time>
      </trkpt>
      <trkpt lat="47.81632" lon="6.59677">
        <ele>463.9</ele>
        <time>2016-07-03T08:04:13Z</time>
      </trkpt>
      <trkpt lat="47.81635" lon="6.59693">
        <ele>463.2</ele>
        <time>2016-07-03T08:04:16Z</time>
      </trkpt>
      <trkpt lat="47.8164" lon="6.5971">
        <ele>463.7</ele>
        <time>2016-07-03T08:04:19Z</time>
      </trkpt>
      <trkpt lat="47.81649" lon="6.59724">
        <ele>464.1</ele>
        <time>2016-07-03T08:04:22Z</time>
      </trkpt>
      <trkpt lat="47.81657" lon="6.59732">
        <ele>464.7</ele>
        <time>2016-07-03T08:04:24Z</time>
      </trkpt>
      <trkpt lat="47.81665" lon="6.5974">
        <ele>464.7</ele>
        <time>2016-07-03T08:04:26Z</time>
      </trkpt>
      <trkpt lat="47.81676" lon="6.59753">
        <ele>463.2</ele>
        <time>2016-07-03T08:04:29Z</time>
      </trkpt>
      <trkpt lat="47.81686" lon="6.59765">
        <ele>462.5</ele>
        <time>2016-07-03T08:04:32Z</time>
      </trkpt>
      <trkpt lat="47.81697" lon="6.59772">
        <ele>460.5</ele>
        <time>2016-07-03T08:04:35Z</time>
      </trkpt>
      <trkpt lat="47.81706" lon="6.5978">
        <ele>459.4</ele>
        <time>2016-07-03T08:04:38Z</time>
      </trkpt>
      <trkpt lat="47.81715" lon="6.59784">
        <ele>458</ele>
        <time>2016-07-03T08:04:40Z</time>
      </trkpt>
      <trkpt lat="47.81726" lon="6.59791">
        <ele>458.3</ele>
        <time>2016-07-03T08:04:43Z</time>
      </trkpt>
      <trkpt lat="47.81737" lon="6.59799">
        <ele>458.8</ele>
        <time>2016-07-03T08:04:46Z</time>
      </trkpt>
      <trkpt lat="47.81746" lon="6.59808">
        <ele>458.3</ele>
        <time>2016-07-03T08:04:49Z</time>
      </trkpt>
      <trkpt lat="47.81756" lon="6.59816">
        <ele>458.1</ele>
        <time>2016-07-03T08:04:52Z</time>
      </trkpt>
      <trkpt lat="47.81763" lon="6.5983">
        <ele>457.8</ele>
        <time>2016-07-03T08:04:55Z</time>
      </trkpt>
      <trkpt lat="47.81768" lon="6.59841">
        <ele>456.5</ele>
        <time>2016-07-03T08:04:58Z</time>
      </trkpt>
      <trkpt lat="47.81774" lon="6.59857">
        <ele>459.6</ele>
        <time>2016-07-03T08:05:02Z</time>
      </trkpt>
      <trkpt lat="47.81773" lon="6.59875">
        <ele>459.3</ele>
        <time>2016-07-03T08:05:05Z</time>
      </trkpt>
      <trkpt lat="47.81771" lon="6.59889">
        <ele>459.6</ele>
        <time>2016-07-03T08:05:07Z</time>
      </trkpt>
      <trkpt lat="47.81769" lon="6.59902">
        <ele>458.8</ele>
        <time>2016-07-03T08:05:09Z</time>
      </trkpt>
      <trkpt lat="47.81767" lon="6.59916">
        <ele>459</ele>
        <time>2016-07-03T08:05:11Z</time>
      </trkpt>
      <trkpt lat="47.81765" lon="6.59931">
        <ele>459.4</ele>
        <time>2016-07-03T08:05:13Z</time>
      </trkpt>
      <trkpt lat="47.81763" lon="6.59946">
        <ele>459.3</ele>
        <time>2016-07-03T08:05:15Z</time>
      </trkpt>
      <trkpt lat="47.81762" lon="6.5996">
        <ele>460.5</ele>
        <time>2016-07-03T08:05:17Z</time>
      </trkpt>
      <trkpt lat="47.8176" lon="6.59978">
        <ele>461.7</ele>
        <time>2016-07-03T08:05:20Z</time>
      </trkpt>
      <trkpt lat="47.81759" lon="6.59992">
        <ele>463.3</ele>
        <time>2016-07-03T08:05:22Z</time>
      </trkpt>
      <trkpt lat="47.81757" lon="6.60006">
        <ele>466.2</ele>
        <time>2016-07-03T08:05:25Z</time>
      </trkpt>
      <trkpt lat="47.81757" lon="6.60021">
        <ele>468.6</ele>
        <time>2016-07-03T08:05:28Z</time>
      </trkpt>
      <trkpt lat="47.81759" lon="6.60038">
        <ele>471.2</ele>
        <time>2016-07-03T08:05:31Z</time>
      </trkpt>
      <trkpt lat="47.81763" lon="6.60051">
        <ele>471.1</ele>
        <time>2016-07-03T08:05:34Z</time>
      </trkpt>
      <trkpt lat="47.81763" lon="6.60065">
        <ele>470.9</ele>
        <time>2016-07-03T08:05:36Z</time>
      </trkpt>
      <trkpt lat="47.81757" lon="6.6008">
        <ele>469.9</ele>
        <time>2016-07-03T08:05:39Z</time>
      </trkpt>
      <trkpt lat="47.81752" lon="6.60097">
        <ele>469.1</ele>
        <time>2016-07-03T08:05:41Z</time>
      </trkpt>
      <trkpt lat="47.81746" lon="6.60113">
        <ele>467.8</ele>
        <time>2016-07-03T08:05:43Z</time>
      </trkpt>
      <trkpt lat="47.8174" lon="6.6013">
        <ele>465.2</ele>
        <time>2016-07-03T08:05:45Z</time>
      </trkpt>
      <trkpt lat="47.81738" lon="6.60147">
        <ele>465.1</ele>
        <time>2016-07-03T08:05:47Z</time>
      </trkpt>
      <trkpt lat="47.81737" lon="6.60164">
        <ele>464.8</ele>
        <time>2016-07-03T08:05:49Z</time>
      </trkpt>
      <trkpt lat="47.81737" lon="6.60182">
        <ele>465.9</ele>
        <time>2016-07-03T08:05:51Z</time>
      </trkpt>
      <trkpt lat="47.8174" lon="6.60199">
        <ele>464.2</ele>
        <time>2016-07-03T08:05:53Z</time>
      </trkpt>
      <trkpt lat="47.81743" lon="6.60216">
        <ele>463.6</ele>
        <time>2016-07-03T08:05:55Z</time>
      </trkpt>
      <trkpt lat="47.81744" lon="6.60234">
        <ele>465.3</ele>
        <time>2016-07-03T08:05:57Z</time>
      </trkpt>
      <trkpt lat="47.81746" lon="6.60251">
        <ele>466</ele>
        <time>2016-07-03T08:05:59Z</time>
      </trkpt>
      <trkpt lat="47.81754" lon="6.60265">
        <ele>464.9</ele>
        <time>2016-07-03T08:06:02Z</time>
      </trkpt>
      <trkpt lat="47.81765" lon="6.60271">
        <ele>465.8</ele>
        <time>2016-07-03T08:06:05Z</time>
      </trkpt>
      <trkpt lat="47.81774" lon="6.60276">
        <ele>467.1</ele>
        <time>2016-07-03T08:06:08Z</time>
      </trkpt>
      <trkpt lat="47.81784" lon="6.60284">
        <ele>467.5</ele>
        <time>2016-07-03T08:06:12Z</time>
      </trkpt>
      <trkpt lat="47.81794" lon="6.60292">
        <ele>468.8</ele>
        <time>2016-07-03T08:06:16Z</time>
      </trkpt>
      <trkpt lat="47.81803" lon="6.60297">
        <ele>469.8</ele>
        <time>2016-07-03T08:06:20Z</time>
      </trkpt>
      <trkpt lat="47.81812" lon="6.6029">
        <ele>472.2</ele>
        <time>2016-07-03T08:06:24Z</time>
      </trkpt>
      <trkpt lat="47.81819" lon="6.60278">
        <ele>473.6</ele>
        <time>2016-07-03T08:06:28Z</time>
      </trkpt>
      <trkpt lat="47.81825" lon="6.60266">
        <ele>475.3</ele>
        <time>2016-07-03T08:06:33Z</time>
      </trkpt>
      <trkpt lat="47.8183" lon="6.60252">
        <ele>477.2</ele>
        <time>2016-07-03T08:06:39Z</time>
      </trkpt>
      <trkpt lat="47.81837" lon="6.60243">
        <ele>478</ele>
        <time>2016-07-03T08:06:44Z</time>
      </trkpt>
      <trkpt lat="47.81842" lon="6.60229">
        <ele>481</ele>
        <time>2016-07-03T08:06:50Z</time>
      </trkpt>
      <trkpt lat="47.81846" lon="6.60213">
        <ele>483.6</ele>
        <time>2016-07-03T08:06:55Z</time>
      </trkpt>
      <trkpt lat="47.8185" lon="6.602">
        <ele>486.3</ele>
        <time>2016-07-03T08:06:59Z</time>
      </trkpt>
      <trkpt lat="47.81855" lon="6.60189">
        <ele>486.5</ele>
        <time>2016-07-03T08:07:02Z</time>
      </trkpt>
      <trkpt lat="47.81861" lon="6.60177">
        <ele>485.7</ele>
        <time>2016-07-03T08:07:05Z</time>
      </trkpt>
      <trkpt lat="47.81868" lon="6.60166">
        <ele>484.9</ele>
        <time>2016-07-03T08:07:08Z</time>
      </trkpt>
      <trkpt lat="47.81876" lon="6.60154">
        <ele>484.7</ele>
        <time>2016-07-03T08:07:11Z</time>
      </trkpt>
      <trkpt lat="47.81885" lon="6.60144">
        <ele>485</ele>
        <time>2016-07-03T08:07:14Z</time>
      </trkpt>
      <trkpt lat="47.81892" lon="6.60133">
        <ele>485.9</ele>
        <time>2016-07-03T08:07:17Z</time>
      </trkpt>
      <trkpt lat="47.81898" lon="6.60118">
        <ele>486.1</ele>
        <time>2016-07-03T08:07:21Z</time>
      </trkpt>
      <trkpt lat="47.81902" lon="6.60105">
        <ele>487.3</ele>
        <time>2016-07-03T08:07:24Z</time>
      </trkpt>
      <trkpt lat="47.81907" lon="6.60089">
        <ele>489.3</ele>
        <time>2016-07-03T08:07:28Z</time>
      </trkpt>
      <trkpt lat="47.81909" lon="6.60074">
        <ele>490.4</ele>
        <time>2016-07-03T08:07:31Z</time>
      </trkpt>
      <trkpt lat="47.81914" lon="6.6006">
        <ele>492.2</ele>
        <time>2016-07-03T08:07:34Z</time>
      </trkpt>
      <trkpt lat="47.81918" lon="6.60048">
        <ele>493.6</ele>
        <time>2016-07-03T08:07:37Z</time>
      </trkpt>
      <trkpt lat="47.81922" lon="6.60035">
        <ele>494.5</ele>
        <time>2016-07-03T08:07:40Z</time>
      </trkpt>
      <trkpt lat="47.81925" lon="6.60022">
        <ele>495.7</ele>
        <time>2016-07-03T08:07:43Z</time>
      </trkpt>
      <trkpt lat="47.81928" lon="6.60009">
        <ele>496.2</ele>
        <time>2016-07-03T08:07:46Z</time>
      </trkpt>
      <trkpt lat="47.81931" lon="6.59992">
        <ele>497.9</ele>
        <time>2016-07-03T08:07:50Z</time>
      </trkpt>
      <trkpt lat="47.81933" lon="6.59978">
        <ele>499</ele>
        <time>2016-07-03T08:07:53Z</time>
      </trkpt>
      <trkpt lat="47.81935" lon="6.59963">
        <ele>500.5</ele>
        <time>2016-07-03T08:07:56Z</time>
      </trkpt>
      <trkpt lat="47.81936" lon="6.59949">
        <ele>500.9</ele>
        <time>2016-07-03T08:07:59Z</time>
      </trkpt>
      <trkpt lat="47.81937" lon="6.59934">
        <ele>501.9</ele>
        <time>2016-07-03T08:08:02Z</time>
      </trkpt>
      <trkpt lat="47.81938" lon="6.59919">
        <ele>502.2</ele>
        <time>2016-07-03T08:08:05Z</time>
      </trkpt>
      <trkpt lat="47.81939" lon="6.59905">
        <ele>502.3</ele>
        <time>2016-07-03T08:08:08Z</time>
      </trkpt>
      <trkpt lat="47.8194" lon="6.5989">
        <ele>502.3</ele>
        <time>2016-07-03T08:08:11Z</time>
      </trkpt>
      <trkpt lat="47.81943" lon="6.59877">
        <ele>502.8</ele>
        <time>2016-07-03T08:08:14Z</time>
      </trkpt>
      <trkpt lat="47.81946" lon="6.59864">
        <ele>502.9</ele>
        <time>2016-07-03T08:08:17Z</time>
      </trkpt>
      <trkpt lat="47.8195" lon="6.5985">
        <ele>503.1</ele>
        <time>2016-07-03T08:08:20Z</time>
      </trkpt>
      <trkpt lat="47.81953" lon="6.59836">
        <ele>503.8</ele>
        <time>2016-07-03T08:08:23Z</time>
      </trkpt>
      <trkpt lat="47.81955" lon="6.59822">
        <ele>504.1</ele>
        <time>2016-07-03T08:08:26Z</time>
      </trkpt>
      <trkpt lat="47.8196" lon="6.5981">
        <ele>504</ele>
        <time>2016-07-03T08:08:30Z</time>
      </trkpt>
      <trkpt lat="47.81971" lon="6.59812">
        <ele>503.6</ele>
        <time>2016-07-03T08:08:34Z</time>
      </trkpt>
      <trkpt lat="47.81982" lon="6.59812">
        <ele>503.1</ele>
        <time>2016-07-03T08:08:38Z</time>
      </trkpt>
      <trkpt lat="47.81992" lon="6.59817">
        <ele>502.4</ele>
        <time>2016-07-03T08:08:42Z</time>
      </trkpt>
      <trkpt lat="47.82001" lon="6.59824">
        <ele>501.5</ele>
        <time>2016-07-03T08:08:47Z</time>
      </trkpt>
      <trkpt lat="47.8201" lon="6.59826">
        <ele>502.4</ele>
        <time>2016-07-03T08:08:54Z</time>
      </trkpt>
      <trkpt lat="47.82021" lon="6.59823">
        <ele>503.5</ele>
        <time>2016-07-03T08:08:59Z</time>
      </trkpt>
      <trkpt lat="47.8203" lon="6.59816">
        <ele>504.8</ele>
        <time>2016-07-03T08:09:04Z</time>
      </trkpt>
      <trkpt lat="47.82039" lon="6.5981">
        <ele>504.4</ele>
        <time>2016-07-03T08:09:08Z</time>
      </trkpt>
      <trkpt lat="47.82048" lon="6.59802">
        <ele>503.6</ele>
        <time>2016-07-03T08:09:12Z</time>
      </trkpt>
      <trkpt lat="47.82057" lon="6.59795">
        <ele>504.8</ele>
        <time>2016-07-03T08:09:17Z</time>
      </trkpt>
      <trkpt lat="47.82063" lon="6.59782">
        <ele>504.9</ele>
        <time>2016-07-03T08:09:24Z</time>
      </trkpt>
      <trkpt lat="47.8207" lon="6.5977">
        <ele>507.3</ele>
        <time>2016-07-03T08:09:30Z</time>
      </trkpt>
      <trkpt lat="47.82078" lon="6.59762">
        <ele>509.1</ele>
        <time>2016-07-03T08:09:35Z</time>
      </trkpt>
      <trkpt lat="47.82086" lon="6.5975">
        <ele>510.4</ele>
        <time>2016-07-03T08:09:41Z</time>
      </trkpt>
      <trkpt lat="47.82094" lon="6.59742">
        <ele>509.9</ele>
        <time>2016-07-03T08:09:47Z</time>
      </trkpt>
      <trkpt lat="47.82105" lon="6.59734">
        <ele>508.9</ele>
        <time>2016-07-03T08:09:52Z</time>
      </trkpt>
      <trkpt lat="47.82114" lon="6.59726">
        <ele>508.5</ele>
        <time>2016-07-03T08:09:54Z</time>
      </trkpt>
      <trkpt lat="47.82124" lon="6.59718">
        <ele>508.2</ele>
        <time>2016-07-03T08:09:57Z</time>
      </trkpt>
      <trkpt lat="47.82131" lon="6.59709">
        <ele>508.1</ele>
        <time>2016-07-03T08:10:01Z</time>
      </trkpt>
      <trkpt lat="47.82135" lon="6.59697">
        <ele>509.2</ele>
        <time>2016-07-03T08:10:07Z</time>
      </trkpt>
      <trkpt lat="47.82142" lon="6.59684">
        <ele>508.8</ele>
        <time>2016-07-03T08:10:12Z</time>
      </trkpt>
      <trkpt lat="47.8215" lon="6.59674">
        <ele>509.6</ele>
        <time>2016-07-03T08:10:15Z</time>
      </trkpt>
      <trkpt lat="47.82159" lon="6.59663">
        <ele>510.4</ele>
        <time>2016-07-03T08:10:19Z</time>
      </trkpt>
      <trkpt lat="47.82169" lon="6.5966">
        <ele>510.7</ele>
        <time>2016-07-03T08:10:24Z</time>
      </trkpt>
      <trkpt lat="47.82178" lon="6.5966">
        <ele>512.5</ele>
        <time>2016-07-03T08:10:29Z</time>
      </trkpt>
      <trkpt lat="47.82188" lon="6.59661">
        <ele>514</ele>
        <time>2016-07-03T08:10:34Z</time>
      </trkpt>
      <trkpt lat="47.82197" lon="6.59663">
        <ele>514.3</ele>
        <time>2016-07-03T08:10:39Z</time>
      </trkpt>
      <trkpt lat="47.82208" lon="6.59662">
        <ele>513.7</ele>
        <time>2016-07-03T08:10:45Z</time>
      </trkpt>
      <trkpt lat="47.82218" lon="6.59662">
        <ele>513.9</ele>
        <time>2016-07-03T08:10:51Z</time>
      </trkpt>
      <trkpt lat="47.82229" lon="6.59664">
        <ele>513.3</ele>
        <time>2016-07-03T08:10:57Z</time>
      </trkpt>
      <trkpt lat="47.82238" lon="6.59669">
        <ele>511.3</ele>
        <time>2016-07-03T08:11:03Z</time>
      </trkpt>
      <trkpt lat="47.82247" lon="6.59674">
        <ele>510.6</ele>
        <time>2016-07-03T08:11:08Z</time>
      </trkpt>
      <trkpt lat="47.82257" lon="6.5968">
        <ele>508.7</ele>
        <time>2016-07-03T08:11:13Z</time>
      </trkpt>
      <trkpt lat="47.82266" lon="6.59686">
        <ele>506.2</ele>
        <time>2016-07-03T08:11:18Z</time>
      </trkpt>
      <trkpt lat="47.82275" lon="6.5969">
        <ele>505.4</ele>
        <time>2016-07-03T08:11:23Z</time>
      </trkpt>
      <trkpt lat="47.82284" lon="6.59694">
        <ele>506.1</ele>
        <time>2016-07-03T08:11:28Z</time>
      </trkpt>
      <trkpt lat="47.82293" lon="6.59698">
        <ele>509.2</ele>
        <time>2016-07-03T08:11:34Z</time>
      </trkpt>
      <trkpt lat="47.823" lon="6.59706">
        <ele>510.6</ele>
        <time>2016-07-03T08:11:39Z</time>
      </trkpt>
      <trkpt lat="47.82306" lon="6.59718">
        <ele>510.6</ele>
        <time>2016-07-03T08:11:43Z</time>
      </trkpt>
      <trkpt lat="47.8231" lon="6.59733">
        <ele>509.9</ele>
        <time>2016-07-03T08:11:47Z</time>
      </trkpt>
      <trkpt lat="47.82314" lon="6.59745">
        <ele>509.2</ele>
        <time>2016-07-03T08:11:50Z</time>
      </trkpt>
      <trkpt lat="47.82319" lon="6.59762">
        <ele>509.3</ele>
        <time>2016-07-03T08:11:54Z</time>
      </trkpt>
      <trkpt lat="47.82325" lon="6.59776">
        <ele>511.9</ele>
        <time>2016-07-03T08:11:58Z</time>
      </trkpt>
      <trkpt lat="47.8233" lon="6.59787">
        <ele>513.5</ele>
        <time>2016-07-03T08:12:01Z</time>
      </trkpt>
      <trkpt lat="47.82335" lon="6.59798">
        <ele>515.3</ele>
        <time>2016-07-03T08:12:04Z</time>
      </trkpt>
      <trkpt lat="47.8234" lon="6.59811">
        <ele>515.8</ele>
        <time>2016-07-03T08:12:07Z</time>
      </trkpt>
      <trkpt lat="47.82345" lon="6.59824">
        <ele>516.9</ele>
        <time>2016-07-03T08:12:11Z</time>
      </trkpt>
      <trkpt lat="47.82348" lon="6.5984">
        <ele>516.3</ele>
        <time>2016-07-03T08:12:15Z</time>
      </trkpt>
      <trkpt lat="47.82348" lon="6.59854">
        <ele>515.8</ele>
        <time>2016-07-03T08:12:18Z</time>
      </trkpt>
      <trkpt lat="47.82351" lon="6.59868">
        <ele>516.2</ele>
        <time>2016-07-03T08:12:21Z</time>
      </trkpt>
      <trkpt lat="47.82352" lon="6.59884">
        <ele>516.3</ele>
        <time>2016-07-03T08:12:24Z</time>
      </trkpt>
      <trkpt lat="47.82357" lon="6.59901">
        <ele>518.2</ele>
        <time>2016-07-03T08:12:28Z</time>
      </trkpt>
      <trkpt lat="47.82361" lon="6.59913">
        <ele>518.2</ele>
        <time>2016-07-03T08:12:31Z</time>
      </trkpt>
      <trkpt lat="47.82368" lon="6.59926">
        <ele>518.8</ele>
        <time>2016-07-03T08:12:35Z</time>
      </trkpt>
      <trkpt lat="47.82375" lon="6.59937">
        <ele>518.1</ele>
        <time>2016-07-03T08:12:38Z</time>
      </trkpt>
      <trkpt lat="47.82382" lon="6.59951">
        <ele>517.2</ele>
        <time>2016-07-03T08:12:42Z</time>
      </trkpt>
      <trkpt lat="47.82383" lon="6.59969">
        <ele>516.1</ele>
        <time>2016-07-03T08:12:45Z</time>
      </trkpt>
      <trkpt lat="47.82385" lon="6.59984">
        <ele>516.1</ele>
        <time>2016-07-03T08:12:49Z</time>
      </trkpt>
      <trkpt lat="47.82387" lon="6.60001">
        <ele>517.3</ele>
        <time>2016-07-03T08:12:53Z</time>
      </trkpt>
      <trkpt lat="47.82388" lon="6.60018">
        <ele>517.5</ele>
        <time>2016-07-03T08:12:56Z</time>
      </trkpt>
      <trkpt lat="47.8239" lon="6.60037">
        <ele>519.4</ele>
        <time>2016-07-03T08:12:59Z</time>
      </trkpt>
      <trkpt lat="47.82393" lon="6.6005">
        <ele>519.2</ele>
        <time>2016-07-03T08:13:02Z</time>
      </trkpt>
      <trkpt lat="47.82397" lon="6.60067">
        <ele>519.7</ele>
        <time>2016-07-03T08:13:05Z</time>
      </trkpt>
      <trkpt lat="47.82404" lon="6.60075">
        <ele>516.8</ele>
        <time>2016-07-03T08:13:08Z</time>
      </trkpt>
      <trkpt lat="47.82414" lon="6.60087">
        <ele>514.2</ele>
        <time>2016-07-03T08:13:12Z</time>
      </trkpt>
      <trkpt lat="47.82423" lon="6.60099">
        <ele>512.7</ele>
        <time>2016-07-03T08:13:15Z</time>
      </trkpt>
      <trkpt lat="47.82431" lon="6.60109">
        <ele>513</ele>
        <time>2016-07-03T08:13:18Z</time>
      </trkpt>
      <trkpt lat="47.82438" lon="6.60122">
        <ele>511.1</ele>
        <time>2016-07-03T08:13:21Z</time>
      </trkpt>
      <trkpt lat="47.82447" lon="6.60131">
        <ele>510.1</ele>
        <time>2016-07-03T08:13:24Z</time>
      </trkpt>
      <trkpt lat="47.82458" lon="6.60135">
        <ele>509.8</ele>
        <time>2016-07-03T08:13:27Z</time>
      </trkpt>
      <trkpt lat="47.82469" lon="6.6014">
        <ele>509.4</ele>
        <time>2016-07-03T08:13:30Z</time>
      </trkpt>
      <trkpt lat="47.82478" lon="6.60144">
        <ele>507.3</ele>
        <time>2016-07-03T08:13:32Z</time>
      </trkpt>
      <trkpt lat="47.82489" lon="6.6015">
        <ele>505.1</ele>
        <time>2016-07-03T08:13:34Z</time>
      </trkpt>
      <trkpt lat="47.825" lon="6.60155">
        <ele>505.7</ele>
        <time>2016-07-03T08:13:36Z</time>
      </trkpt>
      <trkpt lat="47.82512" lon="6.60161">
        <ele>504.9</ele>
        <time>2016-07-03T08:13:38Z</time>
      </trkpt>
      <trkpt lat="47.82526" lon="6.60161">
        <ele>504.8</ele>
        <time>2016-07-03T08:13:40Z</time>
      </trkpt>
      <trkpt lat="47.82538" lon="6.60165">
        <ele>504.2</ele>
        <time>2016-07-03T08:13:42Z</time>
      </trkpt>
      <trkpt lat="47.82546" lon="6.60174">
        <ele>501.1</ele>
        <time>2016-07-03T08:13:44Z</time>
      </trkpt>
      <trkpt lat="47.82556" lon="6.60182">
        <ele>500.5</ele>
        <time>2016-07-03T08:13:46Z</time>
      </trkpt>
      <trkpt lat="47.82567" lon="6.60195">
        <ele>501.3</ele>
        <time>2016-07-03T08:13:49Z</time>
      </trkpt>
      <trkpt lat="47.82573" lon="6.60207">
        <ele>500.5</ele>
        <time>2016-07-03T08:13:52Z</time>
      </trkpt>
      <trkpt lat="47.82581" lon="6.60219">
        <ele>498.7</ele>
        <time>2016-07-03T08:13:56Z</time>
      </trkpt>
      <trkpt lat="47.82589" lon="6.60224">
        <ele>497.6</ele>
        <time>2016-07-03T08:13:58Z</time>
      </trkpt>
      <trkpt lat="47.82599" lon="6.60232">
        <ele>495.9</ele>
        <time>2016-07-03T08:14:00Z</time>
      </trkpt>
      <trkpt lat="47.82606" lon="6.60247">
        <ele>493.4</ele>
        <time>2016-07-03T08:14:02Z</time>
      </trkpt>
      <trkpt lat="47.82612" lon="6.60261">
        <ele>492.9</ele>
        <time>2016-07-03T08:14:04Z</time>
      </trkpt>
      <trkpt lat="47.82616" lon="6.60277">
        <ele>491.5</ele>
        <time>2016-07-03T08:14:06Z</time>
      </trkpt>
      <trkpt lat="47.82618" lon="6.60291">
        <ele>490.9</ele>
        <time>2016-07-03T08:14:09Z</time>
      </trkpt>
      <trkpt lat="47.82615" lon="6.60305">
        <ele>491.1</ele>
        <time>2016-07-03T08:14:12Z</time>
      </trkpt>
      <trkpt lat="47.82617" lon="6.60324">
        <ele>488.9</ele>
        <time>2016-07-03T08:14:15Z</time>
      </trkpt>
      <trkpt lat="47.82625" lon="6.60332">
        <ele>487.3</ele>
        <time>2016-07-03T08:14:17Z</time>
      </trkpt>
      <trkpt lat="47.8263" lon="6.6035">
        <ele>485</ele>
        <time>2016-07-03T08:14:19Z</time>
      </trkpt>
      <trkpt lat="47.82636" lon="6.60366">
        <ele>484.6</ele>
        <time>2016-07-03T08:14:21Z</time>
      </trkpt>
      <trkpt lat="47.82644" lon="6.60385">
        <ele>483.2</ele>
        <time>2016-07-03T08:14:23Z</time>
      </trkpt>
      <trkpt lat="47.82649" lon="6.60406">
        <ele>483.4</ele>
        <time>2016-07-03T08:14:25Z</time>
      </trkpt>
      <trkpt lat="47.82654" lon="6.60427">
        <ele>483.3</ele>
        <time>2016-07-03T08:14:27Z</time>
      </trkpt>
      <trkpt lat="47.82661" lon="6.60446">
        <ele>483.7</ele>
        <time>2016-07-03T08:14:29Z</time>
      </trkpt>
      <trkpt lat="47.82661" lon="6.60461">
        <ele>485.1</ele>
        <time>2016-07-03T08:14:32Z</time>
      </trkpt>
      <trkpt lat="47.82659" lon="6.60478">
        <ele>484.3</ele>
        <time>2016-07-03T08:14:34Z</time>
      </trkpt>
      <trkpt lat="47.82663" lon="6.60491">
        <ele>484.3</ele>
        <time>2016-07-03T08:14:36Z</time>
      </trkpt>
      <trkpt lat="47.82667" lon="6.60503">
        <ele>488.4</ele>
        <time>2016-07-03T08:14:38Z</time>
      </trkpt>
      <trkpt lat="47.82667" lon="6.60527">
        <ele>489</ele>
        <time>2016-07-03T08:14:40Z</time>
      </trkpt>
      <trkpt lat="47.82669" lon="6.60549">
        <ele>488.6</ele>
        <time>2016-07-03T08:14:42Z</time>
      </trkpt>
      <trkpt lat="47.82673" lon="6.60573">
        <ele>489.2</ele>
        <time>2016-07-03T08:14:44Z</time>
      </trkpt>
      <trkpt lat="47.82676" lon="6.60599">
        <ele>487.2</ele>
        <time>2016-07-03T08:14:46Z</time>
      </trkpt>
      <trkpt lat="47.82678" lon="6.60613">
        <ele>486.6</ele>
        <time>2016-07-03T08:14:47Z</time>
      </trkpt>
      <trkpt lat="47.82677" lon="6.60627">
        <ele>486.3</ele>
        <time>2016-07-03T08:14:48Z</time>
      </trkpt>
      <trkpt lat="47.82677" lon="6.60642">
        <ele>485.7</ele>
        <time>2016-07-03T08:14:49Z</time>
      </trkpt>
      <trkpt lat="47.82678" lon="6.60656">
        <ele>485.3</ele>
        <time>2016-07-03T08:14:50Z</time>
      </trkpt>
      <trkpt lat="47.82681" lon="6.60679">
        <ele>485.1</ele>
        <time>2016-07-03T08:14:52Z</time>
      </trkpt>
      <trkpt lat="47.82685" lon="6.60701">
        <ele>483.9</ele>
        <time>2016-07-03T08:14:54Z</time>
      </trkpt>
      <trkpt lat="47.82687" lon="6.60719">
        <ele>483.2</ele>
        <time>2016-07-03T08:14:56Z</time>
      </trkpt>
      <trkpt lat="47.82688" lon="6.60735">
        <ele>483</ele>
        <time>2016-07-03T08:14:57Z</time>
      </trkpt>
      <trkpt lat="47.82689" lon="6.60751">
        <ele>482</ele>
        <time>2016-07-03T08:14:58Z</time>
      </trkpt>
      <trkpt lat="47.82693" lon="6.60772">
        <ele>480.9</ele>
        <time>2016-07-03T08:15:00Z</time>
      </trkpt>
      <trkpt lat="47.82699" lon="6.60788">
        <ele>480.1</ele>
        <time>2016-07-03T08:15:02Z</time>
      </trkpt>
      <trkpt lat="47.82702" lon="6.60802">
        <ele>479.5</ele>
        <time>2016-07-03T08:15:03Z</time>
      </trkpt>
      <trkpt lat="47.8271" lon="6.60815">
        <ele>476.5</ele>
        <time>2016-07-03T08:15:05Z</time>
      </trkpt>
      <trkpt lat="47.82715" lon="6.60827">
        <ele>474.6</ele>
        <time>2016-07-03T08:15:07Z</time>
      </trkpt>
      <trkpt lat="47.82721" lon="6.60841">
        <ele>471.5</ele>
        <time>2016-07-03T08:15:10Z</time>
      </trkpt>
      <trkpt lat="47.8273" lon="6.60849">
        <ele>470.3</ele>
        <time>2016-07-03T08:15:13Z</time>
      </trkpt>
      <trkpt lat="47.82739" lon="6.60852">
        <ele>469</ele>
        <time>2016-07-03T08:15:17Z</time>
      </trkpt>
      <trkpt lat="47.82748" lon="6.60846">
        <ele>468.4</ele>
        <time>2016-07-03T08:15:20Z</time>
      </trkpt>
      <trkpt lat="47.82755" lon="6.60837">
        <ele>468.5</ele>
        <time>2016-07-03T08:15:23Z</time>
      </trkpt>
      <trkpt lat="47.82765" lon="6.60825">
        <ele>466</ele>
        <time>2016-07-03T08:15:26Z</time>
      </trkpt>
      <trkpt lat="47.82774" lon="6.60818">
        <ele>467.7</ele>
        <time>2016-07-03T08:15:28Z</time>
      </trkpt>
      <trkpt lat="47.82787" lon="6.60816">
        <ele>467.4</ele>
        <time>2016-07-03T08:15:31Z</time>
      </trkpt>
      <trkpt lat="47.828" lon="6.60811">
        <ele>464.6</ele>
        <time>2016-07-03T08:15:33Z</time>
      </trkpt>
      <trkpt lat="47.82815" lon="6.6081">
        <ele>461.3</ele>
        <time>2016-07-03T08:15:36Z</time>
      </trkpt>
      <trkpt lat="47.82829" lon="6.60809">
        <ele>459.5</ele>
        <time>2016-07-03T08:15:39Z</time>
      </trkpt>
      <trkpt lat="47.82841" lon="6.6081">
        <ele>458.5</ele>
        <time>2016-07-03T08:15:42Z</time>
      </trkpt>
      <trkpt lat="47.82852" lon="6.60809">
        <ele>457.3</ele>
        <time>2016-07-03T08:15:44Z</time>
      </trkpt>
      <trkpt lat="47.82865" lon="6.60807">
        <ele>457.9</ele>
        <time>2016-07-03T08:15:46Z</time>
      </trkpt>
      <trkpt lat="47.82877" lon="6.60806">
        <ele>457.7</ele>
        <time>2016-07-03T08:15:48Z</time>
      </trkpt>
      <trkpt lat="47.82894" lon="6.60801">
        <ele>457.7</ele>
        <time>2016-07-03T08:15:50Z</time>
      </trkpt>
      <trkpt lat="47.82907" lon="6.60794">
        <ele>456.5</ele>
        <time>2016-07-03T08:15:52Z</time>
      </trkpt>
      <trkpt lat="47.82921" lon="6.60789">
        <ele>456.9</ele>
        <time>2016-07-03T08:15:54Z</time>
      </trkpt>
      <trkpt lat="47.82936" lon="6.6079">
        <ele>455</ele>
        <time>2016-07-03T08:15:56Z</time>
      </trkpt>
      <trkpt lat="47.82961" lon="6.60792">
        <ele>457.3</ele>
        <time>2016-07-03T08:15:59Z</time>
      </trkpt>
      <trkpt lat="47.82971" lon="6.60791">
        <ele>457.2</ele>
        <time>2016-07-03T08:16:00Z</time>
      </trkpt>
      <trkpt lat="47.82981" lon="6.60789">
        <ele>457.2</ele>
        <time>2016-07-03T08:16:01Z</time>
      </trkpt>
      <trkpt lat="47.82994" lon="6.60771">
        <ele>458.5</ele>
        <time>2016-07-03T08:16:03Z</time>
      </trkpt>
      <trkpt lat="47.82999" lon="6.6076">
        <ele>459.6</ele>
        <time>2016-07-03T08:16:04Z</time>
      </trkpt>
      <trkpt lat="47.83006" lon="6.60736">
        <ele>461.1</ele>
        <time>2016-07-03T08:16:06Z</time>
      </trkpt>
      <trkpt lat="47.83009" lon="6.6071">
        <ele>460.9</ele>
        <time>2016-07-03T08:16:08Z</time>
      </trkpt>
      <trkpt lat="47.83011" lon="6.60685">
        <ele>460.9</ele>
        <time>2016-07-03T08:16:10Z</time>
      </trkpt>
      <trkpt lat="47.83019" lon="6.6066">
        <ele>460.7</ele>
        <time>2016-07-03T08:16:12Z</time>
      </trkpt>
      <trkpt lat="47.83024" lon="6.60649">
        <ele>460</ele>
        <time>2016-07-03T08:16:13Z</time>
      </trkpt>
      <trkpt lat="47.83037" lon="6.60633">
        <ele>458.3</ele>
        <time>2016-07-03T08:16:15Z</time>
      </trkpt>
      <trkpt lat="47.83051" lon="6.60624">
        <ele>456.3</ele>
        <time>2016-07-03T08:16:17Z</time>
      </trkpt>
      <trkpt lat="47.83066" lon="6.60617">
        <ele>455.3</ele>
        <time>2016-07-03T08:16:19Z</time>
      </trkpt>
      <trkpt lat="47.83081" lon="6.60609">
        <ele>455</ele>
        <time>2016-07-03T08:16:21Z</time>
      </trkpt>
      <trkpt lat="47.83093" lon="6.60602">
        <ele>453.7</ele>
        <time>2016-07-03T08:16:23Z</time>
      </trkpt>
      <trkpt lat="47.83108" lon="6.60593">
        <ele>453.3</ele>
        <time>2016-07-03T08:16:25Z</time>
      </trkpt>
      <trkpt lat="47.83126" lon="6.60581">
        <ele>453.1</ele>
        <time>2016-07-03T08:16:27Z</time>
      </trkpt>
      <trkpt lat="47.83139" lon="6.60576">
        <ele>448.7</ele>
        <time>2016-07-03T08:16:29Z</time>
      </trkpt>
      <trkpt lat="47.83149" lon="6.6057">
        <ele>448.1</ele>
        <time>2016-07-03T08:16:30Z</time>
      </trkpt>
      <trkpt lat="47.83164" lon="6.60566">
        <ele>444.9</ele>
        <time>2016-07-03T08:16:32Z</time>
      </trkpt>
      <trkpt lat="47.83176" lon="6.60565">
        <ele>445.3</ele>
        <time>2016-07-03T08:16:34Z</time>
      </trkpt>
      <trkpt lat="47.83191" lon="6.60563">
        <ele>443.7</ele>
        <time>2016-07-03T08:16:36Z</time>
      </trkpt>
      <trkpt lat="47.83212" lon="6.60561">
        <ele>438</ele>
        <time>2016-07-03T08:16:39Z</time>
      </trkpt>
      <trkpt lat="47.83226" lon="6.60574">
        <ele>433</ele>
        <time>2016-07-03T08:16:43Z</time>
      </trkpt>
      <trkpt lat="47.83216" lon="6.60582">
        <ele>434.9</ele>
        <time>2016-07-03T08:16:47Z</time>
      </trkpt>
      <trkpt lat="47.83205" lon="6.60579">
        <ele>437.1</ele>
        <time>2016-07-03T08:16:52Z</time>
      </trkpt>
      <trkpt lat="47.832" lon="6.60592">
        <ele>444.3</ele>
        <time>2016-07-03T08:16:57Z</time>
      </trkpt>
      <trkpt lat="47.83194" lon="6.60605">
        <ele>443</ele>
        <time>2016-07-03T08:16:59Z</time>
      </trkpt>
      <trkpt lat="47.83189" lon="6.60622">
        <ele>444.2</ele>
        <time>2016-07-03T08:17:02Z</time>
      </trkpt>
      <trkpt lat="47.83159" lon="6.60695">
        <ele>443</ele>
        <time>2016-07-03T08:17:08Z</time>
      </trkpt>
      <trkpt lat="47.83158" lon="6.60759">
        <ele>440.1</ele>
        <time>2016-07-03T08:17:13Z</time>
      </trkpt>
      <trkpt lat="47.83162" lon="6.60772">
        <ele>440</ele>
        <time>2016-07-03T08:17:14Z</time>
      </trkpt>
      <trkpt lat="47.83165" lon="6.60785">
        <ele>440.8</ele>
        <time>2016-07-03T08:17:15Z</time>
      </trkpt>
      <trkpt lat="47.83168" lon="6.60798">
        <ele>440</ele>
        <time>2016-07-03T08:17:16Z</time>
      </trkpt>
      <trkpt lat="47.83171" lon="6.60811">
        <ele>439.5</ele>
        <time>2016-07-03T08:17:17Z</time>
      </trkpt>
      <trkpt lat="47.83173" lon="6.60825">
        <ele>439</ele>
        <time>2016-07-03T08:17:18Z</time>
      </trkpt>
      <trkpt lat="47.83176" lon="6.60839">
        <ele>438.6</ele>
        <time>2016-07-03T08:17:19Z</time>
      </trkpt>
      <trkpt lat="47.83178" lon="6.60853">
        <ele>438.2</ele>
        <time>2016-07-03T08:17:20Z</time>
      </trkpt>
      <trkpt lat="47.83181" lon="6.60868">
        <ele>437.6</ele>
        <time>2016-07-03T08:17:21Z</time>
      </trkpt>
      <trkpt lat="47.83183" lon="6.60881">
        <ele>437.4</ele>
        <time>2016-07-03T08:17:22Z</time>
      </trkpt>
      <trkpt lat="47.83185" lon="6.60908">
        <ele>436</ele>
        <time>2016-07-03T08:17:24Z</time>
      </trkpt>
      <trkpt lat="47.83179" lon="6.60934">
        <ele>434.7</ele>
        <time>2016-07-03T08:17:26Z</time>
      </trkpt>
      <trkpt lat="47.83175" lon="6.60947">
        <ele>434.2</ele>
        <time>2016-07-03T08:17:27Z</time>
      </trkpt>
      <trkpt lat="47.83172" lon="6.6096">
        <ele>433.4</ele>
        <time>2016-07-03T08:17:28Z</time>
      </trkpt>
      <trkpt lat="47.83168" lon="6.60974">
        <ele>432.8</ele>
        <time>2016-07-03T08:17:29Z</time>
      </trkpt>
      <trkpt lat="47.83167" lon="6.60988">
        <ele>432.4</ele>
        <time>2016-07-03T08:17:30Z</time>
      </trkpt>
      <trkpt lat="47.83166" lon="6.61003">
        <ele>432</ele>
        <time>2016-07-03T08:17:31Z</time>
      </trkpt>
      <trkpt lat="47.83166" lon="6.61018">
        <ele>431.4</ele>
        <time>2016-07-03T08:17:32Z</time>
      </trkpt>
      <trkpt lat="47.83164" lon="6.61033">
        <ele>430.7</ele>
        <time>2016-07-03T08:17:33Z</time>
      </trkpt>
      <trkpt lat="47.83165" lon="6.61047">
        <ele>429.9</ele>
        <time>2016-07-03T08:17:34Z</time>
      </trkpt>
      <trkpt lat="47.83166" lon="6.61061">
        <ele>429.6</ele>
        <time>2016-07-03T08:17:35Z</time>
      </trkpt>
      <trkpt lat="47.83169" lon="6.61085">
        <ele>428.6</ele>
        <time>2016-07-03T08:17:37Z</time>
      </trkpt>
      <trkpt lat="47.83171" lon="6.61108">
        <ele>427.7</ele>
        <time>2016-07-03T08:17:39Z</time>
      </trkpt>
      <trkpt lat="47.83181" lon="6.61124">
        <ele>426.5</ele>
        <time>2016-07-03T08:17:41Z</time>
      </trkpt>
      <trkpt lat="47.83193" lon="6.61133">
        <ele>425.1</ele>
        <time>2016-07-03T08:17:43Z</time>
      </trkpt>
      <trkpt lat="47.83208" lon="6.61138">
        <ele>425.2</ele>
        <time>2016-07-03T08:17:45Z</time>
      </trkpt>
      <trkpt lat="47.83222" lon="6.61139">
        <ele>424.5</ele>
        <time>2016-07-03T08:17:47Z</time>
      </trkpt>
      <trkpt lat="47.83238" lon="6.6114">
        <ele>423.7</ele>
        <time>2016-07-03T08:17:49Z</time>
      </trkpt>
      <trkpt lat="47.83253" lon="6.61138">
        <ele>424.2</ele>
        <time>2016-07-03T08:17:51Z</time>
      </trkpt>
      <trkpt lat="47.83263" lon="6.61134">
        <ele>424.4</ele>
        <time>2016-07-03T08:17:53Z</time>
      </trkpt>
      <trkpt lat="47.83272" lon="6.61135">
        <ele>421.5</ele>
        <time>2016-07-03T08:17:57Z</time>
      </trkpt>
      <trkpt lat="47.83274" lon="6.6115">
        <ele>420.5</ele>
        <time>2016-07-03T08:18:01Z</time>
      </trkpt>
      <trkpt lat="47.83276" lon="6.61163">
        <ele>419.8</ele>
        <time>2016-07-03T08:18:05Z</time>
      </trkpt>
      <trkpt lat="47.83277" lon="6.61179">
        <ele>418.9</ele>
        <time>2016-07-03T08:18:09Z</time>
      </trkpt>
      <trkpt lat="47.83279" lon="6.61196">
        <ele>418.3</ele>
        <time>2016-07-03T08:18:13Z</time>
      </trkpt>
      <trkpt lat="47.83283" lon="6.6121">
        <ele>417.3</ele>
        <time>2016-07-03T08:18:16Z</time>
      </trkpt>
      <trkpt lat="47.83287" lon="6.61222">
        <ele>416.2</ele>
        <time>2016-07-03T08:18:19Z</time>
      </trkpt>
      <trkpt lat="47.83291" lon="6.61235">
        <ele>415.1</ele>
        <time>2016-07-03T08:18:22Z</time>
      </trkpt>
      <trkpt lat="47.83296" lon="6.6125">
        <ele>415</ele>
        <time>2016-07-03T08:18:25Z</time>
      </trkpt>
      <trkpt lat="47.83298" lon="6.61265">
        <ele>414.1</ele>
        <time>2016-07-03T08:18:28Z</time>
      </trkpt>
      <trkpt lat="47.83302" lon="6.6128">
        <ele>413.8</ele>
        <time>2016-07-03T08:18:31Z</time>
      </trkpt>
      <trkpt lat="47.83306" lon="6.61293">
        <ele>413.5</ele>
        <time>2016-07-03T08:18:34Z</time>
      </trkpt>
      <trkpt lat="47.83312" lon="6.61306">
        <ele>413.4</ele>
        <time>2016-07-03T08:18:37Z</time>
      </trkpt>
      <trkpt lat="47.83318" lon="6.61319">
        <ele>412.9</ele>
        <time>2016-07-03T08:18:40Z</time>
      </trkpt>
      <trkpt lat="47.83322" lon="6.61332">
        <ele>412.3</ele>
        <time>2016-07-03T08:18:43Z</time>
      </trkpt>
      <trkpt lat="47.83329" lon="6.61344">
        <ele>412.7</ele>
        <time>2016-07-03T08:18:46Z</time>
      </trkpt>
      <trkpt lat="47.83332" lon="6.61358">
        <ele>412.6</ele>
        <time>2016-07-03T08:18:49Z</time>
      </trkpt>
      <trkpt lat="47.83338" lon="6.6137">
        <ele>414.1</ele>
        <time>2016-07-03T08:18:52Z</time>
      </trkpt>
      <trkpt lat="47.83343" lon="6.61383">
        <ele>414</ele>
        <time>2016-07-03T08:18:55Z</time>
      </trkpt>
      <trkpt lat="47.83346" lon="6.61396">
        <ele>413.5</ele>
        <time>2016-07-03T08:18:58Z</time>
      </trkpt>
      <trkpt lat="47.83351" lon="6.6141">
        <ele>411.7</ele>
        <time>2016-07-03T08:19:01Z</time>
      </trkpt>
      <trkpt lat="47.83357" lon="6.61423">
        <ele>410.4</ele>
        <time>2016-07-03T08:19:04Z</time>
      </trkpt>
      <trkpt lat="47.83362" lon="6.61436">
        <ele>411</ele>
        <time>2016-07-03T08:19:07Z</time>
      </trkpt>
      <trkpt lat="47.8337" lon="6.61447">
        <ele>413.7</ele>
        <time>2016-07-03T08:19:10Z</time>
      </trkpt>
      <trkpt lat="47.83374" lon="6.61459">
        <ele>413.3</ele>
        <time>2016-07-03T08:19:13Z</time>
      </trkpt>
      <trkpt lat="47.8338" lon="6.61472">
        <ele>414.3</ele>
        <time>2016-07-03T08:19:16Z</time>
      </trkpt>
      <trkpt lat="47.83382" lon="6.61487">
        <ele>416.5</ele>
        <time>2016-07-03T08:19:19Z</time>
      </trkpt>
      <trkpt lat="47.83386" lon="6.61502">
        <ele>417.1</ele>
        <time>2016-07-03T08:19:22Z</time>
      </trkpt>
      <trkpt lat="47.83391" lon="6.61516">
        <ele>418.5</ele>
        <time>2016-07-03T08:19:25Z</time>
      </trkpt>
      <trkpt lat="47.83396" lon="6.61529">
        <ele>419.2</ele>
        <time>2016-07-03T08:19:28Z</time>
      </trkpt>
      <trkpt lat="47.834" lon="6.61544">
        <ele>421.7</ele>
        <time>2016-07-03T08:19:31Z</time>
      </trkpt>
      <trkpt lat="47.83407" lon="6.61558">
        <ele>421.8</ele>
        <time>2016-07-03T08:19:34Z</time>
      </trkpt>
      <trkpt lat="47.8341" lon="6.61572">
        <ele>421.7</ele>
        <time>2016-07-03T08:19:37Z</time>
      </trkpt>
      <trkpt lat="47.83416" lon="6.61583">
        <ele>422.6</ele>
        <time>2016-07-03T08:19:41Z</time>
      </trkpt>
      <trkpt lat="47.83428" lon="6.61589">
        <ele>421.5</ele>
        <time>2016-07-03T08:19:44Z</time>
      </trkpt>
      <trkpt lat="47.8344" lon="6.61596">
        <ele>419.7</ele>
        <time>2016-07-03T08:19:47Z</time>
      </trkpt>
      <trkpt lat="47.83446" lon="6.61606">
        <ele>417.1</ele>
        <time>2016-07-03T08:19:50Z</time>
      </trkpt>
      <trkpt lat="47.83452" lon="6.61616">
        <ele>415.6</ele>
        <time>2016-07-03T08:19:53Z</time>
      </trkpt>
      <trkpt lat="47.83458" lon="6.61631">
        <ele>416.2</ele>
        <time>2016-07-03T08:19:57Z</time>
      </trkpt>
      <trkpt lat="47.8346" lon="6.61645">
        <ele>416.6</ele>
        <time>2016-07-03T08:20:00Z</time>
      </trkpt>
      <trkpt lat="47.83467" lon="6.61656">
        <ele>417.1</ele>
        <time>2016-07-03T08:20:03Z</time>
      </trkpt>
      <trkpt lat="47.83472" lon="6.6167">
        <ele>418.6</ele>
        <time>2016-07-03T08:20:06Z</time>
      </trkpt>
      <trkpt lat="47.8348" lon="6.61682">
        <ele>422.6</ele>
        <time>2016-07-03T08:20:09Z</time>
      </trkpt>
      <trkpt lat="47.83485" lon="6.61698">
        <ele>425.4</ele>
        <time>2016-07-03T08:20:12Z</time>
      </trkpt>
      <trkpt lat="47.83492" lon="6.61712">
        <ele>423.6</ele>
        <time>2016-07-03T08:20:15Z</time>
      </trkpt>
      <trkpt lat="47.83499" lon="6.61724">
        <ele>419.1</ele>
        <time>2016-07-03T08:20:18Z</time>
      </trkpt>
      <trkpt lat="47.83508" lon="6.61731">
        <ele>417.6</ele>
        <time>2016-07-03T08:20:21Z</time>
      </trkpt>
      <trkpt lat="47.83517" lon="6.6174">
        <ele>417.9</ele>
        <time>2016-07-03T08:20:24Z</time>
      </trkpt>
      <trkpt lat="47.83526" lon="6.61752">
        <ele>418.9</ele>
        <time>2016-07-03T08:20:27Z</time>
      </trkpt>
      <trkpt lat="47.83534" lon="6.6176">
        <ele>422.7</ele>
        <time>2016-07-03T08:20:29Z</time>
      </trkpt>
      <trkpt lat="47.83541" lon="6.61774">
        <ele>425.9</ele>
        <time>2016-07-03T08:20:32Z</time>
      </trkpt>
      <trkpt lat="47.83548" lon="6.61789">
        <ele>428.2</ele>
        <time>2016-07-03T08:20:35Z</time>
      </trkpt>
      <trkpt lat="47.83553" lon="6.61806">
        <ele>430.7</ele>
        <time>2016-07-03T08:20:38Z</time>
      </trkpt>
      <trkpt lat="47.83559" lon="6.61821">
        <ele>431.6</ele>
        <time>2016-07-03T08:20:41Z</time>
      </trkpt>
      <trkpt lat="47.83566" lon="6.61834">
        <ele>432.1</ele>
        <time>2016-07-03T08:20:44Z</time>
      </trkpt>
      <trkpt lat="47.83572" lon="6.61845">
        <ele>431</ele>
        <time>2016-07-03T08:20:47Z</time>
      </trkpt>
      <trkpt lat="47.83579" lon="6.61857">
        <ele>430.1</ele>
        <time>2016-07-03T08:20:50Z</time>
      </trkpt>
      <trkpt lat="47.83585" lon="6.6187">
        <ele>429.6</ele>
        <time>2016-07-03T08:20:53Z</time>
      </trkpt>
      <trkpt lat="47.83589" lon="6.61883">
        <ele>429.3</ele>
        <time>2016-07-03T08:20:56Z</time>
      </trkpt>
      <trkpt lat="47.83593" lon="6.61895">
        <ele>430.4</ele>
        <time>2016-07-03T08:20:59Z</time>
      </trkpt>
      <trkpt lat="47.83599" lon="6.61909">
        <ele>429.1</ele>
        <time>2016-07-03T08:21:03Z</time>
      </trkpt>
      <trkpt lat="47.83605" lon="6.61922">
        <ele>428.6</ele>
        <time>2016-07-03T08:21:07Z</time>
      </trkpt>
      <trkpt lat="47.83609" lon="6.61935">
        <ele>428.6</ele>
        <time>2016-07-03T08:21:11Z</time>
      </trkpt>
      <trkpt lat="47.83612" lon="6.61951">
        <ele>429.1</ele>
        <time>2016-07-03T08:21:15Z</time>
      </trkpt>
      <trkpt lat="47.83618" lon="6.61966">
        <ele>431.2</ele>
        <time>2016-07-03T08:21:19Z</time>
      </trkpt>
      <trkpt lat="47.83621" lon="6.61979">
        <ele>432.3</ele>
        <time>2016-07-03T08:21:22Z</time>
      </trkpt>
      <trkpt lat="47.83626" lon="6.61992">
        <ele>432.3</ele>
        <time>2016-07-03T08:21:25Z</time>
      </trkpt>
      <trkpt lat="47.83631" lon="6.62006">
        <ele>432.6</ele>
        <time>2016-07-03T08:21:28Z</time>
      </trkpt>
      <trkpt lat="47.83636" lon="6.62021">
        <ele>433.7</ele>
        <time>2016-07-03T08:21:31Z</time>
      </trkpt>
      <trkpt lat="47.8364" lon="6.62036">
        <ele>434.8</ele>
        <time>2016-07-03T08:21:34Z</time>
      </trkpt>
      <trkpt lat="47.83644" lon="6.6205">
        <ele>436.9</ele>
        <time>2016-07-03T08:21:36Z</time>
      </trkpt>
      <trkpt lat="47.83644" lon="6.62064">
        <ele>439.5</ele>
        <time>2016-07-03T08:21:38Z</time>
      </trkpt>
      <trkpt lat="47.83644" lon="6.62083">
        <ele>440.4</ele>
        <time>2016-07-03T08:21:41Z</time>
      </trkpt>
      <trkpt lat="47.83643" lon="6.62097">
        <ele>441.4</ele>
        <time>2016-07-03T08:21:43Z</time>
      </trkpt>
      <trkpt lat="47.83642" lon="6.62117">
        <ele>441.2</ele>
        <time>2016-07-03T08:21:46Z</time>
      </trkpt>
      <trkpt lat="47.83639" lon="6.62136">
        <ele>442.6</ele>
        <time>2016-07-03T08:21:49Z</time>
      </trkpt>
      <trkpt lat="47.83637" lon="6.6215">
        <ele>443.6</ele>
        <time>2016-07-03T08:21:51Z</time>
      </trkpt>
      <trkpt lat="47.83635" lon="6.62163">
        <ele>444.9</ele>
        <time>2016-07-03T08:21:53Z</time>
      </trkpt>
      <trkpt lat="47.83633" lon="6.62182">
        <ele>444.4</ele>
        <time>2016-07-03T08:21:56Z</time>
      </trkpt>
      <trkpt lat="47.83632" lon="6.62199">
        <ele>444.1</ele>
        <time>2016-07-03T08:21:59Z</time>
      </trkpt>
      <trkpt lat="47.83632" lon="6.62216">
        <ele>442.1</ele>
        <time>2016-07-03T08:22:02Z</time>
      </trkpt>
      <trkpt lat="47.83627" lon="6.62234">
        <ele>441.3</ele>
        <time>2016-07-03T08:22:05Z</time>
      </trkpt>
      <trkpt lat="47.83621" lon="6.62248">
        <ele>440</ele>
        <time>2016-07-03T08:22:08Z</time>
      </trkpt>
      <trkpt lat="47.83613" lon="6.62263">
        <ele>439.2</ele>
        <time>2016-07-03T08:22:11Z</time>
      </trkpt>
      <trkpt lat="47.83606" lon="6.62277">
        <ele>437.8</ele>
        <time>2016-07-03T08:22:14Z</time>
      </trkpt>
      <trkpt lat="47.83597" lon="6.62291">
        <ele>437.4</ele>
        <time>2016-07-03T08:22:17Z</time>
      </trkpt>
      <trkpt lat="47.83589" lon="6.62306">
        <ele>437.2</ele>
        <time>2016-07-03T08:22:20Z</time>
      </trkpt>
      <trkpt lat="47.83585" lon="6.62324">
        <ele>437.7</ele>
        <time>2016-07-03T08:22:23Z</time>
      </trkpt>
      <trkpt lat="47.83587" lon="6.62341">
        <ele>436.7</ele>
        <time>2016-07-03T08:22:26Z</time>
      </trkpt>
      <trkpt lat="47.8359" lon="6.62357">
        <ele>438.1</ele>
        <time>2016-07-03T08:22:29Z</time>
      </trkpt>
      <trkpt lat="47.83594" lon="6.62372">
        <ele>440.5</ele>
        <time>2016-07-03T08:22:32Z</time>
      </trkpt>
      <trkpt lat="47.83601" lon="6.62385">
        <ele>440.7</ele>
        <time>2016-07-03T08:22:35Z</time>
      </trkpt>
      <trkpt lat="47.83611" lon="6.62397">
        <ele>439.5</ele>
        <time>2016-07-03T08:22:38Z</time>
      </trkpt>
      <trkpt lat="47.83618" lon="6.62409">
        <ele>437.5</ele>
        <time>2016-07-03T08:22:41Z</time>
      </trkpt>
      <trkpt lat="47.83625" lon="6.62421">
        <ele>437.8</ele>
        <time>2016-07-03T08:22:44Z</time>
      </trkpt>
      <trkpt lat="47.83633" lon="6.62433">
        <ele>438.4</ele>
        <time>2016-07-03T08:22:47Z</time>
      </trkpt>
      <trkpt lat="47.83638" lon="6.62444">
        <ele>438.8</ele>
        <time>2016-07-03T08:22:50Z</time>
      </trkpt>
      <trkpt lat="47.83643" lon="6.6246">
        <ele>439.4</ele>
        <time>2016-07-03T08:22:53Z</time>
      </trkpt>
      <trkpt lat="47.83653" lon="6.62473">
        <ele>437.8</ele>
        <time>2016-07-03T08:22:56Z</time>
      </trkpt>
      <trkpt lat="47.83661" lon="6.62487">
        <ele>441.8</ele>
        <time>2016-07-03T08:22:59Z</time>
      </trkpt>
      <trkpt lat="47.83667" lon="6.62503">
        <ele>441.5</ele>
        <time>2016-07-03T08:23:02Z</time>
      </trkpt>
      <trkpt lat="47.83674" lon="6.62516">
        <ele>441</ele>
        <time>2016-07-03T08:23:05Z</time>
      </trkpt>
      <trkpt lat="47.8368" lon="6.6253">
        <ele>439.2</ele>
        <time>2016-07-03T08:23:08Z</time>
      </trkpt>
      <trkpt lat="47.83685" lon="6.62544">
        <ele>438.4</ele>
        <time>2016-07-03T08:23:11Z</time>
      </trkpt>
      <trkpt lat="47.83695" lon="6.62556">
        <ele>439</ele>
        <time>2016-07-03T08:23:14Z</time>
      </trkpt>
      <trkpt lat="47.83703" lon="6.62566">
        <ele>440.1</ele>
        <time>2016-07-03T08:23:17Z</time>
      </trkpt>
      <trkpt lat="47.83715" lon="6.62573">
        <ele>438.3</ele>
        <time>2016-07-03T08:23:20Z</time>
      </trkpt>
      <trkpt lat="47.83726" lon="6.6258">
        <ele>439.6</ele>
        <time>2016-07-03T08:23:23Z</time>
      </trkpt>
      <trkpt lat="47.83738" lon="6.62586">
        <ele>441.2</ele>
        <time>2016-07-03T08:23:26Z</time>
      </trkpt>
      <trkpt lat="47.8375" lon="6.62593">
        <ele>445.4</ele>
        <time>2016-07-03T08:23:29Z</time>
      </trkpt>
      <trkpt lat="47.83757" lon="6.62604">
        <ele>446.8</ele>
        <time>2016-07-03T08:23:32Z</time>
      </trkpt>
      <trkpt lat="47.83765" lon="6.62612">
        <ele>446.3</ele>
        <time>2016-07-03T08:23:35Z</time>
      </trkpt>
      <trkpt lat="47.83774" lon="6.62622">
        <ele>442.1</ele>
        <time>2016-07-03T08:23:38Z</time>
      </trkpt>
      <trkpt lat="47.83785" lon="6.62629">
        <ele>444.1</ele>
        <time>2016-07-03T08:23:41Z</time>
      </trkpt>
      <trkpt lat="47.83794" lon="6.6264">
        <ele>443</ele>
        <time>2016-07-03T08:23:44Z</time>
      </trkpt>
      <trkpt lat="47.83798" lon="6.62654">
        <ele>437.9</ele>
        <time>2016-07-03T08:23:47Z</time>
      </trkpt>
      <trkpt lat="47.83806" lon="6.62666">
        <ele>430.5</ele>
        <time>2016-07-03T08:23:50Z</time>
      </trkpt>
      <trkpt lat="47.83813" lon="6.62678">
        <ele>425.3</ele>
        <time>2016-07-03T08:23:53Z</time>
      </trkpt>
      <trkpt lat="47.83818" lon="6.62692">
        <ele>418.6</ele>
        <time>2016-07-03T08:23:56Z</time>
      </trkpt>
      <trkpt lat="47.83825" lon="6.62701">
        <ele>418.6</ele>
        <time>2016-07-03T08:23:58Z</time>
      </trkpt>
      <trkpt lat="47.83835" lon="6.62707">
        <ele>419.3</ele>
        <time>2016-07-03T08:24:00Z</time>
      </trkpt>
      <trkpt lat="47.83842" lon="6.62719">
        <ele>425.2</ele>
        <time>2016-07-03T08:24:03Z</time>
      </trkpt>
      <trkpt lat="47.8385" lon="6.6273">
        <ele>426.6</ele>
        <time>2016-07-03T08:24:06Z</time>
      </trkpt>
      <trkpt lat="47.83856" lon="6.62743">
        <ele>427.3</ele>
        <time>2016-07-03T08:24:09Z</time>
      </trkpt>
      <trkpt lat="47.83866" lon="6.62754">
        <ele>428</ele>
        <time>2016-07-03T08:24:12Z</time>
      </trkpt>
      <trkpt lat="47.83874" lon="6.62764">
        <ele>428.4</ele>
        <time>2016-07-03T08:24:15Z</time>
      </trkpt>
      <trkpt lat="47.83884" lon="6.62773">
        <ele>430</ele>
        <time>2016-07-03T08:24:18Z</time>
      </trkpt>
      <trkpt lat="47.83894" lon="6.62778">
        <ele>430.6</ele>
        <time>2016-07-03T08:24:21Z</time>
      </trkpt>
      <trkpt lat="47.83905" lon="6.62784">
        <ele>430.5</ele>
        <time>2016-07-03T08:24:24Z</time>
      </trkpt>
      <trkpt lat="47.83915" lon="6.62791">
        <ele>432.8</ele>
        <time>2016-07-03T08:24:27Z</time>
      </trkpt>
      <trkpt lat="47.83922" lon="6.62802">
        <ele>432.6</ele>
        <time>2016-07-03T08:24:30Z</time>
      </trkpt>
      <trkpt lat="47.8393" lon="6.62809">
        <ele>432</ele>
        <time>2016-07-03T08:24:33Z</time>
      </trkpt>
      <trkpt lat="47.83938" lon="6.62819">
        <ele>430.3</ele>
        <time>2016-07-03T08:24:37Z</time>
      </trkpt>
      <trkpt lat="47.83946" lon="6.62831">
        <ele>429.4</ele>
        <time>2016-07-03T08:24:41Z</time>
      </trkpt>
      <trkpt lat="47.83956" lon="6.62841">
        <ele>428.1</ele>
        <time>2016-07-03T08:24:45Z</time>
      </trkpt>
      <trkpt lat="47.83965" lon="6.6285">
        <ele>428.4</ele>
        <time>2016-07-03T08:24:49Z</time>
      </trkpt>
      <trkpt lat="47.83973" lon="6.6286">
        <ele>427.9</ele>
        <time>2016-07-03T08:24:54Z</time>
      </trkpt>
      <trkpt lat="47.83979" lon="6.6287">
        <ele>429.8</ele>
        <time>2016-07-03T08:24:58Z</time>
      </trkpt>
      <trkpt lat="47.83981" lon="6.62885">
        <ele>433.2</ele>
        <time>2016-07-03T08:25:03Z</time>
      </trkpt>
      <trkpt lat="47.83984" lon="6.62899">
        <ele>432.4</ele>
        <time>2016-07-03T08:25:07Z</time>
      </trkpt>
      <trkpt lat="47.83989" lon="6.6291">
        <ele>431.5</ele>
        <time>2016-07-03T08:25:10Z</time>
      </trkpt>
      <trkpt lat="47.83996" lon="6.62924">
        <ele>431.8</ele>
        <time>2016-07-03T08:25:14Z</time>
      </trkpt>
      <trkpt lat="47.84002" lon="6.62935">
        <ele>431.1</ele>
        <time>2016-07-03T08:25:17Z</time>
      </trkpt>
      <trkpt lat="47.84008" lon="6.62949">
        <ele>427.7</ele>
        <time>2016-07-03T08:25:21Z</time>
      </trkpt>
      <trkpt lat="47.84018" lon="6.62957">
        <ele>426.7</ele>
        <time>2016-07-03T08:25:25Z</time>
      </trkpt>
      <trkpt lat="47.84021" lon="6.6297">
        <ele>427.4</ele>
        <time>2016-07-03T08:25:29Z</time>
      </trkpt>
      <trkpt lat="47.84028" lon="6.62982">
        <ele>428.8</ele>
        <time>2016-07-03T08:25:33Z</time>
      </trkpt>
      <trkpt lat="47.84037" lon="6.62993">
        <ele>432.1</ele>
        <time>2016-07-03T08:25:37Z</time>
      </trkpt>
      <trkpt lat="47.84044" lon="6.63005">
        <ele>434.4</ele>
        <time>2016-07-03T08:25:41Z</time>
      </trkpt>
      <trkpt lat="47.84053" lon="6.63016">
        <ele>437.3</ele>
        <time>2016-07-03T08:25:45Z</time>
      </trkpt>
      <trkpt lat="47.84061" lon="6.63029">
        <ele>439.9</ele>
        <time>2016-07-03T08:25:49Z</time>
      </trkpt>
      <trkpt lat="47.84068" lon="6.63041">
        <ele>444.9</ele>
        <time>2016-07-03T08:25:53Z</time>
      </trkpt>
      <trkpt lat="47.84074" lon="6.63054">
        <ele>450.1</ele>
        <time>2016-07-03T08:25:57Z</time>
      </trkpt>
      <trkpt lat="47.84078" lon="6.63069">
        <ele>451.9</ele>
        <time>2016-07-03T08:26:01Z</time>
      </trkpt>
      <trkpt lat="47.84083" lon="6.63081">
        <ele>453.7</ele>
        <time>2016-07-03T08:26:05Z</time>
      </trkpt>
      <trkpt lat="47.84087" lon="6.63094">
        <ele>454</ele>
        <time>2016-07-03T08:26:09Z</time>
      </trkpt>
      <trkpt lat="47.8409" lon="6.63108">
        <ele>454.4</ele>
        <time>2016-07-03T08:26:13Z</time>
      </trkpt>
      <trkpt lat="47.84094" lon="6.63121">
        <ele>457.2</ele>
        <time>2016-07-03T08:26:17Z</time>
      </trkpt>
      <trkpt lat="47.84095" lon="6.63135">
        <ele>458.2</ele>
        <time>2016-07-03T08:26:21Z</time>
      </trkpt>
      <trkpt lat="47.84098" lon="6.63151">
        <ele>456.6</ele>
        <time>2016-07-03T08:26:25Z</time>
      </trkpt>
      <trkpt lat="47.84099" lon="6.63167">
        <ele>458.4</ele>
        <time>2016-07-03T08:26:29Z</time>
      </trkpt>
      <trkpt lat="47.84102" lon="6.63181">
        <ele>460.6</ele>
        <time>2016-07-03T08:26:33Z</time>
      </trkpt>
      <trkpt lat="47.84104" lon="6.63197">
        <ele>460.5</ele>
        <time>2016-07-03T08:26:37Z</time>
      </trkpt>
      <trkpt lat="47.84107" lon="6.63211">
        <ele>458.1</ele>
        <time>2016-07-03T08:26:40Z</time>
      </trkpt>
      <trkpt lat="47.84113" lon="6.63232">
        <ele>454.5</ele>
        <time>2016-07-03T08:26:45Z</time>
      </trkpt>
      <trkpt lat="47.84119" lon="6.63254">
        <ele>452.2</ele>
        <time>2016-07-03T08:26:50Z</time>
      </trkpt>
      <trkpt lat="47.84121" lon="6.6327">
        <ele>451.8</ele>
        <time>2016-07-03T08:26:54Z</time>
      </trkpt>
      <trkpt lat="47.84124" lon="6.63284">
        <ele>456.6</ele>
        <time>2016-07-03T08:26:59Z</time>
      </trkpt>
      <trkpt lat="47.84127" lon="6.63298">
        <ele>458.7</ele>
        <time>2016-07-03T08:27:04Z</time>
      </trkpt>
      <trkpt lat="47.8413" lon="6.63312">
        <ele>460.7</ele>
        <time>2016-07-03T08:27:09Z</time>
      </trkpt>
      <trkpt lat="47.84132" lon="6.63326">
        <ele>461.6</ele>
        <time>2016-07-03T08:27:13Z</time>
      </trkpt>
      <trkpt lat="47.84135" lon="6.63342">
        <ele>462.4</ele>
        <time>2016-07-03T08:27:19Z</time>
      </trkpt>
      <trkpt lat="47.8414" lon="6.63355">
        <ele>462</ele>
        <time>2016-07-03T08:27:24Z</time>
      </trkpt>
      <trkpt lat="47.84145" lon="6.63367">
        <ele>462.4</ele>
        <time>2016-07-03T08:27:29Z</time>
      </trkpt>
      <trkpt lat="47.84148" lon="6.63381">
        <ele>462.9</ele>
        <time>2016-07-03T08:27:35Z</time>
      </trkpt>
      <trkpt lat="47.84153" lon="6.63395">
        <ele>465.3</ele>
        <time>2016-07-03T08:27:43Z</time>
      </trkpt>
      <trkpt lat="47.84157" lon="6.63409">
        <ele>466.3</ele>
        <time>2016-07-03T08:27:50Z</time>
      </trkpt>
      <trkpt lat="47.8416" lon="6.63424">
        <ele>470.9</ele>
        <time>2016-07-03T08:27:56Z</time>
      </trkpt>
      <trkpt lat="47.84164" lon="6.63437">
        <ele>471.4</ele>
        <time>2016-07-03T08:28:02Z</time>
      </trkpt>
      <trkpt lat="47.8417" lon="6.63447">
        <ele>471.7</ele>
        <time>2016-07-03T08:28:10Z</time>
      </trkpt>
      <trkpt lat="47.84178" lon="6.63453">
        <ele>471.6</ele>
        <time>2016-07-03T08:28:16Z</time>
      </trkpt>
      <trkpt lat="47.84187" lon="6.63458">
        <ele>473.4</ele>
        <time>2016-07-03T08:28:23Z</time>
      </trkpt>
      <trkpt lat="47.84195" lon="6.63465">
        <ele>473</ele>
        <time>2016-07-03T08:28:28Z</time>
      </trkpt>
      <trkpt lat="47.84203" lon="6.63474">
        <ele>471.7</ele>
        <time>2016-07-03T08:28:36Z</time>
      </trkpt>
      <trkpt lat="47.8421" lon="6.63484">
        <ele>471.9</ele>
        <time>2016-07-03T08:28:44Z</time>
      </trkpt>
      <trkpt lat="47.84218" lon="6.63491">
        <ele>472.2</ele>
        <time>2016-07-03T08:28:51Z</time>
      </trkpt>
      <trkpt lat="47.84226" lon="6.63497">
        <ele>473.9</ele>
        <time>2016-07-03T08:28:57Z</time>
      </trkpt>
      <trkpt lat="47.84235" lon="6.63503">
        <ele>476.8</ele>
        <time>2016-07-03T08:29:05Z</time>
      </trkpt>
      <trkpt lat="47.84245" lon="6.63504">
        <ele>477.2</ele>
        <time>2016-07-03T08:29:15Z</time>
      </trkpt>
      <trkpt lat="47.84254" lon="6.63499">
        <ele>480.2</ele>
        <time>2016-07-03T08:29:22Z</time>
      </trkpt>
      <trkpt lat="47.84263" lon="6.63493">
        <ele>481.1</ele>
        <time>2016-07-03T08:29:31Z</time>
      </trkpt>
      <trkpt lat="47.84272" lon="6.63486">
        <ele>485.1</ele>
        <time>2016-07-03T08:29:39Z</time>
      </trkpt>
      <trkpt lat="47.8428" lon="6.63479">
        <ele>487.3</ele>
        <time>2016-07-03T08:29:46Z</time>
      </trkpt>
      <trkpt lat="47.84288" lon="6.6347">
        <ele>489.4</ele>
        <time>2016-07-03T08:29:54Z</time>
      </trkpt>
      <trkpt lat="47.84295" lon="6.63461">
        <ele>492.2</ele>
        <time>2016-07-03T08:30:02Z</time>
      </trkpt>
      <trkpt lat="47.843" lon="6.63448">
        <ele>493.9</ele>
        <time>2016-07-03T08:30:11Z</time>
      </trkpt>
      <trkpt lat="47.84304" lon="6.63437">
        <ele>495.6</ele>
        <time>2016-07-03T08:30:19Z</time>
      </trkpt>
      <trkpt lat="47.84309" lon="6.63424">
        <ele>496.1</ele>
        <time>2016-07-03T08:30:27Z</time>
      </trkpt>
      <trkpt lat="47.84312" lon="6.63411">
        <ele>496.7</ele>
        <time>2016-07-03T08:30:34Z</time>
      </trkpt>
      <trkpt lat="47.84315" lon="6.63397">
        <ele>498.3</ele>
        <time>2016-07-03T08:30:42Z</time>
      </trkpt>
      <trkpt lat="47.84321" lon="6.63383">
        <ele>499.6</ele>
        <time>2016-07-03T08:30:49Z</time>
      </trkpt>
      <trkpt lat="47.84328" lon="6.63372">
        <ele>502.4</ele>
        <time>2016-07-03T08:30:57Z</time>
      </trkpt>
      <trkpt lat="47.84334" lon="6.63362">
        <ele>504.2</ele>
        <time>2016-07-03T08:31:04Z</time>
      </trkpt>
      <trkpt lat="47.84343" lon="6.63358">
        <ele>504.7</ele>
        <time>2016-07-03T08:31:11Z</time>
      </trkpt>
      <trkpt lat="47.84353" lon="6.63358">
        <ele>504.9</ele>
        <time>2016-07-03T08:31:19Z</time>
      </trkpt>
      <trkpt lat="47.84363" lon="6.6336">
        <ele>503.1</ele>
        <time>2016-07-03T08:31:26Z</time>
      </trkpt>
      <trkpt lat="47.84373" lon="6.63359">
        <ele>504.3</ele>
        <time>2016-07-03T08:31:32Z</time>
      </trkpt>
      <trkpt lat="47.84382" lon="6.63358">
        <ele>503.3</ele>
        <time>2016-07-03T08:31:39Z</time>
      </trkpt>
      <trkpt lat="47.84392" lon="6.63357">
        <ele>507.1</ele>
        <time>2016-07-03T08:31:48Z</time>
      </trkpt>
      <trkpt lat="47.84401" lon="6.63356">
        <ele>508.5</ele>
        <time>2016-07-03T08:31:54Z</time>
      </trkpt>
      <trkpt lat="47.8441" lon="6.63351">
        <ele>509.8</ele>
        <time>2016-07-03T08:31:59Z</time>
      </trkpt>
      <trkpt lat="47.84419" lon="6.63345">
        <ele>509.5</ele>
        <time>2016-07-03T08:32:06Z</time>
      </trkpt>
      <trkpt lat="47.84428" lon="6.63338">
        <ele>511.7</ele>
        <time>2016-07-03T08:32:12Z</time>
      </trkpt>
      <trkpt lat="47.84437" lon="6.6333">
        <ele>516</ele>
        <time>2016-07-03T08:32:19Z</time>
      </trkpt>
      <trkpt lat="47.84447" lon="6.6333">
        <ele>514.6</ele>
        <time>2016-07-03T08:32:24Z</time>
      </trkpt>
      <trkpt lat="47.84458" lon="6.63326">
        <ele>517.2</ele>
        <time>2016-07-03T08:32:30Z</time>
      </trkpt>
      <trkpt lat="47.84467" lon="6.63323">
        <ele>517.4</ele>
        <time>2016-07-03T08:32:36Z</time>
      </trkpt>
      <trkpt lat="47.84476" lon="6.63317">
        <ele>516.2</ele>
        <time>2016-07-03T08:32:41Z</time>
      </trkpt>
      <trkpt lat="47.84486" lon="6.63312">
        <ele>517</ele>
        <time>2016-07-03T08:32:46Z</time>
      </trkpt>
      <trkpt lat="47.84495" lon="6.63307">
        <ele>517.4</ele>
        <time>2016-07-03T08:32:52Z</time>
      </trkpt>
      <trkpt lat="47.84505" lon="6.633">
        <ele>520.1</ele>
        <time>2016-07-03T08:32:57Z</time>
      </trkpt>
      <trkpt lat="47.84513" lon="6.63294">
        <ele>519.6</ele>
        <time>2016-07-03T08:33:03Z</time>
      </trkpt>
      <trkpt lat="47.84522" lon="6.63287">
        <ele>518</ele>
        <time>2016-07-03T08:33:08Z</time>
      </trkpt>
      <trkpt lat="47.84531" lon="6.63279">
        <ele>516.7</ele>
        <time>2016-07-03T08:33:13Z</time>
      </trkpt>
      <trkpt lat="47.84539" lon="6.6327">
        <ele>516.7</ele>
        <time>2016-07-03T08:33:18Z</time>
      </trkpt>
      <trkpt lat="47.84549" lon="6.6326">
        <ele>516.7</ele>
        <time>2016-07-03T08:33:23Z</time>
      </trkpt>
      <trkpt lat="47.84558" lon="6.63256">
        <ele>517.9</ele>
        <time>2016-07-03T08:33:27Z</time>
      </trkpt>
      <trkpt lat="47.84568" lon="6.6325">
        <ele>518</ele>
        <time>2016-07-03T08:33:32Z</time>
      </trkpt>
      <trkpt lat="47.84579" lon="6.63244">
        <ele>522.3</ele>
        <time>2016-07-03T08:33:36Z</time>
      </trkpt>
      <trkpt lat="47.84588" lon="6.63239">
        <ele>523.4</ele>
        <time>2016-07-03T08:33:40Z</time>
      </trkpt>
      <trkpt lat="47.84597" lon="6.63234">
        <ele>525.5</ele>
        <time>2016-07-03T08:33:45Z</time>
      </trkpt>
      <trkpt lat="47.84607" lon="6.63231">
        <ele>525.3</ele>
        <time>2016-07-03T08:33:50Z</time>
      </trkpt>
      <trkpt lat="47.84616" lon="6.63223">
        <ele>526.6</ele>
        <time>2016-07-03T08:33:55Z</time>
      </trkpt>
      <trkpt lat="47.84621" lon="6.6321">
        <ele>532.3</ele>
        <time>2016-07-03T08:34:00Z</time>
      </trkpt>
      <trkpt lat="47.84618" lon="6.63197">
        <ele>542.6</ele>
        <time>2016-07-03T08:34:10Z</time>
      </trkpt>
      <trkpt lat="47.8461" lon="6.63188">
        <ele>549.3</ele>
        <time>2016-07-03T08:34:20Z</time>
      </trkpt>
      <trkpt lat="47.846" lon="6.63181">
        <ele>545.2</ele>
        <time>2016-07-03T08:34:27Z</time>
      </trkpt>
      <trkpt lat="47.84594" lon="6.6317">
        <ele>540.4</ele>
        <time>2016-07-03T08:34:34Z</time>
      </trkpt>
      <trkpt lat="47.84586" lon="6.63164">
        <ele>541.7</ele>
        <time>2016-07-03T08:34:40Z</time>
      </trkpt>
      <trkpt lat="47.84577" lon="6.63159">
        <ele>539.5</ele>
        <time>2016-07-03T08:34:44Z</time>
      </trkpt>
      <trkpt lat="47.84569" lon="6.63153">
        <ele>539.6</ele>
        <time>2016-07-03T08:34:52Z</time>
      </trkpt>
      <trkpt lat="47.84564" lon="6.63141">
        <ele>544.5</ele>
        <time>2016-07-03T08:35:01Z</time>
      </trkpt>
      <trkpt lat="47.84569" lon="6.63129">
        <ele>548.1</ele>
        <time>2016-07-03T08:35:11Z</time>
      </trkpt>
      <trkpt lat="47.84578" lon="6.63122">
        <ele>546.4</ele>
        <time>2016-07-03T08:35:20Z</time>
      </trkpt>
      <trkpt lat="47.84587" lon="6.63114">
        <ele>544.2</ele>
        <time>2016-07-03T08:35:33Z</time>
      </trkpt>
      <trkpt lat="47.84589" lon="6.631">
        <ele>548.4</ele>
        <time>2016-07-03T08:35:42Z</time>
      </trkpt>
      <trkpt lat="47.84586" lon="6.63087">
        <ele>548.7</ele>
        <time>2016-07-03T08:35:49Z</time>
      </trkpt>
      <trkpt lat="47.8458" lon="6.63076">
        <ele>552.8</ele>
        <time>2016-07-03T08:35:57Z</time>
      </trkpt>
      <trkpt lat="47.84576" lon="6.63061">
        <ele>560</ele>
        <time>2016-07-03T08:36:04Z</time>
      </trkpt>
      <trkpt lat="47.84576" lon="6.63047">
        <ele>559.2</ele>
        <time>2016-07-03T08:36:09Z</time>
      </trkpt>
      <trkpt lat="47.84577" lon="6.6303">
        <ele>562.9</ele>
        <time>2016-07-03T08:36:15Z</time>
      </trkpt>
      <trkpt lat="47.8458" lon="6.63014">
        <ele>562.3</ele>
        <time>2016-07-03T08:36:20Z</time>
      </trkpt>
      <trkpt lat="47.84584" lon="6.63002">
        <ele>560.7</ele>
        <time>2016-07-03T08:36:27Z</time>
      </trkpt>
      <trkpt lat="47.84587" lon="6.62988">
        <ele>559.3</ele>
        <time>2016-07-03T08:36:34Z</time>
      </trkpt>
      <trkpt lat="47.84592" lon="6.62977">
        <ele>560.8</ele>
        <time>2016-07-03T08:36:40Z</time>
      </trkpt>
      <trkpt lat="47.84598" lon="6.62965">
        <ele>563.4</ele>
        <time>2016-07-03T08:36:46Z</time>
      </trkpt>
      <trkpt lat="47.84602" lon="6.62952">
        <ele>566.1</ele>
        <time>2016-07-03T08:36:54Z</time>
      </trkpt>
      <trkpt lat="47.84605" lon="6.62938">
        <ele>569.3</ele>
        <time>2016-07-03T08:37:00Z</time>
      </trkpt>
      <trkpt lat="47.84603" lon="6.62923">
        <ele>567.8</ele>
        <time>2016-07-03T08:37:07Z</time>
      </trkpt>
      <trkpt lat="47.84603" lon="6.62908">
        <ele>571.9</ele>
        <time>2016-07-03T08:37:14Z</time>
      </trkpt>
      <trkpt lat="47.84602" lon="6.62893">
        <ele>575.3</ele>
        <time>2016-07-03T08:37:21Z</time>
      </trkpt>
      <trkpt lat="47.84599" lon="6.62879">
        <ele>574.6</ele>
        <time>2016-07-03T08:37:26Z</time>
      </trkpt>
      <trkpt lat="47.846" lon="6.62863">
        <ele>573.6</ele>
        <time>2016-07-03T08:37:32Z</time>
      </trkpt>
      <trkpt lat="47.84601" lon="6.62848">
        <ele>577.6</ele>
        <time>2016-07-03T08:37:38Z</time>
      </trkpt>
      <trkpt lat="47.84603" lon="6.62834">
        <ele>577.5</ele>
        <time>2016-07-03T08:37:44Z</time>
      </trkpt>
      <trkpt lat="47.8461" lon="6.62821">
        <ele>579.7</ele>
        <time>2016-07-03T08:37:51Z</time>
      </trkpt>
      <trkpt lat="47.84616" lon="6.62808">
        <ele>577.8</ele>
        <time>2016-07-03T08:37:57Z</time>
      </trkpt>
      <trkpt lat="47.8462" lon="6.62795">
        <ele>577.6</ele>
        <time>2016-07-03T08:38:03Z</time>
      </trkpt>
      <trkpt lat="47.8462" lon="6.62781">
        <ele>579.8</ele>
        <time>2016-07-03T08:38:07Z</time>
      </trkpt>
      <trkpt lat="47.84622" lon="6.62767">
        <ele>578.4</ele>
        <time>2016-07-03T08:38:11Z</time>
      </trkpt>
      <trkpt lat="47.84626" lon="6.62753">
        <ele>578.9</ele>
        <time>2016-07-03T08:38:16Z</time>
      </trkpt>
      <trkpt lat="47.84633" lon="6.62741">
        <ele>578.9</ele>
        <time>2016-07-03T08:38:21Z</time>
      </trkpt>
      <trkpt lat="47.8464" lon="6.6273">
        <ele>579.7</ele>
        <time>2016-07-03T08:38:27Z</time>
      </trkpt>
      <trkpt lat="47.84648" lon="6.6272">
        <ele>578.5</ele>
        <time>2016-07-03T08:38:33Z</time>
      </trkpt>
      <trkpt lat="47.84655" lon="6.62711">
        <ele>577</ele>
        <time>2016-07-03T08:38:38Z</time>
      </trkpt>
      <trkpt lat="47.84662" lon="6.627">
        <ele>577.1</ele>
        <time>2016-07-03T08:38:42Z</time>
      </trkpt>
      <trkpt lat="47.8467" lon="6.62691">
        <ele>577.4</ele>
        <time>2016-07-03T08:38:47Z</time>
      </trkpt>
      <trkpt lat="47.84676" lon="6.62678">
        <ele>580.1</ele>
        <time>2016-07-03T08:38:52Z</time>
      </trkpt>
      <trkpt lat="47.84681" lon="6.62667">
        <ele>581</ele>
        <time>2016-07-03T08:38:56Z</time>
      </trkpt>
      <trkpt lat="47.8469" lon="6.62658">
        <ele>585.9</ele>
        <time>2016-07-03T08:39:01Z</time>
      </trkpt>
      <trkpt lat="47.84698" lon="6.62647">
        <ele>583.8</ele>
        <time>2016-07-03T08:39:06Z</time>
      </trkpt>
      <trkpt lat="47.84706" lon="6.62638">
        <ele>581</ele>
        <time>2016-07-03T08:39:10Z</time>
      </trkpt>
      <trkpt lat="47.84714" lon="6.62629">
        <ele>581.4</ele>
        <time>2016-07-03T08:39:14Z</time>
      </trkpt>
      <trkpt lat="47.84721" lon="6.62619">
        <ele>584.1</ele>
        <time>2016-07-03T08:39:18Z</time>
      </trkpt>
      <trkpt lat="47.8473" lon="6.62612">
        <ele>583.1</ele>
        <time>2016-07-03T08:39:22Z</time>
      </trkpt>
      <trkpt lat="47.8474" lon="6.62606">
        <ele>577.8</ele>
        <time>2016-07-03T08:39:26Z</time>
      </trkpt>
      <trkpt lat="47.84751" lon="6.62599">
        <ele>571.4</ele>
        <time>2016-07-03T08:39:30Z</time>
      </trkpt>
      <trkpt lat="47.84764" lon="6.626">
        <ele>565</ele>
        <time>2016-07-03T08:39:33Z</time>
      </trkpt>
      <trkpt lat="47.84774" lon="6.62607">
        <ele>563.4</ele>
        <time>2016-07-03T08:39:35Z</time>
      </trkpt>
      <trkpt lat="47.84782" lon="6.62615">
        <ele>564.2</ele>
        <time>2016-07-03T08:39:37Z</time>
      </trkpt>
      <trkpt lat="47.8479" lon="6.62622">
        <ele>564.7</ele>
        <time>2016-07-03T08:39:39Z</time>
      </trkpt>
      <trkpt lat="47.848" lon="6.62628">
        <ele>569.8</ele>
        <time>2016-07-03T08:39:41Z</time>
      </trkpt>
      <trkpt lat="47.84811" lon="6.62632">
        <ele>575.5</ele>
        <time>2016-07-03T08:39:44Z</time>
      </trkpt>
      <trkpt lat="47.84821" lon="6.62631">
        <ele>577.8</ele>
        <time>2016-07-03T08:39:47Z</time>
      </trkpt>
      <trkpt lat="47.84832" lon="6.62623">
        <ele>581.8</ele>
        <time>2016-07-03T08:39:51Z</time>
      </trkpt>
      <trkpt lat="47.8484" lon="6.62615">
        <ele>583</ele>
        <time>2016-07-03T08:39:54Z</time>
      </trkpt>
      <trkpt lat="47.8485" lon="6.62605">
        <ele>581.9</ele>
        <time>2016-07-03T08:39:58Z</time>
      </trkpt>
      <trkpt lat="47.8486" lon="6.62597">
        <ele>582.1</ele>
        <time>2016-07-03T08:40:02Z</time>
      </trkpt>
      <trkpt lat="47.8487" lon="6.62591">
        <ele>582.8</ele>
        <time>2016-07-03T08:40:06Z</time>
      </trkpt>
      <trkpt lat="47.8488" lon="6.62586">
        <ele>582.5</ele>
        <time>2016-07-03T08:40:10Z</time>
      </trkpt>
      <trkpt lat="47.8489" lon="6.62579">
        <ele>584.3</ele>
        <time>2016-07-03T08:40:14Z</time>
      </trkpt>
      <trkpt lat="47.84897" lon="6.6257">
        <ele>586.1</ele>
        <time>2016-07-03T08:40:18Z</time>
      </trkpt>
      <trkpt lat="47.84905" lon="6.62559">
        <ele>586.9</ele>
        <time>2016-07-03T08:40:22Z</time>
      </trkpt>
      <trkpt lat="47.84914" lon="6.62551">
        <ele>587.3</ele>
        <time>2016-07-03T08:40:26Z</time>
      </trkpt>
      <trkpt lat="47.84924" lon="6.62544">
        <ele>587.7</ele>
        <time>2016-07-03T08:40:30Z</time>
      </trkpt>
      <trkpt lat="47.84932" lon="6.62535">
        <ele>587.7</ele>
        <time>2016-07-03T08:40:33Z</time>
      </trkpt>
      <trkpt lat="47.8494" lon="6.62526">
        <ele>588.5</ele>
        <time>2016-07-03T08:40:36Z</time>
      </trkpt>
      <trkpt lat="47.84948" lon="6.62514">
        <ele>588.3</ele>
        <time>2016-07-03T08:40:39Z</time>
      </trkpt>
      <trkpt lat="47.84956" lon="6.625">
        <ele>589.3</ele>
        <time>2016-07-03T08:40:42Z</time>
      </trkpt>
      <trkpt lat="47.84963" lon="6.62488">
        <ele>588.6</ele>
        <time>2016-07-03T08:40:45Z</time>
      </trkpt>
      <trkpt lat="47.84971" lon="6.62475">
        <ele>588.4</ele>
        <time>2016-07-03T08:40:48Z</time>
      </trkpt>
      <trkpt lat="47.84976" lon="6.62463">
        <ele>590</ele>
        <time>2016-07-03T08:40:51Z</time>
      </trkpt>
      <trkpt lat="47.8498" lon="6.62448">
        <ele>590.9</ele>
        <time>2016-07-03T08:40:54Z</time>
      </trkpt>
      <trkpt lat="47.84983" lon="6.62433">
        <ele>590.2</ele>
        <time>2016-07-03T08:40:57Z</time>
      </trkpt>
      <trkpt lat="47.84984" lon="6.62417">
        <ele>590</ele>
        <time>2016-07-03T08:41:00Z</time>
      </trkpt>
      <trkpt lat="47.84985" lon="6.62403">
        <ele>589.4</ele>
        <time>2016-07-03T08:41:03Z</time>
      </trkpt>
      <trkpt lat="47.84987" lon="6.62387">
        <ele>588.2</ele>
        <time>2016-07-03T08:41:06Z</time>
      </trkpt>
      <trkpt lat="47.84991" lon="6.62371">
        <ele>587.7</ele>
        <time>2016-07-03T08:41:09Z</time>
      </trkpt>
      <trkpt lat="47.84995" lon="6.62356">
        <ele>587</ele>
        <time>2016-07-03T08:41:12Z</time>
      </trkpt>
      <trkpt lat="47.85002" lon="6.62341">
        <ele>588.2</ele>
        <time>2016-07-03T08:41:15Z</time>
      </trkpt>
      <trkpt lat="47.85007" lon="6.62331">
        <ele>589.1</ele>
        <time>2016-07-03T08:41:18Z</time>
      </trkpt>
      <trkpt lat="47.85014" lon="6.62319">
        <ele>588</ele>
        <time>2016-07-03T08:41:22Z</time>
      </trkpt>
      <trkpt lat="47.85022" lon="6.6231">
        <ele>587.7</ele>
        <time>2016-07-03T08:41:26Z</time>
      </trkpt>
      <trkpt lat="47.85029" lon="6.62299">
        <ele>587.6</ele>
        <time>2016-07-03T08:41:30Z</time>
      </trkpt>
      <trkpt lat="47.85037" lon="6.6229">
        <ele>586.3</ele>
        <time>2016-07-03T08:41:34Z</time>
      </trkpt>
      <trkpt lat="47.85045" lon="6.6228">
        <ele>586.1</ele>
        <time>2016-07-03T08:41:38Z</time>
      </trkpt>
      <trkpt lat="47.85054" lon="6.62274">
        <ele>589.3</ele>
        <time>2016-07-03T08:41:42Z</time>
      </trkpt>
      <trkpt lat="47.85063" lon="6.62268">
        <ele>592.8</ele>
        <time>2016-07-03T08:41:47Z</time>
      </trkpt>
      <trkpt lat="47.85073" lon="6.62262">
        <ele>594</ele>
        <time>2016-07-03T08:41:52Z</time>
      </trkpt>
      <trkpt lat="47.85083" lon="6.62258">
        <ele>596.9</ele>
        <time>2016-07-03T08:41:56Z</time>
      </trkpt>
      <trkpt lat="47.85092" lon="6.62253">
        <ele>597.3</ele>
        <time>2016-07-03T08:42:00Z</time>
      </trkpt>
      <trkpt lat="47.85102" lon="6.62249">
        <ele>595.4</ele>
        <time>2016-07-03T08:42:05Z</time>
      </trkpt>
      <trkpt lat="47.85112" lon="6.62243">
        <ele>591.2</ele>
        <time>2016-07-03T08:42:09Z</time>
      </trkpt>
      <trkpt lat="47.85124" lon="6.6224">
        <ele>592.9</ele>
        <time>2016-07-03T08:42:13Z</time>
      </trkpt>
      <trkpt lat="47.85135" lon="6.6224">
        <ele>593.1</ele>
        <time>2016-07-03T08:42:17Z</time>
      </trkpt>
      <trkpt lat="47.85144" lon="6.6224">
        <ele>596.1</ele>
        <time>2016-07-03T08:42:20Z</time>
      </trkpt>
      <trkpt lat="47.85156" lon="6.62241">
        <ele>597.1</ele>
        <time>2016-07-03T08:42:24Z</time>
      </trkpt>
      <trkpt lat="47.85166" lon="6.62243">
        <ele>597.1</ele>
        <time>2016-07-03T08:42:27Z</time>
      </trkpt>
      <trkpt lat="47.85178" lon="6.62245">
        <ele>596.4</ele>
        <time>2016-07-03T08:42:30Z</time>
      </trkpt>
      <trkpt lat="47.85188" lon="6.62248">
        <ele>595.4</ele>
        <time>2016-07-03T08:42:32Z</time>
      </trkpt>
      <trkpt lat="47.85197" lon="6.62251">
        <ele>594.2</ele>
        <time>2016-07-03T08:42:34Z</time>
      </trkpt>
      <trkpt lat="47.8521" lon="6.62252">
        <ele>591.8</ele>
        <time>2016-07-03T08:42:37Z</time>
      </trkpt>
      <trkpt lat="47.8522" lon="6.62254">
        <ele>592.6</ele>
        <time>2016-07-03T08:42:40Z</time>
      </trkpt>
      <trkpt lat="47.85221" lon="6.62272">
        <ele>593</ele>
        <time>2016-07-03T08:42:45Z</time>
      </trkpt>
      <trkpt lat="47.85223" lon="6.62285">
        <ele>592.2</ele>
        <time>2016-07-03T08:42:48Z</time>
      </trkpt>
      <trkpt lat="47.85226" lon="6.623">
        <ele>591.7</ele>
        <time>2016-07-03T08:42:51Z</time>
      </trkpt>
      <trkpt lat="47.85232" lon="6.62314">
        <ele>593.3</ele>
        <time>2016-07-03T08:42:54Z</time>
      </trkpt>
      <trkpt lat="47.85239" lon="6.62328">
        <ele>592.9</ele>
        <time>2016-07-03T08:42:57Z</time>
      </trkpt>
      <trkpt lat="47.85245" lon="6.62339">
        <ele>592.4</ele>
        <time>2016-07-03T08:42:59Z</time>
      </trkpt>
      <trkpt lat="47.85251" lon="6.62352">
        <ele>591.8</ele>
        <time>2016-07-03T08:43:01Z</time>
      </trkpt>
      <trkpt lat="47.85256" lon="6.62366">
        <ele>591.3</ele>
        <time>2016-07-03T08:43:03Z</time>
      </trkpt>
      <trkpt lat="47.8526" lon="6.62382">
        <ele>590.5</ele>
        <time>2016-07-03T08:43:05Z</time>
      </trkpt>
      <trkpt lat="47.85263" lon="6.62397">
        <ele>589.8</ele>
        <time>2016-07-03T08:43:07Z</time>
      </trkpt>
      <trkpt lat="47.85266" lon="6.62412">
        <ele>591.5</ele>
        <time>2016-07-03T08:43:09Z</time>
      </trkpt>
      <trkpt lat="47.85266" lon="6.62426">
        <ele>591.7</ele>
        <time>2016-07-03T08:43:11Z</time>
      </trkpt>
      <trkpt lat="47.85267" lon="6.6244">
        <ele>591.6</ele>
        <time>2016-07-03T08:43:13Z</time>
      </trkpt>
      <trkpt lat="47.85272" lon="6.62456">
        <ele>590</ele>
        <time>2016-07-03T08:43:15Z</time>
      </trkpt>
      <trkpt lat="47.85274" lon="6.62473">
        <ele>586.4</ele>
        <time>2016-07-03T08:43:17Z</time>
      </trkpt>
      <trkpt lat="47.85276" lon="6.62491">
        <ele>585.8</ele>
        <time>2016-07-03T08:43:19Z</time>
      </trkpt>
      <trkpt lat="47.8528" lon="6.62508">
        <ele>583.7</ele>
        <time>2016-07-03T08:43:21Z</time>
      </trkpt>
      <trkpt lat="47.85282" lon="6.62529">
        <ele>579.6</ele>
        <time>2016-07-03T08:43:23Z</time>
      </trkpt>
      <trkpt lat="47.85281" lon="6.62547">
        <ele>579.3</ele>
        <time>2016-07-03T08:43:25Z</time>
      </trkpt>
      <trkpt lat="47.85281" lon="6.62563">
        <ele>580.2</ele>
        <time>2016-07-03T08:43:27Z</time>
      </trkpt>
      <trkpt lat="47.85285" lon="6.62578">
        <ele>579.4</ele>
        <time>2016-07-03T08:43:29Z</time>
      </trkpt>
      <trkpt lat="47.85289" lon="6.6259">
        <ele>579.9</ele>
        <time>2016-07-03T08:43:31Z</time>
      </trkpt>
      <trkpt lat="47.85294" lon="6.62601">
        <ele>578</ele>
        <time>2016-07-03T08:43:33Z</time>
      </trkpt>
      <trkpt lat="47.85299" lon="6.62613">
        <ele>577</ele>
        <time>2016-07-03T08:43:35Z</time>
      </trkpt>
      <trkpt lat="47.85304" lon="6.62629">
        <ele>576</ele>
        <time>2016-07-03T08:43:38Z</time>
      </trkpt>
      <trkpt lat="47.85307" lon="6.62644">
        <ele>577.9</ele>
        <time>2016-07-03T08:43:41Z</time>
      </trkpt>
      <trkpt lat="47.85309" lon="6.62659">
        <ele>578.4</ele>
        <time>2016-07-03T08:43:44Z</time>
      </trkpt>
      <trkpt lat="47.85311" lon="6.62673">
        <ele>579.9</ele>
        <time>2016-07-03T08:43:47Z</time>
      </trkpt>
      <trkpt lat="47.85314" lon="6.62689">
        <ele>579.4</ele>
        <time>2016-07-03T08:43:50Z</time>
      </trkpt>
      <trkpt lat="47.85317" lon="6.62702">
        <ele>582.1</ele>
        <time>2016-07-03T08:43:53Z</time>
      </trkpt>
      <trkpt lat="47.85319" lon="6.62717">
        <ele>580.7</ele>
        <time>2016-07-03T08:43:56Z</time>
      </trkpt>
      <trkpt lat="47.85321" lon="6.62736">
        <ele>573.7</ele>
        <time>2016-07-03T08:43:59Z</time>
      </trkpt>
      <trkpt lat="47.85323" lon="6.62751">
        <ele>570.8</ele>
        <time>2016-07-03T08:44:01Z</time>
      </trkpt>
      <trkpt lat="47.85329" lon="6.6277">
        <ele>568.8</ele>
        <time>2016-07-03T08:44:03Z</time>
      </trkpt>
      <trkpt lat="47.85334" lon="6.62784">
        <ele>569.7</ele>
        <time>2016-07-03T08:44:04Z</time>
      </trkpt>
      <trkpt lat="47.85344" lon="6.62804">
        <ele>572.8</ele>
        <time>2016-07-03T08:44:06Z</time>
      </trkpt>
      <trkpt lat="47.85352" lon="6.62825">
        <ele>573.9</ele>
        <time>2016-07-03T08:44:08Z</time>
      </trkpt>
      <trkpt lat="47.85359" lon="6.62848">
        <ele>573.1</ele>
        <time>2016-07-03T08:44:10Z</time>
      </trkpt>
      <trkpt lat="47.85364" lon="6.62862">
        <ele>572.2</ele>
        <time>2016-07-03T08:44:11Z</time>
      </trkpt>
      <trkpt lat="47.85367" lon="6.62875">
        <ele>575.2</ele>
        <time>2016-07-03T08:44:12Z</time>
      </trkpt>
      <trkpt lat="47.85369" lon="6.62888">
        <ele>576.8</ele>
        <time>2016-07-03T08:44:13Z</time>
      </trkpt>
      <trkpt lat="47.8537" lon="6.62915">
        <ele>577.2</ele>
        <time>2016-07-03T08:44:15Z</time>
      </trkpt>
      <trkpt lat="47.85369" lon="6.62929">
        <ele>577.2</ele>
        <time>2016-07-03T08:44:16Z</time>
      </trkpt>
      <trkpt lat="47.85367" lon="6.62943">
        <ele>577.1</ele>
        <time>2016-07-03T08:44:17Z</time>
      </trkpt>
      <trkpt lat="47.85366" lon="6.62957">
        <ele>576.6</ele>
        <time>2016-07-03T08:44:18Z</time>
      </trkpt>
      <trkpt lat="47.85363" lon="6.62972">
        <ele>576.5</ele>
        <time>2016-07-03T08:44:19Z</time>
      </trkpt>
      <trkpt lat="47.8536" lon="6.62987">
        <ele>575.8</ele>
        <time>2016-07-03T08:44:20Z</time>
      </trkpt>
      <trkpt lat="47.85357" lon="6.63002">
        <ele>575.2</ele>
        <time>2016-07-03T08:44:21Z</time>
      </trkpt>
      <trkpt lat="47.85356" lon="6.63017">
        <ele>574.6</ele>
        <time>2016-07-03T08:44:22Z</time>
      </trkpt>
      <trkpt lat="47.85355" lon="6.63033">
        <ele>575.2</ele>
        <time>2016-07-03T08:44:23Z</time>
      </trkpt>
      <trkpt lat="47.85355" lon="6.63049">
        <ele>575.3</ele>
        <time>2016-07-03T08:44:24Z</time>
      </trkpt>
      <trkpt lat="47.85355" lon="6.63064">
        <ele>575.8</ele>
        <time>2016-07-03T08:44:25Z</time>
      </trkpt>
      <trkpt lat="47.85354" lon="6.6308">
        <ele>576.3</ele>
        <time>2016-07-03T08:44:26Z</time>
      </trkpt>
      <trkpt lat="47.85353" lon="6.63095">
        <ele>576</ele>
        <time>2016-07-03T08:44:27Z</time>
      </trkpt>
      <trkpt lat="47.85352" lon="6.6311">
        <ele>575.1</ele>
        <time>2016-07-03T08:44:28Z</time>
      </trkpt>
      <trkpt lat="47.85351" lon="6.63125">
        <ele>573.2</ele>
        <time>2016-07-03T08:44:29Z</time>
      </trkpt>
      <trkpt lat="47.8535" lon="6.6314">
        <ele>572</ele>
        <time>2016-07-03T08:44:30Z</time>
      </trkpt>
      <trkpt lat="47.85349" lon="6.63154">
        <ele>570.6</ele>
        <time>2016-07-03T08:44:31Z</time>
      </trkpt>
      <trkpt lat="47.85347" lon="6.6317">
        <ele>569.1</ele>
        <time>2016-07-03T08:44:32Z</time>
      </trkpt>
      <trkpt lat="47.85346" lon="6.63184">
        <ele>568.3</ele>
        <time>2016-07-03T08:44:33Z</time>
      </trkpt>
      <trkpt lat="47.85346" lon="6.63198">
        <ele>567.2</ele>
        <time>2016-07-03T08:44:34Z</time>
      </trkpt>
      <trkpt lat="47.85345" lon="6.63213">
        <ele>566.4</ele>
        <time>2016-07-03T08:44:35Z</time>
      </trkpt>
      <trkpt lat="47.85346" lon="6.63227">
        <ele>564.9</ele>
        <time>2016-07-03T08:44:36Z</time>
      </trkpt>
      <trkpt lat="47.85347" lon="6.6324">
        <ele>563.7</ele>
        <time>2016-07-03T08:44:37Z</time>
      </trkpt>
      <trkpt lat="47.8535" lon="6.63264">
        <ele>561.5</ele>
        <time>2016-07-03T08:44:39Z</time>
      </trkpt>
      <trkpt lat="47.85358" lon="6.63286">
        <ele>558.9</ele>
        <time>2016-07-03T08:44:41Z</time>
      </trkpt>
      <trkpt lat="47.85364" lon="6.63306">
        <ele>556.6</ele>
        <time>2016-07-03T08:44:43Z</time>
      </trkpt>
      <trkpt lat="47.85361" lon="6.63325">
        <ele>555.2</ele>
        <time>2016-07-03T08:44:45Z</time>
      </trkpt>
      <trkpt lat="47.8535" lon="6.6334">
        <ele>554</ele>
        <time>2016-07-03T08:44:47Z</time>
      </trkpt>
      <trkpt lat="47.85342" lon="6.63359">
        <ele>553.6</ele>
        <time>2016-07-03T08:44:49Z</time>
      </trkpt>
      <trkpt lat="47.85343" lon="6.63381">
        <ele>552.9</ele>
        <time>2016-07-03T08:44:51Z</time>
      </trkpt>
      <trkpt lat="47.85349" lon="6.63401">
        <ele>552.9</ele>
        <time>2016-07-03T08:44:53Z</time>
      </trkpt>
      <trkpt lat="47.85357" lon="6.63419">
        <ele>553.1</ele>
        <time>2016-07-03T08:44:55Z</time>
      </trkpt>
      <trkpt lat="47.85365" lon="6.63438">
        <ele>552</ele>
        <time>2016-07-03T08:44:57Z</time>
      </trkpt>
      <trkpt lat="47.85369" lon="6.63459">
        <ele>551.2</ele>
        <time>2016-07-03T08:44:59Z</time>
      </trkpt>
      <trkpt lat="47.85367" lon="6.6348">
        <ele>549.2</ele>
        <time>2016-07-03T08:45:01Z</time>
      </trkpt>
      <trkpt lat="47.85361" lon="6.63504">
        <ele>546.9</ele>
        <time>2016-07-03T08:45:03Z</time>
      </trkpt>
      <trkpt lat="47.85352" lon="6.63526">
        <ele>543.9</ele>
        <time>2016-07-03T08:45:05Z</time>
      </trkpt>
      <trkpt lat="47.85348" lon="6.63545">
        <ele>543.4</ele>
        <time>2016-07-03T08:45:07Z</time>
      </trkpt>
      <trkpt lat="47.85353" lon="6.6356">
        <ele>542</ele>
        <time>2016-07-03T08:45:10Z</time>
      </trkpt>
      <trkpt lat="47.85351" lon="6.63574">
        <ele>541</ele>
        <time>2016-07-03T08:45:13Z</time>
      </trkpt>
      <trkpt lat="47.85343" lon="6.63587">
        <ele>543</ele>
        <time>2016-07-03T08:45:16Z</time>
      </trkpt>
      <trkpt lat="47.85338" lon="6.636">
        <ele>542.6</ele>
        <time>2016-07-03T08:45:19Z</time>
      </trkpt>
      <trkpt lat="47.85333" lon="6.63616">
        <ele>543</ele>
        <time>2016-07-03T08:45:22Z</time>
      </trkpt>
      <trkpt lat="47.85332" lon="6.6363">
        <ele>543.9</ele>
        <time>2016-07-03T08:45:25Z</time>
      </trkpt>
      <trkpt lat="47.85331" lon="6.63644">
        <ele>543.6</ele>
        <time>2016-07-03T08:45:28Z</time>
      </trkpt>
      <trkpt lat="47.85332" lon="6.63658">
        <ele>543.5</ele>
        <time>2016-07-03T08:45:31Z</time>
      </trkpt>
      <trkpt lat="47.85336" lon="6.63672">
        <ele>543.8</ele>
        <time>2016-07-03T08:45:35Z</time>
      </trkpt>
      <trkpt lat="47.85327" lon="6.63681">
        <ele>543.7</ele>
        <time>2016-07-03T08:45:52Z</time>
      </trkpt>
      <trkpt lat="47.8532" lon="6.63694">
        <ele>541.9</ele>
        <time>2016-07-03T08:45:56Z</time>
      </trkpt>
      <trkpt lat="47.85314" lon="6.63704">
        <ele>540.6</ele>
        <time>2016-07-03T08:45:59Z</time>
      </trkpt>
      <trkpt lat="47.85304" lon="6.63712">
        <ele>542.2</ele>
        <time>2016-07-03T08:46:02Z</time>
      </trkpt>
      <trkpt lat="47.85295" lon="6.63721">
        <ele>543.2</ele>
        <time>2016-07-03T08:46:05Z</time>
      </trkpt>
      <trkpt lat="47.85288" lon="6.6373">
        <ele>544.1</ele>
        <time>2016-07-03T08:46:08Z</time>
      </trkpt>
      <trkpt lat="47.85282" lon="6.63745">
        <ele>544.3</ele>
        <time>2016-07-03T08:46:12Z</time>
      </trkpt>
      <trkpt lat="47.85277" lon="6.63756">
        <ele>541.6</ele>
        <time>2016-07-03T08:46:16Z</time>
      </trkpt>
      <trkpt lat="47.85271" lon="6.63771">
        <ele>541.6</ele>
        <time>2016-07-03T08:46:20Z</time>
      </trkpt>
      <trkpt lat="47.85264" lon="6.63782">
        <ele>538.2</ele>
        <time>2016-07-03T08:46:23Z</time>
      </trkpt>
      <trkpt lat="47.85255" lon="6.63792">
        <ele>538.7</ele>
        <time>2016-07-03T08:46:27Z</time>
      </trkpt>
      <trkpt lat="47.85245" lon="6.638">
        <ele>536</ele>
        <time>2016-07-03T08:46:31Z</time>
      </trkpt>
      <trkpt lat="47.85234" lon="6.63803">
        <ele>534.1</ele>
        <time>2016-07-03T08:46:34Z</time>
      </trkpt>
      <trkpt lat="47.85224" lon="6.63806">
        <ele>527.1</ele>
        <time>2016-07-03T08:46:37Z</time>
      </trkpt>
      <trkpt lat="47.85213" lon="6.63806">
        <ele>522</ele>
        <time>2016-07-03T08:46:40Z</time>
      </trkpt>
      <trkpt lat="47.85204" lon="6.63801">
        <ele>517.8</ele>
        <time>2016-07-03T08:46:43Z</time>
      </trkpt>
      <trkpt lat="47.85194" lon="6.63797">
        <ele>515.5</ele>
        <time>2016-07-03T08:46:45Z</time>
      </trkpt>
      <trkpt lat="47.85184" lon="6.63796">
        <ele>510</ele>
        <time>2016-07-03T08:46:48Z</time>
      </trkpt>
      <trkpt lat="47.85173" lon="6.638">
        <ele>506.8</ele>
        <time>2016-07-03T08:46:52Z</time>
      </trkpt>
      <trkpt lat="47.85164" lon="6.63801">
        <ele>505.7</ele>
        <time>2016-07-03T08:46:55Z</time>
      </trkpt>
      <trkpt lat="47.85156" lon="6.63796">
        <ele>503</ele>
        <time>2016-07-03T08:46:58Z</time>
      </trkpt>
      <trkpt lat="47.85147" lon="6.63787">
        <ele>503.1</ele>
        <time>2016-07-03T08:47:04Z</time>
      </trkpt>
      <trkpt lat="47.85139" lon="6.63775">
        <ele>500.2</ele>
        <time>2016-07-03T08:47:08Z</time>
      </trkpt>
      <trkpt lat="47.85127" lon="6.63772">
        <ele>503.1</ele>
        <time>2016-07-03T08:47:11Z</time>
      </trkpt>
      <trkpt lat="47.85118" lon="6.63775">
        <ele>504.7</ele>
        <time>2016-07-03T08:47:14Z</time>
      </trkpt>
      <trkpt lat="47.85114" lon="6.63788">
        <ele>507.2</ele>
        <time>2016-07-03T08:47:18Z</time>
      </trkpt>
      <trkpt lat="47.8511" lon="6.63802">
        <ele>506.5</ele>
        <time>2016-07-03T08:47:24Z</time>
      </trkpt>
      <trkpt lat="47.85103" lon="6.63812">
        <ele>512.5</ele>
        <time>2016-07-03T08:47:32Z</time>
      </trkpt>
      <trkpt lat="47.85101" lon="6.63826">
        <ele>521.2</ele>
        <time>2016-07-03T08:47:47Z</time>
      </trkpt>
      <trkpt lat="47.851" lon="6.6384">
        <ele>526.4</ele>
        <time>2016-07-03T08:47:54Z</time>
      </trkpt>
      <trkpt lat="47.85099" lon="6.63857">
        <ele>527.4</ele>
        <time>2016-07-03T08:47:59Z</time>
      </trkpt>
      <trkpt lat="47.85095" lon="6.63873">
        <ele>529.3</ele>
        <time>2016-07-03T08:48:02Z</time>
      </trkpt>
      <trkpt lat="47.85091" lon="6.63885">
        <ele>530.5</ele>
        <time>2016-07-03T08:48:05Z</time>
      </trkpt>
      <trkpt lat="47.85086" lon="6.63897">
        <ele>529.6</ele>
        <time>2016-07-03T08:48:08Z</time>
      </trkpt>
      <trkpt lat="47.85079" lon="6.63911">
        <ele>528.9</ele>
        <time>2016-07-03T08:48:11Z</time>
      </trkpt>
      <trkpt lat="47.85072" lon="6.63926">
        <ele>528.9</ele>
        <time>2016-07-03T08:48:14Z</time>
      </trkpt>
      <trkpt lat="47.85068" lon="6.63939">
        <ele>527.8</ele>
        <time>2016-07-03T08:48:17Z</time>
      </trkpt>
      <trkpt lat="47.85063" lon="6.63954">
        <ele>528.7</ele>
        <time>2016-07-03T08:48:21Z</time>
      </trkpt>
      <trkpt lat="47.85057" lon="6.63966">
        <ele>527.9</ele>
        <time>2016-07-03T08:48:24Z</time>
      </trkpt>
      <trkpt lat="47.85053" lon="6.63979">
        <ele>527.7</ele>
        <time>2016-07-03T08:48:28Z</time>
      </trkpt>
      <trkpt lat="47.8505" lon="6.63996">
        <ele>529.5</ele>
        <time>2016-07-03T08:48:33Z</time>
      </trkpt>
      <trkpt lat="47.85047" lon="6.64009">
        <ele>530.3</ele>
        <time>2016-07-03T08:48:37Z</time>
      </trkpt>
      <trkpt lat="47.85045" lon="6.64023">
        <ele>529.1</ele>
        <time>2016-07-03T08:48:41Z</time>
      </trkpt>
      <trkpt lat="47.8504" lon="6.64035">
        <ele>526.2</ele>
        <time>2016-07-03T08:48:45Z</time>
      </trkpt>
      <trkpt lat="47.85036" lon="6.64051">
        <ele>523.4</ele>
        <time>2016-07-03T08:48:49Z</time>
      </trkpt>
      <trkpt lat="47.85035" lon="6.64068">
        <ele>517</ele>
        <time>2016-07-03T08:48:53Z</time>
      </trkpt>
      <trkpt lat="47.85036" lon="6.64082">
        <ele>516</ele>
        <time>2016-07-03T08:48:56Z</time>
      </trkpt>
      <trkpt lat="47.85037" lon="6.641">
        <ele>515</ele>
        <time>2016-07-03T08:49:00Z</time>
      </trkpt>
      <trkpt lat="47.85035" lon="6.64117">
        <ele>514.5</ele>
        <time>2016-07-03T08:49:04Z</time>
      </trkpt>
      <trkpt lat="47.85037" lon="6.64136">
        <ele>512.8</ele>
        <time>2016-07-03T08:49:08Z</time>
      </trkpt>
      <trkpt lat="47.85035" lon="6.64149">
        <ele>515.7</ele>
        <time>2016-07-03T08:49:11Z</time>
      </trkpt>
      <trkpt lat="47.85037" lon="6.64165">
        <ele>516</ele>
        <time>2016-07-03T08:49:14Z</time>
      </trkpt>
      <trkpt lat="47.8504" lon="6.6418">
        <ele>514.9</ele>
        <time>2016-07-03T08:49:17Z</time>
      </trkpt>
      <trkpt lat="47.85039" lon="6.64196">
        <ele>513.5</ele>
        <time>2016-07-03T08:49:21Z</time>
      </trkpt>
      <trkpt lat="47.85035" lon="6.64212">
        <ele>513.3</ele>
        <time>2016-07-03T08:49:24Z</time>
      </trkpt>
      <trkpt lat="47.85036" lon="6.64229">
        <ele>513.7</ele>
        <time>2016-07-03T08:49:27Z</time>
      </trkpt>
      <trkpt lat="47.85037" lon="6.64245">
        <ele>515.8</ele>
        <time>2016-07-03T08:49:31Z</time>
      </trkpt>
      <trkpt lat="47.85039" lon="6.64259">
        <ele>518</ele>
        <time>2016-07-03T08:49:34Z</time>
      </trkpt>
      <trkpt lat="47.85042" lon="6.64275">
        <ele>523.6</ele>
        <time>2016-07-03T08:49:39Z</time>
      </trkpt>
      <trkpt lat="47.85046" lon="6.64287">
        <ele>526.8</ele>
        <time>2016-07-03T08:49:44Z</time>
      </trkpt>
      <trkpt lat="47.85047" lon="6.64303">
        <ele>527.4</ele>
        <time>2016-07-03T08:49:49Z</time>
      </trkpt>
      <trkpt lat="47.8505" lon="6.64317">
        <ele>527.4</ele>
        <time>2016-07-03T08:49:55Z</time>
      </trkpt>
      <trkpt lat="47.85055" lon="6.64332">
        <ele>528.5</ele>
        <time>2016-07-03T08:50:01Z</time>
      </trkpt>
      <trkpt lat="47.85059" lon="6.64345">
        <ele>532.3</ele>
        <time>2016-07-03T08:50:06Z</time>
      </trkpt>
      <trkpt lat="47.85063" lon="6.64361">
        <ele>531.9</ele>
        <time>2016-07-03T08:50:12Z</time>
      </trkpt>
      <trkpt lat="47.85062" lon="6.64375">
        <ele>530.3</ele>
        <time>2016-07-03T08:50:17Z</time>
      </trkpt>
      <trkpt lat="47.85068" lon="6.64389">
        <ele>531.4</ele>
        <time>2016-07-03T08:50:20Z</time>
      </trkpt>
      <trkpt lat="47.85075" lon="6.64403">
        <ele>531.3</ele>
        <time>2016-07-03T08:50:23Z</time>
      </trkpt>
      <trkpt lat="47.85084" lon="6.64416">
        <ele>527.8</ele>
        <time>2016-07-03T08:50:27Z</time>
      </trkpt>
      <trkpt lat="47.85093" lon="6.64429">
        <ele>527.7</ele>
        <time>2016-07-03T08:50:31Z</time>
      </trkpt>
      <trkpt lat="47.85097" lon="6.64441">
        <ele>527.4</ele>
        <time>2016-07-03T08:50:34Z</time>
      </trkpt>
      <trkpt lat="47.851" lon="6.64455">
        <ele>530.3</ele>
        <time>2016-07-03T08:50:39Z</time>
      </trkpt>
      <trkpt lat="47.85103" lon="6.64469">
        <ele>531.6</ele>
        <time>2016-07-03T08:50:43Z</time>
      </trkpt>
      <trkpt lat="47.85104" lon="6.64483">
        <ele>532.7</ele>
        <time>2016-07-03T08:50:47Z</time>
      </trkpt>
      <trkpt lat="47.8511" lon="6.64497">
        <ele>532.1</ele>
        <time>2016-07-03T08:50:51Z</time>
      </trkpt>
      <trkpt lat="47.85104" lon="6.6451">
        <ele>528.5</ele>
        <time>2016-07-03T08:50:54Z</time>
      </trkpt>
      <trkpt lat="47.851" lon="6.64522">
        <ele>528.1</ele>
        <time>2016-07-03T08:50:57Z</time>
      </trkpt>
      <trkpt lat="47.85102" lon="6.64536">
        <ele>527.1</ele>
        <time>2016-07-03T08:51:00Z</time>
      </trkpt>
      <trkpt lat="47.85105" lon="6.6455">
        <ele>524.6</ele>
        <time>2016-07-03T08:51:03Z</time>
      </trkpt>
      <trkpt lat="47.85106" lon="6.64567">
        <ele>522.1</ele>
        <time>2016-07-03T08:51:07Z</time>
      </trkpt>
      <trkpt lat="47.85106" lon="6.64583">
        <ele>522.9</ele>
        <time>2016-07-03T08:51:11Z</time>
      </trkpt>
      <trkpt lat="47.85104" lon="6.64599">
        <ele>519</ele>
        <time>2016-07-03T08:51:17Z</time>
      </trkpt>
      <trkpt lat="47.85109" lon="6.64613">
        <ele>520.4</ele>
        <time>2016-07-03T08:51:22Z</time>
      </trkpt>
      <trkpt lat="47.85117" lon="6.64623">
        <ele>523.9</ele>
        <time>2016-07-03T08:51:28Z</time>
      </trkpt>
      <trkpt lat="47.85124" lon="6.64635">
        <ele>526.5</ele>
        <time>2016-07-03T08:51:34Z</time>
      </trkpt>
      <trkpt lat="47.85131" lon="6.64648">
        <ele>526.9</ele>
        <time>2016-07-03T08:51:41Z</time>
      </trkpt>
      <trkpt lat="47.85131" lon="6.64663">
        <ele>524.3</ele>
        <time>2016-07-03T08:51:47Z</time>
      </trkpt>
      <trkpt lat="47.85132" lon="6.64678">
        <ele>521.8</ele>
        <time>2016-07-03T08:51:53Z</time>
      </trkpt>
      <trkpt lat="47.8513" lon="6.64692">
        <ele>521</ele>
        <time>2016-07-03T08:51:58Z</time>
      </trkpt>
      <trkpt lat="47.85132" lon="6.64707">
        <ele>520.1</ele>
        <time>2016-07-03T08:52:04Z</time>
      </trkpt>
      <trkpt lat="47.85132" lon="6.64723">
        <ele>520.6</ele>
        <time>2016-07-03T08:52:09Z</time>
      </trkpt>
      <trkpt lat="47.85132" lon="6.64738">
        <ele>521.1</ele>
        <time>2016-07-03T08:52:14Z</time>
      </trkpt>
      <trkpt lat="47.85133" lon="6.64752">
        <ele>520.9</ele>
        <time>2016-07-03T08:52:19Z</time>
      </trkpt>
      <trkpt lat="47.85135" lon="6.64766">
        <ele>521.8</ele>
        <time>2016-07-03T08:52:24Z</time>
      </trkpt>
      <trkpt lat="47.8514" lon="6.64779">
        <ele>524</ele>
        <time>2016-07-03T08:52:32Z</time>
      </trkpt>
      <trkpt lat="47.85147" lon="6.64788">
        <ele>527.6</ele>
        <time>2016-07-03T08:52:38Z</time>
      </trkpt>
      <trkpt lat="47.85155" lon="6.64796">
        <ele>531</ele>
        <time>2016-07-03T08:52:44Z</time>
      </trkpt>
      <trkpt lat="47.8516" lon="6.64808">
        <ele>533.1</ele>
        <time>2016-07-03T08:52:50Z</time>
      </trkpt>
      <trkpt lat="47.85161" lon="6.64823">
        <ele>532.8</ele>
        <time>2016-07-03T08:52:56Z</time>
      </trkpt>
      <trkpt lat="47.85157" lon="6.64836">
        <ele>535.3</ele>
        <time>2016-07-03T08:53:02Z</time>
      </trkpt>
      <trkpt lat="47.85159" lon="6.64852">
        <ele>535.3</ele>
        <time>2016-07-03T08:53:07Z</time>
      </trkpt>
      <trkpt lat="47.85158" lon="6.64867">
        <ele>540</ele>
        <time>2016-07-03T08:53:13Z</time>
      </trkpt>
      <trkpt lat="47.85155" lon="6.6488">
        <ele>537.3</ele>
        <time>2016-07-03T08:53:19Z</time>
      </trkpt>
      <trkpt lat="47.8516" lon="6.64892">
        <ele>542.4</ele>
        <time>2016-07-03T08:53:22Z</time>
      </trkpt>
      <trkpt lat="47.85156" lon="6.64906">
        <ele>540.1</ele>
        <time>2016-07-03T08:53:28Z</time>
      </trkpt>
      <trkpt lat="47.85156" lon="6.6492">
        <ele>539.7</ele>
        <time>2016-07-03T08:53:33Z</time>
      </trkpt>
      <trkpt lat="47.85154" lon="6.64934">
        <ele>536.2</ele>
        <time>2016-07-03T08:53:39Z</time>
      </trkpt>
      <trkpt lat="47.85154" lon="6.64948">
        <ele>534.5</ele>
        <time>2016-07-03T08:53:43Z</time>
      </trkpt>
      <trkpt lat="47.85151" lon="6.64965">
        <ele>531.8</ele>
        <time>2016-07-03T08:53:48Z</time>
      </trkpt>
      <trkpt lat="47.85154" lon="6.64984">
        <ele>532.9</ele>
        <time>2016-07-03T08:53:51Z</time>
      </trkpt>
      <trkpt lat="47.85156" lon="6.64998">
        <ele>535.9</ele>
        <time>2016-07-03T08:53:53Z</time>
      </trkpt>
      <trkpt lat="47.85158" lon="6.65011">
        <ele>537.4</ele>
        <time>2016-07-03T08:53:55Z</time>
      </trkpt>
      <trkpt lat="47.85163" lon="6.65027">
        <ele>539.5</ele>
        <time>2016-07-03T08:53:58Z</time>
      </trkpt>
      <trkpt lat="47.85159" lon="6.6504">
        <ele>532.8</ele>
        <time>2016-07-03T08:54:00Z</time>
      </trkpt>
      <trkpt lat="47.85149" lon="6.65051">
        <ele>532.3</ele>
        <time>2016-07-03T08:54:02Z</time>
      </trkpt>
      <trkpt lat="47.85144" lon="6.65067">
        <ele>531.8</ele>
        <time>2016-07-03T08:54:04Z</time>
      </trkpt>
      <trkpt lat="47.85146" lon="6.65081">
        <ele>539</ele>
        <time>2016-07-03T08:54:06Z</time>
      </trkpt>
      <trkpt lat="47.85138" lon="6.6509">
        <ele>540.9</ele>
        <time>2016-07-03T08:54:09Z</time>
      </trkpt>
      <trkpt lat="47.85137" lon="6.65104">
        <ele>534.6</ele>
        <time>2016-07-03T08:54:12Z</time>
      </trkpt>
      <trkpt lat="47.85141" lon="6.6512">
        <ele>531.5</ele>
        <time>2016-07-03T08:54:15Z</time>
      </trkpt>
      <trkpt lat="47.85142" lon="6.65134">
        <ele>528.1</ele>
        <time>2016-07-03T08:54:18Z</time>
      </trkpt>
      <trkpt lat="47.85139" lon="6.65148">
        <ele>524.2</ele>
        <time>2016-07-03T08:54:23Z</time>
      </trkpt>
      <trkpt lat="47.85139" lon="6.65166">
        <ele>522.9</ele>
        <time>2016-07-03T08:54:27Z</time>
      </trkpt>
      <trkpt lat="47.85138" lon="6.65181">
        <ele>524.7</ele>
        <time>2016-07-03T08:54:31Z</time>
      </trkpt>
      <trkpt lat="47.8514" lon="6.65195">
        <ele>527.7</ele>
        <time>2016-07-03T08:54:34Z</time>
      </trkpt>
      <trkpt lat="47.85137" lon="6.65209">
        <ele>527.5</ele>
        <time>2016-07-03T08:54:38Z</time>
      </trkpt>
      <trkpt lat="47.8514" lon="6.65222">
        <ele>529.6</ele>
        <time>2016-07-03T08:54:42Z</time>
      </trkpt>
      <trkpt lat="47.85141" lon="6.65236">
        <ele>532.2</ele>
        <time>2016-07-03T08:54:45Z</time>
      </trkpt>
      <trkpt lat="47.85141" lon="6.65251">
        <ele>536</ele>
        <time>2016-07-03T08:54:49Z</time>
      </trkpt>
      <trkpt lat="47.85146" lon="6.65267">
        <ele>541.5</ele>
        <time>2016-07-03T08:54:53Z</time>
      </trkpt>
      <trkpt lat="47.85146" lon="6.65283">
        <ele>545.8</ele>
        <time>2016-07-03T08:54:57Z</time>
      </trkpt>
      <trkpt lat="47.85142" lon="6.653">
        <ele>540.5</ele>
        <time>2016-07-03T08:55:01Z</time>
      </trkpt>
      <trkpt lat="47.85142" lon="6.65315">
        <ele>538.8</ele>
        <time>2016-07-03T08:55:04Z</time>
      </trkpt>
      <trkpt lat="47.85149" lon="6.65331">
        <ele>541.6</ele>
        <time>2016-07-03T08:55:06Z</time>
      </trkpt>
      <trkpt lat="47.8515" lon="6.65348">
        <ele>543.8</ele>
        <time>2016-07-03T08:55:10Z</time>
      </trkpt>
      <trkpt lat="47.85151" lon="6.65364">
        <ele>545.8</ele>
        <time>2016-07-03T08:55:13Z</time>
      </trkpt>
      <trkpt lat="47.85148" lon="6.65381">
        <ele>543</ele>
        <time>2016-07-03T08:55:17Z</time>
      </trkpt>
      <trkpt lat="47.85146" lon="6.65396">
        <ele>539.2</ele>
        <time>2016-07-03T08:55:20Z</time>
      </trkpt>
      <trkpt lat="47.85148" lon="6.65412">
        <ele>541.9</ele>
        <time>2016-07-03T08:55:23Z</time>
      </trkpt>
      <trkpt lat="47.85147" lon="6.65427">
        <ele>538.5</ele>
        <time>2016-07-03T08:55:26Z</time>
      </trkpt>
      <trkpt lat="47.8515" lon="6.65445">
        <ele>539.9</ele>
        <time>2016-07-03T08:55:29Z</time>
      </trkpt>
      <trkpt lat="47.85151" lon="6.6546">
        <ele>536.3</ele>
        <time>2016-07-03T08:55:32Z</time>
      </trkpt>
      <trkpt lat="47.85157" lon="6.65478">
        <ele>538</ele>
        <time>2016-07-03T08:55:35Z</time>
      </trkpt>
      <trkpt lat="47.8516" lon="6.65494">
        <ele>545.6</ele>
        <time>2016-07-03T08:55:38Z</time>
      </trkpt>
      <trkpt lat="47.85156" lon="6.65509">
        <ele>546.4</ele>
        <time>2016-07-03T08:55:42Z</time>
      </trkpt>
      <trkpt lat="47.85156" lon="6.65523">
        <ele>548</ele>
        <time>2016-07-03T08:55:45Z</time>
      </trkpt>
      <trkpt lat="47.85154" lon="6.65537">
        <ele>551.4</ele>
        <time>2016-07-03T08:55:49Z</time>
      </trkpt>
      <trkpt lat="47.85154" lon="6.65554">
        <ele>548.8</ele>
        <time>2016-07-03T08:55:52Z</time>
      </trkpt>
      <trkpt lat="47.85153" lon="6.65571">
        <ele>550.5</ele>
        <time>2016-07-03T08:55:56Z</time>
      </trkpt>
      <trkpt lat="47.8515" lon="6.65588">
        <ele>547.8</ele>
        <time>2016-07-03T08:56:00Z</time>
      </trkpt>
      <trkpt lat="47.85149" lon="6.65606">
        <ele>546.3</ele>
        <time>2016-07-03T08:56:03Z</time>
      </trkpt>
      <trkpt lat="47.85146" lon="6.65622">
        <ele>545.5</ele>
        <time>2016-07-03T08:56:06Z</time>
      </trkpt>
      <trkpt lat="47.85143" lon="6.65635">
        <ele>543.2</ele>
        <time>2016-07-03T08:56:09Z</time>
      </trkpt>
      <trkpt lat="47.85138" lon="6.65648">
        <ele>543.9</ele>
        <time>2016-07-03T08:56:12Z</time>
      </trkpt>
      <trkpt lat="47.85137" lon="6.65662">
        <ele>543.5</ele>
        <time>2016-07-03T08:56:15Z</time>
      </trkpt>
      <trkpt lat="47.85135" lon="6.65678">
        <ele>545.3</ele>
        <time>2016-07-03T08:56:19Z</time>
      </trkpt>
      <trkpt lat="47.85126" lon="6.65676">
        <ele>550.7</ele>
        <time>2016-07-03T08:56:30Z</time>
      </trkpt>
      <trkpt lat="47.85114" lon="6.65674">
        <ele>551</ele>
        <time>2016-07-03T08:56:35Z</time>
      </trkpt>
      <trkpt lat="47.85104" lon="6.65674">
        <ele>552.4</ele>
        <time>2016-07-03T08:56:41Z</time>
      </trkpt>
      <trkpt lat="47.85094" lon="6.65674">
        <ele>552.1</ele>
        <time>2016-07-03T08:56:46Z</time>
      </trkpt>
      <trkpt lat="47.85083" lon="6.65678">
        <ele>550.3</ele>
        <time>2016-07-03T08:56:51Z</time>
      </trkpt>
      <trkpt lat="47.85075" lon="6.65687">
        <ele>550.8</ele>
        <time>2016-07-03T08:56:56Z</time>
      </trkpt>
      <trkpt lat="47.85066" lon="6.65696">
        <ele>547.7</ele>
        <time>2016-07-03T08:57:02Z</time>
      </trkpt>
      <trkpt lat="47.8506" lon="6.65706">
        <ele>546.8</ele>
        <time>2016-07-03T08:57:08Z</time>
      </trkpt>
      <trkpt lat="47.85052" lon="6.65717">
        <ele>545.9</ele>
        <time>2016-07-03T08:57:14Z</time>
      </trkpt>
      <trkpt lat="47.85046" lon="6.65728">
        <ele>545.2</ele>
        <time>2016-07-03T08:57:19Z</time>
      </trkpt>
      <trkpt lat="47.85039" lon="6.65739">
        <ele>545.9</ele>
        <time>2016-07-03T08:57:24Z</time>
      </trkpt>
      <trkpt lat="47.85034" lon="6.65754">
        <ele>548.7</ele>
        <time>2016-07-03T08:57:30Z</time>
      </trkpt>
      <trkpt lat="47.85028" lon="6.65766">
        <ele>550.6</ele>
        <time>2016-07-03T08:57:36Z</time>
      </trkpt>
      <trkpt lat="47.85021" lon="6.65776">
        <ele>553.1</ele>
        <time>2016-07-03T08:57:42Z</time>
      </trkpt>
      <trkpt lat="47.85012" lon="6.65785">
        <ele>556.3</ele>
        <time>2016-07-03T08:57:48Z</time>
      </trkpt>
      <trkpt lat="47.85004" lon="6.65778">
        <ele>556.2</ele>
        <time>2016-07-03T08:57:56Z</time>
      </trkpt>
      <trkpt lat="47.85003" lon="6.65765">
        <ele>558.2</ele>
        <time>2016-07-03T08:58:03Z</time>
      </trkpt>
      <trkpt lat="47.85006" lon="6.65752">
        <ele>561.6</ele>
        <time>2016-07-03T08:58:11Z</time>
      </trkpt>
      <trkpt lat="47.85004" lon="6.65736">
        <ele>562.9</ele>
        <time>2016-07-03T08:58:19Z</time>
      </trkpt>
      <trkpt lat="47.85" lon="6.65722">
        <ele>561.4</ele>
        <time>2016-07-03T08:58:25Z</time>
      </trkpt>
      <trkpt lat="47.85" lon="6.65706">
        <ele>562.8</ele>
        <time>2016-07-03T08:58:31Z</time>
      </trkpt>
      <trkpt lat="47.84997" lon="6.65692">
        <ele>563.3</ele>
        <time>2016-07-03T08:58:37Z</time>
      </trkpt>
      <trkpt lat="47.84994" lon="6.65678">
        <ele>564.5</ele>
        <time>2016-07-03T08:58:44Z</time>
      </trkpt>
      <trkpt lat="47.8499" lon="6.65665">
        <ele>565.6</ele>
        <time>2016-07-03T08:58:51Z</time>
      </trkpt>
      <trkpt lat="47.84989" lon="6.65651">
        <ele>568.1</ele>
        <time>2016-07-03T08:58:58Z</time>
      </trkpt>
      <trkpt lat="47.84986" lon="6.65638">
        <ele>569.6</ele>
        <time>2016-07-03T08:59:05Z</time>
      </trkpt>
      <trkpt lat="47.84981" lon="6.65626">
        <ele>570.5</ele>
        <time>2016-07-03T08:59:13Z</time>
      </trkpt>
      <trkpt lat="47.84975" lon="6.65637">
        <ele>572.5</ele>
        <time>2016-07-03T08:59:26Z</time>
      </trkpt>
      <trkpt lat="47.84966" lon="6.65642">
        <ele>574.4</ele>
        <time>2016-07-03T08:59:35Z</time>
      </trkpt>
      <trkpt lat="47.84962" lon="6.65629">
        <ele>575.3</ele>
        <time>2016-07-03T08:59:43Z</time>
      </trkpt>
      <trkpt lat="47.84962" lon="6.65616">
        <ele>574</ele>
        <time>2016-07-03T08:59:50Z</time>
      </trkpt>
      <trkpt lat="47.8496" lon="6.65602">
        <ele>574.8</ele>
        <time>2016-07-03T08:59:57Z</time>
      </trkpt>
      <trkpt lat="47.84954" lon="6.65589">
        <ele>575.7</ele>
        <time>2016-07-03T09:00:03Z</time>
      </trkpt>
      <trkpt lat="47.84947" lon="6.65578">
        <ele>575.9</ele>
        <time>2016-07-03T09:00:10Z</time>
      </trkpt>
      <trkpt lat="47.84938" lon="6.65578">
        <ele>577.6</ele>
        <time>2016-07-03T09:00:18Z</time>
      </trkpt>
      <trkpt lat="47.84931" lon="6.65589">
        <ele>577.6</ele>
        <time>2016-07-03T09:00:27Z</time>
      </trkpt>
      <trkpt lat="47.84926" lon="6.656">
        <ele>579.1</ele>
        <time>2016-07-03T09:00:38Z</time>
      </trkpt>
      <trkpt lat="47.8492" lon="6.65613">
        <ele>581.1</ele>
        <time>2016-07-03T09:00:47Z</time>
      </trkpt>
      <trkpt lat="47.84913" lon="6.65621">
        <ele>581.6</ele>
        <time>2016-07-03T09:00:54Z</time>
      </trkpt>
      <trkpt lat="47.84912" lon="6.65635">
        <ele>591.3</ele>
        <time>2016-07-03T09:01:03Z</time>
      </trkpt>
      <trkpt lat="47.84906" lon="6.65646">
        <ele>595.7</ele>
        <time>2016-07-03T09:01:10Z</time>
      </trkpt>
      <trkpt lat="47.84899" lon="6.65657">
        <ele>595.8</ele>
        <time>2016-07-03T09:01:18Z</time>
      </trkpt>
      <trkpt lat="47.84892" lon="6.65667">
        <ele>593.7</ele>
        <time>2016-07-03T09:01:26Z</time>
      </trkpt>
      <trkpt lat="47.84885" lon="6.65676">
        <ele>593.6</ele>
        <time>2016-07-03T09:01:32Z</time>
      </trkpt>
      <trkpt lat="47.84878" lon="6.65686">
        <ele>594.2</ele>
        <time>2016-07-03T09:01:40Z</time>
      </trkpt>
      <trkpt lat="47.8487" lon="6.65694">
        <ele>595</ele>
        <time>2016-07-03T09:01:48Z</time>
      </trkpt>
      <trkpt lat="47.84861" lon="6.65701">
        <ele>595.1</ele>
        <time>2016-07-03T09:01:55Z</time>
      </trkpt>
      <trkpt lat="47.8486" lon="6.65688">
        <ele>600</ele>
        <time>2016-07-03T09:02:07Z</time>
      </trkpt>
      <trkpt lat="47.84863" lon="6.65672">
        <ele>601.7</ele>
        <time>2016-07-03T09:02:13Z</time>
      </trkpt>
      <trkpt lat="47.84865" lon="6.65657">
        <ele>601.2</ele>
        <time>2016-07-03T09:02:19Z</time>
      </trkpt>
      <trkpt lat="47.84866" lon="6.65643">
        <ele>603.1</ele>
        <time>2016-07-03T09:02:25Z</time>
      </trkpt>
      <trkpt lat="47.84866" lon="6.65629">
        <ele>604.6</ele>
        <time>2016-07-03T09:02:30Z</time>
      </trkpt>
      <trkpt lat="47.8487" lon="6.65618">
        <ele>606.8</ele>
        <time>2016-07-03T09:02:34Z</time>
      </trkpt>
      <trkpt lat="47.84868" lon="6.65605">
        <ele>607.3</ele>
        <time>2016-07-03T09:02:42Z</time>
      </trkpt>
      <trkpt lat="47.84864" lon="6.65593">
        <ele>603.2</ele>
        <time>2016-07-03T09:02:49Z</time>
      </trkpt>
      <trkpt lat="47.84855" lon="6.65586">
        <ele>600.6</ele>
        <time>2016-07-03T09:03:03Z</time>
      </trkpt>
      <trkpt lat="47.84846" lon="6.65593">
        <ele>604.7</ele>
        <time>2016-07-03T09:03:09Z</time>
      </trkpt>
      <trkpt lat="47.8484" lon="6.65605">
        <ele>607.7</ele>
        <time>2016-07-03T09:03:15Z</time>
      </trkpt>
      <trkpt lat="47.84836" lon="6.65617">
        <ele>607.3</ele>
        <time>2016-07-03T09:03:21Z</time>
      </trkpt>
      <trkpt lat="47.84832" lon="6.6563">
        <ele>607.7</ele>
        <time>2016-07-03T09:03:27Z</time>
      </trkpt>
      <trkpt lat="47.84827" lon="6.65642">
        <ele>609.7</ele>
        <time>2016-07-03T09:03:33Z</time>
      </trkpt>
      <trkpt lat="47.84822" lon="6.65655">
        <ele>611.6</ele>
        <time>2016-07-03T09:03:39Z</time>
      </trkpt>
      <trkpt lat="47.84817" lon="6.65668">
        <ele>613.6</ele>
        <time>2016-07-03T09:03:45Z</time>
      </trkpt>
      <trkpt lat="47.84811" lon="6.65679">
        <ele>614.6</ele>
        <time>2016-07-03T09:03:51Z</time>
      </trkpt>
      <trkpt lat="47.84805" lon="6.65689">
        <ele>616</ele>
        <time>2016-07-03T09:03:57Z</time>
      </trkpt>
      <trkpt lat="47.84796" lon="6.65693">
        <ele>616.5</ele>
        <time>2016-07-03T09:04:11Z</time>
      </trkpt>
      <trkpt lat="47.84788" lon="6.657">
        <ele>617.7</ele>
        <time>2016-07-03T09:04:27Z</time>
      </trkpt>
      <trkpt lat="47.84779" lon="6.65698">
        <ele>617.2</ele>
        <time>2016-07-03T09:04:35Z</time>
      </trkpt>
      <trkpt lat="47.84769" lon="6.65696">
        <ele>615.2</ele>
        <time>2016-07-03T09:04:41Z</time>
      </trkpt>
      <trkpt lat="47.84759" lon="6.65694">
        <ele>614.7</ele>
        <time>2016-07-03T09:04:47Z</time>
      </trkpt>
      <trkpt lat="47.84749" lon="6.65692">
        <ele>614.3</ele>
        <time>2016-07-03T09:04:52Z</time>
      </trkpt>
      <trkpt lat="47.8474" lon="6.6569">
        <ele>614.5</ele>
        <time>2016-07-03T09:04:56Z</time>
      </trkpt>
      <trkpt lat="47.84728" lon="6.65687">
        <ele>613.6</ele>
        <time>2016-07-03T09:05:01Z</time>
      </trkpt>
      <trkpt lat="47.84718" lon="6.65692">
        <ele>616.3</ele>
        <time>2016-07-03T09:05:07Z</time>
      </trkpt>
      <trkpt lat="47.84709" lon="6.65691">
        <ele>616.7</ele>
        <time>2016-07-03T09:05:12Z</time>
      </trkpt>
      <trkpt lat="47.84702" lon="6.6568">
        <ele>616.1</ele>
        <time>2016-07-03T09:05:18Z</time>
      </trkpt>
      <trkpt lat="47.84693" lon="6.65671">
        <ele>616.5</ele>
        <time>2016-07-03T09:05:23Z</time>
      </trkpt>
      <trkpt lat="47.84684" lon="6.65666">
        <ele>618</ele>
        <time>2016-07-03T09:05:28Z</time>
      </trkpt>
      <trkpt lat="47.84675" lon="6.6566">
        <ele>617.9</ele>
        <time>2016-07-03T09:05:32Z</time>
      </trkpt>
      <trkpt lat="47.84665" lon="6.65658">
        <ele>618.5</ele>
        <time>2016-07-03T09:05:38Z</time>
      </trkpt>
      <trkpt lat="47.84657" lon="6.65664">
        <ele>619.2</ele>
        <time>2016-07-03T09:05:51Z</time>
      </trkpt>
      <trkpt lat="47.84654" lon="6.65677">
        <ele>621.8</ele>
        <time>2016-07-03T09:05:55Z</time>
      </trkpt>
      <trkpt lat="47.84653" lon="6.65693">
        <ele>621.9</ele>
        <time>2016-07-03T09:05:59Z</time>
      </trkpt>
      <trkpt lat="47.84652" lon="6.6571">
        <ele>621.4</ele>
        <time>2016-07-03T09:06:03Z</time>
      </trkpt>
      <trkpt lat="47.84653" lon="6.65727">
        <ele>621.1</ele>
        <time>2016-07-03T09:06:07Z</time>
      </trkpt>
      <trkpt lat="47.84655" lon="6.65744">
        <ele>620.8</ele>
        <time>2016-07-03T09:06:11Z</time>
      </trkpt>
      <trkpt lat="47.84657" lon="6.65761">
        <ele>619.9</ele>
        <time>2016-07-03T09:06:15Z</time>
      </trkpt>
      <trkpt lat="47.84654" lon="6.65774">
        <ele>619.7</ele>
        <time>2016-07-03T09:06:19Z</time>
      </trkpt>
      <trkpt lat="47.84649" lon="6.65788">
        <ele>619.1</ele>
        <time>2016-07-03T09:06:25Z</time>
      </trkpt>
      <trkpt lat="47.84646" lon="6.65803">
        <ele>621</ele>
        <time>2016-07-03T09:06:29Z</time>
      </trkpt>
      <trkpt lat="47.84642" lon="6.65815">
        <ele>622.9</ele>
        <time>2016-07-03T09:06:32Z</time>
      </trkpt>
      <trkpt lat="47.84636" lon="6.65829">
        <ele>625.8</ele>
        <time>2016-07-03T09:06:36Z</time>
      </trkpt>
      <trkpt lat="47.84628" lon="6.6584">
        <ele>626</ele>
        <time>2016-07-03T09:06:40Z</time>
      </trkpt>
      <trkpt lat="47.8462" lon="6.65851">
        <ele>626.4</ele>
        <time>2016-07-03T09:06:44Z</time>
      </trkpt>
      <trkpt lat="47.8461" lon="6.6586">
        <ele>627.6</ele>
        <time>2016-07-03T09:06:48Z</time>
      </trkpt>
      <trkpt lat="47.846" lon="6.65867">
        <ele>628.4</ele>
        <time>2016-07-03T09:06:52Z</time>
      </trkpt>
      <trkpt lat="47.8459" lon="6.65873">
        <ele>628.6</ele>
        <time>2016-07-03T09:06:56Z</time>
      </trkpt>
      <trkpt lat="47.8458" lon="6.65878">
        <ele>628.8</ele>
        <time>2016-07-03T09:07:00Z</time>
      </trkpt>
      <trkpt lat="47.8457" lon="6.65881">
        <ele>628.8</ele>
        <time>2016-07-03T09:07:04Z</time>
      </trkpt>
      <trkpt lat="47.8456" lon="6.65886">
        <ele>628.9</ele>
        <time>2016-07-03T09:07:08Z</time>
      </trkpt>
      <trkpt lat="47.8455" lon="6.6589">
        <ele>628.8</ele>
        <time>2016-07-03T09:07:12Z</time>
      </trkpt>
      <trkpt lat="47.84542" lon="6.65896">
        <ele>628.8</ele>
        <time>2016-07-03T09:07:16Z</time>
      </trkpt>
      <trkpt lat="47.84533" lon="6.65899">
        <ele>628.9</ele>
        <time>2016-07-03T09:07:22Z</time>
      </trkpt>
      <trkpt lat="47.84525" lon="6.65889">
        <ele>629.2</ele>
        <time>2016-07-03T09:07:28Z</time>
      </trkpt>
      <trkpt lat="47.84517" lon="6.6588">
        <ele>631.2</ele>
        <time>2016-07-03T09:07:32Z</time>
      </trkpt>
      <trkpt lat="47.84509" lon="6.65871">
        <ele>631.7</ele>
        <time>2016-07-03T09:07:36Z</time>
      </trkpt>
      <trkpt lat="47.845" lon="6.65863">
        <ele>632.2</ele>
        <time>2016-07-03T09:07:40Z</time>
      </trkpt>
      <trkpt lat="47.8449" lon="6.65856">
        <ele>632.4</ele>
        <time>2016-07-03T09:07:44Z</time>
      </trkpt>
      <trkpt lat="47.84481" lon="6.65862">
        <ele>632.8</ele>
        <time>2016-07-03T09:07:48Z</time>
      </trkpt>
      <trkpt lat="47.84475" lon="6.65878">
        <ele>634</ele>
        <time>2016-07-03T09:07:52Z</time>
      </trkpt>
      <trkpt lat="47.84471" lon="6.65894">
        <ele>634.8</ele>
        <time>2016-07-03T09:07:56Z</time>
      </trkpt>
      <trkpt lat="47.84467" lon="6.65911">
        <ele>635.3</ele>
        <time>2016-07-03T09:08:00Z</time>
      </trkpt>
      <trkpt lat="47.84462" lon="6.65927">
        <ele>635</ele>
        <time>2016-07-03T09:08:04Z</time>
      </trkpt>
      <trkpt lat="47.84459" lon="6.65942">
        <ele>634.9</ele>
        <time>2016-07-03T09:08:08Z</time>
      </trkpt>
      <trkpt lat="47.84455" lon="6.65958">
        <ele>635.4</ele>
        <time>2016-07-03T09:08:12Z</time>
      </trkpt>
      <trkpt lat="47.84449" lon="6.65973">
        <ele>635.8</ele>
        <time>2016-07-03T09:08:16Z</time>
      </trkpt>
      <trkpt lat="47.84439" lon="6.65983">
        <ele>635.4</ele>
        <time>2016-07-03T09:08:20Z</time>
      </trkpt>
      <trkpt lat="47.84427" lon="6.65987">
        <ele>634.2</ele>
        <time>2016-07-03T09:08:23Z</time>
      </trkpt>
      <trkpt lat="47.84417" lon="6.65987">
        <ele>632.9</ele>
        <time>2016-07-03T09:08:25Z</time>
      </trkpt>
      <trkpt lat="47.84407" lon="6.65988">
        <ele>632.3</ele>
        <time>2016-07-03T09:08:27Z</time>
      </trkpt>
      <trkpt lat="47.84395" lon="6.65995">
        <ele>631</ele>
        <time>2016-07-03T09:08:29Z</time>
      </trkpt>
      <trkpt lat="47.84385" lon="6.66009">
        <ele>630</ele>
        <time>2016-07-03T09:08:31Z</time>
      </trkpt>
      <trkpt lat="47.84378" lon="6.66025">
        <ele>629.7</ele>
        <time>2016-07-03T09:08:33Z</time>
      </trkpt>
      <trkpt lat="47.84372" lon="6.6604">
        <ele>630.2</ele>
        <time>2016-07-03T09:08:35Z</time>
      </trkpt>
      <trkpt lat="47.84366" lon="6.66056">
        <ele>630</ele>
        <time>2016-07-03T09:08:37Z</time>
      </trkpt>
      <trkpt lat="47.84359" lon="6.66069">
        <ele>629.7</ele>
        <time>2016-07-03T09:08:39Z</time>
      </trkpt>
      <trkpt lat="47.84353" lon="6.66082">
        <ele>629.9</ele>
        <time>2016-07-03T09:08:41Z</time>
      </trkpt>
      <trkpt lat="47.84346" lon="6.66093">
        <ele>630</ele>
        <time>2016-07-03T09:08:43Z</time>
      </trkpt>
      <trkpt lat="47.8434" lon="6.66105">
        <ele>630.8</ele>
        <time>2016-07-03T09:08:45Z</time>
      </trkpt>
      <trkpt lat="47.84334" lon="6.66115">
        <ele>631.8</ele>
        <time>2016-07-03T09:08:47Z</time>
      </trkpt>
      <trkpt lat="47.84326" lon="6.66129">
        <ele>631.5</ele>
        <time>2016-07-03T09:08:50Z</time>
      </trkpt>
      <trkpt lat="47.84318" lon="6.66143">
        <ele>631.2</ele>
        <time>2016-07-03T09:08:53Z</time>
      </trkpt>
      <trkpt lat="47.8431" lon="6.66154">
        <ele>631</ele>
        <time>2016-07-03T09:08:56Z</time>
      </trkpt>
      <trkpt lat="47.84297" lon="6.66165">
        <ele>630</ele>
        <time>2016-07-03T09:08:59Z</time>
      </trkpt>
      <trkpt lat="47.84287" lon="6.66173">
        <ele>629.5</ele>
        <time>2016-07-03T09:09:01Z</time>
      </trkpt>
      <trkpt lat="47.84277" lon="6.6618">
        <ele>629.6</ele>
        <time>2016-07-03T09:09:03Z</time>
      </trkpt>
      <trkpt lat="47.84268" lon="6.66188">
        <ele>628.9</ele>
        <time>2016-07-03T09:09:05Z</time>
      </trkpt>
      <trkpt lat="47.84259" lon="6.66198">
        <ele>628.8</ele>
        <time>2016-07-03T09:09:07Z</time>
      </trkpt>
      <trkpt lat="47.84251" lon="6.66209">
        <ele>628.7</ele>
        <time>2016-07-03T09:09:09Z</time>
      </trkpt>
      <trkpt lat="47.84243" lon="6.66218">
        <ele>627.4</ele>
        <time>2016-07-03T09:09:11Z</time>
      </trkpt>
      <trkpt lat="47.84233" lon="6.66226">
        <ele>626.5</ele>
        <time>2016-07-03T09:09:13Z</time>
      </trkpt>
      <trkpt lat="47.84222" lon="6.66233">
        <ele>625.8</ele>
        <time>2016-07-03T09:09:15Z</time>
      </trkpt>
      <trkpt lat="47.84211" lon="6.66239">
        <ele>626.7</ele>
        <time>2016-07-03T09:09:17Z</time>
      </trkpt>
      <trkpt lat="47.84201" lon="6.66245">
        <ele>626.4</ele>
        <time>2016-07-03T09:09:19Z</time>
      </trkpt>
      <trkpt lat="47.84191" lon="6.66252">
        <ele>625.6</ele>
        <time>2016-07-03T09:09:21Z</time>
      </trkpt>
      <trkpt lat="47.8418" lon="6.66258">
        <ele>625.8</ele>
        <time>2016-07-03T09:09:23Z</time>
      </trkpt>
      <trkpt lat="47.8417" lon="6.66264">
        <ele>625.8</ele>
        <time>2016-07-03T09:09:25Z</time>
      </trkpt>
      <trkpt lat="47.84161" lon="6.66271">
        <ele>625.9</ele>
        <time>2016-07-03T09:09:27Z</time>
      </trkpt>
      <trkpt lat="47.84152" lon="6.66276">
        <ele>625.7</ele>
        <time>2016-07-03T09:09:29Z</time>
      </trkpt>
      <trkpt lat="47.84143" lon="6.66281">
        <ele>627</ele>
        <time>2016-07-03T09:09:31Z</time>
      </trkpt>
      <trkpt lat="47.84131" lon="6.66283">
        <ele>628.3</ele>
        <time>2016-07-03T09:09:34Z</time>
      </trkpt>
      <trkpt lat="47.84118" lon="6.6628">
        <ele>629.1</ele>
        <time>2016-07-03T09:09:37Z</time>
      </trkpt>
      <trkpt lat="47.84107" lon="6.66275">
        <ele>629.4</ele>
        <time>2016-07-03T09:09:40Z</time>
      </trkpt>
      <trkpt lat="47.84096" lon="6.66275">
        <ele>628.5</ele>
        <time>2016-07-03T09:09:43Z</time>
      </trkpt>
      <trkpt lat="47.84083" lon="6.66283">
        <ele>627.2</ele>
        <time>2016-07-03T09:09:46Z</time>
      </trkpt>
      <trkpt lat="47.84074" lon="6.66289">
        <ele>627.1</ele>
        <time>2016-07-03T09:09:48Z</time>
      </trkpt>
      <trkpt lat="47.84063" lon="6.66291">
        <ele>627</ele>
        <time>2016-07-03T09:09:50Z</time>
      </trkpt>
      <trkpt lat="47.84053" lon="6.66291">
        <ele>627.2</ele>
        <time>2016-07-03T09:09:52Z</time>
      </trkpt>
      <trkpt lat="47.8404" lon="6.66294">
        <ele>626.8</ele>
        <time>2016-07-03T09:09:55Z</time>
      </trkpt>
      <trkpt lat="47.84028" lon="6.66299">
        <ele>628</ele>
        <time>2016-07-03T09:09:58Z</time>
      </trkpt>
      <trkpt lat="47.84018" lon="6.66304">
        <ele>629.6</ele>
        <time>2016-07-03T09:10:02Z</time>
      </trkpt>
      <trkpt lat="47.84008" lon="6.66308">
        <ele>630.9</ele>
        <time>2016-07-03T09:10:06Z</time>
      </trkpt>
      <trkpt lat="47.83998" lon="6.66312">
        <ele>631.9</ele>
        <time>2016-07-03T09:10:10Z</time>
      </trkpt>
      <trkpt lat="47.83989" lon="6.66319">
        <ele>633.2</ele>
        <time>2016-07-03T09:10:14Z</time>
      </trkpt>
      <trkpt lat="47.83981" lon="6.66329">
        <ele>635.1</ele>
        <time>2016-07-03T09:10:18Z</time>
      </trkpt>
      <trkpt lat="47.83973" lon="6.66338">
        <ele>635.8</ele>
        <time>2016-07-03T09:10:22Z</time>
      </trkpt>
      <trkpt lat="47.83964" lon="6.66344">
        <ele>635.1</ele>
        <time>2016-07-03T09:10:26Z</time>
      </trkpt>
      <trkpt lat="47.83954" lon="6.66345">
        <ele>634.9</ele>
        <time>2016-07-03T09:10:30Z</time>
      </trkpt>
      <trkpt lat="47.83944" lon="6.66339">
        <ele>634.9</ele>
        <time>2016-07-03T09:10:35Z</time>
      </trkpt>
      <trkpt lat="47.83938" lon="6.66328">
        <ele>635.9</ele>
        <time>2016-07-03T09:10:40Z</time>
      </trkpt>
      <trkpt lat="47.83932" lon="6.66316">
        <ele>634.5</ele>
        <time>2016-07-03T09:10:45Z</time>
      </trkpt>
      <trkpt lat="47.83925" lon="6.66306">
        <ele>634.8</ele>
        <time>2016-07-03T09:10:49Z</time>
      </trkpt>
      <trkpt lat="47.83916" lon="6.66301">
        <ele>636.2</ele>
        <time>2016-07-03T09:10:53Z</time>
      </trkpt>
      <trkpt lat="47.83907" lon="6.66306">
        <ele>637.4</ele>
        <time>2016-07-03T09:10:57Z</time>
      </trkpt>
      <trkpt lat="47.839" lon="6.66317">
        <ele>638.8</ele>
        <time>2016-07-03T09:11:01Z</time>
      </trkpt>
      <trkpt lat="47.83897" lon="6.66331">
        <ele>640.6</ele>
        <time>2016-07-03T09:11:05Z</time>
      </trkpt>
      <trkpt lat="47.83896" lon="6.66345">
        <ele>641.4</ele>
        <time>2016-07-03T09:11:09Z</time>
      </trkpt>
      <trkpt lat="47.83897" lon="6.66359">
        <ele>641.1</ele>
        <time>2016-07-03T09:11:13Z</time>
      </trkpt>
      <trkpt lat="47.83899" lon="6.66373">
        <ele>640.5</ele>
        <time>2016-07-03T09:11:17Z</time>
      </trkpt>
      <trkpt lat="47.83903" lon="6.66388">
        <ele>639.4</ele>
        <time>2016-07-03T09:11:21Z</time>
      </trkpt>
      <trkpt lat="47.83907" lon="6.66403">
        <ele>639</ele>
        <time>2016-07-03T09:11:25Z</time>
      </trkpt>
      <trkpt lat="47.8391" lon="6.66417">
        <ele>639.3</ele>
        <time>2016-07-03T09:11:28Z</time>
      </trkpt>
      <trkpt lat="47.83914" lon="6.6643">
        <ele>639.2</ele>
        <time>2016-07-03T09:11:31Z</time>
      </trkpt>
      <trkpt lat="47.83919" lon="6.66444">
        <ele>639.5</ele>
        <time>2016-07-03T09:11:34Z</time>
      </trkpt>
      <trkpt lat="47.83923" lon="6.66458">
        <ele>639.3</ele>
        <time>2016-07-03T09:11:37Z</time>
      </trkpt>
      <trkpt lat="47.83927" lon="6.66473">
        <ele>638.8</ele>
        <time>2016-07-03T09:11:40Z</time>
      </trkpt>
      <trkpt lat="47.83934" lon="6.6649">
        <ele>638.6</ele>
        <time>2016-07-03T09:11:43Z</time>
      </trkpt>
      <trkpt lat="47.83942" lon="6.66505">
        <ele>638.1</ele>
        <time>2016-07-03T09:11:46Z</time>
      </trkpt>
      <trkpt lat="47.83949" lon="6.66522">
        <ele>638</ele>
        <time>2016-07-03T09:11:49Z</time>
      </trkpt>
      <trkpt lat="47.83949" lon="6.66539">
        <ele>638.6</ele>
        <time>2016-07-03T09:11:52Z</time>
      </trkpt>
      <trkpt lat="47.83943" lon="6.66552">
        <ele>640.1</ele>
        <time>2016-07-03T09:11:55Z</time>
      </trkpt>
      <trkpt lat="47.83934" lon="6.66563">
        <ele>641.8</ele>
        <time>2016-07-03T09:11:58Z</time>
      </trkpt>
      <trkpt lat="47.83924" lon="6.6657">
        <ele>643.2</ele>
        <time>2016-07-03T09:12:01Z</time>
      </trkpt>
      <trkpt lat="47.83914" lon="6.66574">
        <ele>643.5</ele>
        <time>2016-07-03T09:12:04Z</time>
      </trkpt>
      <trkpt lat="47.83903" lon="6.66581">
        <ele>644.4</ele>
        <time>2016-07-03T09:12:07Z</time>
      </trkpt>
      <trkpt lat="47.83893" lon="6.66591">
        <ele>644.2</ele>
        <time>2016-07-03T09:12:10Z</time>
      </trkpt>
      <trkpt lat="47.83886" lon="6.66605">
        <ele>645.3</ele>
        <time>2016-07-03T09:12:13Z</time>
      </trkpt>
      <trkpt lat="47.83881" lon="6.66618">
        <ele>646.2</ele>
        <time>2016-07-03T09:12:16Z</time>
      </trkpt>
      <trkpt lat="47.83874" lon="6.66631">
        <ele>646.6</ele>
        <time>2016-07-03T09:12:19Z</time>
      </trkpt>
      <trkpt lat="47.83865" lon="6.66643">
        <ele>646.2</ele>
        <time>2016-07-03T09:12:22Z</time>
      </trkpt>
      <trkpt lat="47.83856" lon="6.66653">
        <ele>645.6</ele>
        <time>2016-07-03T09:12:25Z</time>
      </trkpt>
      <trkpt lat="47.83849" lon="6.66664">
        <ele>645.8</ele>
        <time>2016-07-03T09:12:28Z</time>
      </trkpt>
      <trkpt lat="47.83846" lon="6.66677">
        <ele>646.3</ele>
        <time>2016-07-03T09:12:31Z</time>
      </trkpt>
      <trkpt lat="47.83848" lon="6.66692">
        <ele>647.9</ele>
        <time>2016-07-03T09:12:34Z</time>
      </trkpt>
      <trkpt lat="47.83854" lon="6.66707">
        <ele>648.2</ele>
        <time>2016-07-03T09:12:38Z</time>
      </trkpt>
      <trkpt lat="47.83862" lon="6.6672">
        <ele>647.4</ele>
        <time>2016-07-03T09:12:42Z</time>
      </trkpt>
      <trkpt lat="47.83868" lon="6.66729">
        <ele>645.9</ele>
        <time>2016-07-03T09:13:09Z</time>
      </trkpt>
      <trkpt lat="47.83877" lon="6.66734">
        <ele>647.8</ele>
        <time>2016-07-03T09:13:46Z</time>
      </trkpt>
      <trkpt lat="47.83885" lon="6.66745">
        <ele>645.4</ele>
        <time>2016-07-03T09:13:49Z</time>
      </trkpt>
      <trkpt lat="47.83891" lon="6.66759">
        <ele>643.9</ele>
        <time>2016-07-03T09:13:52Z</time>
      </trkpt>
      <trkpt lat="47.83899" lon="6.66775">
        <ele>644.2</ele>
        <time>2016-07-03T09:13:55Z</time>
      </trkpt>
      <trkpt lat="47.83905" lon="6.66791">
        <ele>644.6</ele>
        <time>2016-07-03T09:13:58Z</time>
      </trkpt>
      <trkpt lat="47.83909" lon="6.66807">
        <ele>645.3</ele>
        <time>2016-07-03T09:14:01Z</time>
      </trkpt>
      <trkpt lat="47.83915" lon="6.66823">
        <ele>644.2</ele>
        <time>2016-07-03T09:14:04Z</time>
      </trkpt>
      <trkpt lat="47.83922" lon="6.66839">
        <ele>643.8</ele>
        <time>2016-07-03T09:14:07Z</time>
      </trkpt>
      <trkpt lat="47.83927" lon="6.66851">
        <ele>643.5</ele>
        <time>2016-07-03T09:14:09Z</time>
      </trkpt>
      <trkpt lat="47.83933" lon="6.66862">
        <ele>643.6</ele>
        <time>2016-07-03T09:14:11Z</time>
      </trkpt>
      <trkpt lat="47.8394" lon="6.66873">
        <ele>643.6</ele>
        <time>2016-07-03T09:14:13Z</time>
      </trkpt>
      <trkpt lat="47.83947" lon="6.66888">
        <ele>644</ele>
        <time>2016-07-03T09:14:16Z</time>
      </trkpt>
      <trkpt lat="47.83953" lon="6.66902">
        <ele>645.5</ele>
        <time>2016-07-03T09:14:19Z</time>
      </trkpt>
      <trkpt lat="47.83959" lon="6.66915">
        <ele>646.7</ele>
        <time>2016-07-03T09:14:22Z</time>
      </trkpt>
      <trkpt lat="47.83966" lon="6.66929">
        <ele>646.4</ele>
        <time>2016-07-03T09:14:25Z</time>
      </trkpt>
      <trkpt lat="47.83974" lon="6.66943">
        <ele>646.5</ele>
        <time>2016-07-03T09:14:28Z</time>
      </trkpt>
      <trkpt lat="47.83982" lon="6.66956">
        <ele>647.6</ele>
        <time>2016-07-03T09:14:31Z</time>
      </trkpt>
      <trkpt lat="47.8399" lon="6.66967">
        <ele>647.8</ele>
        <time>2016-07-03T09:14:34Z</time>
      </trkpt>
      <trkpt lat="47.83996" lon="6.66982">
        <ele>645.3</ele>
        <time>2016-07-03T09:14:37Z</time>
      </trkpt>
      <trkpt lat="47.84002" lon="6.66995">
        <ele>643</ele>
        <time>2016-07-03T09:14:40Z</time>
      </trkpt>
      <trkpt lat="47.84007" lon="6.67012">
        <ele>640.1</ele>
        <time>2016-07-03T09:14:43Z</time>
      </trkpt>
      <trkpt lat="47.84002" lon="6.67024">
        <ele>638.6</ele>
        <time>2016-07-03T09:14:45Z</time>
      </trkpt>
      <trkpt lat="47.83993" lon="6.67037">
        <ele>639</ele>
        <time>2016-07-03T09:14:48Z</time>
      </trkpt>
      <trkpt lat="47.83985" lon="6.67049">
        <ele>641.7</ele>
        <time>2016-07-03T09:14:51Z</time>
      </trkpt>
      <trkpt lat="47.83982" lon="6.67064">
        <ele>642.7</ele>
        <time>2016-07-03T09:14:56Z</time>
      </trkpt>
      <trkpt lat="47.83975" lon="6.67073">
        <ele>646.4</ele>
        <time>2016-07-03T09:15:11Z</time>
      </trkpt>
      <trkpt lat="47.8398" lon="6.67089">
        <ele>645.6</ele>
        <time>2016-07-03T09:15:19Z</time>
      </trkpt>
      <trkpt lat="47.83983" lon="6.67104">
        <ele>642.2</ele>
        <time>2016-07-03T09:15:22Z</time>
      </trkpt>
      <trkpt lat="47.83985" lon="6.67117">
        <ele>641.9</ele>
        <time>2016-07-03T09:15:24Z</time>
      </trkpt>
      <trkpt lat="47.83986" lon="6.67132">
        <ele>639.6</ele>
        <time>2016-07-03T09:15:26Z</time>
      </trkpt>
      <trkpt lat="47.83986" lon="6.67148">
        <ele>638.2</ele>
        <time>2016-07-03T09:15:28Z</time>
      </trkpt>
      <trkpt lat="47.83981" lon="6.67165">
        <ele>636.6</ele>
        <time>2016-07-03T09:15:30Z</time>
      </trkpt>
      <trkpt lat="47.83975" lon="6.67182">
        <ele>636.1</ele>
        <time>2016-07-03T09:15:32Z</time>
      </trkpt>
      <trkpt lat="47.83969" lon="6.67196">
        <ele>634.5</ele>
        <time>2016-07-03T09:15:34Z</time>
      </trkpt>
      <trkpt lat="47.83964" lon="6.67212">
        <ele>631.9</ele>
        <time>2016-07-03T09:15:36Z</time>
      </trkpt>
      <trkpt lat="47.83965" lon="6.67233">
        <ele>630.1</ele>
        <time>2016-07-03T09:15:38Z</time>
      </trkpt>
      <trkpt lat="47.83968" lon="6.67253">
        <ele>629.7</ele>
        <time>2016-07-03T09:15:40Z</time>
      </trkpt>
      <trkpt lat="47.83966" lon="6.67271">
        <ele>629.8</ele>
        <time>2016-07-03T09:15:42Z</time>
      </trkpt>
      <trkpt lat="47.83963" lon="6.67288">
        <ele>629.6</ele>
        <time>2016-07-03T09:15:44Z</time>
      </trkpt>
      <trkpt lat="47.83961" lon="6.67304">
        <ele>629.9</ele>
        <time>2016-07-03T09:15:46Z</time>
      </trkpt>
      <trkpt lat="47.83957" lon="6.67319">
        <ele>630.4</ele>
        <time>2016-07-03T09:15:48Z</time>
      </trkpt>
      <trkpt lat="47.83955" lon="6.67334">
        <ele>629.8</ele>
        <time>2016-07-03T09:15:50Z</time>
      </trkpt>
      <trkpt lat="47.83952" lon="6.67349">
        <ele>630.2</ele>
        <time>2016-07-03T09:15:52Z</time>
      </trkpt>
      <trkpt lat="47.83949" lon="6.67364">
        <ele>629.8</ele>
        <time>2016-07-03T09:15:54Z</time>
      </trkpt>
      <trkpt lat="47.83946" lon="6.67376">
        <ele>628.6</ele>
        <time>2016-07-03T09:15:56Z</time>
      </trkpt>
      <trkpt lat="47.83944" lon="6.67392">
        <ele>627.7</ele>
        <time>2016-07-03T09:15:58Z</time>
      </trkpt>
      <trkpt lat="47.83945" lon="6.67412">
        <ele>628.6</ele>
        <time>2016-07-03T09:16:00Z</time>
      </trkpt>
      <trkpt lat="47.83953" lon="6.67426">
        <ele>633.1</ele>
        <time>2016-07-03T09:16:02Z</time>
      </trkpt>
      <trkpt lat="47.83963" lon="6.67432">
        <ele>634.2</ele>
        <time>2016-07-03T09:16:04Z</time>
      </trkpt>
      <trkpt lat="47.83975" lon="6.67436">
        <ele>635</ele>
        <time>2016-07-03T09:16:06Z</time>
      </trkpt>
      <trkpt lat="47.83985" lon="6.67441">
        <ele>635</ele>
        <time>2016-07-03T09:16:08Z</time>
      </trkpt>
      <trkpt lat="47.83995" lon="6.67447">
        <ele>634.1</ele>
        <time>2016-07-03T09:16:10Z</time>
      </trkpt>
      <trkpt lat="47.84004" lon="6.67453">
        <ele>632.3</ele>
        <time>2016-07-03T09:16:12Z</time>
      </trkpt>
      <trkpt lat="47.84013" lon="6.67463">
        <ele>633.2</ele>
        <time>2016-07-03T09:16:14Z</time>
      </trkpt>
      <trkpt lat="47.84023" lon="6.67474">
        <ele>633.8</ele>
        <time>2016-07-03T09:16:16Z</time>
      </trkpt>
      <trkpt lat="47.84033" lon="6.67483">
        <ele>633.2</ele>
        <time>2016-07-03T09:16:18Z</time>
      </trkpt>
      <trkpt lat="47.84045" lon="6.67494">
        <ele>632</ele>
        <time>2016-07-03T09:16:20Z</time>
      </trkpt>
      <trkpt lat="47.84055" lon="6.67508">
        <ele>630.6</ele>
        <time>2016-07-03T09:16:22Z</time>
      </trkpt>
      <trkpt lat="47.84064" lon="6.67525">
        <ele>629.4</ele>
        <time>2016-07-03T09:16:24Z</time>
      </trkpt>
      <trkpt lat="47.84073" lon="6.67543">
        <ele>629.4</ele>
        <time>2016-07-03T09:16:26Z</time>
      </trkpt>
      <trkpt lat="47.8408" lon="6.67562">
        <ele>628.6</ele>
        <time>2016-07-03T09:16:28Z</time>
      </trkpt>
      <trkpt lat="47.84084" lon="6.67583">
        <ele>627.4</ele>
        <time>2016-07-03T09:16:30Z</time>
      </trkpt>
      <trkpt lat="47.84086" lon="6.67604">
        <ele>626.9</ele>
        <time>2016-07-03T09:16:32Z</time>
      </trkpt>
      <trkpt lat="47.84086" lon="6.67625">
        <ele>626.9</ele>
        <time>2016-07-03T09:16:34Z</time>
      </trkpt>
      <trkpt lat="47.84086" lon="6.67646">
        <ele>627.4</ele>
        <time>2016-07-03T09:16:36Z</time>
      </trkpt>
      <trkpt lat="47.84089" lon="6.67664">
        <ele>627.3</ele>
        <time>2016-07-03T09:16:38Z</time>
      </trkpt>
      <trkpt lat="47.84092" lon="6.67683">
        <ele>627.1</ele>
        <time>2016-07-03T09:16:40Z</time>
      </trkpt>
      <trkpt lat="47.84096" lon="6.67699">
        <ele>626.8</ele>
        <time>2016-07-03T09:16:42Z</time>
      </trkpt>
      <trkpt lat="47.84098" lon="6.67712">
        <ele>627.2</ele>
        <time>2016-07-03T09:16:44Z</time>
      </trkpt>
      <trkpt lat="47.84098" lon="6.67731">
        <ele>627.1</ele>
        <time>2016-07-03T09:16:47Z</time>
      </trkpt>
      <trkpt lat="47.84095" lon="6.67744">
        <ele>627.2</ele>
        <time>2016-07-03T09:16:49Z</time>
      </trkpt>
      <trkpt lat="47.84091" lon="6.67757">
        <ele>627.6</ele>
        <time>2016-07-03T09:16:51Z</time>
      </trkpt>
      <trkpt lat="47.84086" lon="6.67773">
        <ele>625</ele>
        <time>2016-07-03T09:16:54Z</time>
      </trkpt>
      <trkpt lat="47.84081" lon="6.67785">
        <ele>623</ele>
        <time>2016-07-03T09:16:56Z</time>
      </trkpt>
      <trkpt lat="47.84075" lon="6.67795">
        <ele>620.9</ele>
        <time>2016-07-03T09:16:58Z</time>
      </trkpt>
      <trkpt lat="47.84068" lon="6.67805">
        <ele>621.2</ele>
        <time>2016-07-03T09:17:00Z</time>
      </trkpt>
      <trkpt lat="47.84058" lon="6.67817">
        <ele>621.1</ele>
        <time>2016-07-03T09:17:02Z</time>
      </trkpt>
      <trkpt lat="47.8405" lon="6.67832">
        <ele>625.2</ele>
        <time>2016-07-03T09:17:04Z</time>
      </trkpt>
      <trkpt lat="47.84045" lon="6.67845">
        <ele>627.8</ele>
        <time>2016-07-03T09:17:06Z</time>
      </trkpt>
      <trkpt lat="47.84039" lon="6.67859">
        <ele>628</ele>
        <time>2016-07-03T09:17:09Z</time>
      </trkpt>
      <trkpt lat="47.84039" lon="6.67878">
        <ele>628.9</ele>
        <time>2016-07-03T09:17:12Z</time>
      </trkpt>
      <trkpt lat="47.84039" lon="6.67892">
        <ele>629.5</ele>
        <time>2016-07-03T09:17:14Z</time>
      </trkpt>
      <trkpt lat="47.84041" lon="6.67908">
        <ele>630.3</ele>
        <time>2016-07-03T09:17:17Z</time>
      </trkpt>
      <trkpt lat="47.84045" lon="6.67924">
        <ele>630.6</ele>
        <time>2016-07-03T09:17:20Z</time>
      </trkpt>
      <trkpt lat="47.84048" lon="6.6794">
        <ele>629.8</ele>
        <time>2016-07-03T09:17:23Z</time>
      </trkpt>
      <trkpt lat="47.84049" lon="6.67956">
        <ele>629.4</ele>
        <time>2016-07-03T09:17:26Z</time>
      </trkpt>
      <trkpt lat="47.84048" lon="6.67973">
        <ele>630.5</ele>
        <time>2016-07-03T09:17:29Z</time>
      </trkpt>
      <trkpt lat="47.84043" lon="6.67992">
        <ele>630.4</ele>
        <time>2016-07-03T09:17:32Z</time>
      </trkpt>
      <trkpt lat="47.84041" lon="6.68006">
        <ele>629.3</ele>
        <time>2016-07-03T09:17:34Z</time>
      </trkpt>
      <trkpt lat="47.84044" lon="6.68023">
        <ele>627.7</ele>
        <time>2016-07-03T09:17:36Z</time>
      </trkpt>
      <trkpt lat="47.84051" lon="6.6804">
        <ele>622.3</ele>
        <time>2016-07-03T09:17:38Z</time>
      </trkpt>
      <trkpt lat="47.84064" lon="6.68056">
        <ele>617.8</ele>
        <time>2016-07-03T09:17:40Z</time>
      </trkpt>
      <trkpt lat="47.84071" lon="6.68066">
        <ele>615.6</ele>
        <time>2016-07-03T09:17:41Z</time>
      </trkpt>
      <trkpt lat="47.84081" lon="6.68076">
        <ele>615.7</ele>
        <time>2016-07-03T09:17:42Z</time>
      </trkpt>
      <trkpt lat="47.84088" lon="6.68085">
        <ele>616.5</ele>
        <time>2016-07-03T09:17:43Z</time>
      </trkpt>
      <trkpt lat="47.84102" lon="6.68102">
        <ele>617.4</ele>
        <time>2016-07-03T09:17:45Z</time>
      </trkpt>
      <trkpt lat="47.8411" lon="6.68115">
        <ele>616.4</ele>
        <time>2016-07-03T09:17:47Z</time>
      </trkpt>
      <trkpt lat="47.8411" lon="6.6813">
        <ele>614.1</ele>
        <time>2016-07-03T09:17:50Z</time>
      </trkpt>
      <trkpt lat="47.84101" lon="6.68138">
        <ele>611.5</ele>
        <time>2016-07-03T09:17:54Z</time>
      </trkpt>
      <trkpt lat="47.84092" lon="6.68145">
        <ele>616.2</ele>
        <time>2016-07-03T09:17:57Z</time>
      </trkpt>
      <trkpt lat="47.84084" lon="6.68155">
        <ele>616.4</ele>
        <time>2016-07-03T09:18:00Z</time>
      </trkpt>
      <trkpt lat="47.84073" lon="6.68166">
        <ele>611.1</ele>
        <time>2016-07-03T09:18:03Z</time>
      </trkpt>
      <trkpt lat="47.84064" lon="6.68174">
        <ele>607.7</ele>
        <time>2016-07-03T09:18:05Z</time>
      </trkpt>
      <trkpt lat="47.84052" lon="6.68181">
        <ele>607.4</ele>
        <time>2016-07-03T09:18:07Z</time>
      </trkpt>
      <trkpt lat="47.84043" lon="6.68186">
        <ele>604.9</ele>
        <time>2016-07-03T09:18:09Z</time>
      </trkpt>
      <trkpt lat="47.84033" lon="6.68193">
        <ele>604.6</ele>
        <time>2016-07-03T09:18:11Z</time>
      </trkpt>
      <trkpt lat="47.84019" lon="6.68203">
        <ele>603.2</ele>
        <time>2016-07-03T09:18:13Z</time>
      </trkpt>
      <trkpt lat="47.84007" lon="6.68209">
        <ele>601.4</ele>
        <time>2016-07-03T09:18:15Z</time>
      </trkpt>
      <trkpt lat="47.83991" lon="6.68219">
        <ele>599.7</ele>
        <time>2016-07-03T09:18:17Z</time>
      </trkpt>
      <trkpt lat="47.83975" lon="6.68231">
        <ele>600.6</ele>
        <time>2016-07-03T09:18:19Z</time>
      </trkpt>
      <trkpt lat="47.83964" lon="6.68242">
        <ele>597.5</ele>
        <time>2016-07-03T09:18:21Z</time>
      </trkpt>
      <trkpt lat="47.83957" lon="6.68263">
        <ele>598.1</ele>
        <time>2016-07-03T09:18:23Z</time>
      </trkpt>
      <trkpt lat="47.83952" lon="6.6828">
        <ele>595.1</ele>
        <time>2016-07-03T09:18:25Z</time>
      </trkpt>
      <trkpt lat="47.83949" lon="6.68297">
        <ele>588.9</ele>
        <time>2016-07-03T09:18:27Z</time>
      </trkpt>
      <trkpt lat="47.83944" lon="6.68316">
        <ele>588</ele>
        <time>2016-07-03T09:18:29Z</time>
      </trkpt>
      <trkpt lat="47.83937" lon="6.68331">
        <ele>595.5</ele>
        <time>2016-07-03T09:18:31Z</time>
      </trkpt>
      <trkpt lat="47.83931" lon="6.68343">
        <ele>595.6</ele>
        <time>2016-07-03T09:18:33Z</time>
      </trkpt>
      <trkpt lat="47.83933" lon="6.68366">
        <ele>598.9</ele>
        <time>2016-07-03T09:18:35Z</time>
      </trkpt>
      <trkpt lat="47.83931" lon="6.6838">
        <ele>603.9</ele>
        <time>2016-07-03T09:18:37Z</time>
      </trkpt>
      <trkpt lat="47.83928" lon="6.68396">
        <ele>605.9</ele>
        <time>2016-07-03T09:18:39Z</time>
      </trkpt>
      <trkpt lat="47.83925" lon="6.68409">
        <ele>608.8</ele>
        <time>2016-07-03T09:18:41Z</time>
      </trkpt>
      <trkpt lat="47.83921" lon="6.68423">
        <ele>615.1</ele>
        <time>2016-07-03T09:18:43Z</time>
      </trkpt>
      <trkpt lat="47.83924" lon="6.68439">
        <ele>616.5</ele>
        <time>2016-07-03T09:18:46Z</time>
      </trkpt>
      <trkpt lat="47.83922" lon="6.68453">
        <ele>616.8</ele>
        <time>2016-07-03T09:18:49Z</time>
      </trkpt>
      <trkpt lat="47.83914" lon="6.68464">
        <ele>616.9</ele>
        <time>2016-07-03T09:18:52Z</time>
      </trkpt>
      <trkpt lat="47.83902" lon="6.6847">
        <ele>616.6</ele>
        <time>2016-07-03T09:18:55Z</time>
      </trkpt>
      <trkpt lat="47.83894" lon="6.68478">
        <ele>614.4</ele>
        <time>2016-07-03T09:18:57Z</time>
      </trkpt>
      <trkpt lat="47.83885" lon="6.68485">
        <ele>608.5</ele>
        <time>2016-07-03T09:19:00Z</time>
      </trkpt>
      <trkpt lat="47.83877" lon="6.68497">
        <ele>604.6</ele>
        <time>2016-07-03T09:19:02Z</time>
      </trkpt>
      <trkpt lat="47.8387" lon="6.68516">
        <ele>598.4</ele>
        <time>2016-07-03T09:19:04Z</time>
      </trkpt>
      <trkpt lat="47.83862" lon="6.6853">
        <ele>591.6</ele>
        <time>2016-07-03T09:19:06Z</time>
      </trkpt>
      <trkpt lat="47.83853" lon="6.68536">
        <ele>588.9</ele>
        <time>2016-07-03T09:19:08Z</time>
      </trkpt>
      <trkpt lat="47.83845" lon="6.68553">
        <ele>589.9</ele>
        <time>2016-07-03T09:19:11Z</time>
      </trkpt>
      <trkpt lat="47.8384" lon="6.68566">
        <ele>592</ele>
        <time>2016-07-03T09:19:14Z</time>
      </trkpt>
      <trkpt lat="47.83834" lon="6.68578">
        <ele>595.6</ele>
        <time>2016-07-03T09:19:18Z</time>
      </trkpt>
      <trkpt lat="47.83827" lon="6.68587">
        <ele>598.7</ele>
        <time>2016-07-03T09:19:22Z</time>
      </trkpt>
      <trkpt lat="47.83821" lon="6.68597">
        <ele>595.7</ele>
        <time>2016-07-03T09:19:26Z</time>
      </trkpt>
      <trkpt lat="47.83817" lon="6.68612">
        <ele>595</ele>
        <time>2016-07-03T09:19:31Z</time>
      </trkpt>
      <trkpt lat="47.83815" lon="6.68626">
        <ele>594.2</ele>
        <time>2016-07-03T09:19:37Z</time>
      </trkpt>
      <trkpt lat="47.83815" lon="6.68642">
        <ele>589.9</ele>
        <time>2016-07-03T09:19:42Z</time>
      </trkpt>
      <trkpt lat="47.83816" lon="6.68657">
        <ele>589.3</ele>
        <time>2016-07-03T09:19:48Z</time>
      </trkpt>
      <trkpt lat="47.83814" lon="6.68671">
        <ele>593.1</ele>
        <time>2016-07-03T09:19:56Z</time>
      </trkpt>
      <trkpt lat="47.83805" lon="6.68669">
        <ele>593.1</ele>
        <time>2016-07-03T09:20:03Z</time>
      </trkpt>
      <trkpt lat="47.83796" lon="6.68665">
        <ele>589.5</ele>
        <time>2016-07-03T09:20:07Z</time>
      </trkpt>
      <trkpt lat="47.83788" lon="6.68657">
        <ele>585.8</ele>
        <time>2016-07-03T09:20:10Z</time>
      </trkpt>
      <trkpt lat="47.83777" lon="6.68648">
        <ele>580.4</ele>
        <time>2016-07-03T09:20:13Z</time>
      </trkpt>
      <trkpt lat="47.83766" lon="6.68639">
        <ele>578.5</ele>
        <time>2016-07-03T09:20:16Z</time>
      </trkpt>
      <trkpt lat="47.83758" lon="6.6863">
        <ele>577.2</ele>
        <time>2016-07-03T09:20:19Z</time>
      </trkpt>
      <trkpt lat="47.83749" lon="6.68622">
        <ele>576.3</ele>
        <time>2016-07-03T09:20:22Z</time>
      </trkpt>
      <trkpt lat="47.8374" lon="6.68615">
        <ele>573.7</ele>
        <time>2016-07-03T09:20:25Z</time>
      </trkpt>
      <trkpt lat="47.8373" lon="6.68606">
        <ele>572.5</ele>
        <time>2016-07-03T09:20:28Z</time>
      </trkpt>
      <trkpt lat="47.83719" lon="6.68597">
        <ele>571.6</ele>
        <time>2016-07-03T09:20:31Z</time>
      </trkpt>
      <trkpt lat="47.83709" lon="6.68588">
        <ele>573.1</ele>
        <time>2016-07-03T09:20:34Z</time>
      </trkpt>
      <trkpt lat="47.83698" lon="6.68581">
        <ele>573</ele>
        <time>2016-07-03T09:20:37Z</time>
      </trkpt>
      <trkpt lat="47.83686" lon="6.68574">
        <ele>573.2</ele>
        <time>2016-07-03T09:20:40Z</time>
      </trkpt>
      <trkpt lat="47.83674" lon="6.6857">
        <ele>571.9</ele>
        <time>2016-07-03T09:20:43Z</time>
      </trkpt>
      <trkpt lat="47.83662" lon="6.68567">
        <ele>570.8</ele>
        <time>2016-07-03T09:20:46Z</time>
      </trkpt>
      <trkpt lat="47.83651" lon="6.68561">
        <ele>568.3</ele>
        <time>2016-07-03T09:20:48Z</time>
      </trkpt>
      <trkpt lat="47.83643" lon="6.68555">
        <ele>566.8</ele>
        <time>2016-07-03T09:20:50Z</time>
      </trkpt>
      <trkpt lat="47.83633" lon="6.68548">
        <ele>564.9</ele>
        <time>2016-07-03T09:20:52Z</time>
      </trkpt>
      <trkpt lat="47.83622" lon="6.68546">
        <ele>562.3</ele>
        <time>2016-07-03T09:20:54Z</time>
      </trkpt>
      <trkpt lat="47.83612" lon="6.68547">
        <ele>559.9</ele>
        <time>2016-07-03T09:20:56Z</time>
      </trkpt>
      <trkpt lat="47.83603" lon="6.68545">
        <ele>558.4</ele>
        <time>2016-07-03T09:20:58Z</time>
      </trkpt>
      <trkpt lat="47.83591" lon="6.68547">
        <ele>558.3</ele>
        <time>2016-07-03T09:21:00Z</time>
      </trkpt>
      <trkpt lat="47.83579" lon="6.6855">
        <ele>558.8</ele>
        <time>2016-07-03T09:21:02Z</time>
      </trkpt>
      <trkpt lat="47.83567" lon="6.68547">
        <ele>558.2</ele>
        <time>2016-07-03T09:21:04Z</time>
      </trkpt>
      <trkpt lat="47.83553" lon="6.68545">
        <ele>557.5</ele>
        <time>2016-07-03T09:21:06Z</time>
      </trkpt>
      <trkpt lat="47.83543" lon="6.68543">
        <ele>556.2</ele>
        <time>2016-07-03T09:21:08Z</time>
      </trkpt>
      <trkpt lat="47.83534" lon="6.68538">
        <ele>553.9</ele>
        <time>2016-07-03T09:21:10Z</time>
      </trkpt>
      <trkpt lat="47.83527" lon="6.68527">
        <ele>552.6</ele>
        <time>2016-07-03T09:21:12Z</time>
      </trkpt>
      <trkpt lat="47.83521" lon="6.68515">
        <ele>551.1</ele>
        <time>2016-07-03T09:21:14Z</time>
      </trkpt>
      <trkpt lat="47.83516" lon="6.68501">
        <ele>549.7</ele>
        <time>2016-07-03T09:21:16Z</time>
      </trkpt>
      <trkpt lat="47.83514" lon="6.68484">
        <ele>548.1</ele>
        <time>2016-07-03T09:21:19Z</time>
      </trkpt>
      <trkpt lat="47.83504" lon="6.6847">
        <ele>544.5</ele>
        <time>2016-07-03T09:21:22Z</time>
      </trkpt>
      <trkpt lat="47.83492" lon="6.6846">
        <ele>542.3</ele>
        <time>2016-07-03T09:21:24Z</time>
      </trkpt>
      <trkpt lat="47.83482" lon="6.68453">
        <ele>540</ele>
        <time>2016-07-03T09:21:26Z</time>
      </trkpt>
      <trkpt lat="47.83474" lon="6.68443">
        <ele>540.8</ele>
        <time>2016-07-03T09:21:35Z</time>
      </trkpt>
      <trkpt lat="47.83465" lon="6.68441">
        <ele>546.9</ele>
        <time>2016-07-03T09:21:50Z</time>
      </trkpt>
      <trkpt lat="47.83455" lon="6.6844">
        <ele>552.2</ele>
        <time>2016-07-03T09:22:18Z</time>
      </trkpt>
      <trkpt lat="47.83443" lon="6.68442">
        <ele>551.7</ele>
        <time>2016-07-03T09:22:23Z</time>
      </trkpt>
      <trkpt lat="47.83431" lon="6.68435">
        <ele>550.4</ele>
        <time>2016-07-03T09:22:26Z</time>
      </trkpt>
      <trkpt lat="47.83425" lon="6.68418">
        <ele>549.4</ele>
        <time>2016-07-03T09:22:28Z</time>
      </trkpt>
      <trkpt lat="47.8342" lon="6.68402">
        <ele>547.9</ele>
        <time>2016-07-03T09:22:30Z</time>
      </trkpt>
      <trkpt lat="47.83415" lon="6.68383">
        <ele>546</ele>
        <time>2016-07-03T09:22:33Z</time>
      </trkpt>
      <trkpt lat="47.83408" lon="6.68375">
        <ele>544.6</ele>
        <time>2016-07-03T09:22:35Z</time>
      </trkpt>
      <trkpt lat="47.83398" lon="6.6837">
        <ele>542.6</ele>
        <time>2016-07-03T09:22:37Z</time>
      </trkpt>
      <trkpt lat="47.83389" lon="6.68375">
        <ele>540.4</ele>
        <time>2016-07-03T09:22:39Z</time>
      </trkpt>
      <trkpt lat="47.83381" lon="6.68384">
        <ele>538.9</ele>
        <time>2016-07-03T09:22:41Z</time>
      </trkpt>
      <trkpt lat="47.83377" lon="6.68397">
        <ele>537</ele>
        <time>2016-07-03T09:22:43Z</time>
      </trkpt>
      <trkpt lat="47.83373" lon="6.68409">
        <ele>536</ele>
        <time>2016-07-03T09:22:45Z</time>
      </trkpt>
      <trkpt lat="47.83377" lon="6.68432">
        <ele>533.4</ele>
        <time>2016-07-03T09:22:47Z</time>
      </trkpt>
      <trkpt lat="47.8338" lon="6.68453">
        <ele>531.6</ele>
        <time>2016-07-03T09:22:49Z</time>
      </trkpt>
      <trkpt lat="47.83382" lon="6.68467">
        <ele>530</ele>
        <time>2016-07-03T09:22:51Z</time>
      </trkpt>
      <trkpt lat="47.83375" lon="6.68476">
        <ele>525.7</ele>
        <time>2016-07-03T09:22:54Z</time>
      </trkpt>
      <trkpt lat="47.83367" lon="6.68462">
        <ele>520</ele>
        <time>2016-07-03T09:22:58Z</time>
      </trkpt>
      <trkpt lat="47.83361" lon="6.68447">
        <ele>517</ele>
        <time>2016-07-03T09:23:01Z</time>
      </trkpt>
      <trkpt lat="47.83353" lon="6.68444">
        <ele>513</ele>
        <time>2016-07-03T09:23:04Z</time>
      </trkpt>
      <trkpt lat="47.83343" lon="6.68445">
        <ele>508.7</ele>
        <time>2016-07-03T09:23:06Z</time>
      </trkpt>
      <trkpt lat="47.83332" lon="6.68443">
        <ele>502.6</ele>
        <time>2016-07-03T09:23:09Z</time>
      </trkpt>
      <trkpt lat="47.83325" lon="6.68431">
        <ele>498</ele>
        <time>2016-07-03T09:23:11Z</time>
      </trkpt>
      <trkpt lat="47.83319" lon="6.68419">
        <ele>494.1</ele>
        <time>2016-07-03T09:23:13Z</time>
      </trkpt>
      <trkpt lat="47.83315" lon="6.68402">
        <ele>490.9</ele>
        <time>2016-07-03T09:23:16Z</time>
      </trkpt>
      <trkpt lat="47.83311" lon="6.6838">
        <ele>486.8</ele>
        <time>2016-07-03T09:23:18Z</time>
      </trkpt>
      <trkpt lat="47.83301" lon="6.68361">
        <ele>482.9</ele>
        <time>2016-07-03T09:23:20Z</time>
      </trkpt>
      <trkpt lat="47.8329" lon="6.68343">
        <ele>478.8</ele>
        <time>2016-07-03T09:23:22Z</time>
      </trkpt>
      <trkpt lat="47.83279" lon="6.68328">
        <ele>475.2</ele>
        <time>2016-07-03T09:23:24Z</time>
      </trkpt>
      <trkpt lat="47.83269" lon="6.68316">
        <ele>474.5</ele>
        <time>2016-07-03T09:23:27Z</time>
      </trkpt>
      <trkpt lat="47.83257" lon="6.68307">
        <ele>472.7</ele>
        <time>2016-07-03T09:23:29Z</time>
      </trkpt>
      <trkpt lat="47.83249" lon="6.68297">
        <ele>474</ele>
        <time>2016-07-03T09:23:31Z</time>
      </trkpt>
      <trkpt lat="47.83234" lon="6.68285">
        <ele>471.7</ele>
        <time>2016-07-03T09:23:33Z</time>
      </trkpt>
      <trkpt lat="47.83225" lon="6.68277">
        <ele>470.6</ele>
        <time>2016-07-03T09:23:35Z</time>
      </trkpt>
      <trkpt lat="47.83216" lon="6.68271">
        <ele>470.1</ele>
        <time>2016-07-03T09:23:37Z</time>
      </trkpt>
      <trkpt lat="47.83206" lon="6.68258">
        <ele>467.9</ele>
        <time>2016-07-03T09:23:39Z</time>
      </trkpt>
      <trkpt lat="47.83194" lon="6.68244">
        <ele>465.1</ele>
        <time>2016-07-03T09:23:41Z</time>
      </trkpt>
      <trkpt lat="47.83183" lon="6.68231">
        <ele>461.7</ele>
        <time>2016-07-03T09:23:43Z</time>
      </trkpt>
      <trkpt lat="47.83173" lon="6.68216">
        <ele>460.6</ele>
        <time>2016-07-03T09:23:45Z</time>
      </trkpt>
      <trkpt lat="47.83165" lon="6.68196">
        <ele>459.3</ele>
        <time>2016-07-03T09:23:47Z</time>
      </trkpt>
      <trkpt lat="47.83159" lon="6.68181">
        <ele>458.8</ele>
        <time>2016-07-03T09:23:49Z</time>
      </trkpt>
      <trkpt lat="47.83148" lon="6.68176">
        <ele>458.9</ele>
        <time>2016-07-03T09:23:52Z</time>
      </trkpt>
      <trkpt lat="47.83138" lon="6.68178">
        <ele>464</ele>
        <time>2016-07-03T09:23:55Z</time>
      </trkpt>
      <trkpt lat="47.83127" lon="6.68182">
        <ele>468.1</ele>
        <time>2016-07-03T09:23:59Z</time>
      </trkpt>
      <trkpt lat="47.83117" lon="6.68183">
        <ele>467.4</ele>
        <time>2016-07-03T09:24:03Z</time>
      </trkpt>
      <trkpt lat="47.83109" lon="6.68178">
        <ele>466.5</ele>
        <time>2016-07-03T09:24:07Z</time>
      </trkpt>
      <trkpt lat="47.831" lon="6.68167">
        <ele>464.4</ele>
        <time>2016-07-03T09:24:11Z</time>
      </trkpt>
      <trkpt lat="47.83089" lon="6.68161">
        <ele>462.6</ele>
        <time>2016-07-03T09:24:15Z</time>
      </trkpt>
      <trkpt lat="47.83079" lon="6.68165">
        <ele>461.5</ele>
        <time>2016-07-03T09:24:18Z</time>
      </trkpt>
      <trkpt lat="47.83068" lon="6.68175">
        <ele>461</ele>
        <time>2016-07-03T09:24:21Z</time>
      </trkpt>
      <trkpt lat="47.83061" lon="6.68183">
        <ele>460.9</ele>
        <time>2016-07-03T09:24:23Z</time>
      </trkpt>
      <trkpt lat="47.83053" lon="6.68189">
        <ele>460.8</ele>
        <time>2016-07-03T09:24:25Z</time>
      </trkpt>
      <trkpt lat="47.83044" lon="6.68194">
        <ele>460.6</ele>
        <time>2016-07-03T09:24:27Z</time>
      </trkpt>
      <trkpt lat="47.83036" lon="6.68201">
        <ele>460.1</ele>
        <time>2016-07-03T09:24:29Z</time>
      </trkpt>
      <trkpt lat="47.83029" lon="6.68211">
        <ele>459.7</ele>
        <time>2016-07-03T09:24:31Z</time>
      </trkpt>
      <trkpt lat="47.83021" lon="6.68221">
        <ele>459.5</ele>
        <time>2016-07-03T09:24:33Z</time>
      </trkpt>
      <trkpt lat="47.83014" lon="6.68232">
        <ele>459.2</ele>
        <time>2016-07-03T09:24:35Z</time>
      </trkpt>
      <trkpt lat="47.83005" lon="6.68241">
        <ele>458.8</ele>
        <time>2016-07-03T09:24:37Z</time>
      </trkpt>
      <trkpt lat="47.82996" lon="6.6825">
        <ele>458.6</ele>
        <time>2016-07-03T09:24:39Z</time>
      </trkpt>
      <trkpt lat="47.82986" lon="6.68257">
        <ele>458.1</ele>
        <time>2016-07-03T09:24:41Z</time>
      </trkpt>
      <trkpt lat="47.82977" lon="6.68264">
        <ele>457.7</ele>
        <time>2016-07-03T09:24:43Z</time>
      </trkpt>
      <trkpt lat="47.82967" lon="6.68271">
        <ele>457.7</ele>
        <time>2016-07-03T09:24:45Z</time>
      </trkpt>
      <trkpt lat="47.82958" lon="6.68278">
        <ele>457.4</ele>
        <time>2016-07-03T09:24:47Z</time>
      </trkpt>
      <trkpt lat="47.8295" lon="6.68287">
        <ele>457.1</ele>
        <time>2016-07-03T09:24:49Z</time>
      </trkpt>
      <trkpt lat="47.82943" lon="6.68295">
        <ele>456.9</ele>
        <time>2016-07-03T09:24:51Z</time>
      </trkpt>
      <trkpt lat="47.82936" lon="6.68304">
        <ele>456.8</ele>
        <time>2016-07-03T09:24:53Z</time>
      </trkpt>
      <trkpt lat="47.82928" lon="6.68309">
        <ele>457</ele>
        <time>2016-07-03T09:24:55Z</time>
      </trkpt>
      <trkpt lat="47.82919" lon="6.68305">
        <ele>456.6</ele>
        <time>2016-07-03T09:24:57Z</time>
      </trkpt>
      <trkpt lat="47.82911" lon="6.68298">
        <ele>456.4</ele>
        <time>2016-07-03T09:24:59Z</time>
      </trkpt>
      <trkpt lat="47.829" lon="6.68287">
        <ele>455.8</ele>
        <time>2016-07-03T09:25:02Z</time>
      </trkpt>
      <trkpt lat="47.82894" lon="6.68277">
        <ele>455.2</ele>
        <time>2016-07-03T09:25:04Z</time>
      </trkpt>
      <trkpt lat="47.82887" lon="6.68267">
        <ele>454.5</ele>
        <time>2016-07-03T09:25:06Z</time>
      </trkpt>
      <trkpt lat="47.82881" lon="6.68256">
        <ele>453.9</ele>
        <time>2016-07-03T09:25:08Z</time>
      </trkpt>
      <trkpt lat="47.82876" lon="6.68242">
        <ele>453.3</ele>
        <time>2016-07-03T09:25:10Z</time>
      </trkpt>
      <trkpt lat="47.82871" lon="6.68229">
        <ele>452.4</ele>
        <time>2016-07-03T09:25:12Z</time>
      </trkpt>
      <trkpt lat="47.82866" lon="6.68215">
        <ele>451.9</ele>
        <time>2016-07-03T09:25:14Z</time>
      </trkpt>
      <trkpt lat="47.8286" lon="6.68203">
        <ele>450.9</ele>
        <time>2016-07-03T09:25:16Z</time>
      </trkpt>
      <trkpt lat="47.8285" lon="6.68193">
        <ele>450</ele>
        <time>2016-07-03T09:25:18Z</time>
      </trkpt>
      <trkpt lat="47.82839" lon="6.68185">
        <ele>449.4</ele>
        <time>2016-07-03T09:25:20Z</time>
      </trkpt>
      <trkpt lat="47.82826" lon="6.68177">
        <ele>449.3</ele>
        <time>2016-07-03T09:25:22Z</time>
      </trkpt>
      <trkpt lat="47.82814" lon="6.68173">
        <ele>449.9</ele>
        <time>2016-07-03T09:25:24Z</time>
      </trkpt>
      <trkpt lat="47.82801" lon="6.68171">
        <ele>450.2</ele>
        <time>2016-07-03T09:25:26Z</time>
      </trkpt>
      <trkpt lat="47.82789" lon="6.68172">
        <ele>449.8</ele>
        <time>2016-07-03T09:25:28Z</time>
      </trkpt>
      <trkpt lat="47.82777" lon="6.68173">
        <ele>450.2</ele>
        <time>2016-07-03T09:25:30Z</time>
      </trkpt>
      <trkpt lat="47.82766" lon="6.68177">
        <ele>449</ele>
        <time>2016-07-03T09:25:32Z</time>
      </trkpt>
      <trkpt lat="47.82754" lon="6.68182">
        <ele>448.9</ele>
        <time>2016-07-03T09:25:34Z</time>
      </trkpt>
      <trkpt lat="47.82743" lon="6.68187">
        <ele>448.7</ele>
        <time>2016-07-03T09:25:36Z</time>
      </trkpt>
      <trkpt lat="47.82732" lon="6.68192">
        <ele>448.5</ele>
        <time>2016-07-03T09:25:38Z</time>
      </trkpt>
      <trkpt lat="47.8272" lon="6.68195">
        <ele>447.5</ele>
        <time>2016-07-03T09:25:40Z</time>
      </trkpt>
      <trkpt lat="47.82709" lon="6.68196">
        <ele>447.2</ele>
        <time>2016-07-03T09:25:42Z</time>
      </trkpt>
      <trkpt lat="47.82697" lon="6.68195">
        <ele>447.1</ele>
        <time>2016-07-03T09:25:44Z</time>
      </trkpt>
      <trkpt lat="47.82685" lon="6.68192">
        <ele>447.2</ele>
        <time>2016-07-03T09:25:46Z</time>
      </trkpt>
      <trkpt lat="47.82673" lon="6.6819">
        <ele>447.1</ele>
        <time>2016-07-03T09:25:48Z</time>
      </trkpt>
      <trkpt lat="47.82661" lon="6.68189">
        <ele>446.9</ele>
        <time>2016-07-03T09:25:50Z</time>
      </trkpt>
      <trkpt lat="47.82649" lon="6.68189">
        <ele>446.7</ele>
        <time>2016-07-03T09:25:52Z</time>
      </trkpt>
      <trkpt lat="47.82637" lon="6.6819">
        <ele>446.8</ele>
        <time>2016-07-03T09:25:54Z</time>
      </trkpt>
      <trkpt lat="47.82625" lon="6.6819">
        <ele>447.1</ele>
        <time>2016-07-03T09:25:56Z</time>
      </trkpt>
      <trkpt lat="47.82613" lon="6.68188">
        <ele>446.9</ele>
        <time>2016-07-03T09:25:58Z</time>
      </trkpt>
      <trkpt lat="47.82603" lon="6.68184">
        <ele>446.8</ele>
        <time>2016-07-03T09:26:00Z</time>
      </trkpt>
      <trkpt lat="47.82594" lon="6.68179">
        <ele>448.2</ele>
        <time>2016-07-03T09:26:02Z</time>
      </trkpt>
      <trkpt lat="47.82585" lon="6.68175">
        <ele>448.7</ele>
        <time>2016-07-03T09:26:04Z</time>
      </trkpt>
      <trkpt lat="47.82573" lon="6.6817">
        <ele>450.2</ele>
        <time>2016-07-03T09:26:07Z</time>
      </trkpt>
      <trkpt lat="47.82561" lon="6.68165">
        <ele>450.9</ele>
        <time>2016-07-03T09:26:10Z</time>
      </trkpt>
      <trkpt lat="47.82549" lon="6.68161">
        <ele>451.1</ele>
        <time>2016-07-03T09:26:13Z</time>
      </trkpt>
      <trkpt lat="47.82537" lon="6.68155">
        <ele>451.8</ele>
        <time>2016-07-03T09:26:16Z</time>
      </trkpt>
      <trkpt lat="47.82528" lon="6.68149">
        <ele>453.8</ele>
        <time>2016-07-03T09:26:19Z</time>
      </trkpt>
      <trkpt lat="47.82519" lon="6.68144">
        <ele>454</ele>
        <time>2016-07-03T09:26:22Z</time>
      </trkpt>
      <trkpt lat="47.82507" lon="6.68137">
        <ele>454.3</ele>
        <time>2016-07-03T09:26:26Z</time>
      </trkpt>
      <trkpt lat="47.82497" lon="6.68131">
        <ele>455.5</ele>
        <time>2016-07-03T09:26:29Z</time>
      </trkpt>
      <trkpt lat="47.82486" lon="6.68125">
        <ele>455.4</ele>
        <time>2016-07-03T09:26:32Z</time>
      </trkpt>
      <trkpt lat="47.82475" lon="6.68119">
        <ele>456.7</ele>
        <time>2016-07-03T09:26:35Z</time>
      </trkpt>
      <trkpt lat="47.82465" lon="6.68114">
        <ele>456.3</ele>
        <time>2016-07-03T09:26:38Z</time>
      </trkpt>
      <trkpt lat="47.82455" lon="6.68108">
        <ele>455.6</ele>
        <time>2016-07-03T09:26:41Z</time>
      </trkpt>
      <trkpt lat="47.82446" lon="6.68103">
        <ele>455.2</ele>
        <time>2016-07-03T09:26:44Z</time>
      </trkpt>
      <trkpt lat="47.82437" lon="6.68099">
        <ele>456.7</ele>
        <time>2016-07-03T09:26:47Z</time>
      </trkpt>
      <trkpt lat="47.82427" lon="6.68096">
        <ele>456.8</ele>
        <time>2016-07-03T09:26:50Z</time>
      </trkpt>
      <trkpt lat="47.82417" lon="6.68093">
        <ele>457.7</ele>
        <time>2016-07-03T09:26:53Z</time>
      </trkpt>
      <trkpt lat="47.82407" lon="6.68089">
        <ele>458.2</ele>
        <time>2016-07-03T09:26:56Z</time>
      </trkpt>
      <trkpt lat="47.82395" lon="6.68083">
        <ele>459.7</ele>
        <time>2016-07-03T09:26:59Z</time>
      </trkpt>
      <trkpt lat="47.82385" lon="6.68076">
        <ele>459.1</ele>
        <time>2016-07-03T09:27:02Z</time>
      </trkpt>
      <trkpt lat="47.82373" lon="6.68067">
        <ele>458.7</ele>
        <time>2016-07-03T09:27:05Z</time>
      </trkpt>
      <trkpt lat="47.82363" lon="6.68057">
        <ele>459.2</ele>
        <time>2016-07-03T09:27:08Z</time>
      </trkpt>
      <trkpt lat="47.82351" lon="6.68049">
        <ele>459.7</ele>
        <time>2016-07-03T09:27:11Z</time>
      </trkpt>
      <trkpt lat="47.8234" lon="6.68041">
        <ele>460</ele>
        <time>2016-07-03T09:27:14Z</time>
      </trkpt>
      <trkpt lat="47.82328" lon="6.68036">
        <ele>461</ele>
        <time>2016-07-03T09:27:17Z</time>
      </trkpt>
      <trkpt lat="47.82319" lon="6.68034">
        <ele>460.9</ele>
        <time>2016-07-03T09:27:19Z</time>
      </trkpt>
      <trkpt lat="47.82307" lon="6.68031">
        <ele>460.1</ele>
        <time>2016-07-03T09:27:21Z</time>
      </trkpt>
      <trkpt lat="47.82293" lon="6.6803">
        <ele>458.6</ele>
        <time>2016-07-03T09:27:23Z</time>
      </trkpt>
      <trkpt lat="47.82277" lon="6.68033">
        <ele>457.2</ele>
        <time>2016-07-03T09:27:25Z</time>
      </trkpt>
      <trkpt lat="47.82259" lon="6.68039">
        <ele>455.4</ele>
        <time>2016-07-03T09:27:27Z</time>
      </trkpt>
      <trkpt lat="47.8225" lon="6.6804">
        <ele>454.5</ele>
        <time>2016-07-03T09:27:28Z</time>
      </trkpt>
      <trkpt lat="47.8224" lon="6.68039">
        <ele>453.7</ele>
        <time>2016-07-03T09:27:29Z</time>
      </trkpt>
      <trkpt lat="47.82231" lon="6.68035">
        <ele>452.8</ele>
        <time>2016-07-03T09:27:30Z</time>
      </trkpt>
      <trkpt lat="47.82221" lon="6.68031">
        <ele>452.4</ele>
        <time>2016-07-03T09:27:31Z</time>
      </trkpt>
      <trkpt lat="47.82212" lon="6.68027">
        <ele>452.3</ele>
        <time>2016-07-03T09:27:32Z</time>
      </trkpt>
      <trkpt lat="47.82203" lon="6.68024">
        <ele>452</ele>
        <time>2016-07-03T09:27:33Z</time>
      </trkpt>
      <trkpt lat="47.82193" lon="6.68021">
        <ele>451.5</ele>
        <time>2016-07-03T09:27:34Z</time>
      </trkpt>
      <trkpt lat="47.82184" lon="6.68017">
        <ele>450.9</ele>
        <time>2016-07-03T09:27:35Z</time>
      </trkpt>
      <trkpt lat="47.82164" lon="6.68008">
        <ele>449</ele>
        <time>2016-07-03T09:27:37Z</time>
      </trkpt>
      <trkpt lat="47.82135" lon="6.67991">
        <ele>447.4</ele>
        <time>2016-07-03T09:27:40Z</time>
      </trkpt>
      <trkpt lat="47.82125" lon="6.67986">
        <ele>446.9</ele>
        <time>2016-07-03T09:27:41Z</time>
      </trkpt>
      <trkpt lat="47.82115" lon="6.67981">
        <ele>445.8</ele>
        <time>2016-07-03T09:27:42Z</time>
      </trkpt>
      <trkpt lat="47.82105" lon="6.67978">
        <ele>445</ele>
        <time>2016-07-03T09:27:43Z</time>
      </trkpt>
      <trkpt lat="47.82094" lon="6.67978">
        <ele>444</ele>
        <time>2016-07-03T09:27:44Z</time>
      </trkpt>
      <trkpt lat="47.82083" lon="6.67978">
        <ele>442.9</ele>
        <time>2016-07-03T09:27:45Z</time>
      </trkpt>
      <trkpt lat="47.82073" lon="6.6798">
        <ele>443.4</ele>
        <time>2016-07-03T09:27:46Z</time>
      </trkpt>
      <trkpt lat="47.82062" lon="6.67983">
        <ele>444</ele>
        <time>2016-07-03T09:27:47Z</time>
      </trkpt>
      <trkpt lat="47.82053" lon="6.67986">
        <ele>444</ele>
        <time>2016-07-03T09:27:48Z</time>
      </trkpt>
      <trkpt lat="47.82043" lon="6.67991">
        <ele>443.8</ele>
        <time>2016-07-03T09:27:49Z</time>
      </trkpt>
      <trkpt lat="47.82034" lon="6.67997">
        <ele>443.6</ele>
        <time>2016-07-03T09:27:50Z</time>
      </trkpt>
      <trkpt lat="47.82026" lon="6.68006">
        <ele>443.5</ele>
        <time>2016-07-03T09:27:51Z</time>
      </trkpt>
      <trkpt lat="47.82019" lon="6.68016">
        <ele>443.5</ele>
        <time>2016-07-03T09:27:52Z</time>
      </trkpt>
      <trkpt lat="47.82012" lon="6.68026">
        <ele>443</ele>
        <time>2016-07-03T09:27:53Z</time>
      </trkpt>
      <trkpt lat="47.82004" lon="6.68038">
        <ele>441.1</ele>
        <time>2016-07-03T09:27:54Z</time>
      </trkpt>
      <trkpt lat="47.81997" lon="6.6805">
        <ele>441</ele>
        <time>2016-07-03T09:27:55Z</time>
      </trkpt>
      <trkpt lat="47.8199" lon="6.68062">
        <ele>440.7</ele>
        <time>2016-07-03T09:27:56Z</time>
      </trkpt>
      <trkpt lat="47.81984" lon="6.68074">
        <ele>440.9</ele>
        <time>2016-07-03T09:27:57Z</time>
      </trkpt>
      <trkpt lat="47.81977" lon="6.68086">
        <ele>440.8</ele>
        <time>2016-07-03T09:27:58Z</time>
      </trkpt>
      <trkpt lat="47.81971" lon="6.68098">
        <ele>442</ele>
        <time>2016-07-03T09:27:59Z</time>
      </trkpt>
      <trkpt lat="47.81966" lon="6.68111">
        <ele>442.5</ele>
        <time>2016-07-03T09:28:00Z</time>
      </trkpt>
      <trkpt lat="47.81961" lon="6.68123">
        <ele>443.3</ele>
        <time>2016-07-03T09:28:01Z</time>
      </trkpt>
      <trkpt lat="47.81958" lon="6.68136">
        <ele>444.1</ele>
        <time>2016-07-03T09:28:02Z</time>
      </trkpt>
      <trkpt lat="47.81955" lon="6.6816">
        <ele>445.4</ele>
        <time>2016-07-03T09:28:04Z</time>
      </trkpt>
      <trkpt lat="47.81954" lon="6.68183">
        <ele>446.1</ele>
        <time>2016-07-03T09:28:06Z</time>
      </trkpt>
      <trkpt lat="47.81954" lon="6.68203">
        <ele>446.3</ele>
        <time>2016-07-03T09:28:08Z</time>
      </trkpt>
      <trkpt lat="47.81955" lon="6.68221">
        <ele>447.1</ele>
        <time>2016-07-03T09:28:10Z</time>
      </trkpt>
      <trkpt lat="47.81956" lon="6.68239">
        <ele>447.1</ele>
        <time>2016-07-03T09:28:12Z</time>
      </trkpt>
      <trkpt lat="47.81957" lon="6.68257">
        <ele>447.4</ele>
        <time>2016-07-03T09:28:14Z</time>
      </trkpt>
      <trkpt lat="47.8196" lon="6.68276">
        <ele>447.8</ele>
        <time>2016-07-03T09:28:16Z</time>
      </trkpt>
      <trkpt lat="47.81962" lon="6.68294">
        <ele>448.5</ele>
        <time>2016-07-03T09:28:18Z</time>
      </trkpt>
      <trkpt lat="47.81964" lon="6.68312">
        <ele>448.7</ele>
        <time>2016-07-03T09:28:20Z</time>
      </trkpt>
      <trkpt lat="47.81968" lon="6.68328">
        <ele>448.6</ele>
        <time>2016-07-03T09:28:22Z</time>
      </trkpt>
      <trkpt lat="47.81971" lon="6.68343">
        <ele>448.6</ele>
        <time>2016-07-03T09:28:24Z</time>
      </trkpt>
      <trkpt lat="47.81975" lon="6.68358">
        <ele>448.5</ele>
        <time>2016-07-03T09:28:26Z</time>
      </trkpt>
      <trkpt lat="47.8198" lon="6.68374">
        <ele>448.7</ele>
        <time>2016-07-03T09:28:28Z</time>
      </trkpt>
      <trkpt lat="47.81984" lon="6.68388">
        <ele>448.7</ele>
        <time>2016-07-03T09:28:30Z</time>
      </trkpt>
      <trkpt lat="47.81988" lon="6.68401">
        <ele>448.2</ele>
        <time>2016-07-03T09:28:32Z</time>
      </trkpt>
      <trkpt lat="47.81992" lon="6.6842">
        <ele>447.6</ele>
        <time>2016-07-03T09:28:35Z</time>
      </trkpt>
      <trkpt lat="47.81994" lon="6.68437">
        <ele>446.6</ele>
        <time>2016-07-03T09:28:38Z</time>
      </trkpt>
      <trkpt lat="47.81997" lon="6.68453">
        <ele>446.4</ele>
        <time>2016-07-03T09:28:42Z</time>
      </trkpt>
      <trkpt lat="47.81999" lon="6.68471">
        <ele>445.2</ele>
        <time>2016-07-03T09:28:45Z</time>
      </trkpt>
      <trkpt lat="47.82" lon="6.68486">
        <ele>443.1</ele>
        <time>2016-07-03T09:28:47Z</time>
      </trkpt>
      <trkpt lat="47.82003" lon="6.68501">
        <ele>439.9</ele>
        <time>2016-07-03T09:28:49Z</time>
      </trkpt>
      <trkpt lat="47.82004" lon="6.68519">
        <ele>436.9</ele>
        <time>2016-07-03T09:28:51Z</time>
      </trkpt>
      <trkpt lat="47.82003" lon="6.68534">
        <ele>438</ele>
        <time>2016-07-03T09:28:53Z</time>
      </trkpt>
      <trkpt lat="47.81995" lon="6.68544">
        <ele>436.8</ele>
        <time>2016-07-03T09:28:55Z</time>
      </trkpt>
      <trkpt lat="47.81984" lon="6.68538">
        <ele>435.1</ele>
        <time>2016-07-03T09:28:57Z</time>
      </trkpt>
      <trkpt lat="47.81971" lon="6.68526">
        <ele>433.6</ele>
        <time>2016-07-03T09:28:59Z</time>
      </trkpt>
      <trkpt lat="47.81955" lon="6.68517">
        <ele>431.3</ele>
        <time>2016-07-03T09:29:01Z</time>
      </trkpt>
      <trkpt lat="47.81945" lon="6.68516">
        <ele>429.6</ele>
        <time>2016-07-03T09:29:02Z</time>
      </trkpt>
      <trkpt lat="47.81934" lon="6.68517">
        <ele>427.7</ele>
        <time>2016-07-03T09:29:03Z</time>
      </trkpt>
      <trkpt lat="47.81923" lon="6.68519">
        <ele>425.9</ele>
        <time>2016-07-03T09:29:04Z</time>
      </trkpt>
      <trkpt lat="47.81912" lon="6.68521">
        <ele>423.7</ele>
        <time>2016-07-03T09:29:05Z</time>
      </trkpt>
      <trkpt lat="47.81902" lon="6.68524">
        <ele>421.8</ele>
        <time>2016-07-03T09:29:06Z</time>
      </trkpt>
      <trkpt lat="47.81886" lon="6.68529">
        <ele>421.3</ele>
        <time>2016-07-03T09:29:08Z</time>
      </trkpt>
      <trkpt lat="47.81874" lon="6.68532">
        <ele>420.2</ele>
        <time>2016-07-03T09:29:10Z</time>
      </trkpt>
      <trkpt lat="47.81863" lon="6.68534">
        <ele>417.8</ele>
        <time>2016-07-03T09:29:13Z</time>
      </trkpt>
      <trkpt lat="47.81855" lon="6.68528">
        <ele>416.4</ele>
        <time>2016-07-03T09:29:16Z</time>
      </trkpt>
      <trkpt lat="47.81844" lon="6.68516">
        <ele>415.6</ele>
        <time>2016-07-03T09:29:19Z</time>
      </trkpt>
      <trkpt lat="47.81837" lon="6.68508">
        <ele>415.4</ele>
        <time>2016-07-03T09:29:21Z</time>
      </trkpt>
      <trkpt lat="47.8183" lon="6.68498">
        <ele>415.3</ele>
        <time>2016-07-03T09:29:23Z</time>
      </trkpt>
      <trkpt lat="47.81823" lon="6.68489">
        <ele>415.3</ele>
        <time>2016-07-03T09:29:25Z</time>
      </trkpt>
      <trkpt lat="47.81816" lon="6.68479">
        <ele>415.4</ele>
        <time>2016-07-03T09:29:27Z</time>
      </trkpt>
      <trkpt lat="47.81808" lon="6.6847">
        <ele>416.2</ele>
        <time>2016-07-03T09:29:29Z</time>
      </trkpt>
      <trkpt lat="47.818" lon="6.68462">
        <ele>416.2</ele>
        <time>2016-07-03T09:29:31Z</time>
      </trkpt>
      <trkpt lat="47.8179" lon="6.68457">
        <ele>416.2</ele>
        <time>2016-07-03T09:29:33Z</time>
      </trkpt>
      <trkpt lat="47.8178" lon="6.68452">
        <ele>415.7</ele>
        <time>2016-07-03T09:29:35Z</time>
      </trkpt>
      <trkpt lat="47.81771" lon="6.68448">
        <ele>416.2</ele>
        <time>2016-07-03T09:29:37Z</time>
      </trkpt>
      <trkpt lat="47.8176" lon="6.68444">
        <ele>417.9</ele>
        <time>2016-07-03T09:29:39Z</time>
      </trkpt>
      <trkpt lat="47.81751" lon="6.68439">
        <ele>417.4</ele>
        <time>2016-07-03T09:29:41Z</time>
      </trkpt>
      <trkpt lat="47.81741" lon="6.68434">
        <ele>416.3</ele>
        <time>2016-07-03T09:29:43Z</time>
      </trkpt>
      <trkpt lat="47.81731" lon="6.68428">
        <ele>416.9</ele>
        <time>2016-07-03T09:29:45Z</time>
      </trkpt>
      <trkpt lat="47.81721" lon="6.68423">
        <ele>417.6</ele>
        <time>2016-07-03T09:29:47Z</time>
      </trkpt>
      <trkpt lat="47.8171" lon="6.68418">
        <ele>416.8</ele>
        <time>2016-07-03T09:29:49Z</time>
      </trkpt>
      <trkpt lat="47.817" lon="6.68412">
        <ele>416.4</ele>
        <time>2016-07-03T09:29:51Z</time>
      </trkpt>
      <trkpt lat="47.81689" lon="6.68406">
        <ele>416.6</ele>
        <time>2016-07-03T09:29:53Z</time>
      </trkpt>
      <trkpt lat="47.81679" lon="6.684">
        <ele>416.5</ele>
        <time>2016-07-03T09:29:55Z</time>
      </trkpt>
      <trkpt lat="47.8167" lon="6.68392">
        <ele>416.7</ele>
        <time>2016-07-03T09:29:57Z</time>
      </trkpt>
      <trkpt lat="47.8166" lon="6.68385">
        <ele>417.1</ele>
        <time>2016-07-03T09:29:59Z</time>
      </trkpt>
      <trkpt lat="47.81651" lon="6.68375">
        <ele>417.1</ele>
        <time>2016-07-03T09:30:01Z</time>
      </trkpt>
      <trkpt lat="47.81643" lon="6.68364">
        <ele>416.6</ele>
        <time>2016-07-03T09:30:03Z</time>
      </trkpt>
      <trkpt lat="47.81635" lon="6.68352">
        <ele>416.8</ele>
        <time>2016-07-03T09:30:05Z</time>
      </trkpt>
      <trkpt lat="47.81627" lon="6.6834">
        <ele>416.7</ele>
        <time>2016-07-03T09:30:07Z</time>
      </trkpt>
      <trkpt lat="47.81619" lon="6.68327">
        <ele>416.5</ele>
        <time>2016-07-03T09:30:09Z</time>
      </trkpt>
      <trkpt lat="47.81611" lon="6.68315">
        <ele>415.9</ele>
        <time>2016-07-03T09:30:11Z</time>
      </trkpt>
      <trkpt lat="47.81602" lon="6.68304">
        <ele>415.2</ele>
        <time>2016-07-03T09:30:13Z</time>
      </trkpt>
      <trkpt lat="47.81591" lon="6.68295">
        <ele>415.1</ele>
        <time>2016-07-03T09:30:15Z</time>
      </trkpt>
      <trkpt lat="47.81579" lon="6.68288">
        <ele>414.9</ele>
        <time>2016-07-03T09:30:17Z</time>
      </trkpt>
      <trkpt lat="47.81567" lon="6.68282">
        <ele>414.9</ele>
        <time>2016-07-03T09:30:19Z</time>
      </trkpt>
      <trkpt lat="47.81554" lon="6.68277">
        <ele>414.5</ele>
        <time>2016-07-03T09:30:21Z</time>
      </trkpt>
      <trkpt lat="47.81541" lon="6.68273">
        <ele>414.8</ele>
        <time>2016-07-03T09:30:23Z</time>
      </trkpt>
      <trkpt lat="47.81529" lon="6.68269">
        <ele>415.1</ele>
        <time>2016-07-03T09:30:25Z</time>
      </trkpt>
      <trkpt lat="47.81516" lon="6.68265">
        <ele>414.4</ele>
        <time>2016-07-03T09:30:27Z</time>
      </trkpt>
      <trkpt lat="47.81504" lon="6.6826">
        <ele>413.7</ele>
        <time>2016-07-03T09:30:29Z</time>
      </trkpt>
      <trkpt lat="47.81492" lon="6.68256">
        <ele>414.1</ele>
        <time>2016-07-03T09:30:31Z</time>
      </trkpt>
      <trkpt lat="47.81481" lon="6.68251">
        <ele>413.8</ele>
        <time>2016-07-03T09:30:33Z</time>
      </trkpt>
      <trkpt lat="47.8147" lon="6.68244">
        <ele>413.4</ele>
        <time>2016-07-03T09:30:35Z</time>
      </trkpt>
      <trkpt lat="47.81458" lon="6.68236">
        <ele>413.3</ele>
        <time>2016-07-03T09:30:37Z</time>
      </trkpt>
      <trkpt lat="47.81447" lon="6.68228">
        <ele>413.3</ele>
        <time>2016-07-03T09:30:39Z</time>
      </trkpt>
      <trkpt lat="47.81435" lon="6.68219">
        <ele>413</ele>
        <time>2016-07-03T09:30:41Z</time>
      </trkpt>
      <trkpt lat="47.81423" lon="6.68211">
        <ele>413.1</ele>
        <time>2016-07-03T09:30:43Z</time>
      </trkpt>
      <trkpt lat="47.81412" lon="6.68203">
        <ele>413</ele>
        <time>2016-07-03T09:30:45Z</time>
      </trkpt>
      <trkpt lat="47.814" lon="6.68195">
        <ele>412.8</ele>
        <time>2016-07-03T09:30:47Z</time>
      </trkpt>
      <trkpt lat="47.81389" lon="6.68187">
        <ele>412.4</ele>
        <time>2016-07-03T09:30:49Z</time>
      </trkpt>
      <trkpt lat="47.81377" lon="6.68178">
        <ele>411.9</ele>
        <time>2016-07-03T09:30:51Z</time>
      </trkpt>
      <trkpt lat="47.81366" lon="6.68169">
        <ele>412</ele>
        <time>2016-07-03T09:30:53Z</time>
      </trkpt>
      <trkpt lat="47.81356" lon="6.68159">
        <ele>412.6</ele>
        <time>2016-07-03T09:30:55Z</time>
      </trkpt>
      <trkpt lat="47.81346" lon="6.6815">
        <ele>413.4</ele>
        <time>2016-07-03T09:30:57Z</time>
      </trkpt>
      <trkpt lat="47.81335" lon="6.68141">
        <ele>413.8</ele>
        <time>2016-07-03T09:30:59Z</time>
      </trkpt>
      <trkpt lat="47.81325" lon="6.6813">
        <ele>413.6</ele>
        <time>2016-07-03T09:31:01Z</time>
      </trkpt>
      <trkpt lat="47.81314" lon="6.6812">
        <ele>412.9</ele>
        <time>2016-07-03T09:31:03Z</time>
      </trkpt>
      <trkpt lat="47.81303" lon="6.68111">
        <ele>412.5</ele>
        <time>2016-07-03T09:31:05Z</time>
      </trkpt>
      <trkpt lat="47.8129" lon="6.68102">
        <ele>412</ele>
        <time>2016-07-03T09:31:07Z</time>
      </trkpt>
      <trkpt lat="47.81278" lon="6.68094">
        <ele>410.9</ele>
        <time>2016-07-03T09:31:09Z</time>
      </trkpt>
      <trkpt lat="47.81264" lon="6.68088">
        <ele>410.4</ele>
        <time>2016-07-03T09:31:11Z</time>
      </trkpt>
      <trkpt lat="47.8125" lon="6.68084">
        <ele>410.2</ele>
        <time>2016-07-03T09:31:13Z</time>
      </trkpt>
      <trkpt lat="47.81236" lon="6.68082">
        <ele>410.1</ele>
        <time>2016-07-03T09:31:15Z</time>
      </trkpt>
      <trkpt lat="47.81221" lon="6.68082">
        <ele>410.5</ele>
        <time>2016-07-03T09:31:17Z</time>
      </trkpt>
      <trkpt lat="47.81207" lon="6.6808">
        <ele>410.2</ele>
        <time>2016-07-03T09:31:19Z</time>
      </trkpt>
      <trkpt lat="47.81193" lon="6.6808">
        <ele>410.2</ele>
        <time>2016-07-03T09:31:21Z</time>
      </trkpt>
      <trkpt lat="47.81179" lon="6.68079">
        <ele>410.1</ele>
        <time>2016-07-03T09:31:23Z</time>
      </trkpt>
      <trkpt lat="47.81165" lon="6.68078">
        <ele>410.3</ele>
        <time>2016-07-03T09:31:25Z</time>
      </trkpt>
      <trkpt lat="47.81151" lon="6.68078">
        <ele>410.5</ele>
        <time>2016-07-03T09:31:27Z</time>
      </trkpt>
      <trkpt lat="47.81138" lon="6.68078">
        <ele>410.8</ele>
        <time>2016-07-03T09:31:29Z</time>
      </trkpt>
      <trkpt lat="47.81123" lon="6.6808">
        <ele>411.4</ele>
        <time>2016-07-03T09:31:31Z</time>
      </trkpt>
      <trkpt lat="47.81109" lon="6.68082">
        <ele>411.3</ele>
        <time>2016-07-03T09:31:33Z</time>
      </trkpt>
      <trkpt lat="47.81095" lon="6.68086">
        <ele>410.7</ele>
        <time>2016-07-03T09:31:35Z</time>
      </trkpt>
      <trkpt lat="47.81082" lon="6.68093">
        <ele>410.4</ele>
        <time>2016-07-03T09:31:37Z</time>
      </trkpt>
      <trkpt lat="47.81069" lon="6.681">
        <ele>411.2</ele>
        <time>2016-07-03T09:31:39Z</time>
      </trkpt>
      <trkpt lat="47.81056" lon="6.68108">
        <ele>412.4</ele>
        <time>2016-07-03T09:31:41Z</time>
      </trkpt>
      <trkpt lat="47.81042" lon="6.68115">
        <ele>413</ele>
        <time>2016-07-03T09:31:43Z</time>
      </trkpt>
      <trkpt lat="47.81029" lon="6.68121">
        <ele>413.2</ele>
        <time>2016-07-03T09:31:45Z</time>
      </trkpt>
      <trkpt lat="47.81016" lon="6.68125">
        <ele>413.4</ele>
        <time>2016-07-03T09:31:47Z</time>
      </trkpt>
      <trkpt lat="47.81003" lon="6.68125">
        <ele>413.2</ele>
        <time>2016-07-03T09:31:49Z</time>
      </trkpt>
      <trkpt lat="47.80991" lon="6.68123">
        <ele>412.9</ele>
        <time>2016-07-03T09:31:51Z</time>
      </trkpt>
      <trkpt lat="47.80979" lon="6.68117">
        <ele>412.8</ele>
        <time>2016-07-03T09:31:53Z</time>
      </trkpt>
      <trkpt lat="47.80968" lon="6.68109">
        <ele>412.5</ele>
        <time>2016-07-03T09:31:55Z</time>
      </trkpt>
      <trkpt lat="47.80957" lon="6.68099">
        <ele>412.6</ele>
        <time>2016-07-03T09:31:57Z</time>
      </trkpt>
      <trkpt lat="47.80948" lon="6.68087">
        <ele>412.7</ele>
        <time>2016-07-03T09:31:59Z</time>
      </trkpt>
      <trkpt lat="47.80938" lon="6.68075">
        <ele>413.1</ele>
        <time>2016-07-03T09:32:01Z</time>
      </trkpt>
      <trkpt lat="47.80927" lon="6.68063">
        <ele>413.5</ele>
        <time>2016-07-03T09:32:03Z</time>
      </trkpt>
      <trkpt lat="47.80917" lon="6.68051">
        <ele>413.3</ele>
        <time>2016-07-03T09:32:05Z</time>
      </trkpt>
      <trkpt lat="47.80906" lon="6.68039">
        <ele>413.1</ele>
        <time>2016-07-03T09:32:07Z</time>
      </trkpt>
      <trkpt lat="47.80895" lon="6.68027">
        <ele>412.1</ele>
        <time>2016-07-03T09:32:09Z</time>
      </trkpt>
      <trkpt lat="47.80883" lon="6.68015">
        <ele>411.4</ele>
        <time>2016-07-03T09:32:11Z</time>
      </trkpt>
      <trkpt lat="47.8087" lon="6.68007">
        <ele>410.9</ele>
        <time>2016-07-03T09:32:13Z</time>
      </trkpt>
      <trkpt lat="47.80856" lon="6.68003">
        <ele>410.2</ele>
        <time>2016-07-03T09:32:15Z</time>
      </trkpt>
      <trkpt lat="47.80841" lon="6.68003">
        <ele>408.1</ele>
        <time>2016-07-03T09:32:17Z</time>
      </trkpt>
      <trkpt lat="47.80826" lon="6.68007">
        <ele>405.3</ele>
        <time>2016-07-03T09:32:19Z</time>
      </trkpt>
      <trkpt lat="47.80809" lon="6.6801">
        <ele>407.1</ele>
        <time>2016-07-03T09:32:21Z</time>
      </trkpt>
      <trkpt lat="47.80793" lon="6.68012">
        <ele>406.8</ele>
        <time>2016-07-03T09:32:23Z</time>
      </trkpt>
      <trkpt lat="47.80777" lon="6.68012">
        <ele>404</ele>
        <time>2016-07-03T09:32:25Z</time>
      </trkpt>
      <trkpt lat="47.8076" lon="6.68008">
        <ele>402.9</ele>
        <time>2016-07-03T09:32:27Z</time>
      </trkpt>
      <trkpt lat="47.80745" lon="6.68">
        <ele>401.3</ele>
        <time>2016-07-03T09:32:29Z</time>
      </trkpt>
      <trkpt lat="47.80731" lon="6.67986">
        <ele>399.7</ele>
        <time>2016-07-03T09:32:31Z</time>
      </trkpt>
      <trkpt lat="47.80719" lon="6.67969">
        <ele>398.8</ele>
        <time>2016-07-03T09:32:33Z</time>
      </trkpt>
      <trkpt lat="47.80709" lon="6.6795">
        <ele>398.2</ele>
        <time>2016-07-03T09:32:35Z</time>
      </trkpt>
      <trkpt lat="47.807" lon="6.67932">
        <ele>397.9</ele>
        <time>2016-07-03T09:32:37Z</time>
      </trkpt>
      <trkpt lat="47.8069" lon="6.67913">
        <ele>397.4</ele>
        <time>2016-07-03T09:32:39Z</time>
      </trkpt>
      <trkpt lat="47.80682" lon="6.67894">
        <ele>398</ele>
        <time>2016-07-03T09:32:41Z</time>
      </trkpt>
      <trkpt lat="47.80673" lon="6.67875">
        <ele>395.9</ele>
        <time>2016-07-03T09:32:43Z</time>
      </trkpt>
      <trkpt lat="47.80664" lon="6.67855">
        <ele>396.6</ele>
        <time>2016-07-03T09:32:45Z</time>
      </trkpt>
      <trkpt lat="47.80655" lon="6.67836">
        <ele>395.5</ele>
        <time>2016-07-03T09:32:47Z</time>
      </trkpt>
      <trkpt lat="47.80646" lon="6.67818">
        <ele>397.2</ele>
        <time>2016-07-03T09:32:49Z</time>
      </trkpt>
      <trkpt lat="47.80636" lon="6.67799">
        <ele>396.9</ele>
        <time>2016-07-03T09:32:51Z</time>
      </trkpt>
      <trkpt lat="47.80625" lon="6.6778">
        <ele>395.5</ele>
        <time>2016-07-03T09:32:53Z</time>
      </trkpt>
      <trkpt lat="47.80613" lon="6.67763">
        <ele>393.6</ele>
        <time>2016-07-03T09:32:55Z</time>
      </trkpt>
      <trkpt lat="47.80606" lon="6.67754">
        <ele>393.2</ele>
        <time>2016-07-03T09:32:56Z</time>
      </trkpt>
      <trkpt lat="47.80592" lon="6.67738">
        <ele>394</ele>
        <time>2016-07-03T09:32:58Z</time>
      </trkpt>
      <trkpt lat="47.80578" lon="6.67723">
        <ele>393</ele>
        <time>2016-07-03T09:33:00Z</time>
      </trkpt>
      <trkpt lat="47.80564" lon="6.67709">
        <ele>393.5</ele>
        <time>2016-07-03T09:33:02Z</time>
      </trkpt>
      <trkpt lat="47.80552" lon="6.67694">
        <ele>394</ele>
        <time>2016-07-03T09:33:04Z</time>
      </trkpt>
      <trkpt lat="47.80542" lon="6.67675">
        <ele>394.7</ele>
        <time>2016-07-03T09:33:06Z</time>
      </trkpt>
      <trkpt lat="47.80534" lon="6.67656">
        <ele>394.9</ele>
        <time>2016-07-03T09:33:08Z</time>
      </trkpt>
      <trkpt lat="47.80526" lon="6.67638">
        <ele>395.5</ele>
        <time>2016-07-03T09:33:10Z</time>
      </trkpt>
      <trkpt lat="47.80519" lon="6.67619">
        <ele>396.1</ele>
        <time>2016-07-03T09:33:12Z</time>
      </trkpt>
      <trkpt lat="47.80512" lon="6.67601">
        <ele>396.6</ele>
        <time>2016-07-03T09:33:14Z</time>
      </trkpt>
      <trkpt lat="47.80505" lon="6.67583">
        <ele>396.8</ele>
        <time>2016-07-03T09:33:16Z</time>
      </trkpt>
      <trkpt lat="47.80498" lon="6.67565">
        <ele>397.6</ele>
        <time>2016-07-03T09:33:18Z</time>
      </trkpt>
      <trkpt lat="47.80491" lon="6.67547">
        <ele>397.9</ele>
        <time>2016-07-03T09:33:20Z</time>
      </trkpt>
      <trkpt lat="47.80485" lon="6.67529">
        <ele>398.2</ele>
        <time>2016-07-03T09:33:22Z</time>
      </trkpt>
      <trkpt lat="47.80478" lon="6.67511">
        <ele>398.1</ele>
        <time>2016-07-03T09:33:24Z</time>
      </trkpt>
      <trkpt lat="47.80471" lon="6.67494">
        <ele>398.2</ele>
        <time>2016-07-03T09:33:26Z</time>
      </trkpt>
      <trkpt lat="47.80464" lon="6.67479">
        <ele>397.8</ele>
        <time>2016-07-03T09:33:28Z</time>
      </trkpt>
      <trkpt lat="47.80454" lon="6.67465">
        <ele>396.3</ele>
        <time>2016-07-03T09:33:30Z</time>
      </trkpt>
      <trkpt lat="47.80442" lon="6.67452">
        <ele>396.5</ele>
        <time>2016-07-03T09:33:32Z</time>
      </trkpt>
      <trkpt lat="47.80431" lon="6.67441">
        <ele>397.3</ele>
        <time>2016-07-03T09:33:34Z</time>
      </trkpt>
      <trkpt lat="47.8042" lon="6.6743">
        <ele>396.7</ele>
        <time>2016-07-03T09:33:36Z</time>
      </trkpt>
      <trkpt lat="47.8041" lon="6.6742">
        <ele>395.5</ele>
        <time>2016-07-03T09:33:38Z</time>
      </trkpt>
      <trkpt lat="47.804" lon="6.67407">
        <ele>396.3</ele>
        <time>2016-07-03T09:33:40Z</time>
      </trkpt>
      <trkpt lat="47.80392" lon="6.67393">
        <ele>396.6</ele>
        <time>2016-07-03T09:33:42Z</time>
      </trkpt>
      <trkpt lat="47.80386" lon="6.67378">
        <ele>397</ele>
        <time>2016-07-03T09:33:44Z</time>
      </trkpt>
      <trkpt lat="47.80379" lon="6.67363">
        <ele>397.4</ele>
        <time>2016-07-03T09:33:46Z</time>
      </trkpt>
      <trkpt lat="47.80373" lon="6.67349">
        <ele>397.9</ele>
        <time>2016-07-03T09:33:48Z</time>
      </trkpt>
      <trkpt lat="47.80367" lon="6.67335">
        <ele>398.5</ele>
        <time>2016-07-03T09:33:50Z</time>
      </trkpt>
      <trkpt lat="47.80362" lon="6.67321">
        <ele>398.7</ele>
        <time>2016-07-03T09:33:52Z</time>
      </trkpt>
      <trkpt lat="47.80356" lon="6.67306">
        <ele>398.6</ele>
        <time>2016-07-03T09:33:54Z</time>
      </trkpt>
      <trkpt lat="47.8035" lon="6.67292">
        <ele>398.6</ele>
        <time>2016-07-03T09:33:56Z</time>
      </trkpt>
      <trkpt lat="47.80345" lon="6.67277">
        <ele>399.2</ele>
        <time>2016-07-03T09:33:58Z</time>
      </trkpt>
      <trkpt lat="47.80339" lon="6.67262">
        <ele>399.4</ele>
        <time>2016-07-03T09:34:00Z</time>
      </trkpt>
      <trkpt lat="47.80333" lon="6.67248">
        <ele>399.2</ele>
        <time>2016-07-03T09:34:02Z</time>
      </trkpt>
      <trkpt lat="47.80328" lon="6.67234">
        <ele>399.5</ele>
        <time>2016-07-03T09:34:04Z</time>
      </trkpt>
      <trkpt lat="47.80322" lon="6.6722">
        <ele>399.7</ele>
        <time>2016-07-03T09:34:06Z</time>
      </trkpt>
      <trkpt lat="47.80316" lon="6.67205">
        <ele>399.9</ele>
        <time>2016-07-03T09:34:08Z</time>
      </trkpt>
      <trkpt lat="47.8031" lon="6.67191">
        <ele>399.9</ele>
        <time>2016-07-03T09:34:10Z</time>
      </trkpt>
      <trkpt lat="47.80304" lon="6.67176">
        <ele>399.9</ele>
        <time>2016-07-03T09:34:12Z</time>
      </trkpt>
      <trkpt lat="47.80299" lon="6.67162">
        <ele>400.5</ele>
        <time>2016-07-03T09:34:14Z</time>
      </trkpt>
      <trkpt lat="47.80293" lon="6.67147">
        <ele>400.8</ele>
        <time>2016-07-03T09:34:16Z</time>
      </trkpt>
      <trkpt lat="47.80288" lon="6.67132">
        <ele>401</ele>
        <time>2016-07-03T09:34:18Z</time>
      </trkpt>
      <trkpt lat="47.80284" lon="6.67117">
        <ele>401.4</ele>
        <time>2016-07-03T09:34:20Z</time>
      </trkpt>
      <trkpt lat="47.80279" lon="6.67101">
        <ele>401.9</ele>
        <time>2016-07-03T09:34:22Z</time>
      </trkpt>
      <trkpt lat="47.80275" lon="6.67085">
        <ele>402.1</ele>
        <time>2016-07-03T09:34:24Z</time>
      </trkpt>
      <trkpt lat="47.8027" lon="6.67069">
        <ele>402.3</ele>
        <time>2016-07-03T09:34:26Z</time>
      </trkpt>
      <trkpt lat="47.80266" lon="6.67054">
        <ele>402.4</ele>
        <time>2016-07-03T09:34:28Z</time>
      </trkpt>
      <trkpt lat="47.80262" lon="6.67038">
        <ele>402.5</ele>
        <time>2016-07-03T09:34:30Z</time>
      </trkpt>
      <trkpt lat="47.80258" lon="6.67022">
        <ele>402.7</ele>
        <time>2016-07-03T09:34:32Z</time>
      </trkpt>
      <trkpt lat="47.80253" lon="6.67007">
        <ele>402.7</ele>
        <time>2016-07-03T09:34:34Z</time>
      </trkpt>
      <trkpt lat="47.80249" lon="6.66991">
        <ele>402.5</ele>
        <time>2016-07-03T09:34:36Z</time>
      </trkpt>
      <trkpt lat="47.80244" lon="6.66976">
        <ele>401.7</ele>
        <time>2016-07-03T09:34:38Z</time>
      </trkpt>
      <trkpt lat="47.80239" lon="6.66961">
        <ele>402</ele>
        <time>2016-07-03T09:34:40Z</time>
      </trkpt>
      <trkpt lat="47.80234" lon="6.66944">
        <ele>402</ele>
        <time>2016-07-03T09:34:42Z</time>
      </trkpt>
      <trkpt lat="47.80228" lon="6.66929">
        <ele>402.2</ele>
        <time>2016-07-03T09:34:44Z</time>
      </trkpt>
      <trkpt lat="47.80221" lon="6.66913">
        <ele>400.6</ele>
        <time>2016-07-03T09:34:46Z</time>
      </trkpt>
      <trkpt lat="47.80215" lon="6.66897">
        <ele>399.5</ele>
        <time>2016-07-03T09:34:48Z</time>
      </trkpt>
      <trkpt lat="47.80208" lon="6.66881">
        <ele>398.8</ele>
        <time>2016-07-03T09:34:50Z</time>
      </trkpt>
      <trkpt lat="47.80201" lon="6.66865">
        <ele>398.6</ele>
        <time>2016-07-03T09:34:52Z</time>
      </trkpt>
      <trkpt lat="47.80193" lon="6.66849">
        <ele>398.3</ele>
        <time>2016-07-03T09:34:54Z</time>
      </trkpt>
      <trkpt lat="47.80185" lon="6.66832">
        <ele>397.5</ele>
        <time>2016-07-03T09:34:56Z</time>
      </trkpt>
      <trkpt lat="47.80178" lon="6.66816">
        <ele>396.6</ele>
        <time>2016-07-03T09:34:58Z</time>
      </trkpt>
      <trkpt lat="47.80172" lon="6.668">
        <ele>394.8</ele>
        <time>2016-07-03T09:35:00Z</time>
      </trkpt>
      <trkpt lat="47.80165" lon="6.66784">
        <ele>391.6</ele>
        <time>2016-07-03T09:35:02Z</time>
      </trkpt>
      <trkpt lat="47.80157" lon="6.66769">
        <ele>389.3</ele>
        <time>2016-07-03T09:35:04Z</time>
      </trkpt>
      <trkpt lat="47.80149" lon="6.66754">
        <ele>388.7</ele>
        <time>2016-07-03T09:35:06Z</time>
      </trkpt>
      <trkpt lat="47.8014" lon="6.66739">
        <ele>389.5</ele>
        <time>2016-07-03T09:35:08Z</time>
      </trkpt>
      <trkpt lat="47.8013" lon="6.66725">
        <ele>389.9</ele>
        <time>2016-07-03T09:35:10Z</time>
      </trkpt>
      <trkpt lat="47.80119" lon="6.66711">
        <ele>390.4</ele>
        <time>2016-07-03T09:35:12Z</time>
      </trkpt>
      <trkpt lat="47.80107" lon="6.66698">
        <ele>391.1</ele>
        <time>2016-07-03T09:35:14Z</time>
      </trkpt>
      <trkpt lat="47.80096" lon="6.66687">
        <ele>392.2</ele>
        <time>2016-07-03T09:35:16Z</time>
      </trkpt>
      <trkpt lat="47.80084" lon="6.66675">
        <ele>392.7</ele>
        <time>2016-07-03T09:35:18Z</time>
      </trkpt>
      <trkpt lat="47.80073" lon="6.66663">
        <ele>392.3</ele>
        <time>2016-07-03T09:35:20Z</time>
      </trkpt>
      <trkpt lat="47.80062" lon="6.66651">
        <ele>391.8</ele>
        <time>2016-07-03T09:35:22Z</time>
      </trkpt>
      <trkpt lat="47.80051" lon="6.66638">
        <ele>392.3</ele>
        <time>2016-07-03T09:35:24Z</time>
      </trkpt>
      <trkpt lat="47.80043" lon="6.66623">
        <ele>393.2</ele>
        <time>2016-07-03T09:35:26Z</time>
      </trkpt>
      <trkpt lat="47.80035" lon="6.66607">
        <ele>392.9</ele>
        <time>2016-07-03T09:35:28Z</time>
      </trkpt>
      <trkpt lat="47.80027" lon="6.6659">
        <ele>393.1</ele>
        <time>2016-07-03T09:35:30Z</time>
      </trkpt>
      <trkpt lat="47.8002" lon="6.66572">
        <ele>395.5</ele>
        <time>2016-07-03T09:35:32Z</time>
      </trkpt>
      <trkpt lat="47.80014" lon="6.66555">
        <ele>395.9</ele>
        <time>2016-07-03T09:35:34Z</time>
      </trkpt>
      <trkpt lat="47.80009" lon="6.66537">
        <ele>396.5</ele>
        <time>2016-07-03T09:35:36Z</time>
      </trkpt>
      <trkpt lat="47.80005" lon="6.66519">
        <ele>397.1</ele>
        <time>2016-07-03T09:35:38Z</time>
      </trkpt>
      <trkpt lat="47.80002" lon="6.66501">
        <ele>397.9</ele>
        <time>2016-07-03T09:35:40Z</time>
      </trkpt>
      <trkpt lat="47.79997" lon="6.66483">
        <ele>397.7</ele>
        <time>2016-07-03T09:35:42Z</time>
      </trkpt>
      <trkpt lat="47.79993" lon="6.66465">
        <ele>397.7</ele>
        <time>2016-07-03T09:35:44Z</time>
      </trkpt>
      <trkpt lat="47.7999" lon="6.66447">
        <ele>397.7</ele>
        <time>2016-07-03T09:35:46Z</time>
      </trkpt>
      <trkpt lat="47.79985" lon="6.66429">
        <ele>397.8</ele>
        <time>2016-07-03T09:35:48Z</time>
      </trkpt>
      <trkpt lat="47.79981" lon="6.6641">
        <ele>397.5</ele>
        <time>2016-07-03T09:35:50Z</time>
      </trkpt>
      <trkpt lat="47.79975" lon="6.66392">
        <ele>397.1</ele>
        <time>2016-07-03T09:35:52Z</time>
      </trkpt>
      <trkpt lat="47.7997" lon="6.66373">
        <ele>395.9</ele>
        <time>2016-07-03T09:35:54Z</time>
      </trkpt>
      <trkpt lat="47.79963" lon="6.66354">
        <ele>395.1</ele>
        <time>2016-07-03T09:35:56Z</time>
      </trkpt>
      <trkpt lat="47.79957" lon="6.66335">
        <ele>394.5</ele>
        <time>2016-07-03T09:35:58Z</time>
      </trkpt>
      <trkpt lat="47.79952" lon="6.66316">
        <ele>394.8</ele>
        <time>2016-07-03T09:36:00Z</time>
      </trkpt>
      <trkpt lat="47.79946" lon="6.66297">
        <ele>395.1</ele>
        <time>2016-07-03T09:36:02Z</time>
      </trkpt>
      <trkpt lat="47.7994" lon="6.66277">
        <ele>395.2</ele>
        <time>2016-07-03T09:36:04Z</time>
      </trkpt>
      <trkpt lat="47.79935" lon="6.66257">
        <ele>395</ele>
        <time>2016-07-03T09:36:06Z</time>
      </trkpt>
      <trkpt lat="47.79931" lon="6.66237">
        <ele>394.7</ele>
        <time>2016-07-03T09:36:08Z</time>
      </trkpt>
      <trkpt lat="47.79928" lon="6.66217">
        <ele>394.8</ele>
        <time>2016-07-03T09:36:10Z</time>
      </trkpt>
      <trkpt lat="47.79925" lon="6.66196">
        <ele>394.6</ele>
        <time>2016-07-03T09:36:12Z</time>
      </trkpt>
      <trkpt lat="47.79923" lon="6.66176">
        <ele>394.2</ele>
        <time>2016-07-03T09:36:14Z</time>
      </trkpt>
      <trkpt lat="47.7992" lon="6.66155">
        <ele>393.6</ele>
        <time>2016-07-03T09:36:16Z</time>
      </trkpt>
      <trkpt lat="47.79918" lon="6.66133">
        <ele>393.9</ele>
        <time>2016-07-03T09:36:18Z</time>
      </trkpt>
      <trkpt lat="47.79916" lon="6.66111">
        <ele>393.1</ele>
        <time>2016-07-03T09:36:20Z</time>
      </trkpt>
      <trkpt lat="47.79917" lon="6.66089">
        <ele>391.7</ele>
        <time>2016-07-03T09:36:22Z</time>
      </trkpt>
      <trkpt lat="47.79921" lon="6.66068">
        <ele>389.7</ele>
        <time>2016-07-03T09:36:24Z</time>
      </trkpt>
      <trkpt lat="47.79926" lon="6.66047">
        <ele>387.8</ele>
        <time>2016-07-03T09:36:26Z</time>
      </trkpt>
      <trkpt lat="47.7993" lon="6.66026">
        <ele>386.1</ele>
        <time>2016-07-03T09:36:28Z</time>
      </trkpt>
      <trkpt lat="47.79935" lon="6.66005">
        <ele>385.4</ele>
        <time>2016-07-03T09:36:30Z</time>
      </trkpt>
      <trkpt lat="47.79939" lon="6.65984">
        <ele>384.7</ele>
        <time>2016-07-03T09:36:32Z</time>
      </trkpt>
      <trkpt lat="47.79942" lon="6.65964">
        <ele>384.5</ele>
        <time>2016-07-03T09:36:34Z</time>
      </trkpt>
      <trkpt lat="47.79945" lon="6.65945">
        <ele>383.8</ele>
        <time>2016-07-03T09:36:36Z</time>
      </trkpt>
      <trkpt lat="47.79947" lon="6.65925">
        <ele>383.8</ele>
        <time>2016-07-03T09:36:38Z</time>
      </trkpt>
      <trkpt lat="47.79949" lon="6.65907">
        <ele>384.3</ele>
        <time>2016-07-03T09:36:40Z</time>
      </trkpt>
      <trkpt lat="47.79951" lon="6.65889">
        <ele>384.9</ele>
        <time>2016-07-03T09:36:42Z</time>
      </trkpt>
      <trkpt lat="47.79953" lon="6.65872">
        <ele>385.1</ele>
        <time>2016-07-03T09:36:44Z</time>
      </trkpt>
      <trkpt lat="47.79954" lon="6.65856">
        <ele>384.6</ele>
        <time>2016-07-03T09:36:46Z</time>
      </trkpt>
      <trkpt lat="47.79956" lon="6.65841">
        <ele>384.5</ele>
        <time>2016-07-03T09:36:48Z</time>
      </trkpt>
      <trkpt lat="47.79958" lon="6.65825">
        <ele>384.6</ele>
        <time>2016-07-03T09:36:50Z</time>
      </trkpt>
      <trkpt lat="47.79958" lon="6.6581">
        <ele>385.1</ele>
        <time>2016-07-03T09:36:52Z</time>
      </trkpt>
      <trkpt lat="47.79958" lon="6.65794">
        <ele>385.4</ele>
        <time>2016-07-03T09:36:54Z</time>
      </trkpt>
      <trkpt lat="47.79957" lon="6.65778">
        <ele>385.3</ele>
        <time>2016-07-03T09:36:56Z</time>
      </trkpt>
      <trkpt lat="47.79955" lon="6.65761">
        <ele>384.7</ele>
        <time>2016-07-03T09:36:58Z</time>
      </trkpt>
      <trkpt lat="47.79953" lon="6.65746">
        <ele>384.4</ele>
        <time>2016-07-03T09:37:00Z</time>
      </trkpt>
      <trkpt lat="47.79949" lon="6.6573">
        <ele>383.7</ele>
        <time>2016-07-03T09:37:02Z</time>
      </trkpt>
      <trkpt lat="47.79946" lon="6.65714">
        <ele>383.3</ele>
        <time>2016-07-03T09:37:04Z</time>
      </trkpt>
      <trkpt lat="47.79942" lon="6.65697">
        <ele>383.2</ele>
        <time>2016-07-03T09:37:06Z</time>
      </trkpt>
      <trkpt lat="47.79938" lon="6.65681">
        <ele>381.1</ele>
        <time>2016-07-03T09:37:08Z</time>
      </trkpt>
      <trkpt lat="47.79934" lon="6.65665">
        <ele>378.6</ele>
        <time>2016-07-03T09:37:10Z</time>
      </trkpt>
      <trkpt lat="47.79931" lon="6.65648">
        <ele>377.1</ele>
        <time>2016-07-03T09:37:12Z</time>
      </trkpt>
      <trkpt lat="47.79929" lon="6.65631">
        <ele>376.4</ele>
        <time>2016-07-03T09:37:14Z</time>
      </trkpt>
      <trkpt lat="47.79929" lon="6.65612">
        <ele>376.1</ele>
        <time>2016-07-03T09:37:16Z</time>
      </trkpt>
      <trkpt lat="47.7993" lon="6.65591">
        <ele>378.2</ele>
        <time>2016-07-03T09:37:18Z</time>
      </trkpt>
      <trkpt lat="47.7993" lon="6.65569">
        <ele>377.9</ele>
        <time>2016-07-03T09:37:20Z</time>
      </trkpt>
      <trkpt lat="47.7993" lon="6.65546">
        <ele>379.1</ele>
        <time>2016-07-03T09:37:22Z</time>
      </trkpt>
      <trkpt lat="47.79928" lon="6.65524">
        <ele>378.8</ele>
        <time>2016-07-03T09:37:24Z</time>
      </trkpt>
      <trkpt lat="47.79927" lon="6.65503">
        <ele>379</ele>
        <time>2016-07-03T09:37:26Z</time>
      </trkpt>
      <trkpt lat="47.79925" lon="6.65482">
        <ele>379.5</ele>
        <time>2016-07-03T09:37:28Z</time>
      </trkpt>
      <trkpt lat="47.79925" lon="6.65462">
        <ele>379.5</ele>
        <time>2016-07-03T09:37:30Z</time>
      </trkpt>
      <trkpt lat="47.79924" lon="6.65441">
        <ele>380.4</ele>
        <time>2016-07-03T09:37:32Z</time>
      </trkpt>
      <trkpt lat="47.79921" lon="6.65422">
        <ele>381</ele>
        <time>2016-07-03T09:37:34Z</time>
      </trkpt>
      <trkpt lat="47.79914" lon="6.65407">
        <ele>378.9</ele>
        <time>2016-07-03T09:37:36Z</time>
      </trkpt>
      <trkpt lat="47.79901" lon="6.65397">
        <ele>379.5</ele>
        <time>2016-07-03T09:37:38Z</time>
      </trkpt>
      <trkpt lat="47.79886" lon="6.65398">
        <ele>378.8</ele>
        <time>2016-07-03T09:37:40Z</time>
      </trkpt>
      <trkpt lat="47.79871" lon="6.654">
        <ele>377.6</ele>
        <time>2016-07-03T09:37:42Z</time>
      </trkpt>
      <trkpt lat="47.79855" lon="6.65395">
        <ele>371.2</ele>
        <time>2016-07-03T09:37:44Z</time>
      </trkpt>
      <trkpt lat="47.79843" lon="6.65385">
        <ele>361.8</ele>
        <time>2016-07-03T09:37:46Z</time>
      </trkpt>
      <trkpt lat="47.79829" lon="6.6537">
        <ele>354.9</ele>
        <time>2016-07-03T09:37:48Z</time>
      </trkpt>
      <trkpt lat="47.79825" lon="6.65358">
        <ele>356</ele>
        <time>2016-07-03T09:37:49Z</time>
      </trkpt>
      <trkpt lat="47.79821" lon="6.65346">
        <ele>354.1</ele>
        <time>2016-07-03T09:37:50Z</time>
      </trkpt>
      <trkpt lat="47.79818" lon="6.65333">
        <ele>353.4</ele>
        <time>2016-07-03T09:37:51Z</time>
      </trkpt>
      <trkpt lat="47.79813" lon="6.65319">
        <ele>352</ele>
        <time>2016-07-03T09:37:52Z</time>
      </trkpt>
      <trkpt lat="47.79807" lon="6.65305">
        <ele>353.3</ele>
        <time>2016-07-03T09:37:53Z</time>
      </trkpt>
      <trkpt lat="47.79801" lon="6.65292">
        <ele>351.7</ele>
        <time>2016-07-03T09:37:54Z</time>
      </trkpt>
      <trkpt lat="47.79796" lon="6.65281">
        <ele>349.8</ele>
        <time>2016-07-03T09:37:55Z</time>
      </trkpt>
      <trkpt lat="47.7979" lon="6.6527">
        <ele>347.9</ele>
        <time>2016-07-03T09:37:56Z</time>
      </trkpt>
      <trkpt lat="47.79785" lon="6.65259">
        <ele>345.9</ele>
        <time>2016-07-03T09:37:57Z</time>
      </trkpt>
      <trkpt lat="47.79781" lon="6.65246">
        <ele>344.8</ele>
        <time>2016-07-03T09:37:58Z</time>
      </trkpt>
      <trkpt lat="47.79773" lon="6.65226">
        <ele>334.2</ele>
        <time>2016-07-03T09:38:00Z</time>
      </trkpt>
      <trkpt lat="47.79762" lon="6.65211">
        <ele>320.2</ele>
        <time>2016-07-03T09:38:02Z</time>
      </trkpt>
      <trkpt lat="47.79758" lon="6.65197">
        <ele>318.1</ele>
        <time>2016-07-03T09:38:03Z</time>
      </trkpt>
      <trkpt lat="47.79751" lon="6.65183">
        <ele>317.3</ele>
        <time>2016-07-03T09:38:04Z</time>
      </trkpt>
      <trkpt lat="47.79742" lon="6.6517">
        <ele>325.3</ele>
        <time>2016-07-03T09:38:05Z</time>
      </trkpt>
      <trkpt lat="47.79734" lon="6.65151">
        <ele>336.5</ele>
        <time>2016-07-03T09:38:07Z</time>
      </trkpt>
      <trkpt lat="47.79725" lon="6.6513">
        <ele>335.9</ele>
        <time>2016-07-03T09:38:09Z</time>
      </trkpt>
      <trkpt lat="47.7972" lon="6.65108">
        <ele>339.1</ele>
        <time>2016-07-03T09:38:11Z</time>
      </trkpt>
      <trkpt lat="47.79717" lon="6.65086">
        <ele>340.8</ele>
        <time>2016-07-03T09:38:13Z</time>
      </trkpt>
      <trkpt lat="47.79714" lon="6.65065">
        <ele>344.9</ele>
        <time>2016-07-03T09:38:15Z</time>
      </trkpt>
      <trkpt lat="47.79711" lon="6.65046">
        <ele>348.6</ele>
        <time>2016-07-03T09:38:17Z</time>
      </trkpt>
      <trkpt lat="47.79708" lon="6.65028">
        <ele>351.9</ele>
        <time>2016-07-03T09:38:19Z</time>
      </trkpt>
      <trkpt lat="47.79703" lon="6.6501">
        <ele>354.6</ele>
        <time>2016-07-03T09:38:21Z</time>
      </trkpt>
      <trkpt lat="47.797" lon="6.64992">
        <ele>358.5</ele>
        <time>2016-07-03T09:38:23Z</time>
      </trkpt>
      <trkpt lat="47.79697" lon="6.64975">
        <ele>360</ele>
        <time>2016-07-03T09:38:25Z</time>
      </trkpt>
      <trkpt lat="47.79694" lon="6.6496">
        <ele>360.7</ele>
        <time>2016-07-03T09:38:27Z</time>
      </trkpt>
      <trkpt lat="47.79692" lon="6.64944">
        <ele>360.4</ele>
        <time>2016-07-03T09:38:29Z</time>
      </trkpt>
      <trkpt lat="47.79688" lon="6.64928">
        <ele>360.4</ele>
        <time>2016-07-03T09:38:31Z</time>
      </trkpt>
      <trkpt lat="47.79684" lon="6.64913">
        <ele>363.7</ele>
        <time>2016-07-03T09:38:33Z</time>
      </trkpt>
      <trkpt lat="47.79679" lon="6.64898">
        <ele>363.4</ele>
        <time>2016-07-03T09:38:35Z</time>
      </trkpt>
      <trkpt lat="47.79674" lon="6.64885">
        <ele>363.6</ele>
        <time>2016-07-03T09:38:37Z</time>
      </trkpt>
      <trkpt lat="47.79678" lon="6.64868">
        <ele>363.3</ele>
        <time>2016-07-03T09:38:40Z</time>
      </trkpt>
      <trkpt lat="47.79686" lon="6.64854">
        <ele>365.9</ele>
        <time>2016-07-03T09:38:43Z</time>
      </trkpt>
      <trkpt lat="47.79697" lon="6.64841">
        <ele>368.8</ele>
        <time>2016-07-03T09:38:46Z</time>
      </trkpt>
      <trkpt lat="47.79704" lon="6.64833">
        <ele>369.9</ele>
        <time>2016-07-03T09:38:48Z</time>
      </trkpt>
      <trkpt lat="47.79712" lon="6.64825">
        <ele>370.9</ele>
        <time>2016-07-03T09:38:50Z</time>
      </trkpt>
      <trkpt lat="47.7972" lon="6.64816">
        <ele>370.9</ele>
        <time>2016-07-03T09:38:52Z</time>
      </trkpt>
      <trkpt lat="47.79728" lon="6.64807">
        <ele>370.5</ele>
        <time>2016-07-03T09:38:54Z</time>
      </trkpt>
      <trkpt lat="47.79736" lon="6.64798">
        <ele>370.2</ele>
        <time>2016-07-03T09:38:56Z</time>
      </trkpt>
      <trkpt lat="47.79745" lon="6.64789">
        <ele>369.9</ele>
        <time>2016-07-03T09:38:58Z</time>
      </trkpt>
      <trkpt lat="47.79753" lon="6.6478">
        <ele>369.5</ele>
        <time>2016-07-03T09:39:00Z</time>
      </trkpt>
      <trkpt lat="47.79762" lon="6.64771">
        <ele>369.5</ele>
        <time>2016-07-03T09:39:02Z</time>
      </trkpt>
      <trkpt lat="47.7977" lon="6.64762">
        <ele>369.7</ele>
        <time>2016-07-03T09:39:04Z</time>
      </trkpt>
      <trkpt lat="47.79778" lon="6.64753">
        <ele>369.9</ele>
        <time>2016-07-03T09:39:06Z</time>
      </trkpt>
      <trkpt lat="47.79787" lon="6.64744">
        <ele>370</ele>
        <time>2016-07-03T09:39:08Z</time>
      </trkpt>
      <trkpt lat="47.79795" lon="6.64735">
        <ele>370.3</ele>
        <time>2016-07-03T09:39:10Z</time>
      </trkpt>
      <trkpt lat="47.79804" lon="6.64726">
        <ele>370.3</ele>
        <time>2016-07-03T09:39:12Z</time>
      </trkpt>
      <trkpt lat="47.79812" lon="6.64718">
        <ele>370.1</ele>
        <time>2016-07-03T09:39:14Z</time>
      </trkpt>
      <trkpt lat="47.7982" lon="6.64707">
        <ele>370.1</ele>
        <time>2016-07-03T09:39:16Z</time>
      </trkpt>
      <trkpt lat="47.79826" lon="6.64693">
        <ele>369.9</ele>
        <time>2016-07-03T09:39:18Z</time>
      </trkpt>
      <trkpt lat="47.79829" lon="6.64678">
        <ele>369.1</ele>
        <time>2016-07-03T09:39:20Z</time>
      </trkpt>
      <trkpt lat="47.79832" lon="6.64662">
        <ele>367.9</ele>
        <time>2016-07-03T09:39:22Z</time>
      </trkpt>
      <trkpt lat="47.79835" lon="6.64647">
        <ele>367.9</ele>
        <time>2016-07-03T09:39:24Z</time>
      </trkpt>
      <trkpt lat="47.79838" lon="6.64633">
        <ele>368.3</ele>
        <time>2016-07-03T09:39:26Z</time>
      </trkpt>
      <trkpt lat="47.79844" lon="6.64616">
        <ele>368.2</ele>
        <time>2016-07-03T09:39:29Z</time>
      </trkpt>
      <trkpt lat="47.79848" lon="6.64598">
        <ele>368.4</ele>
        <time>2016-07-03T09:39:32Z</time>
      </trkpt>
      <trkpt lat="47.79849" lon="6.6458">
        <ele>368.8</ele>
        <time>2016-07-03T09:39:35Z</time>
      </trkpt>
      <trkpt lat="47.79848" lon="6.64561">
        <ele>368.2</ele>
        <time>2016-07-03T09:39:38Z</time>
      </trkpt>
      <trkpt lat="47.79848" lon="6.64547">
        <ele>368.3</ele>
        <time>2016-07-03T09:39:40Z</time>
      </trkpt>
      <trkpt lat="47.79849" lon="6.64534">
        <ele>366.2</ele>
        <time>2016-07-03T09:39:42Z</time>
      </trkpt>
      <trkpt lat="47.79854" lon="6.64521">
        <ele>365.7</ele>
        <time>2016-07-03T09:39:44Z</time>
      </trkpt>
      <trkpt lat="47.79861" lon="6.64512">
        <ele>365.7</ele>
        <time>2016-07-03T09:39:46Z</time>
      </trkpt>
      <trkpt lat="47.7987" lon="6.64498">
        <ele>366.8</ele>
        <time>2016-07-03T09:39:49Z</time>
      </trkpt>
      <trkpt lat="47.79877" lon="6.64487">
        <ele>367.1</ele>
        <time>2016-07-03T09:39:52Z</time>
      </trkpt>
      <trkpt lat="47.79881" lon="6.64471">
        <ele>367.6</ele>
        <time>2016-07-03T09:39:55Z</time>
      </trkpt>
      <trkpt lat="47.79883" lon="6.64453">
        <ele>364</ele>
        <time>2016-07-03T09:39:58Z</time>
      </trkpt>
      <trkpt lat="47.79885" lon="6.64435">
        <ele>362.6</ele>
        <time>2016-07-03T09:40:01Z</time>
      </trkpt>
      <trkpt lat="47.79886" lon="6.64415">
        <ele>361.4</ele>
        <time>2016-07-03T09:40:04Z</time>
      </trkpt>
      <trkpt lat="47.79884" lon="6.64397">
        <ele>361.5</ele>
        <time>2016-07-03T09:40:07Z</time>
      </trkpt>
      <trkpt lat="47.79882" lon="6.64382">
        <ele>366.5</ele>
        <time>2016-07-03T09:40:10Z</time>
      </trkpt>
      <trkpt lat="47.7988" lon="6.64367">
        <ele>366.9</ele>
        <time>2016-07-03T09:40:15Z</time>
      </trkpt>
      <trkpt lat="47.79882" lon="6.64354">
        <ele>366.4</ele>
        <time>2016-07-03T09:40:21Z</time>
      </trkpt>
      <trkpt lat="47.79881" lon="6.64339">
        <ele>364.1</ele>
        <time>2016-07-03T09:40:27Z</time>
      </trkpt>
      <trkpt lat="47.79881" lon="6.64324">
        <ele>362</ele>
        <time>2016-07-03T09:40:33Z</time>
      </trkpt>
      <trkpt lat="47.79876" lon="6.64312">
        <ele>361.2</ele>
        <time>2016-07-03T09:40:37Z</time>
      </trkpt>
      <trkpt lat="47.79871" lon="6.643">
        <ele>367.2</ele>
        <time>2016-07-03T09:40:41Z</time>
      </trkpt>
      <trkpt lat="47.79869" lon="6.64287">
        <ele>372.4</ele>
        <time>2016-07-03T09:40:45Z</time>
      </trkpt>
      <trkpt lat="47.79866" lon="6.64273">
        <ele>371.9</ele>
        <time>2016-07-03T09:40:50Z</time>
      </trkpt>
      <trkpt lat="47.79862" lon="6.64259">
        <ele>373.5</ele>
        <time>2016-07-03T09:40:56Z</time>
      </trkpt>
      <trkpt lat="47.7986" lon="6.64243">
        <ele>368.7</ele>
        <time>2016-07-03T09:41:03Z</time>
      </trkpt>
      <trkpt lat="47.7986" lon="6.64226">
        <ele>362.2</ele>
        <time>2016-07-03T09:41:07Z</time>
      </trkpt>
      <trkpt lat="47.79859" lon="6.64212">
        <ele>360.8</ele>
        <time>2016-07-03T09:41:11Z</time>
      </trkpt>
      <trkpt lat="47.7986" lon="6.64198">
        <ele>368.1</ele>
        <time>2016-07-03T09:41:17Z</time>
      </trkpt>
      <trkpt lat="47.79858" lon="6.64185">
        <ele>373.4</ele>
        <time>2016-07-03T09:41:22Z</time>
      </trkpt>
      <trkpt lat="47.79859" lon="6.6417">
        <ele>372.2</ele>
        <time>2016-07-03T09:41:27Z</time>
      </trkpt>
      <trkpt lat="47.79861" lon="6.64156">
        <ele>371.5</ele>
        <time>2016-07-03T09:41:30Z</time>
      </trkpt>
      <trkpt lat="47.79866" lon="6.64142">
        <ele>368.5</ele>
        <time>2016-07-03T09:41:32Z</time>
      </trkpt>
      <trkpt lat="47.79868" lon="6.64125">
        <ele>361.8</ele>
        <time>2016-07-03T09:41:34Z</time>
      </trkpt>
      <trkpt lat="47.79871" lon="6.64108">
        <ele>353.9</ele>
        <time>2016-07-03T09:41:37Z</time>
      </trkpt>
      <trkpt lat="47.79874" lon="6.64094">
        <ele>358.2</ele>
        <time>2016-07-03T09:41:42Z</time>
      </trkpt>
      <trkpt lat="47.79877" lon="6.64081">
        <ele>366.3</ele>
        <time>2016-07-03T09:41:48Z</time>
      </trkpt>
      <trkpt lat="47.7988" lon="6.64067">
        <ele>374.8</ele>
        <time>2016-07-03T09:41:53Z</time>
      </trkpt>
      <trkpt lat="47.79886" lon="6.64055">
        <ele>375.4</ele>
        <time>2016-07-03T09:41:59Z</time>
      </trkpt>
      <trkpt lat="47.7989" lon="6.64043">
        <ele>377.5</ele>
        <time>2016-07-03T09:42:05Z</time>
      </trkpt>
      <trkpt lat="47.79896" lon="6.6403">
        <ele>377.6</ele>
        <time>2016-07-03T09:42:12Z</time>
      </trkpt>
      <trkpt lat="47.79899" lon="6.64017">
        <ele>380.5</ele>
        <time>2016-07-03T09:42:18Z</time>
      </trkpt>
      <trkpt lat="47.79901" lon="6.64003">
        <ele>384.3</ele>
        <time>2016-07-03T09:42:27Z</time>
      </trkpt>
      <trkpt lat="47.79903" lon="6.6399">
        <ele>398.7</ele>
        <time>2016-07-03T09:42:42Z</time>
      </trkpt>
      <trkpt lat="47.79911" lon="6.63981">
        <ele>402.9</ele>
        <time>2016-07-03T09:43:03Z</time>
      </trkpt>
      <trkpt lat="47.79917" lon="6.63971">
        <ele>400.8</ele>
        <time>2016-07-03T09:43:11Z</time>
      </trkpt>
      <trkpt lat="47.79926" lon="6.63963">
        <ele>406.4</ele>
        <time>2016-07-03T09:43:22Z</time>
      </trkpt>
      <trkpt lat="47.79936" lon="6.6396">
        <ele>404.5</ele>
        <time>2016-07-03T09:43:31Z</time>
      </trkpt>
      <trkpt lat="47.79943" lon="6.63951">
        <ele>404.4</ele>
        <time>2016-07-03T09:43:49Z</time>
      </trkpt>
      <trkpt lat="47.79947" lon="6.63937">
        <ele>410.4</ele>
        <time>2016-07-03T09:44:06Z</time>
      </trkpt>
      <trkpt lat="47.79954" lon="6.63925">
        <ele>414</ele>
        <time>2016-07-03T09:44:18Z</time>
      </trkpt>
      <trkpt lat="47.79961" lon="6.63914">
        <ele>417.4</ele>
        <time>2016-07-03T09:44:26Z</time>
      </trkpt>
      <trkpt lat="47.79969" lon="6.63904">
        <ele>412.7</ele>
        <time>2016-07-03T09:44:34Z</time>
      </trkpt>
      <trkpt lat="47.79978" lon="6.63897">
        <ele>418.4</ele>
        <time>2016-07-03T09:44:41Z</time>
      </trkpt>
      <trkpt lat="47.79984" lon="6.63887">
        <ele>415</ele>
        <time>2016-07-03T09:44:46Z</time>
      </trkpt>
      <trkpt lat="47.79992" lon="6.6388">
        <ele>420.3</ele>
        <time>2016-07-03T09:44:53Z</time>
      </trkpt>
      <trkpt lat="47.79998" lon="6.63869">
        <ele>420.9</ele>
        <time>2016-07-03T09:45:01Z</time>
      </trkpt>
      <trkpt lat="47.80004" lon="6.63858">
        <ele>422.9</ele>
        <time>2016-07-03T09:45:10Z</time>
      </trkpt>
      <trkpt lat="47.80011" lon="6.63848">
        <ele>436.3</ele>
        <time>2016-07-03T09:45:20Z</time>
      </trkpt>
      <trkpt lat="47.80019" lon="6.63838">
        <ele>441.3</ele>
        <time>2016-07-03T09:45:29Z</time>
      </trkpt>
      <trkpt lat="47.80027" lon="6.6383">
        <ele>438</ele>
        <time>2016-07-03T09:45:36Z</time>
      </trkpt>
      <trkpt lat="47.80038" lon="6.63828">
        <ele>434.9</ele>
        <time>2016-07-03T09:45:47Z</time>
      </trkpt>
      <trkpt lat="47.80047" lon="6.63826">
        <ele>434.4</ele>
        <time>2016-07-03T09:45:54Z</time>
      </trkpt>
      <trkpt lat="47.80058" lon="6.63824">
        <ele>433.4</ele>
        <time>2016-07-03T09:46:01Z</time>
      </trkpt>
      <trkpt lat="47.80067" lon="6.63819">
        <ele>434.2</ele>
        <time>2016-07-03T09:46:08Z</time>
      </trkpt>
      <trkpt lat="47.80075" lon="6.63813">
        <ele>437.8</ele>
        <time>2016-07-03T09:46:17Z</time>
      </trkpt>
      <trkpt lat="47.80084" lon="6.6381">
        <ele>443.3</ele>
        <time>2016-07-03T09:46:24Z</time>
      </trkpt>
      <trkpt lat="47.80094" lon="6.63808">
        <ele>442.8</ele>
        <time>2016-07-03T09:46:34Z</time>
      </trkpt>
      <trkpt lat="47.80104" lon="6.6381">
        <ele>445.3</ele>
        <time>2016-07-03T09:46:43Z</time>
      </trkpt>
      <trkpt lat="47.80114" lon="6.63814">
        <ele>444</ele>
        <time>2016-07-03T09:46:49Z</time>
      </trkpt>
      <trkpt lat="47.80124" lon="6.63817">
        <ele>443.7</ele>
        <time>2016-07-03T09:46:56Z</time>
      </trkpt>
      <trkpt lat="47.80133" lon="6.63818">
        <ele>450.3</ele>
        <time>2016-07-03T09:47:07Z</time>
      </trkpt>
      <trkpt lat="47.80143" lon="6.63821">
        <ele>450.4</ele>
        <time>2016-07-03T09:47:21Z</time>
      </trkpt>
      <trkpt lat="47.80152" lon="6.63826">
        <ele>450</ele>
        <time>2016-07-03T09:47:26Z</time>
      </trkpt>
      <trkpt lat="47.8016" lon="6.63831">
        <ele>439.6</ele>
        <time>2016-07-03T09:47:32Z</time>
      </trkpt>
      <trkpt lat="47.8017" lon="6.6383">
        <ele>445.2</ele>
        <time>2016-07-03T09:47:49Z</time>
      </trkpt>
      <trkpt lat="47.80179" lon="6.63831">
        <ele>445.5</ele>
        <time>2016-07-03T09:47:57Z</time>
      </trkpt>
      <trkpt lat="47.80184" lon="6.63842">
        <ele>447.1</ele>
        <time>2016-07-03T09:48:13Z</time>
      </trkpt>
      <trkpt lat="47.80191" lon="6.63853">
        <ele>444.3</ele>
        <time>2016-07-03T09:48:23Z</time>
      </trkpt>
      <trkpt lat="47.802" lon="6.6386">
        <ele>442.9</ele>
        <time>2016-07-03T09:48:35Z</time>
      </trkpt>
      <trkpt lat="47.80205" lon="6.63872">
        <ele>445.9</ele>
        <time>2016-07-03T09:48:46Z</time>
      </trkpt>
      <trkpt lat="47.80209" lon="6.63884">
        <ele>445.3</ele>
        <time>2016-07-03T09:48:53Z</time>
      </trkpt>
      <trkpt lat="47.80214" lon="6.63896">
        <ele>443.1</ele>
        <time>2016-07-03T09:49:01Z</time>
      </trkpt>
      <trkpt lat="47.80218" lon="6.63909">
        <ele>444.4</ele>
        <time>2016-07-03T09:49:09Z</time>
      </trkpt>
      <trkpt lat="47.80223" lon="6.63922">
        <ele>447.7</ele>
        <time>2016-07-03T09:49:18Z</time>
      </trkpt>
      <trkpt lat="47.80228" lon="6.63933">
        <ele>448.6</ele>
        <time>2016-07-03T09:49:26Z</time>
      </trkpt>
      <trkpt lat="47.80234" lon="6.63946">
        <ele>457.1</ele>
        <time>2016-07-03T09:49:34Z</time>
      </trkpt>
      <trkpt lat="47.80239" lon="6.63958">
        <ele>461.4</ele>
        <time>2016-07-03T09:49:41Z</time>
      </trkpt>
      <trkpt lat="47.80243" lon="6.63972">
        <ele>456.4</ele>
        <time>2016-07-03T09:49:48Z</time>
      </trkpt>
      <trkpt lat="47.8025" lon="6.63985">
        <ele>455.3</ele>
        <time>2016-07-03T09:49:56Z</time>
      </trkpt>
      <trkpt lat="47.80257" lon="6.63995">
        <ele>456.3</ele>
        <time>2016-07-03T09:50:02Z</time>
      </trkpt>
      <trkpt lat="47.8026" lon="6.64008">
        <ele>456.8</ele>
        <time>2016-07-03T09:50:09Z</time>
      </trkpt>
      <trkpt lat="47.80267" lon="6.64017">
        <ele>454.8</ele>
        <time>2016-07-03T09:50:15Z</time>
      </trkpt>
      <trkpt lat="47.80275" lon="6.64026">
        <ele>458.6</ele>
        <time>2016-07-03T09:50:23Z</time>
      </trkpt>
      <trkpt lat="47.80281" lon="6.64037">
        <ele>463</ele>
        <time>2016-07-03T09:50:32Z</time>
      </trkpt>
      <trkpt lat="47.80288" lon="6.64047">
        <ele>466.4</ele>
        <time>2016-07-03T09:50:38Z</time>
      </trkpt>
      <trkpt lat="47.80297" lon="6.64054">
        <ele>465.6</ele>
        <time>2016-07-03T09:50:42Z</time>
      </trkpt>
      <trkpt lat="47.80306" lon="6.6406">
        <ele>462.4</ele>
        <time>2016-07-03T09:50:47Z</time>
      </trkpt>
      <trkpt lat="47.8032" lon="6.64059">
        <ele>463</ele>
        <time>2016-07-03T09:50:54Z</time>
      </trkpt>
      <trkpt lat="47.8033" lon="6.64052">
        <ele>463.8</ele>
        <time>2016-07-03T09:50:57Z</time>
      </trkpt>
      <trkpt lat="47.80333" lon="6.64037">
        <ele>455</ele>
        <time>2016-07-03T09:51:01Z</time>
      </trkpt>
      <trkpt lat="47.80333" lon="6.64021">
        <ele>448.9</ele>
        <time>2016-07-03T09:51:05Z</time>
      </trkpt>
      <trkpt lat="47.8033" lon="6.64005">
        <ele>447.5</ele>
        <time>2016-07-03T09:51:10Z</time>
      </trkpt>
      <trkpt lat="47.80329" lon="6.63991">
        <ele>448.3</ele>
        <time>2016-07-03T09:51:13Z</time>
      </trkpt>
      <trkpt lat="47.80328" lon="6.63977">
        <ele>447.4</ele>
        <time>2016-07-03T09:51:18Z</time>
      </trkpt>
      <trkpt lat="47.80328" lon="6.63961">
        <ele>457.2</ele>
        <time>2016-07-03T09:51:24Z</time>
      </trkpt>
      <trkpt lat="47.80327" lon="6.63946">
        <ele>454.6</ele>
        <time>2016-07-03T09:51:29Z</time>
      </trkpt>
      <trkpt lat="47.80326" lon="6.63932">
        <ele>455.3</ele>
        <time>2016-07-03T09:51:34Z</time>
      </trkpt>
      <trkpt lat="47.80326" lon="6.63918">
        <ele>461.4</ele>
        <time>2016-07-03T09:51:39Z</time>
      </trkpt>
      <trkpt lat="47.80324" lon="6.63905">
        <ele>466.1</ele>
        <time>2016-07-03T09:51:44Z</time>
      </trkpt>
      <trkpt lat="47.80325" lon="6.6389">
        <ele>462</ele>
        <time>2016-07-03T09:51:49Z</time>
      </trkpt>
      <trkpt lat="47.80327" lon="6.63874">
        <ele>460.5</ele>
        <time>2016-07-03T09:51:54Z</time>
      </trkpt>
      <trkpt lat="47.80329" lon="6.6386">
        <ele>457.4</ele>
        <time>2016-07-03T09:52:00Z</time>
      </trkpt>
      <trkpt lat="47.80327" lon="6.63847">
        <ele>459.5</ele>
        <time>2016-07-03T09:52:34Z</time>
      </trkpt>
      <trkpt lat="47.8033" lon="6.63833">
        <ele>473.5</ele>
        <time>2016-07-03T09:53:03Z</time>
      </trkpt>
      <trkpt lat="47.80335" lon="6.6382">
        <ele>468.9</ele>
        <time>2016-07-03T09:53:12Z</time>
      </trkpt>
      <trkpt lat="47.80338" lon="6.63806">
        <ele>474.4</ele>
        <time>2016-07-03T09:53:20Z</time>
      </trkpt>
      <trkpt lat="47.8034" lon="6.63792">
        <ele>479</ele>
        <time>2016-07-03T09:53:28Z</time>
      </trkpt>
      <trkpt lat="47.80342" lon="6.63778">
        <ele>472.4</ele>
        <time>2016-07-03T09:53:37Z</time>
      </trkpt>
      <trkpt lat="47.80346" lon="6.63763">
        <ele>467.3</ele>
        <time>2016-07-03T09:53:44Z</time>
      </trkpt>
      <trkpt lat="47.80351" lon="6.63748">
        <ele>465</ele>
        <time>2016-07-03T09:53:49Z</time>
      </trkpt>
      <trkpt lat="47.80352" lon="6.63733">
        <ele>460.7</ele>
        <time>2016-07-03T09:53:52Z</time>
      </trkpt>
      <trkpt lat="47.80351" lon="6.63716">
        <ele>458.5</ele>
        <time>2016-07-03T09:53:55Z</time>
      </trkpt>
      <trkpt lat="47.80351" lon="6.63699">
        <ele>456.8</ele>
        <time>2016-07-03T09:53:57Z</time>
      </trkpt>
      <trkpt lat="47.80352" lon="6.63685">
        <ele>457.4</ele>
        <time>2016-07-03T09:53:59Z</time>
      </trkpt>
      <trkpt lat="47.8035" lon="6.63665">
        <ele>454.4</ele>
        <time>2016-07-03T09:54:02Z</time>
      </trkpt>
      <trkpt lat="47.8035" lon="6.6365">
        <ele>453.4</ele>
        <time>2016-07-03T09:54:04Z</time>
      </trkpt>
      <trkpt lat="47.80346" lon="6.63637">
        <ele>455.1</ele>
        <time>2016-07-03T09:54:07Z</time>
      </trkpt>
      <trkpt lat="47.80345" lon="6.63623">
        <ele>458.9</ele>
        <time>2016-07-03T09:54:11Z</time>
      </trkpt>
      <trkpt lat="47.80351" lon="6.63611">
        <ele>464.3</ele>
        <time>2016-07-03T09:54:20Z</time>
      </trkpt>
      <trkpt lat="47.80361" lon="6.63603">
        <ele>463.2</ele>
        <time>2016-07-03T09:54:26Z</time>
      </trkpt>
      <trkpt lat="47.80371" lon="6.63595">
        <ele>464.6</ele>
        <time>2016-07-03T09:54:31Z</time>
      </trkpt>
      <trkpt lat="47.80379" lon="6.63587">
        <ele>467.2</ele>
        <time>2016-07-03T09:54:36Z</time>
      </trkpt>
      <trkpt lat="47.80385" lon="6.63577">
        <ele>471.2</ele>
        <time>2016-07-03T09:54:42Z</time>
      </trkpt>
      <trkpt lat="47.80394" lon="6.6357">
        <ele>477.5</ele>
        <time>2016-07-03T09:54:49Z</time>
      </trkpt>
      <trkpt lat="47.80403" lon="6.63574">
        <ele>476.6</ele>
        <time>2016-07-03T09:54:53Z</time>
      </trkpt>
      <trkpt lat="47.80413" lon="6.63568">
        <ele>473.6</ele>
        <time>2016-07-03T09:54:57Z</time>
      </trkpt>
      <trkpt lat="47.80424" lon="6.63564">
        <ele>471.9</ele>
        <time>2016-07-03T09:55:00Z</time>
      </trkpt>
      <trkpt lat="47.80436" lon="6.63562">
        <ele>468.3</ele>
        <time>2016-07-03T09:55:03Z</time>
      </trkpt>
      <trkpt lat="47.80448" lon="6.63559">
        <ele>467.5</ele>
        <time>2016-07-03T09:55:06Z</time>
      </trkpt>
      <trkpt lat="47.80462" lon="6.63555">
        <ele>468.2</ele>
        <time>2016-07-03T09:55:08Z</time>
      </trkpt>
      <trkpt lat="47.80473" lon="6.6355">
        <ele>466.7</ele>
        <time>2016-07-03T09:55:11Z</time>
      </trkpt>
      <trkpt lat="47.80484" lon="6.63547">
        <ele>465.7</ele>
        <time>2016-07-03T09:55:14Z</time>
      </trkpt>
      <trkpt lat="47.80494" lon="6.63547">
        <ele>464.7</ele>
        <time>2016-07-03T09:55:17Z</time>
      </trkpt>
      <trkpt lat="47.80506" lon="6.63547">
        <ele>462.8</ele>
        <time>2016-07-03T09:55:21Z</time>
      </trkpt>
      <trkpt lat="47.80516" lon="6.63554">
        <ele>463.8</ele>
        <time>2016-07-03T09:55:24Z</time>
      </trkpt>
      <trkpt lat="47.80529" lon="6.63559">
        <ele>464.5</ele>
        <time>2016-07-03T09:55:26Z</time>
      </trkpt>
      <trkpt lat="47.80537" lon="6.63566">
        <ele>464.1</ele>
        <time>2016-07-03T09:55:28Z</time>
      </trkpt>
      <trkpt lat="47.8055" lon="6.63561">
        <ele>468.1</ele>
        <time>2016-07-03T09:55:34Z</time>
      </trkpt>
      <trkpt lat="47.80559" lon="6.63553">
        <ele>476</ele>
        <time>2016-07-03T09:55:39Z</time>
      </trkpt>
      <trkpt lat="47.80559" lon="6.63538">
        <ele>473</ele>
        <time>2016-07-03T09:55:47Z</time>
      </trkpt>
      <trkpt lat="47.80558" lon="6.63524">
        <ele>471.9</ele>
        <time>2016-07-03T09:55:53Z</time>
      </trkpt>
      <trkpt lat="47.80554" lon="6.63511">
        <ele>471.7</ele>
        <time>2016-07-03T09:56:00Z</time>
      </trkpt>
      <trkpt lat="47.80548" lon="6.635">
        <ele>473.3</ele>
        <time>2016-07-03T09:56:08Z</time>
      </trkpt>
      <trkpt lat="47.80542" lon="6.63489">
        <ele>476.6</ele>
        <time>2016-07-03T09:56:17Z</time>
      </trkpt>
      <trkpt lat="47.80536" lon="6.63476">
        <ele>475.8</ele>
        <time>2016-07-03T09:56:25Z</time>
      </trkpt>
      <trkpt lat="47.80532" lon="6.63463">
        <ele>472.4</ele>
        <time>2016-07-03T09:56:33Z</time>
      </trkpt>
      <trkpt lat="47.80524" lon="6.63454">
        <ele>474.4</ele>
        <time>2016-07-03T09:56:41Z</time>
      </trkpt>
      <trkpt lat="47.80516" lon="6.63445">
        <ele>473.2</ele>
        <time>2016-07-03T09:56:47Z</time>
      </trkpt>
      <trkpt lat="47.80508" lon="6.63437">
        <ele>476.6</ele>
        <time>2016-07-03T09:56:53Z</time>
      </trkpt>
      <trkpt lat="47.80501" lon="6.63426">
        <ele>477.3</ele>
        <time>2016-07-03T09:56:59Z</time>
      </trkpt>
      <trkpt lat="47.80496" lon="6.63409">
        <ele>475.1</ele>
        <time>2016-07-03T09:57:04Z</time>
      </trkpt>
      <trkpt lat="47.80496" lon="6.63395">
        <ele>473.8</ele>
        <time>2016-07-03T09:57:07Z</time>
      </trkpt>
      <trkpt lat="47.80495" lon="6.63381">
        <ele>472.2</ele>
        <time>2016-07-03T09:57:11Z</time>
      </trkpt>
      <trkpt lat="47.80496" lon="6.63365">
        <ele>470.4</ele>
        <time>2016-07-03T09:57:15Z</time>
      </trkpt>
      <trkpt lat="47.80496" lon="6.63347">
        <ele>467.7</ele>
        <time>2016-07-03T09:57:18Z</time>
      </trkpt>
      <trkpt lat="47.80496" lon="6.63333">
        <ele>465.6</ele>
        <time>2016-07-03T09:57:20Z</time>
      </trkpt>
      <trkpt lat="47.805" lon="6.63319">
        <ele>463.2</ele>
        <time>2016-07-03T09:57:23Z</time>
      </trkpt>
      <trkpt lat="47.80507" lon="6.63306">
        <ele>460.6</ele>
        <time>2016-07-03T09:57:27Z</time>
      </trkpt>
      <trkpt lat="47.80514" lon="6.63293">
        <ele>458.9</ele>
        <time>2016-07-03T09:57:31Z</time>
      </trkpt>
      <trkpt lat="47.80521" lon="6.63284">
        <ele>459.6</ele>
        <time>2016-07-03T09:57:35Z</time>
      </trkpt>
      <trkpt lat="47.80526" lon="6.63271">
        <ele>461.4</ele>
        <time>2016-07-03T09:57:39Z</time>
      </trkpt>
      <trkpt lat="47.80533" lon="6.63259">
        <ele>462.7</ele>
        <time>2016-07-03T09:57:43Z</time>
      </trkpt>
      <trkpt lat="47.8054" lon="6.63245">
        <ele>464.3</ele>
        <time>2016-07-03T09:57:47Z</time>
      </trkpt>
      <trkpt lat="47.80545" lon="6.6323">
        <ele>467.4</ele>
        <time>2016-07-03T09:57:51Z</time>
      </trkpt>
      <trkpt lat="47.8055" lon="6.63216">
        <ele>472.5</ele>
        <time>2016-07-03T09:57:55Z</time>
      </trkpt>
      <trkpt lat="47.80556" lon="6.63205">
        <ele>473.3</ele>
        <time>2016-07-03T09:57:59Z</time>
      </trkpt>
      <trkpt lat="47.80561" lon="6.63194">
        <ele>472.7</ele>
        <time>2016-07-03T09:58:03Z</time>
      </trkpt>
      <trkpt lat="47.80569" lon="6.63179">
        <ele>471.6</ele>
        <time>2016-07-03T09:58:07Z</time>
      </trkpt>
      <trkpt lat="47.80573" lon="6.63166">
        <ele>464.8</ele>
        <time>2016-07-03T09:58:10Z</time>
      </trkpt>
      <trkpt lat="47.80573" lon="6.6315">
        <ele>463.1</ele>
        <time>2016-07-03T09:58:13Z</time>
      </trkpt>
      <trkpt lat="47.80568" lon="6.63134">
        <ele>464</ele>
        <time>2016-07-03T09:58:16Z</time>
      </trkpt>
      <trkpt lat="47.80563" lon="6.63118">
        <ele>465.4</ele>
        <time>2016-07-03T09:58:19Z</time>
      </trkpt>
      <trkpt lat="47.80556" lon="6.631">
        <ele>466.6</ele>
        <time>2016-07-03T09:58:22Z</time>
      </trkpt>
      <trkpt lat="47.80552" lon="6.63088">
        <ele>467.8</ele>
        <time>2016-07-03T09:58:24Z</time>
      </trkpt>
      <trkpt lat="47.80546" lon="6.63071">
        <ele>468.7</ele>
        <time>2016-07-03T09:58:27Z</time>
      </trkpt>
      <trkpt lat="47.80539" lon="6.63054">
        <ele>468.4</ele>
        <time>2016-07-03T09:58:30Z</time>
      </trkpt>
      <trkpt lat="47.80532" lon="6.63037">
        <ele>467.8</ele>
        <time>2016-07-03T09:58:33Z</time>
      </trkpt>
      <trkpt lat="47.80525" lon="6.6302">
        <ele>467</ele>
        <time>2016-07-03T09:58:36Z</time>
      </trkpt>
      <trkpt lat="47.80518" lon="6.63004">
        <ele>467.2</ele>
        <time>2016-07-03T09:58:39Z</time>
      </trkpt>
      <trkpt lat="47.80511" lon="6.62987">
        <ele>466.4</ele>
        <time>2016-07-03T09:58:42Z</time>
      </trkpt>
      <trkpt lat="47.80504" lon="6.62976">
        <ele>466.6</ele>
        <time>2016-07-03T09:58:44Z</time>
      </trkpt>
      <trkpt lat="47.80497" lon="6.62963">
        <ele>466.2</ele>
        <time>2016-07-03T09:58:46Z</time>
      </trkpt>
      <trkpt lat="47.80491" lon="6.62951">
        <ele>466.1</ele>
        <time>2016-07-03T09:58:48Z</time>
      </trkpt>
      <trkpt lat="47.80485" lon="6.62937">
        <ele>465.7</ele>
        <time>2016-07-03T09:58:50Z</time>
      </trkpt>
      <trkpt lat="47.80478" lon="6.62922">
        <ele>465.2</ele>
        <time>2016-07-03T09:58:52Z</time>
      </trkpt>
      <trkpt lat="47.80471" lon="6.62907">
        <ele>464.9</ele>
        <time>2016-07-03T09:58:54Z</time>
      </trkpt>
      <trkpt lat="47.80464" lon="6.62893">
        <ele>466.5</ele>
        <time>2016-07-03T09:58:56Z</time>
      </trkpt>
      <trkpt lat="47.80458" lon="6.62881">
        <ele>466.9</ele>
        <time>2016-07-03T09:58:58Z</time>
      </trkpt>
      <trkpt lat="47.8045" lon="6.62869">
        <ele>467.4</ele>
        <time>2016-07-03T09:59:01Z</time>
      </trkpt>
      <trkpt lat="47.80441" lon="6.62858">
        <ele>467.3</ele>
        <time>2016-07-03T09:59:05Z</time>
      </trkpt>
      <trkpt lat="47.80433" lon="6.62851">
        <ele>467.2</ele>
        <time>2016-07-03T09:59:09Z</time>
      </trkpt>
      <trkpt lat="47.80425" lon="6.62845">
        <ele>468.2</ele>
        <time>2016-07-03T09:59:13Z</time>
      </trkpt>
      <trkpt lat="47.80416" lon="6.62839">
        <ele>469.2</ele>
        <time>2016-07-03T09:59:17Z</time>
      </trkpt>
      <trkpt lat="47.80407" lon="6.62834">
        <ele>469.2</ele>
        <time>2016-07-03T09:59:21Z</time>
      </trkpt>
      <trkpt lat="47.80398" lon="6.62828">
        <ele>470.3</ele>
        <time>2016-07-03T09:59:25Z</time>
      </trkpt>
      <trkpt lat="47.80389" lon="6.6282">
        <ele>470.8</ele>
        <time>2016-07-03T09:59:30Z</time>
      </trkpt>
      <trkpt lat="47.80382" lon="6.62811">
        <ele>470.6</ele>
        <time>2016-07-03T09:59:34Z</time>
      </trkpt>
      <trkpt lat="47.80375" lon="6.628">
        <ele>471.8</ele>
        <time>2016-07-03T09:59:38Z</time>
      </trkpt>
      <trkpt lat="47.80371" lon="6.62788">
        <ele>473.4</ele>
        <time>2016-07-03T09:59:42Z</time>
      </trkpt>
      <trkpt lat="47.80366" lon="6.62776">
        <ele>473.5</ele>
        <time>2016-07-03T09:59:46Z</time>
      </trkpt>
      <trkpt lat="47.8036" lon="6.62763">
        <ele>473.6</ele>
        <time>2016-07-03T09:59:51Z</time>
      </trkpt>
      <trkpt lat="47.80353" lon="6.62751">
        <ele>474.8</ele>
        <time>2016-07-03T09:59:55Z</time>
      </trkpt>
      <trkpt lat="47.80347" lon="6.6274">
        <ele>475.8</ele>
        <time>2016-07-03T09:59:59Z</time>
      </trkpt>
      <trkpt lat="47.80341" lon="6.62727">
        <ele>476.1</ele>
        <time>2016-07-03T10:00:03Z</time>
      </trkpt>
      <trkpt lat="47.80336" lon="6.62712">
        <ele>475.4</ele>
        <time>2016-07-03T10:00:07Z</time>
      </trkpt>
      <trkpt lat="47.8033" lon="6.627">
        <ele>476.2</ele>
        <time>2016-07-03T10:00:10Z</time>
      </trkpt>
      <trkpt lat="47.80324" lon="6.6269">
        <ele>477.2</ele>
        <time>2016-07-03T10:00:13Z</time>
      </trkpt>
      <trkpt lat="47.80315" lon="6.62679">
        <ele>476.8</ele>
        <time>2016-07-03T10:00:16Z</time>
      </trkpt>
      <trkpt lat="47.80306" lon="6.6267">
        <ele>481.6</ele>
        <time>2016-07-03T10:00:19Z</time>
      </trkpt>
      <trkpt lat="47.80295" lon="6.62667">
        <ele>484.5</ele>
        <time>2016-07-03T10:00:23Z</time>
      </trkpt>
      <trkpt lat="47.80284" lon="6.6267">
        <ele>484.7</ele>
        <time>2016-07-03T10:00:27Z</time>
      </trkpt>
      <trkpt lat="47.80273" lon="6.62666">
        <ele>484.1</ele>
        <time>2016-07-03T10:00:31Z</time>
      </trkpt>
      <trkpt lat="47.80263" lon="6.62658">
        <ele>485.7</ele>
        <time>2016-07-03T10:00:36Z</time>
      </trkpt>
      <trkpt lat="47.80253" lon="6.62648">
        <ele>483.2</ele>
        <time>2016-07-03T10:00:40Z</time>
      </trkpt>
      <trkpt lat="47.80247" lon="6.62638">
        <ele>484.7</ele>
        <time>2016-07-03T10:00:44Z</time>
      </trkpt>
      <trkpt lat="47.80242" lon="6.62627">
        <ele>484.9</ele>
        <time>2016-07-03T10:00:48Z</time>
      </trkpt>
      <trkpt lat="47.80238" lon="6.62611">
        <ele>484.1</ele>
        <time>2016-07-03T10:00:53Z</time>
      </trkpt>
      <trkpt lat="47.80233" lon="6.626">
        <ele>489.7</ele>
        <time>2016-07-03T10:00:56Z</time>
      </trkpt>
      <trkpt lat="47.80227" lon="6.62589">
        <ele>489.1</ele>
        <time>2016-07-03T10:00:59Z</time>
      </trkpt>
      <trkpt lat="47.80221" lon="6.62575">
        <ele>488.8</ele>
        <time>2016-07-03T10:01:02Z</time>
      </trkpt>
      <trkpt lat="47.80216" lon="6.62562">
        <ele>486.6</ele>
        <time>2016-07-03T10:01:05Z</time>
      </trkpt>
      <trkpt lat="47.80212" lon="6.6255">
        <ele>483.8</ele>
        <time>2016-07-03T10:01:08Z</time>
      </trkpt>
      <trkpt lat="47.8021" lon="6.62535">
        <ele>483.3</ele>
        <time>2016-07-03T10:01:11Z</time>
      </trkpt>
      <trkpt lat="47.80209" lon="6.62519">
        <ele>479.5</ele>
        <time>2016-07-03T10:01:14Z</time>
      </trkpt>
      <trkpt lat="47.80207" lon="6.62504">
        <ele>484.3</ele>
        <time>2016-07-03T10:01:17Z</time>
      </trkpt>
      <trkpt lat="47.80204" lon="6.6249">
        <ele>488.5</ele>
        <time>2016-07-03T10:01:20Z</time>
      </trkpt>
      <trkpt lat="47.80201" lon="6.62475">
        <ele>490.2</ele>
        <time>2016-07-03T10:01:23Z</time>
      </trkpt>
      <trkpt lat="47.80197" lon="6.62459">
        <ele>488.3</ele>
        <time>2016-07-03T10:01:26Z</time>
      </trkpt>
      <trkpt lat="47.80193" lon="6.62442">
        <ele>488.6</ele>
        <time>2016-07-03T10:01:29Z</time>
      </trkpt>
      <trkpt lat="47.80188" lon="6.62427">
        <ele>486.8</ele>
        <time>2016-07-03T10:01:32Z</time>
      </trkpt>
      <trkpt lat="47.80183" lon="6.62416">
        <ele>487.8</ele>
        <time>2016-07-03T10:01:34Z</time>
      </trkpt>
      <trkpt lat="47.80176" lon="6.62401">
        <ele>484</ele>
        <time>2016-07-03T10:01:37Z</time>
      </trkpt>
      <trkpt lat="47.8017" lon="6.62391">
        <ele>481.2</ele>
        <time>2016-07-03T10:01:39Z</time>
      </trkpt>
      <trkpt lat="47.80161" lon="6.62379">
        <ele>481.4</ele>
        <time>2016-07-03T10:01:42Z</time>
      </trkpt>
      <trkpt lat="47.80151" lon="6.62365">
        <ele>476.6</ele>
        <time>2016-07-03T10:01:45Z</time>
      </trkpt>
      <trkpt lat="47.80142" lon="6.62357">
        <ele>475.2</ele>
        <time>2016-07-03T10:01:47Z</time>
      </trkpt>
      <trkpt lat="47.80135" lon="6.62347">
        <ele>475.6</ele>
        <time>2016-07-03T10:01:49Z</time>
      </trkpt>
      <trkpt lat="47.80127" lon="6.62339">
        <ele>474.8</ele>
        <time>2016-07-03T10:01:51Z</time>
      </trkpt>
      <trkpt lat="47.80119" lon="6.62331">
        <ele>477.3</ele>
        <time>2016-07-03T10:01:53Z</time>
      </trkpt>
      <trkpt lat="47.80111" lon="6.62321">
        <ele>476.2</ele>
        <time>2016-07-03T10:01:55Z</time>
      </trkpt>
      <trkpt lat="47.80104" lon="6.6231">
        <ele>478</ele>
        <time>2016-07-03T10:01:57Z</time>
      </trkpt>
      <trkpt lat="47.80098" lon="6.62294">
        <ele>483.2</ele>
        <time>2016-07-03T10:01:59Z</time>
      </trkpt>
      <trkpt lat="47.80092" lon="6.62274">
        <ele>482.8</ele>
        <time>2016-07-03T10:02:01Z</time>
      </trkpt>
      <trkpt lat="47.80087" lon="6.62251">
        <ele>481.3</ele>
        <time>2016-07-03T10:02:03Z</time>
      </trkpt>
      <trkpt lat="47.80085" lon="6.62231">
        <ele>479.3</ele>
        <time>2016-07-03T10:02:05Z</time>
      </trkpt>
      <trkpt lat="47.80084" lon="6.62209">
        <ele>477.7</ele>
        <time>2016-07-03T10:02:07Z</time>
      </trkpt>
      <trkpt lat="47.80081" lon="6.62188">
        <ele>474.3</ele>
        <time>2016-07-03T10:02:09Z</time>
      </trkpt>
      <trkpt lat="47.80071" lon="6.62173">
        <ele>475.2</ele>
        <time>2016-07-03T10:02:11Z</time>
      </trkpt>
      <trkpt lat="47.80059" lon="6.62169">
        <ele>477.6</ele>
        <time>2016-07-03T10:02:13Z</time>
      </trkpt>
      <trkpt lat="47.80046" lon="6.62168">
        <ele>477.2</ele>
        <time>2016-07-03T10:02:15Z</time>
      </trkpt>
      <trkpt lat="47.80032" lon="6.62165">
        <ele>478.4</ele>
        <time>2016-07-03T10:02:17Z</time>
      </trkpt>
      <trkpt lat="47.8002" lon="6.62162">
        <ele>479.6</ele>
        <time>2016-07-03T10:02:19Z</time>
      </trkpt>
      <trkpt lat="47.80006" lon="6.62155">
        <ele>481.7</ele>
        <time>2016-07-03T10:02:21Z</time>
      </trkpt>
      <trkpt lat="47.79993" lon="6.62148">
        <ele>484.4</ele>
        <time>2016-07-03T10:02:23Z</time>
      </trkpt>
      <trkpt lat="47.79981" lon="6.62142">
        <ele>487.6</ele>
        <time>2016-07-03T10:02:25Z</time>
      </trkpt>
      <trkpt lat="47.79969" lon="6.62136">
        <ele>484.4</ele>
        <time>2016-07-03T10:02:27Z</time>
      </trkpt>
      <trkpt lat="47.79957" lon="6.6213">
        <ele>487.1</ele>
        <time>2016-07-03T10:02:29Z</time>
      </trkpt>
      <trkpt lat="47.79945" lon="6.62123">
        <ele>486.9</ele>
        <time>2016-07-03T10:02:31Z</time>
      </trkpt>
      <trkpt lat="47.79933" lon="6.62115">
        <ele>485.4</ele>
        <time>2016-07-03T10:02:33Z</time>
      </trkpt>
      <trkpt lat="47.79921" lon="6.62106">
        <ele>484.7</ele>
        <time>2016-07-03T10:02:35Z</time>
      </trkpt>
      <trkpt lat="47.79908" lon="6.62098">
        <ele>484.5</ele>
        <time>2016-07-03T10:02:37Z</time>
      </trkpt>
      <trkpt lat="47.79894" lon="6.62091">
        <ele>483</ele>
        <time>2016-07-03T10:02:39Z</time>
      </trkpt>
      <trkpt lat="47.79878" lon="6.62093">
        <ele>481.4</ele>
        <time>2016-07-03T10:02:41Z</time>
      </trkpt>
      <trkpt lat="47.79861" lon="6.62101">
        <ele>480.8</ele>
        <time>2016-07-03T10:02:43Z</time>
      </trkpt>
      <trkpt lat="47.79852" lon="6.62106">
        <ele>480.1</ele>
        <time>2016-07-03T10:02:44Z</time>
      </trkpt>
      <trkpt lat="47.79843" lon="6.6211">
        <ele>479.8</ele>
        <time>2016-07-03T10:02:45Z</time>
      </trkpt>
      <trkpt lat="47.79828" lon="6.62121">
        <ele>482.4</ele>
        <time>2016-07-03T10:02:47Z</time>
      </trkpt>
      <trkpt lat="47.79813" lon="6.62132">
        <ele>482.6</ele>
        <time>2016-07-03T10:02:49Z</time>
      </trkpt>
      <trkpt lat="47.79799" lon="6.62142">
        <ele>482</ele>
        <time>2016-07-03T10:02:51Z</time>
      </trkpt>
      <trkpt lat="47.79783" lon="6.62152">
        <ele>479.7</ele>
        <time>2016-07-03T10:02:53Z</time>
      </trkpt>
      <trkpt lat="47.79775" lon="6.62157">
        <ele>478.5</ele>
        <time>2016-07-03T10:02:54Z</time>
      </trkpt>
      <trkpt lat="47.79766" lon="6.62161">
        <ele>477.3</ele>
        <time>2016-07-03T10:02:55Z</time>
      </trkpt>
      <trkpt lat="47.7975" lon="6.62166">
        <ele>476.4</ele>
        <time>2016-07-03T10:02:57Z</time>
      </trkpt>
      <trkpt lat="47.79735" lon="6.62172">
        <ele>473.9</ele>
        <time>2016-07-03T10:02:59Z</time>
      </trkpt>
      <trkpt lat="47.79724" lon="6.62172">
        <ele>471.6</ele>
        <time>2016-07-03T10:03:01Z</time>
      </trkpt>
      <trkpt lat="47.79717" lon="6.6216">
        <ele>472.2</ele>
        <time>2016-07-03T10:03:03Z</time>
      </trkpt>
      <trkpt lat="47.79714" lon="6.62145">
        <ele>471.6</ele>
        <time>2016-07-03T10:03:05Z</time>
      </trkpt>
      <trkpt lat="47.7971" lon="6.62131">
        <ele>470.2</ele>
        <time>2016-07-03T10:03:07Z</time>
      </trkpt>
      <trkpt lat="47.79705" lon="6.62116">
        <ele>468.9</ele>
        <time>2016-07-03T10:03:10Z</time>
      </trkpt>
      <trkpt lat="47.79699" lon="6.62104">
        <ele>467.7</ele>
        <time>2016-07-03T10:03:13Z</time>
      </trkpt>
      <trkpt lat="47.79699" lon="6.62089">
        <ele>464.7</ele>
        <time>2016-07-03T10:03:16Z</time>
      </trkpt>
      <trkpt lat="47.79695" lon="6.62071">
        <ele>458</ele>
        <time>2016-07-03T10:03:20Z</time>
      </trkpt>
      <trkpt lat="47.79697" lon="6.62052">
        <ele>453</ele>
        <time>2016-07-03T10:03:23Z</time>
      </trkpt>
      <trkpt lat="47.79702" lon="6.62033">
        <ele>452.3</ele>
        <time>2016-07-03T10:03:26Z</time>
      </trkpt>
      <trkpt lat="47.79705" lon="6.62019">
        <ele>456.8</ele>
        <time>2016-07-03T10:03:29Z</time>
      </trkpt>
      <trkpt lat="47.79705" lon="6.62002">
        <ele>458.5</ele>
        <time>2016-07-03T10:03:32Z</time>
      </trkpt>
      <trkpt lat="47.79703" lon="6.61984">
        <ele>455.3</ele>
        <time>2016-07-03T10:03:35Z</time>
      </trkpt>
      <trkpt lat="47.79705" lon="6.61965">
        <ele>451.3</ele>
        <time>2016-07-03T10:03:38Z</time>
      </trkpt>
      <trkpt lat="47.79706" lon="6.61949">
        <ele>443</ele>
        <time>2016-07-03T10:03:40Z</time>
      </trkpt>
      <trkpt lat="47.79709" lon="6.61933">
        <ele>438</ele>
        <time>2016-07-03T10:03:42Z</time>
      </trkpt>
      <trkpt lat="47.79707" lon="6.61918">
        <ele>436.1</ele>
        <time>2016-07-03T10:03:44Z</time>
      </trkpt>
      <trkpt lat="47.79705" lon="6.61901">
        <ele>434.4</ele>
        <time>2016-07-03T10:03:46Z</time>
      </trkpt>
      <trkpt lat="47.79702" lon="6.61886">
        <ele>429.5</ele>
        <time>2016-07-03T10:03:48Z</time>
      </trkpt>
      <trkpt lat="47.79696" lon="6.61871">
        <ele>427.5</ele>
        <time>2016-07-03T10:03:50Z</time>
      </trkpt>
      <trkpt lat="47.7969" lon="6.61855">
        <ele>424.3</ele>
        <time>2016-07-03T10:03:53Z</time>
      </trkpt>
      <trkpt lat="47.79686" lon="6.61838">
        <ele>421.1</ele>
        <time>2016-07-03T10:03:55Z</time>
      </trkpt>
      <trkpt lat="47.79681" lon="6.61824">
        <ele>417.8</ele>
        <time>2016-07-03T10:03:57Z</time>
      </trkpt>
      <trkpt lat="47.79677" lon="6.61812">
        <ele>415.7</ele>
        <time>2016-07-03T10:03:59Z</time>
      </trkpt>
      <trkpt lat="47.7967" lon="6.61796">
        <ele>414.7</ele>
        <time>2016-07-03T10:04:01Z</time>
      </trkpt>
      <trkpt lat="47.79665" lon="6.61781">
        <ele>411.9</ele>
        <time>2016-07-03T10:04:03Z</time>
      </trkpt>
      <trkpt lat="47.79659" lon="6.61768">
        <ele>408.4</ele>
        <time>2016-07-03T10:04:05Z</time>
      </trkpt>
      <trkpt lat="47.79655" lon="6.61752">
        <ele>406.7</ele>
        <time>2016-07-03T10:04:07Z</time>
      </trkpt>
      <trkpt lat="47.79651" lon="6.61739">
        <ele>404.9</ele>
        <time>2016-07-03T10:04:08Z</time>
      </trkpt>
      <trkpt lat="47.79646" lon="6.61723">
        <ele>398.2</ele>
        <time>2016-07-03T10:04:10Z</time>
      </trkpt>
      <trkpt lat="47.79637" lon="6.6171">
        <ele>395.4</ele>
        <time>2016-07-03T10:04:12Z</time>
      </trkpt>
      <trkpt lat="47.79627" lon="6.61704">
        <ele>395</ele>
        <time>2016-07-03T10:04:14Z</time>
      </trkpt>
      <trkpt lat="47.79613" lon="6.61701">
        <ele>396.8</ele>
        <time>2016-07-03T10:04:17Z</time>
      </trkpt>
      <trkpt lat="47.79601" lon="6.61706">
        <ele>394.1</ele>
        <time>2016-07-03T10:04:19Z</time>
      </trkpt>
      <trkpt lat="47.7959" lon="6.61712">
        <ele>394</ele>
        <time>2016-07-03T10:04:21Z</time>
      </trkpt>
      <trkpt lat="47.79579" lon="6.61716">
        <ele>395.6</ele>
        <time>2016-07-03T10:04:23Z</time>
      </trkpt>
      <trkpt lat="47.79564" lon="6.61729">
        <ele>399.1</ele>
        <time>2016-07-03T10:04:25Z</time>
      </trkpt>
      <trkpt lat="47.79554" lon="6.61735">
        <ele>399</ele>
        <time>2016-07-03T10:04:27Z</time>
      </trkpt>
      <trkpt lat="47.79541" lon="6.61742">
        <ele>398.2</ele>
        <time>2016-07-03T10:04:30Z</time>
      </trkpt>
      <trkpt lat="47.79527" lon="6.6175">
        <ele>398.3</ele>
        <time>2016-07-03T10:04:32Z</time>
      </trkpt>
      <trkpt lat="47.79516" lon="6.61755">
        <ele>399.8</ele>
        <time>2016-07-03T10:04:34Z</time>
      </trkpt>
      <trkpt lat="47.79505" lon="6.61753">
        <ele>405.6</ele>
        <time>2016-07-03T10:04:36Z</time>
      </trkpt>
      <trkpt lat="47.79497" lon="6.6174">
        <ele>406.3</ele>
        <time>2016-07-03T10:04:39Z</time>
      </trkpt>
      <trkpt lat="47.79492" lon="6.61726">
        <ele>402.9</ele>
        <time>2016-07-03T10:04:41Z</time>
      </trkpt>
      <trkpt lat="47.79488" lon="6.6171">
        <ele>402.6</ele>
        <time>2016-07-03T10:04:43Z</time>
      </trkpt>
      <trkpt lat="47.79484" lon="6.61695">
        <ele>403.1</ele>
        <time>2016-07-03T10:04:45Z</time>
      </trkpt>
      <trkpt lat="47.79478" lon="6.61682">
        <ele>403.4</ele>
        <time>2016-07-03T10:04:47Z</time>
      </trkpt>
      <trkpt lat="47.7947" lon="6.61671">
        <ele>408.8</ele>
        <time>2016-07-03T10:04:49Z</time>
      </trkpt>
      <trkpt lat="47.79466" lon="6.61655">
        <ele>414.8</ele>
        <time>2016-07-03T10:04:52Z</time>
      </trkpt>
      <trkpt lat="47.79467" lon="6.61641">
        <ele>413.7</ele>
        <time>2016-07-03T10:04:54Z</time>
      </trkpt>
      <trkpt lat="47.79469" lon="6.61624">
        <ele>410.5</ele>
        <time>2016-07-03T10:04:56Z</time>
      </trkpt>
      <trkpt lat="47.79476" lon="6.61602">
        <ele>404.5</ele>
        <time>2016-07-03T10:04:58Z</time>
      </trkpt>
      <trkpt lat="47.79483" lon="6.61579">
        <ele>400.2</ele>
        <time>2016-07-03T10:05:00Z</time>
      </trkpt>
      <trkpt lat="47.79491" lon="6.61554">
        <ele>398.2</ele>
        <time>2016-07-03T10:05:02Z</time>
      </trkpt>
      <trkpt lat="47.79495" lon="6.61542">
        <ele>399.1</ele>
        <time>2016-07-03T10:05:03Z</time>
      </trkpt>
      <trkpt lat="47.79505" lon="6.61521">
        <ele>401.6</ele>
        <time>2016-07-03T10:05:05Z</time>
      </trkpt>
      <trkpt lat="47.79517" lon="6.61502">
        <ele>402</ele>
        <time>2016-07-03T10:05:07Z</time>
      </trkpt>
      <trkpt lat="47.79528" lon="6.61484">
        <ele>402.4</ele>
        <time>2016-07-03T10:05:09Z</time>
      </trkpt>
      <trkpt lat="47.79542" lon="6.61468">
        <ele>403</ele>
        <time>2016-07-03T10:05:11Z</time>
      </trkpt>
      <trkpt lat="47.79557" lon="6.61453">
        <ele>403</ele>
        <time>2016-07-03T10:05:13Z</time>
      </trkpt>
      <trkpt lat="47.79564" lon="6.61443">
        <ele>402.1</ele>
        <time>2016-07-03T10:05:14Z</time>
      </trkpt>
      <trkpt lat="47.7957" lon="6.61433">
        <ele>401.9</ele>
        <time>2016-07-03T10:05:15Z</time>
      </trkpt>
      <trkpt lat="47.79577" lon="6.61422">
        <ele>401.2</ele>
        <time>2016-07-03T10:05:16Z</time>
      </trkpt>
      <trkpt lat="47.79584" lon="6.61412">
        <ele>400.4</ele>
        <time>2016-07-03T10:05:17Z</time>
      </trkpt>
      <trkpt lat="47.79591" lon="6.61401">
        <ele>399.8</ele>
        <time>2016-07-03T10:05:18Z</time>
      </trkpt>
      <trkpt lat="47.79599" lon="6.61391">
        <ele>399.4</ele>
        <time>2016-07-03T10:05:19Z</time>
      </trkpt>
      <trkpt lat="47.79605" lon="6.61378">
        <ele>398.8</ele>
        <time>2016-07-03T10:05:20Z</time>
      </trkpt>
      <trkpt lat="47.79607" lon="6.61362">
        <ele>398.2</ele>
        <time>2016-07-03T10:05:21Z</time>
      </trkpt>
      <trkpt lat="47.79609" lon="6.61347">
        <ele>399.4</ele>
        <time>2016-07-03T10:05:22Z</time>
      </trkpt>
      <trkpt lat="47.79607" lon="6.61333">
        <ele>399.5</ele>
        <time>2016-07-03T10:05:23Z</time>
      </trkpt>
      <trkpt lat="47.79607" lon="6.6132">
        <ele>399.7</ele>
        <time>2016-07-03T10:05:24Z</time>
      </trkpt>
      <trkpt lat="47.79607" lon="6.61306">
        <ele>398.7</ele>
        <time>2016-07-03T10:05:25Z</time>
      </trkpt>
      <trkpt lat="47.7961" lon="6.61292">
        <ele>398.6</ele>
        <time>2016-07-03T10:05:26Z</time>
      </trkpt>
      <trkpt lat="47.79614" lon="6.61279">
        <ele>399.6</ele>
        <time>2016-07-03T10:05:27Z</time>
      </trkpt>
      <trkpt lat="47.79619" lon="6.61267">
        <ele>399.4</ele>
        <time>2016-07-03T10:05:28Z</time>
      </trkpt>
      <trkpt lat="47.79625" lon="6.61256">
        <ele>398.6</ele>
        <time>2016-07-03T10:05:29Z</time>
      </trkpt>
      <trkpt lat="47.79632" lon="6.61244">
        <ele>397.5</ele>
        <time>2016-07-03T10:05:30Z</time>
      </trkpt>
      <trkpt lat="47.79638" lon="6.61232">
        <ele>396.9</ele>
        <time>2016-07-03T10:05:31Z</time>
      </trkpt>
      <trkpt lat="47.79644" lon="6.61221">
        <ele>396.1</ele>
        <time>2016-07-03T10:05:32Z</time>
      </trkpt>
      <trkpt lat="47.79649" lon="6.6121">
        <ele>395.6</ele>
        <time>2016-07-03T10:05:33Z</time>
      </trkpt>
      <trkpt lat="47.79654" lon="6.61198">
        <ele>395.2</ele>
        <time>2016-07-03T10:05:34Z</time>
      </trkpt>
      <trkpt lat="47.79659" lon="6.61185">
        <ele>394.7</ele>
        <time>2016-07-03T10:05:35Z</time>
      </trkpt>
      <trkpt lat="47.79663" lon="6.61169">
        <ele>394.2</ele>
        <time>2016-07-03T10:05:36Z</time>
      </trkpt>
      <trkpt lat="47.79667" lon="6.61153">
        <ele>393.4</ele>
        <time>2016-07-03T10:05:37Z</time>
      </trkpt>
      <trkpt lat="47.79669" lon="6.61138">
        <ele>393.5</ele>
        <time>2016-07-03T10:05:38Z</time>
      </trkpt>
      <trkpt lat="47.79672" lon="6.61122">
        <ele>393.2</ele>
        <time>2016-07-03T10:05:39Z</time>
      </trkpt>
      <trkpt lat="47.79675" lon="6.61107">
        <ele>395.2</ele>
        <time>2016-07-03T10:05:40Z</time>
      </trkpt>
      <trkpt lat="47.7968" lon="6.61094">
        <ele>398.2</ele>
        <time>2016-07-03T10:05:41Z</time>
      </trkpt>
      <trkpt lat="47.7969" lon="6.61076">
        <ele>401.9</ele>
        <time>2016-07-03T10:05:43Z</time>
      </trkpt>
      <trkpt lat="47.79696" lon="6.61061">
        <ele>401.9</ele>
        <time>2016-07-03T10:05:45Z</time>
      </trkpt>
      <trkpt lat="47.79688" lon="6.61047">
        <ele>401.9</ele>
        <time>2016-07-03T10:05:48Z</time>
      </trkpt>
      <trkpt lat="47.79676" lon="6.61041">
        <ele>403</ele>
        <time>2016-07-03T10:05:51Z</time>
      </trkpt>
      <trkpt lat="47.79664" lon="6.61034">
        <ele>403.2</ele>
        <time>2016-07-03T10:05:54Z</time>
      </trkpt>
      <trkpt lat="47.79655" lon="6.6103">
        <ele>403.1</ele>
        <time>2016-07-03T10:05:56Z</time>
      </trkpt>
      <trkpt lat="47.79646" lon="6.61026">
        <ele>403.1</ele>
        <time>2016-07-03T10:05:58Z</time>
      </trkpt>
      <trkpt lat="47.79634" lon="6.61018">
        <ele>403.4</ele>
        <time>2016-07-03T10:06:01Z</time>
      </trkpt>
      <trkpt lat="47.79622" lon="6.61008">
        <ele>403.8</ele>
        <time>2016-07-03T10:06:04Z</time>
      </trkpt>
      <trkpt lat="47.79615" lon="6.60999">
        <ele>403.9</ele>
        <time>2016-07-03T10:06:06Z</time>
      </trkpt>
      <trkpt lat="47.7961" lon="6.60985">
        <ele>404.3</ele>
        <time>2016-07-03T10:06:09Z</time>
      </trkpt>
      <trkpt lat="47.7961" lon="6.60971">
        <ele>407.3</ele>
        <time>2016-07-03T10:06:14Z</time>
      </trkpt>
      <trkpt lat="47.79613" lon="6.60958">
        <ele>411.4</ele>
        <time>2016-07-03T10:06:19Z</time>
      </trkpt>
      <trkpt lat="47.79615" lon="6.60942">
        <ele>408.3</ele>
        <time>2016-07-03T10:06:24Z</time>
      </trkpt>
      <trkpt lat="47.79615" lon="6.60929">
        <ele>411.6</ele>
        <time>2016-07-03T10:06:28Z</time>
      </trkpt>
      <trkpt lat="47.79616" lon="6.60913">
        <ele>407.7</ele>
        <time>2016-07-03T10:06:32Z</time>
      </trkpt>
      <trkpt lat="47.79615" lon="6.60898">
        <ele>404.6</ele>
        <time>2016-07-03T10:06:36Z</time>
      </trkpt>
      <trkpt lat="47.79614" lon="6.60883">
        <ele>404.7</ele>
        <time>2016-07-03T10:06:40Z</time>
      </trkpt>
      <trkpt lat="47.79614" lon="6.60868">
        <ele>399</ele>
        <time>2016-07-03T10:06:43Z</time>
      </trkpt>
      <trkpt lat="47.79614" lon="6.60855">
        <ele>395.4</ele>
        <time>2016-07-03T10:06:46Z</time>
      </trkpt>
      <trkpt lat="47.79618" lon="6.60838">
        <ele>396.1</ele>
        <time>2016-07-03T10:06:50Z</time>
      </trkpt>
      <trkpt lat="47.79618" lon="6.60823">
        <ele>393.9</ele>
        <time>2016-07-03T10:06:54Z</time>
      </trkpt>
      <trkpt lat="47.79619" lon="6.60806">
        <ele>393</ele>
        <time>2016-07-03T10:06:57Z</time>
      </trkpt>
      <trkpt lat="47.79618" lon="6.60792">
        <ele>394.4</ele>
        <time>2016-07-03T10:07:00Z</time>
      </trkpt>
      <trkpt lat="47.79618" lon="6.60775">
        <ele>390.9</ele>
        <time>2016-07-03T10:07:03Z</time>
      </trkpt>
      <trkpt lat="47.79617" lon="6.6076">
        <ele>398.1</ele>
        <time>2016-07-03T10:07:06Z</time>
      </trkpt>
      <trkpt lat="47.79617" lon="6.60745">
        <ele>408.8</ele>
        <time>2016-07-03T10:07:09Z</time>
      </trkpt>
      <trkpt lat="47.79619" lon="6.60731">
        <ele>409.5</ele>
        <time>2016-07-03T10:07:12Z</time>
      </trkpt>
      <trkpt lat="47.79622" lon="6.60717">
        <ele>404.5</ele>
        <time>2016-07-03T10:07:15Z</time>
      </trkpt>
      <trkpt lat="47.79623" lon="6.607">
        <ele>401.8</ele>
        <time>2016-07-03T10:07:18Z</time>
      </trkpt>
      <trkpt lat="47.79618" lon="6.60681">
        <ele>395.1</ele>
        <time>2016-07-03T10:07:21Z</time>
      </trkpt>
      <trkpt lat="47.79609" lon="6.60667">
        <ele>397.7</ele>
        <time>2016-07-03T10:07:24Z</time>
      </trkpt>
      <trkpt lat="47.79599" lon="6.60659">
        <ele>395.1</ele>
        <time>2016-07-03T10:07:26Z</time>
      </trkpt>
      <trkpt lat="47.79589" lon="6.60658">
        <ele>394.9</ele>
        <time>2016-07-03T10:07:28Z</time>
      </trkpt>
      <trkpt lat="47.79579" lon="6.60659">
        <ele>395.7</ele>
        <time>2016-07-03T10:07:31Z</time>
      </trkpt>
      <trkpt lat="47.79567" lon="6.6066">
        <ele>399.5</ele>
        <time>2016-07-03T10:07:33Z</time>
      </trkpt>
      <trkpt lat="47.79556" lon="6.60652">
        <ele>407.9</ele>
        <time>2016-07-03T10:07:36Z</time>
      </trkpt>
      <trkpt lat="47.79552" lon="6.6064">
        <ele>407.9</ele>
        <time>2016-07-03T10:07:39Z</time>
      </trkpt>
      <trkpt lat="47.79552" lon="6.60625">
        <ele>402.7</ele>
        <time>2016-07-03T10:07:43Z</time>
      </trkpt>
      <trkpt lat="47.79551" lon="6.60607">
        <ele>394.9</ele>
        <time>2016-07-03T10:07:47Z</time>
      </trkpt>
      <trkpt lat="47.7955" lon="6.6059">
        <ele>394.5</ele>
        <time>2016-07-03T10:07:50Z</time>
      </trkpt>
      <trkpt lat="47.79548" lon="6.60574">
        <ele>393.6</ele>
        <time>2016-07-03T10:07:53Z</time>
      </trkpt>
      <trkpt lat="47.79546" lon="6.60558">
        <ele>390</ele>
        <time>2016-07-03T10:07:57Z</time>
      </trkpt>
      <trkpt lat="47.79542" lon="6.60545">
        <ele>393.7</ele>
        <time>2016-07-03T10:07:59Z</time>
      </trkpt>
      <trkpt lat="47.79541" lon="6.60529">
        <ele>395.7</ele>
        <time>2016-07-03T10:08:03Z</time>
      </trkpt>
      <trkpt lat="47.7954" lon="6.60514">
        <ele>393.9</ele>
        <time>2016-07-03T10:08:07Z</time>
      </trkpt>
      <trkpt lat="47.79539" lon="6.60499">
        <ele>394.3</ele>
        <time>2016-07-03T10:08:11Z</time>
      </trkpt>
      <trkpt lat="47.79537" lon="6.60486">
        <ele>394.4</ele>
        <time>2016-07-03T10:08:14Z</time>
      </trkpt>
      <trkpt lat="47.79535" lon="6.60473">
        <ele>395.8</ele>
        <time>2016-07-03T10:08:17Z</time>
      </trkpt>
      <trkpt lat="47.79534" lon="6.60458">
        <ele>399.7</ele>
        <time>2016-07-03T10:08:20Z</time>
      </trkpt>
      <trkpt lat="47.79535" lon="6.60442">
        <ele>404.3</ele>
        <time>2016-07-03T10:08:25Z</time>
      </trkpt>
      <trkpt lat="47.79537" lon="6.60426">
        <ele>405.5</ele>
        <time>2016-07-03T10:08:28Z</time>
      </trkpt>
      <trkpt lat="47.79539" lon="6.60411">
        <ele>401.9</ele>
        <time>2016-07-03T10:08:31Z</time>
      </trkpt>
      <trkpt lat="47.79541" lon="6.60395">
        <ele>404.8</ele>
        <time>2016-07-03T10:08:35Z</time>
      </trkpt>
      <trkpt lat="47.79543" lon="6.60379">
        <ele>407.4</ele>
        <time>2016-07-03T10:08:39Z</time>
      </trkpt>
      <trkpt lat="47.79547" lon="6.60364">
        <ele>406.8</ele>
        <time>2016-07-03T10:08:43Z</time>
      </trkpt>
      <trkpt lat="47.79548" lon="6.60349">
        <ele>408.6</ele>
        <time>2016-07-03T10:08:48Z</time>
      </trkpt>
      <trkpt lat="47.79546" lon="6.60334">
        <ele>410.5</ele>
        <time>2016-07-03T10:08:53Z</time>
      </trkpt>
      <trkpt lat="47.79546" lon="6.60321">
        <ele>411.3</ele>
        <time>2016-07-03T10:08:58Z</time>
      </trkpt>
      <trkpt lat="47.79548" lon="6.60305">
        <ele>415</ele>
        <time>2016-07-03T10:09:04Z</time>
      </trkpt>
      <trkpt lat="47.7955" lon="6.60291">
        <ele>418</ele>
        <time>2016-07-03T10:09:10Z</time>
      </trkpt>
      <trkpt lat="47.79547" lon="6.60275">
        <ele>421.2</ele>
        <time>2016-07-03T10:09:16Z</time>
      </trkpt>
      <trkpt lat="47.79538" lon="6.60265">
        <ele>422.4</ele>
        <time>2016-07-03T10:09:21Z</time>
      </trkpt>
      <trkpt lat="47.7953" lon="6.60256">
        <ele>424.5</ele>
        <time>2016-07-03T10:09:26Z</time>
      </trkpt>
      <trkpt lat="47.79521" lon="6.60249">
        <ele>424.1</ele>
        <time>2016-07-03T10:09:31Z</time>
      </trkpt>
      <trkpt lat="47.79511" lon="6.60247">
        <ele>421.5</ele>
        <time>2016-07-03T10:09:34Z</time>
      </trkpt>
      <trkpt lat="47.795" lon="6.60242">
        <ele>418.8</ele>
        <time>2016-07-03T10:09:37Z</time>
      </trkpt>
      <trkpt lat="47.7949" lon="6.60237">
        <ele>415.3</ele>
        <time>2016-07-03T10:09:41Z</time>
      </trkpt>
      <trkpt lat="47.7948" lon="6.60227">
        <ele>413.1</ele>
        <time>2016-07-03T10:09:45Z</time>
      </trkpt>
      <trkpt lat="47.79472" lon="6.60217">
        <ele>413.2</ele>
        <time>2016-07-03T10:09:50Z</time>
      </trkpt>
      <trkpt lat="47.79463" lon="6.60203">
        <ele>410.6</ele>
        <time>2016-07-03T10:09:55Z</time>
      </trkpt>
      <trkpt lat="47.79455" lon="6.60194">
        <ele>409.8</ele>
        <time>2016-07-03T10:09:58Z</time>
      </trkpt>
      <trkpt lat="47.79447" lon="6.6018">
        <ele>411.5</ele>
        <time>2016-07-03T10:10:02Z</time>
      </trkpt>
      <trkpt lat="47.79439" lon="6.60168">
        <ele>413.6</ele>
        <time>2016-07-03T10:10:06Z</time>
      </trkpt>
      <trkpt lat="47.79432" lon="6.60155">
        <ele>414.6</ele>
        <time>2016-07-03T10:10:09Z</time>
      </trkpt>
      <trkpt lat="47.79424" lon="6.60144">
        <ele>414.5</ele>
        <time>2016-07-03T10:10:11Z</time>
      </trkpt>
      <trkpt lat="47.79418" lon="6.60134">
        <ele>417.7</ele>
        <time>2016-07-03T10:10:13Z</time>
      </trkpt>
      <trkpt lat="47.79408" lon="6.60122">
        <ele>424.2</ele>
        <time>2016-07-03T10:10:16Z</time>
      </trkpt>
      <trkpt lat="47.79398" lon="6.60115">
        <ele>421.9</ele>
        <time>2016-07-03T10:10:19Z</time>
      </trkpt>
      <trkpt lat="47.79387" lon="6.60111">
        <ele>426.2</ele>
        <time>2016-07-03T10:10:22Z</time>
      </trkpt>
      <trkpt lat="47.79376" lon="6.60107">
        <ele>427</ele>
        <time>2016-07-03T10:10:25Z</time>
      </trkpt>
      <trkpt lat="47.79366" lon="6.60104">
        <ele>427.5</ele>
        <time>2016-07-03T10:10:29Z</time>
      </trkpt>
      <trkpt lat="47.79355" lon="6.60102">
        <ele>430.7</ele>
        <time>2016-07-03T10:10:33Z</time>
      </trkpt>
      <trkpt lat="47.79344" lon="6.601">
        <ele>429.3</ele>
        <time>2016-07-03T10:10:37Z</time>
      </trkpt>
      <trkpt lat="47.79334" lon="6.60093">
        <ele>426.6</ele>
        <time>2016-07-03T10:10:40Z</time>
      </trkpt>
      <trkpt lat="47.79326" lon="6.60078">
        <ele>424.7</ele>
        <time>2016-07-03T10:10:43Z</time>
      </trkpt>
      <trkpt lat="47.7932" lon="6.60057">
        <ele>418.4</ele>
        <time>2016-07-03T10:10:46Z</time>
      </trkpt>
      <trkpt lat="47.79313" lon="6.60049">
        <ele>422</ele>
        <time>2016-07-03T10:10:48Z</time>
      </trkpt>
      <trkpt lat="47.79303" lon="6.60042">
        <ele>420.6</ele>
        <time>2016-07-03T10:10:51Z</time>
      </trkpt>
      <trkpt lat="47.79293" lon="6.60038">
        <ele>419.9</ele>
        <time>2016-07-03T10:10:54Z</time>
      </trkpt>
      <trkpt lat="47.79282" lon="6.60033">
        <ele>415.9</ele>
        <time>2016-07-03T10:10:58Z</time>
      </trkpt>
      <trkpt lat="47.79272" lon="6.60025">
        <ele>413.3</ele>
        <time>2016-07-03T10:11:01Z</time>
      </trkpt>
      <trkpt lat="47.79266" lon="6.60015">
        <ele>411.6</ele>
        <time>2016-07-03T10:11:03Z</time>
      </trkpt>
      <trkpt lat="47.7926" lon="6.6">
        <ele>416.5</ele>
        <time>2016-07-03T10:11:06Z</time>
      </trkpt>
      <trkpt lat="47.79256" lon="6.59987">
        <ele>415.4</ele>
        <time>2016-07-03T10:11:08Z</time>
      </trkpt>
      <trkpt lat="47.79253" lon="6.59972">
        <ele>413.3</ele>
        <time>2016-07-03T10:11:11Z</time>
      </trkpt>
      <trkpt lat="47.79248" lon="6.59957">
        <ele>415.3</ele>
        <time>2016-07-03T10:11:14Z</time>
      </trkpt>
      <trkpt lat="47.79243" lon="6.59945">
        <ele>416</ele>
        <time>2016-07-03T10:11:16Z</time>
      </trkpt>
      <trkpt lat="47.79237" lon="6.59931">
        <ele>423.6</ele>
        <time>2016-07-03T10:11:20Z</time>
      </trkpt>
      <trkpt lat="47.79238" lon="6.59917">
        <ele>425.7</ele>
        <time>2016-07-03T10:11:23Z</time>
      </trkpt>
      <trkpt lat="47.79235" lon="6.59899">
        <ele>424.5</ele>
        <time>2016-07-03T10:11:26Z</time>
      </trkpt>
      <trkpt lat="47.79232" lon="6.59884">
        <ele>427.9</ele>
        <time>2016-07-03T10:11:29Z</time>
      </trkpt>
      <trkpt lat="47.79227" lon="6.59865">
        <ele>425.9</ele>
        <time>2016-07-03T10:11:32Z</time>
      </trkpt>
      <trkpt lat="47.7922" lon="6.59849">
        <ele>427.6</ele>
        <time>2016-07-03T10:11:35Z</time>
      </trkpt>
      <trkpt lat="47.79214" lon="6.59836">
        <ele>435.2</ele>
        <time>2016-07-03T10:11:38Z</time>
      </trkpt>
      <trkpt lat="47.79205" lon="6.59823">
        <ele>438.6</ele>
        <time>2016-07-03T10:11:41Z</time>
      </trkpt>
      <trkpt lat="47.79195" lon="6.59806">
        <ele>439</ele>
        <time>2016-07-03T10:11:44Z</time>
      </trkpt>
      <trkpt lat="47.79187" lon="6.59798">
        <ele>439.5</ele>
        <time>2016-07-03T10:11:46Z</time>
      </trkpt>
      <trkpt lat="47.79181" lon="6.59779">
        <ele>436.4</ele>
        <time>2016-07-03T10:11:49Z</time>
      </trkpt>
      <trkpt lat="47.79175" lon="6.59768">
        <ele>428.7</ele>
        <time>2016-07-03T10:11:51Z</time>
      </trkpt>
      <trkpt lat="47.79167" lon="6.59759">
        <ele>429.7</ele>
        <time>2016-07-03T10:11:53Z</time>
      </trkpt>
      <trkpt lat="47.79156" lon="6.5975">
        <ele>432.3</ele>
        <time>2016-07-03T10:11:55Z</time>
      </trkpt>
      <trkpt lat="47.79146" lon="6.5974">
        <ele>433.7</ele>
        <time>2016-07-03T10:11:57Z</time>
      </trkpt>
      <trkpt lat="47.79134" lon="6.59735">
        <ele>430.8</ele>
        <time>2016-07-03T10:12:00Z</time>
      </trkpt>
      <trkpt lat="47.79121" lon="6.59729">
        <ele>429.1</ele>
        <time>2016-07-03T10:12:03Z</time>
      </trkpt>
      <trkpt lat="47.7911" lon="6.59723">
        <ele>427.6</ele>
        <time>2016-07-03T10:12:05Z</time>
      </trkpt>
      <trkpt lat="47.79101" lon="6.59716">
        <ele>426.6</ele>
        <time>2016-07-03T10:12:07Z</time>
      </trkpt>
      <trkpt lat="47.79091" lon="6.59705">
        <ele>428.3</ele>
        <time>2016-07-03T10:12:10Z</time>
      </trkpt>
      <trkpt lat="47.79084" lon="6.59686">
        <ele>423</ele>
        <time>2016-07-03T10:12:13Z</time>
      </trkpt>
      <trkpt lat="47.79082" lon="6.5967">
        <ele>421.2</ele>
        <time>2016-07-03T10:12:16Z</time>
      </trkpt>
      <trkpt lat="47.79082" lon="6.59652">
        <ele>420.5</ele>
        <time>2016-07-03T10:12:19Z</time>
      </trkpt>
      <trkpt lat="47.79083" lon="6.59634">
        <ele>420.8</ele>
        <time>2016-07-03T10:12:22Z</time>
      </trkpt>
      <trkpt lat="47.79086" lon="6.59618">
        <ele>417.7</ele>
        <time>2016-07-03T10:12:25Z</time>
      </trkpt>
      <trkpt lat="47.7909" lon="6.59597">
        <ele>417.2</ele>
        <time>2016-07-03T10:12:28Z</time>
      </trkpt>
      <trkpt lat="47.79099" lon="6.59582">
        <ele>418.5</ele>
        <time>2016-07-03T10:12:31Z</time>
      </trkpt>
      <trkpt lat="47.79104" lon="6.59568">
        <ele>420.1</ele>
        <time>2016-07-03T10:12:33Z</time>
      </trkpt>
      <trkpt lat="47.7911" lon="6.59556">
        <ele>423.6</ele>
        <time>2016-07-03T10:12:35Z</time>
      </trkpt>
      <trkpt lat="47.79112" lon="6.59539">
        <ele>426.7</ele>
        <time>2016-07-03T10:12:38Z</time>
      </trkpt>
      <trkpt lat="47.79108" lon="6.59517">
        <ele>427.9</ele>
        <time>2016-07-03T10:12:41Z</time>
      </trkpt>
      <trkpt lat="47.79108" lon="6.59503">
        <ele>425.8</ele>
        <time>2016-07-03T10:12:43Z</time>
      </trkpt>
      <trkpt lat="47.79107" lon="6.59489">
        <ele>427.2</ele>
        <time>2016-07-03T10:12:45Z</time>
      </trkpt>
      <trkpt lat="47.79104" lon="6.59473">
        <ele>431.4</ele>
        <time>2016-07-03T10:12:47Z</time>
      </trkpt>
      <trkpt lat="47.79097" lon="6.5946">
        <ele>430.4</ele>
        <time>2016-07-03T10:12:49Z</time>
      </trkpt>
      <trkpt lat="47.7909" lon="6.59445">
        <ele>430.7</ele>
        <time>2016-07-03T10:12:51Z</time>
      </trkpt>
      <trkpt lat="47.79084" lon="6.5943">
        <ele>433.6</ele>
        <time>2016-07-03T10:12:53Z</time>
      </trkpt>
      <trkpt lat="47.7908" lon="6.59416">
        <ele>435.2</ele>
        <time>2016-07-03T10:12:55Z</time>
      </trkpt>
      <trkpt lat="47.79079" lon="6.59395">
        <ele>430.1</ele>
        <time>2016-07-03T10:12:58Z</time>
      </trkpt>
      <trkpt lat="47.79077" lon="6.59379">
        <ele>428</ele>
        <time>2016-07-03T10:13:00Z</time>
      </trkpt>
      <trkpt lat="47.79079" lon="6.59364">
        <ele>426.8</ele>
        <time>2016-07-03T10:13:02Z</time>
      </trkpt>
      <trkpt lat="47.79084" lon="6.59348">
        <ele>425.8</ele>
        <time>2016-07-03T10:13:04Z</time>
      </trkpt>
      <trkpt lat="47.79088" lon="6.59331">
        <ele>422.9</ele>
        <time>2016-07-03T10:13:06Z</time>
      </trkpt>
      <trkpt lat="47.79094" lon="6.59319">
        <ele>422.3</ele>
        <time>2016-07-03T10:13:08Z</time>
      </trkpt>
      <trkpt lat="47.79097" lon="6.59304">
        <ele>423.9</ele>
        <time>2016-07-03T10:13:10Z</time>
      </trkpt>
      <trkpt lat="47.79101" lon="6.59289">
        <ele>424.6</ele>
        <time>2016-07-03T10:13:12Z</time>
      </trkpt>
      <trkpt lat="47.79104" lon="6.59275">
        <ele>425.1</ele>
        <time>2016-07-03T10:13:14Z</time>
      </trkpt>
      <trkpt lat="47.79107" lon="6.59257">
        <ele>424.9</ele>
        <time>2016-07-03T10:13:16Z</time>
      </trkpt>
      <trkpt lat="47.79111" lon="6.59243">
        <ele>426.2</ele>
        <time>2016-07-03T10:13:18Z</time>
      </trkpt>
      <trkpt lat="47.79115" lon="6.5923">
        <ele>423.4</ele>
        <time>2016-07-03T10:13:20Z</time>
      </trkpt>
      <trkpt lat="47.79117" lon="6.59208">
        <ele>423.4</ele>
        <time>2016-07-03T10:13:22Z</time>
      </trkpt>
      <trkpt lat="47.79119" lon="6.59187">
        <ele>425.6</ele>
        <time>2016-07-03T10:13:24Z</time>
      </trkpt>
      <trkpt lat="47.79122" lon="6.59169">
        <ele>425.6</ele>
        <time>2016-07-03T10:13:26Z</time>
      </trkpt>
      <trkpt lat="47.79124" lon="6.59152">
        <ele>423.3</ele>
        <time>2016-07-03T10:13:28Z</time>
      </trkpt>
      <trkpt lat="47.79122" lon="6.59133">
        <ele>423.9</ele>
        <time>2016-07-03T10:13:30Z</time>
      </trkpt>
      <trkpt lat="47.79115" lon="6.59116">
        <ele>423.5</ele>
        <time>2016-07-03T10:13:32Z</time>
      </trkpt>
      <trkpt lat="47.79104" lon="6.59106">
        <ele>425</ele>
        <time>2016-07-03T10:13:34Z</time>
      </trkpt>
      <trkpt lat="47.79097" lon="6.59094">
        <ele>424.9</ele>
        <time>2016-07-03T10:13:36Z</time>
      </trkpt>
      <trkpt lat="47.79096" lon="6.59081">
        <ele>425.6</ele>
        <time>2016-07-03T10:13:38Z</time>
      </trkpt>
      <trkpt lat="47.791" lon="6.59063">
        <ele>426.2</ele>
        <time>2016-07-03T10:13:41Z</time>
      </trkpt>
      <trkpt lat="47.79104" lon="6.59047">
        <ele>429.3</ele>
        <time>2016-07-03T10:13:45Z</time>
      </trkpt>
      <trkpt lat="47.79108" lon="6.59034">
        <ele>430.1</ele>
        <time>2016-07-03T10:13:49Z</time>
      </trkpt>
      <trkpt lat="47.79114" lon="6.59019">
        <ele>430.6</ele>
        <time>2016-07-03T10:13:53Z</time>
      </trkpt>
      <trkpt lat="47.79121" lon="6.59008">
        <ele>431.3</ele>
        <time>2016-07-03T10:13:57Z</time>
      </trkpt>
      <trkpt lat="47.79127" lon="6.58996">
        <ele>432.9</ele>
        <time>2016-07-03T10:14:00Z</time>
      </trkpt>
      <trkpt lat="47.79131" lon="6.58981">
        <ele>433.3</ele>
        <time>2016-07-03T10:14:03Z</time>
      </trkpt>
      <trkpt lat="47.7913" lon="6.58964">
        <ele>431.2</ele>
        <time>2016-07-03T10:14:06Z</time>
      </trkpt>
      <trkpt lat="47.79128" lon="6.58948">
        <ele>429.7</ele>
        <time>2016-07-03T10:14:09Z</time>
      </trkpt>
      <trkpt lat="47.79125" lon="6.58931">
        <ele>429.5</ele>
        <time>2016-07-03T10:14:12Z</time>
      </trkpt>
      <trkpt lat="47.79122" lon="6.58916">
        <ele>429.4</ele>
        <time>2016-07-03T10:14:15Z</time>
      </trkpt>
      <trkpt lat="47.7912" lon="6.58901">
        <ele>429.2</ele>
        <time>2016-07-03T10:14:18Z</time>
      </trkpt>
      <trkpt lat="47.79121" lon="6.58884">
        <ele>429.2</ele>
        <time>2016-07-03T10:14:22Z</time>
      </trkpt>
      <trkpt lat="47.79122" lon="6.58868">
        <ele>430.4</ele>
        <time>2016-07-03T10:14:26Z</time>
      </trkpt>
      <trkpt lat="47.79122" lon="6.58852">
        <ele>430.1</ele>
        <time>2016-07-03T10:14:30Z</time>
      </trkpt>
      <trkpt lat="47.79124" lon="6.58838">
        <ele>429.5</ele>
        <time>2016-07-03T10:14:34Z</time>
      </trkpt>
      <trkpt lat="47.79124" lon="6.58822">
        <ele>432.3</ele>
        <time>2016-07-03T10:14:38Z</time>
      </trkpt>
      <trkpt lat="47.79132" lon="6.58811">
        <ele>436.5</ele>
        <time>2016-07-03T10:14:43Z</time>
      </trkpt>
      <trkpt lat="47.79141" lon="6.58814">
        <ele>437.2</ele>
        <time>2016-07-03T10:14:47Z</time>
      </trkpt>
      <trkpt lat="47.79151" lon="6.58819">
        <ele>437</ele>
        <time>2016-07-03T10:14:51Z</time>
      </trkpt>
      <trkpt lat="47.79162" lon="6.58826">
        <ele>436.6</ele>
        <time>2016-07-03T10:14:55Z</time>
      </trkpt>
      <trkpt lat="47.7917" lon="6.58831">
        <ele>436.3</ele>
        <time>2016-07-03T10:14:58Z</time>
      </trkpt>
      <trkpt lat="47.79181" lon="6.58838">
        <ele>436.6</ele>
        <time>2016-07-03T10:15:02Z</time>
      </trkpt>
      <trkpt lat="47.7919" lon="6.58842">
        <ele>436.7</ele>
        <time>2016-07-03T10:15:05Z</time>
      </trkpt>
      <trkpt lat="47.79198" lon="6.58847">
        <ele>436.9</ele>
        <time>2016-07-03T10:15:08Z</time>
      </trkpt>
      <trkpt lat="47.79208" lon="6.58852">
        <ele>437.1</ele>
        <time>2016-07-03T10:15:11Z</time>
      </trkpt>
      <trkpt lat="47.79217" lon="6.58857">
        <ele>437.6</ele>
        <time>2016-07-03T10:15:14Z</time>
      </trkpt>
      <trkpt lat="47.79226" lon="6.58863">
        <ele>438.3</ele>
        <time>2016-07-03T10:15:17Z</time>
      </trkpt>
      <trkpt lat="47.79237" lon="6.58868">
        <ele>438.1</ele>
        <time>2016-07-03T10:15:20Z</time>
      </trkpt>
      <trkpt lat="47.79247" lon="6.58875">
        <ele>437.4</ele>
        <time>2016-07-03T10:15:23Z</time>
      </trkpt>
      <trkpt lat="47.79257" lon="6.5888">
        <ele>437.2</ele>
        <time>2016-07-03T10:15:26Z</time>
      </trkpt>
      <trkpt lat="47.79267" lon="6.58887">
        <ele>437</ele>
        <time>2016-07-03T10:15:29Z</time>
      </trkpt>
      <trkpt lat="47.79276" lon="6.58893">
        <ele>437.5</ele>
        <time>2016-07-03T10:15:32Z</time>
      </trkpt>
      <trkpt lat="47.79285" lon="6.58899">
        <ele>437.9</ele>
        <time>2016-07-03T10:15:35Z</time>
      </trkpt>
      <trkpt lat="47.79294" lon="6.58902">
        <ele>439.2</ele>
        <time>2016-07-03T10:15:39Z</time>
      </trkpt>
      <trkpt lat="47.79299" lon="6.58889">
        <ele>441.6</ele>
        <time>2016-07-03T10:15:43Z</time>
      </trkpt>
      <trkpt lat="47.79303" lon="6.58873">
        <ele>444.5</ele>
        <time>2016-07-03T10:15:47Z</time>
      </trkpt>
      <trkpt lat="47.79306" lon="6.58857">
        <ele>446.5</ele>
        <time>2016-07-03T10:15:51Z</time>
      </trkpt>
      <trkpt lat="47.79308" lon="6.58841">
        <ele>447.5</ele>
        <time>2016-07-03T10:15:55Z</time>
      </trkpt>
      <trkpt lat="47.7931" lon="6.58826">
        <ele>447.5</ele>
        <time>2016-07-03T10:15:59Z</time>
      </trkpt>
      <trkpt lat="47.79313" lon="6.58811">
        <ele>448.4</ele>
        <time>2016-07-03T10:16:03Z</time>
      </trkpt>
      <trkpt lat="47.79315" lon="6.58798">
        <ele>450.1</ele>
        <time>2016-07-03T10:16:07Z</time>
      </trkpt>
      <trkpt lat="47.79318" lon="6.58784">
        <ele>450.5</ele>
        <time>2016-07-03T10:16:11Z</time>
      </trkpt>
      <trkpt lat="47.79321" lon="6.58769">
        <ele>450.5</ele>
        <time>2016-07-03T10:16:15Z</time>
      </trkpt>
      <trkpt lat="47.79322" lon="6.58755">
        <ele>450.9</ele>
        <time>2016-07-03T10:16:19Z</time>
      </trkpt>
      <trkpt lat="47.79322" lon="6.58742">
        <ele>450.6</ele>
        <time>2016-07-03T10:16:24Z</time>
      </trkpt>
      <trkpt lat="47.79321" lon="6.58727">
        <ele>451.5</ele>
        <time>2016-07-03T10:16:32Z</time>
      </trkpt>
      <trkpt lat="47.79328" lon="6.58714">
        <ele>452.9</ele>
        <time>2016-07-03T10:16:36Z</time>
      </trkpt>
      <trkpt lat="47.79328" lon="6.58698">
        <ele>452.9</ele>
        <time>2016-07-03T10:16:41Z</time>
      </trkpt>
      <trkpt lat="47.79324" lon="6.58681">
        <ele>450.8</ele>
        <time>2016-07-03T10:16:45Z</time>
      </trkpt>
      <trkpt lat="47.79325" lon="6.58664">
        <ele>449.7</ele>
        <time>2016-07-03T10:16:49Z</time>
      </trkpt>
      <trkpt lat="47.79329" lon="6.58649">
        <ele>451</ele>
        <time>2016-07-03T10:16:52Z</time>
      </trkpt>
      <trkpt lat="47.79333" lon="6.58637">
        <ele>454.3</ele>
        <time>2016-07-03T10:16:55Z</time>
      </trkpt>
      <trkpt lat="47.79339" lon="6.58622">
        <ele>451.8</ele>
        <time>2016-07-03T10:16:58Z</time>
      </trkpt>
      <trkpt lat="47.79345" lon="6.58608">
        <ele>449</ele>
        <time>2016-07-03T10:17:00Z</time>
      </trkpt>
      <trkpt lat="47.79351" lon="6.58596">
        <ele>449.9</ele>
        <time>2016-07-03T10:17:02Z</time>
      </trkpt>
      <trkpt lat="47.79357" lon="6.58584">
        <ele>452</ele>
        <time>2016-07-03T10:17:04Z</time>
      </trkpt>
      <trkpt lat="47.79364" lon="6.58571">
        <ele>452.1</ele>
        <time>2016-07-03T10:17:06Z</time>
      </trkpt>
      <trkpt lat="47.79375" lon="6.58558">
        <ele>450.7</ele>
        <time>2016-07-03T10:17:09Z</time>
      </trkpt>
      <trkpt lat="47.79388" lon="6.58546">
        <ele>448.8</ele>
        <time>2016-07-03T10:17:11Z</time>
      </trkpt>
      <trkpt lat="47.79399" lon="6.58533">
        <ele>447.4</ele>
        <time>2016-07-03T10:17:13Z</time>
      </trkpt>
      <trkpt lat="47.79407" lon="6.58523">
        <ele>448.3</ele>
        <time>2016-07-03T10:17:15Z</time>
      </trkpt>
      <trkpt lat="47.79417" lon="6.58515">
        <ele>448.9</ele>
        <time>2016-07-03T10:17:17Z</time>
      </trkpt>
      <trkpt lat="47.79425" lon="6.58506">
        <ele>449.7</ele>
        <time>2016-07-03T10:17:19Z</time>
      </trkpt>
      <trkpt lat="47.7943" lon="6.58494">
        <ele>448.5</ele>
        <time>2016-07-03T10:17:22Z</time>
      </trkpt>
      <trkpt lat="47.79434" lon="6.5848">
        <ele>445.2</ele>
        <time>2016-07-03T10:17:24Z</time>
      </trkpt>
      <trkpt lat="47.79436" lon="6.58463">
        <ele>442.4</ele>
        <time>2016-07-03T10:17:26Z</time>
      </trkpt>
      <trkpt lat="47.79442" lon="6.5845">
        <ele>442.2</ele>
        <time>2016-07-03T10:17:28Z</time>
      </trkpt>
      <trkpt lat="47.79448" lon="6.58434">
        <ele>436.8</ele>
        <time>2016-07-03T10:17:31Z</time>
      </trkpt>
      <trkpt lat="47.79447" lon="6.5842">
        <ele>431.5</ele>
        <time>2016-07-03T10:17:33Z</time>
      </trkpt>
      <trkpt lat="47.79442" lon="6.58406">
        <ele>430.7</ele>
        <time>2016-07-03T10:17:35Z</time>
      </trkpt>
      <trkpt lat="47.79435" lon="6.58392">
        <ele>428.2</ele>
        <time>2016-07-03T10:17:37Z</time>
      </trkpt>
      <trkpt lat="47.7943" lon="6.58381">
        <ele>428.7</ele>
        <time>2016-07-03T10:17:39Z</time>
      </trkpt>
      <trkpt lat="47.79426" lon="6.58367">
        <ele>428.3</ele>
        <time>2016-07-03T10:17:41Z</time>
      </trkpt>
      <trkpt lat="47.79423" lon="6.58353">
        <ele>430.7</ele>
        <time>2016-07-03T10:17:43Z</time>
      </trkpt>
      <trkpt lat="47.7942" lon="6.58333">
        <ele>431.7</ele>
        <time>2016-07-03T10:17:46Z</time>
      </trkpt>
      <trkpt lat="47.79417" lon="6.58314">
        <ele>431.9</ele>
        <time>2016-07-03T10:17:50Z</time>
      </trkpt>
      <trkpt lat="47.79411" lon="6.58303">
        <ele>436</ele>
        <time>2016-07-03T10:17:54Z</time>
      </trkpt>
      <trkpt lat="47.79401" lon="6.58294">
        <ele>435.5</ele>
        <time>2016-07-03T10:17:57Z</time>
      </trkpt>
      <trkpt lat="47.79392" lon="6.58285">
        <ele>437.2</ele>
        <time>2016-07-03T10:18:00Z</time>
      </trkpt>
      <trkpt lat="47.79385" lon="6.58275">
        <ele>438.7</ele>
        <time>2016-07-03T10:18:04Z</time>
      </trkpt>
      <trkpt lat="47.79378" lon="6.58263">
        <ele>435.4</ele>
        <time>2016-07-03T10:18:08Z</time>
      </trkpt>
      <trkpt lat="47.79372" lon="6.58253">
        <ele>432.2</ele>
        <time>2016-07-03T10:18:11Z</time>
      </trkpt>
      <trkpt lat="47.79365" lon="6.58242">
        <ele>429.7</ele>
        <time>2016-07-03T10:18:13Z</time>
      </trkpt>
      <trkpt lat="47.79358" lon="6.58233">
        <ele>427.9</ele>
        <time>2016-07-03T10:18:15Z</time>
      </trkpt>
      <trkpt lat="47.7935" lon="6.58225">
        <ele>429.1</ele>
        <time>2016-07-03T10:18:17Z</time>
      </trkpt>
      <trkpt lat="47.79342" lon="6.58218">
        <ele>429.8</ele>
        <time>2016-07-03T10:18:19Z</time>
      </trkpt>
      <trkpt lat="47.79333" lon="6.58213">
        <ele>429.5</ele>
        <time>2016-07-03T10:18:21Z</time>
      </trkpt>
      <trkpt lat="47.79322" lon="6.58203">
        <ele>428.9</ele>
        <time>2016-07-03T10:18:24Z</time>
      </trkpt>
      <trkpt lat="47.79315" lon="6.58194">
        <ele>429.7</ele>
        <time>2016-07-03T10:18:26Z</time>
      </trkpt>
      <trkpt lat="47.79308" lon="6.58182">
        <ele>430</ele>
        <time>2016-07-03T10:18:28Z</time>
      </trkpt>
      <trkpt lat="47.79301" lon="6.5817">
        <ele>430.7</ele>
        <time>2016-07-03T10:18:30Z</time>
      </trkpt>
      <trkpt lat="47.79293" lon="6.58158">
        <ele>430.8</ele>
        <time>2016-07-03T10:18:32Z</time>
      </trkpt>
      <trkpt lat="47.79286" lon="6.58146">
        <ele>428.5</ele>
        <time>2016-07-03T10:18:34Z</time>
      </trkpt>
      <trkpt lat="47.79279" lon="6.58133">
        <ele>425.8</ele>
        <time>2016-07-03T10:18:36Z</time>
      </trkpt>
      <trkpt lat="47.79273" lon="6.5812">
        <ele>424.3</ele>
        <time>2016-07-03T10:18:38Z</time>
      </trkpt>
      <trkpt lat="47.7927" lon="6.58105">
        <ele>422.9</ele>
        <time>2016-07-03T10:18:40Z</time>
      </trkpt>
      <trkpt lat="47.79269" lon="6.5809">
        <ele>422.2</ele>
        <time>2016-07-03T10:18:42Z</time>
      </trkpt>
      <trkpt lat="47.79271" lon="6.58076">
        <ele>422.2</ele>
        <time>2016-07-03T10:18:44Z</time>
      </trkpt>
      <trkpt lat="47.79271" lon="6.58059">
        <ele>420</ele>
        <time>2016-07-03T10:18:46Z</time>
      </trkpt>
      <trkpt lat="47.79266" lon="6.58036">
        <ele>415.5</ele>
        <time>2016-07-03T10:18:48Z</time>
      </trkpt>
      <trkpt lat="47.79261" lon="6.58023">
        <ele>415.5</ele>
        <time>2016-07-03T10:18:49Z</time>
      </trkpt>
      <trkpt lat="47.79251" lon="6.58008">
        <ele>415.5</ele>
        <time>2016-07-03T10:18:51Z</time>
      </trkpt>
      <trkpt lat="47.79242" lon="6.57997">
        <ele>411.9</ele>
        <time>2016-07-03T10:18:53Z</time>
      </trkpt>
      <trkpt lat="47.7923" lon="6.57993">
        <ele>415</ele>
        <time>2016-07-03T10:18:56Z</time>
      </trkpt>
      <trkpt lat="47.7922" lon="6.57996">
        <ele>417.4</ele>
        <time>2016-07-03T10:18:59Z</time>
      </trkpt>
      <trkpt lat="47.79212" lon="6.58008">
        <ele>421.7</ele>
        <time>2016-07-03T10:19:03Z</time>
      </trkpt>
      <trkpt lat="47.79207" lon="6.5802">
        <ele>414.3</ele>
        <time>2016-07-03T10:19:06Z</time>
      </trkpt>
      <trkpt lat="47.79199" lon="6.58027">
        <ele>413.7</ele>
        <time>2016-07-03T10:19:09Z</time>
      </trkpt>
      <trkpt lat="47.79186" lon="6.58027">
        <ele>415</ele>
        <time>2016-07-03T10:19:12Z</time>
      </trkpt>
      <trkpt lat="47.79173" lon="6.58023">
        <ele>408.7</ele>
        <time>2016-07-03T10:19:14Z</time>
      </trkpt>
      <trkpt lat="47.79162" lon="6.58016">
        <ele>408.1</ele>
        <time>2016-07-03T10:19:16Z</time>
      </trkpt>
      <trkpt lat="47.79154" lon="6.58008">
        <ele>405.9</ele>
        <time>2016-07-03T10:19:18Z</time>
      </trkpt>
      <trkpt lat="47.79147" lon="6.57991">
        <ele>401</ele>
        <time>2016-07-03T10:19:21Z</time>
      </trkpt>
      <trkpt lat="47.79141" lon="6.57975">
        <ele>402.5</ele>
        <time>2016-07-03T10:19:23Z</time>
      </trkpt>
      <trkpt lat="47.79134" lon="6.5796">
        <ele>401.3</ele>
        <time>2016-07-03T10:19:25Z</time>
      </trkpt>
      <trkpt lat="47.79126" lon="6.57949">
        <ele>399.8</ele>
        <time>2016-07-03T10:19:27Z</time>
      </trkpt>
      <trkpt lat="47.79117" lon="6.57929">
        <ele>396.2</ele>
        <time>2016-07-03T10:19:29Z</time>
      </trkpt>
      <trkpt lat="47.79107" lon="6.57908">
        <ele>396.6</ele>
        <time>2016-07-03T10:19:31Z</time>
      </trkpt>
      <trkpt lat="47.79101" lon="6.57885">
        <ele>397.5</ele>
        <time>2016-07-03T10:19:33Z</time>
      </trkpt>
      <trkpt lat="47.79095" lon="6.57874">
        <ele>401.2</ele>
        <time>2016-07-03T10:19:34Z</time>
      </trkpt>
      <trkpt lat="47.79085" lon="6.57859">
        <ele>407.8</ele>
        <time>2016-07-03T10:19:36Z</time>
      </trkpt>
      <trkpt lat="47.79074" lon="6.57848">
        <ele>408.8</ele>
        <time>2016-07-03T10:19:38Z</time>
      </trkpt>
      <trkpt lat="47.79064" lon="6.57838">
        <ele>411.7</ele>
        <time>2016-07-03T10:19:40Z</time>
      </trkpt>
      <trkpt lat="47.79056" lon="6.5783">
        <ele>411.4</ele>
        <time>2016-07-03T10:19:42Z</time>
      </trkpt>
      <trkpt lat="47.79043" lon="6.57822">
        <ele>410.3</ele>
        <time>2016-07-03T10:19:45Z</time>
      </trkpt>
      <trkpt lat="47.79034" lon="6.57817">
        <ele>409.8</ele>
        <time>2016-07-03T10:19:47Z</time>
      </trkpt>
      <trkpt lat="47.79033" lon="6.57804">
        <ele>408.5</ele>
        <time>2016-07-03T10:19:51Z</time>
      </trkpt>
      <trkpt lat="47.79044" lon="6.57796">
        <ele>408.7</ele>
        <time>2016-07-03T10:19:55Z</time>
      </trkpt>
      <trkpt lat="47.79051" lon="6.57788">
        <ele>410.3</ele>
        <time>2016-07-03T10:19:58Z</time>
      </trkpt>
      <trkpt lat="47.79056" lon="6.57775">
        <ele>412.9</ele>
        <time>2016-07-03T10:20:01Z</time>
      </trkpt>
      <trkpt lat="47.79062" lon="6.57763">
        <ele>411.2</ele>
        <time>2016-07-03T10:20:04Z</time>
      </trkpt>
      <trkpt lat="47.79069" lon="6.57749">
        <ele>408</ele>
        <time>2016-07-03T10:20:07Z</time>
      </trkpt>
      <trkpt lat="47.79071" lon="6.5773">
        <ele>406.6</ele>
        <time>2016-07-03T10:20:10Z</time>
      </trkpt>
      <trkpt lat="47.79068" lon="6.57715">
        <ele>404.7</ele>
        <time>2016-07-03T10:20:13Z</time>
      </trkpt>
      <trkpt lat="47.79065" lon="6.577">
        <ele>405.1</ele>
        <time>2016-07-03T10:20:16Z</time>
      </trkpt>
      <trkpt lat="47.7906" lon="6.57689">
        <ele>405.9</ele>
        <time>2016-07-03T10:20:19Z</time>
      </trkpt>
      <trkpt lat="47.79057" lon="6.57675">
        <ele>408.1</ele>
        <time>2016-07-03T10:20:23Z</time>
      </trkpt>
      <trkpt lat="47.79055" lon="6.57661">
        <ele>408.6</ele>
        <time>2016-07-03T10:20:27Z</time>
      </trkpt>
      <trkpt lat="47.79054" lon="6.57645">
        <ele>410.1</ele>
        <time>2016-07-03T10:20:31Z</time>
      </trkpt>
      <trkpt lat="47.79056" lon="6.57631">
        <ele>410.7</ele>
        <time>2016-07-03T10:20:34Z</time>
      </trkpt>
      <trkpt lat="47.79061" lon="6.57614">
        <ele>410.4</ele>
        <time>2016-07-03T10:20:37Z</time>
      </trkpt>
      <trkpt lat="47.79068" lon="6.57605">
        <ele>411.3</ele>
        <time>2016-07-03T10:20:39Z</time>
      </trkpt>
      <trkpt lat="47.79076" lon="6.57597">
        <ele>411.3</ele>
        <time>2016-07-03T10:20:41Z</time>
      </trkpt>
      <trkpt lat="47.79084" lon="6.57588">
        <ele>411.3</ele>
        <time>2016-07-03T10:20:43Z</time>
      </trkpt>
      <trkpt lat="47.79089" lon="6.57574">
        <ele>410.7</ele>
        <time>2016-07-03T10:20:45Z</time>
      </trkpt>
      <trkpt lat="47.79092" lon="6.57557">
        <ele>410.3</ele>
        <time>2016-07-03T10:20:47Z</time>
      </trkpt>
      <trkpt lat="47.79097" lon="6.57545">
        <ele>410</ele>
        <time>2016-07-03T10:20:49Z</time>
      </trkpt>
      <trkpt lat="47.79101" lon="6.57532">
        <ele>405.7</ele>
        <time>2016-07-03T10:20:51Z</time>
      </trkpt>
      <trkpt lat="47.79105" lon="6.57518">
        <ele>403.8</ele>
        <time>2016-07-03T10:20:53Z</time>
      </trkpt>
      <trkpt lat="47.79109" lon="6.57505">
        <ele>402</ele>
        <time>2016-07-03T10:20:55Z</time>
      </trkpt>
      <trkpt lat="47.79115" lon="6.57491">
        <ele>405.2</ele>
        <time>2016-07-03T10:20:57Z</time>
      </trkpt>
      <trkpt lat="47.7912" lon="6.57477">
        <ele>406</ele>
        <time>2016-07-03T10:20:59Z</time>
      </trkpt>
      <trkpt lat="47.79125" lon="6.57463">
        <ele>407.4</ele>
        <time>2016-07-03T10:21:01Z</time>
      </trkpt>
      <trkpt lat="47.7913" lon="6.5745">
        <ele>408.6</ele>
        <time>2016-07-03T10:21:03Z</time>
      </trkpt>
      <trkpt lat="47.79135" lon="6.57438">
        <ele>409.5</ele>
        <time>2016-07-03T10:21:05Z</time>
      </trkpt>
      <trkpt lat="47.79142" lon="6.5742">
        <ele>408.3</ele>
        <time>2016-07-03T10:21:08Z</time>
      </trkpt>
      <trkpt lat="47.79144" lon="6.57404">
        <ele>406.2</ele>
        <time>2016-07-03T10:21:10Z</time>
      </trkpt>
      <trkpt lat="47.79147" lon="6.57389">
        <ele>407.5</ele>
        <time>2016-07-03T10:21:12Z</time>
      </trkpt>
      <trkpt lat="47.79154" lon="6.57372">
        <ele>408.3</ele>
        <time>2016-07-03T10:21:15Z</time>
      </trkpt>
      <trkpt lat="47.79161" lon="6.57361">
        <ele>410.3</ele>
        <time>2016-07-03T10:21:18Z</time>
      </trkpt>
      <trkpt lat="47.79169" lon="6.57352">
        <ele>411.4</ele>
        <time>2016-07-03T10:21:21Z</time>
      </trkpt>
      <trkpt lat="47.7918" lon="6.57343">
        <ele>413.9</ele>
        <time>2016-07-03T10:21:25Z</time>
      </trkpt>
      <trkpt lat="47.79191" lon="6.57334">
        <ele>413</ele>
        <time>2016-07-03T10:21:28Z</time>
      </trkpt>
      <trkpt lat="47.79201" lon="6.57322">
        <ele>410.1</ele>
        <time>2016-07-03T10:21:31Z</time>
      </trkpt>
      <trkpt lat="47.79207" lon="6.57311">
        <ele>410.2</ele>
        <time>2016-07-03T10:21:33Z</time>
      </trkpt>
      <trkpt lat="47.79212" lon="6.573">
        <ele>410.4</ele>
        <time>2016-07-03T10:21:35Z</time>
      </trkpt>
      <trkpt lat="47.7922" lon="6.57288">
        <ele>409.5</ele>
        <time>2016-07-03T10:21:37Z</time>
      </trkpt>
      <trkpt lat="47.79229" lon="6.57278">
        <ele>406.3</ele>
        <time>2016-07-03T10:21:39Z</time>
      </trkpt>
      <trkpt lat="47.79238" lon="6.5727">
        <ele>405.8</ele>
        <time>2016-07-03T10:21:41Z</time>
      </trkpt>
      <trkpt lat="47.79247" lon="6.57264">
        <ele>405.8</ele>
        <time>2016-07-03T10:21:43Z</time>
      </trkpt>
      <trkpt lat="47.79256" lon="6.57257">
        <ele>405.4</ele>
        <time>2016-07-03T10:21:45Z</time>
      </trkpt>
      <trkpt lat="47.79264" lon="6.57248">
        <ele>405.7</ele>
        <time>2016-07-03T10:21:47Z</time>
      </trkpt>
      <trkpt lat="47.79272" lon="6.57239">
        <ele>405.3</ele>
        <time>2016-07-03T10:21:49Z</time>
      </trkpt>
      <trkpt lat="47.7928" lon="6.57231">
        <ele>404</ele>
        <time>2016-07-03T10:21:51Z</time>
      </trkpt>
      <trkpt lat="47.79289" lon="6.57224">
        <ele>403.7</ele>
        <time>2016-07-03T10:21:53Z</time>
      </trkpt>
      <trkpt lat="47.79298" lon="6.57214">
        <ele>403.3</ele>
        <time>2016-07-03T10:21:55Z</time>
      </trkpt>
      <trkpt lat="47.79306" lon="6.57204">
        <ele>404.8</ele>
        <time>2016-07-03T10:21:57Z</time>
      </trkpt>
      <trkpt lat="47.79313" lon="6.57194">
        <ele>406.3</ele>
        <time>2016-07-03T10:21:59Z</time>
      </trkpt>
      <trkpt lat="47.7932" lon="6.57185">
        <ele>407.5</ele>
        <time>2016-07-03T10:22:01Z</time>
      </trkpt>
      <trkpt lat="47.7933" lon="6.57174">
        <ele>408.6</ele>
        <time>2016-07-03T10:22:04Z</time>
      </trkpt>
      <trkpt lat="47.79338" lon="6.57166">
        <ele>409.4</ele>
        <time>2016-07-03T10:22:07Z</time>
      </trkpt>
      <trkpt lat="47.79348" lon="6.5716">
        <ele>410.9</ele>
        <time>2016-07-03T10:22:12Z</time>
      </trkpt>
      <trkpt lat="47.79358" lon="6.57154">
        <ele>413.1</ele>
        <time>2016-07-03T10:22:17Z</time>
      </trkpt>
      <trkpt lat="47.79367" lon="6.57147">
        <ele>411.8</ele>
        <time>2016-07-03T10:22:20Z</time>
      </trkpt>
      <trkpt lat="47.79378" lon="6.57143">
        <ele>412.4</ele>
        <time>2016-07-03T10:22:23Z</time>
      </trkpt>
      <trkpt lat="47.79387" lon="6.57145">
        <ele>414.2</ele>
        <time>2016-07-03T10:22:26Z</time>
      </trkpt>
      <trkpt lat="47.79399" lon="6.57149">
        <ele>414.1</ele>
        <time>2016-07-03T10:22:29Z</time>
      </trkpt>
      <trkpt lat="47.7941" lon="6.57155">
        <ele>413.5</ele>
        <time>2016-07-03T10:22:32Z</time>
      </trkpt>
      <trkpt lat="47.7942" lon="6.57158">
        <ele>413.6</ele>
        <time>2016-07-03T10:22:36Z</time>
      </trkpt>
      <trkpt lat="47.7943" lon="6.5716">
        <ele>413.9</ele>
        <time>2016-07-03T10:22:41Z</time>
      </trkpt>
      <trkpt lat="47.79442" lon="6.57157">
        <ele>414.8</ele>
        <time>2016-07-03T10:22:46Z</time>
      </trkpt>
      <trkpt lat="47.79451" lon="6.57149">
        <ele>413.8</ele>
        <time>2016-07-03T10:22:50Z</time>
      </trkpt>
      <trkpt lat="47.7946" lon="6.57139">
        <ele>414</ele>
        <time>2016-07-03T10:22:54Z</time>
      </trkpt>
      <trkpt lat="47.79464" lon="6.57127">
        <ele>418.6</ele>
        <time>2016-07-03T10:22:58Z</time>
      </trkpt>
      <trkpt lat="47.79467" lon="6.57112">
        <ele>421.6</ele>
        <time>2016-07-03T10:23:03Z</time>
      </trkpt>
      <trkpt lat="47.79471" lon="6.571">
        <ele>424</ele>
        <time>2016-07-03T10:23:08Z</time>
      </trkpt>
      <trkpt lat="47.79476" lon="6.57087">
        <ele>426.4</ele>
        <time>2016-07-03T10:23:13Z</time>
      </trkpt>
      <trkpt lat="47.79483" lon="6.57077">
        <ele>425.7</ele>
        <time>2016-07-03T10:23:17Z</time>
      </trkpt>
      <trkpt lat="47.7949" lon="6.57069">
        <ele>425.1</ele>
        <time>2016-07-03T10:23:21Z</time>
      </trkpt>
      <trkpt lat="47.79496" lon="6.57058">
        <ele>426.7</ele>
        <time>2016-07-03T10:23:26Z</time>
      </trkpt>
      <trkpt lat="47.79504" lon="6.57049">
        <ele>428.7</ele>
        <time>2016-07-03T10:23:30Z</time>
      </trkpt>
      <trkpt lat="47.79512" lon="6.5704">
        <ele>431.3</ele>
        <time>2016-07-03T10:23:34Z</time>
      </trkpt>
      <trkpt lat="47.7952" lon="6.57031">
        <ele>433.4</ele>
        <time>2016-07-03T10:23:39Z</time>
      </trkpt>
      <trkpt lat="47.79529" lon="6.57026">
        <ele>433.2</ele>
        <time>2016-07-03T10:23:43Z</time>
      </trkpt>
      <trkpt lat="47.7954" lon="6.57022">
        <ele>430.2</ele>
        <time>2016-07-03T10:23:49Z</time>
      </trkpt>
      <trkpt lat="47.79548" lon="6.57015">
        <ele>431.5</ele>
        <time>2016-07-03T10:23:53Z</time>
      </trkpt>
      <trkpt lat="47.79557" lon="6.57007">
        <ele>428.4</ele>
        <time>2016-07-03T10:23:56Z</time>
      </trkpt>
      <trkpt lat="47.79565" lon="6.56996">
        <ele>426.9</ele>
        <time>2016-07-03T10:24:00Z</time>
      </trkpt>
      <trkpt lat="47.79569" lon="6.56983">
        <ele>426.7</ele>
        <time>2016-07-03T10:24:04Z</time>
      </trkpt>
      <trkpt lat="47.79573" lon="6.56967">
        <ele>430.2</ele>
        <time>2016-07-03T10:24:09Z</time>
      </trkpt>
      <trkpt lat="47.79577" lon="6.56952">
        <ele>432.2</ele>
        <time>2016-07-03T10:24:14Z</time>
      </trkpt>
      <trkpt lat="47.79581" lon="6.56937">
        <ele>431.5</ele>
        <time>2016-07-03T10:24:20Z</time>
      </trkpt>
      <trkpt lat="47.79583" lon="6.56922">
        <ele>431.6</ele>
        <time>2016-07-03T10:24:25Z</time>
      </trkpt>
      <trkpt lat="47.79584" lon="6.56909">
        <ele>430.5</ele>
        <time>2016-07-03T10:24:30Z</time>
      </trkpt>
      <trkpt lat="47.79585" lon="6.56894">
        <ele>431.8</ele>
        <time>2016-07-03T10:24:35Z</time>
      </trkpt>
      <trkpt lat="47.79585" lon="6.5688">
        <ele>433.8</ele>
        <time>2016-07-03T10:24:40Z</time>
      </trkpt>
      <trkpt lat="47.79588" lon="6.56866">
        <ele>433.1</ele>
        <time>2016-07-03T10:24:46Z</time>
      </trkpt>
      <trkpt lat="47.79595" lon="6.56855">
        <ele>436</ele>
        <time>2016-07-03T10:24:52Z</time>
      </trkpt>
      <trkpt lat="47.79603" lon="6.56847">
        <ele>440.9</ele>
        <time>2016-07-03T10:24:58Z</time>
      </trkpt>
      <trkpt lat="47.79611" lon="6.56837">
        <ele>439</ele>
        <time>2016-07-03T10:25:02Z</time>
      </trkpt>
      <trkpt lat="47.79619" lon="6.56826">
        <ele>435.2</ele>
        <time>2016-07-03T10:25:07Z</time>
      </trkpt>
      <trkpt lat="47.79624" lon="6.56813">
        <ele>435</ele>
        <time>2016-07-03T10:25:11Z</time>
      </trkpt>
      <trkpt lat="47.79627" lon="6.56801">
        <ele>436.7</ele>
        <time>2016-07-03T10:25:15Z</time>
      </trkpt>
      <trkpt lat="47.7963" lon="6.56787">
        <ele>438.4</ele>
        <time>2016-07-03T10:25:19Z</time>
      </trkpt>
      <trkpt lat="47.79632" lon="6.56771">
        <ele>440.4</ele>
        <time>2016-07-03T10:25:24Z</time>
      </trkpt>
      <trkpt lat="47.79632" lon="6.56756">
        <ele>439.7</ele>
        <time>2016-07-03T10:25:29Z</time>
      </trkpt>
      <trkpt lat="47.79626" lon="6.56744">
        <ele>440.9</ele>
        <time>2016-07-03T10:25:34Z</time>
      </trkpt>
      <trkpt lat="47.79619" lon="6.56736">
        <ele>442.7</ele>
        <time>2016-07-03T10:25:38Z</time>
      </trkpt>
      <trkpt lat="47.79611" lon="6.56728">
        <ele>442.4</ele>
        <time>2016-07-03T10:25:42Z</time>
      </trkpt>
      <trkpt lat="47.79601" lon="6.56723">
        <ele>442.1</ele>
        <time>2016-07-03T10:25:46Z</time>
      </trkpt>
      <trkpt lat="47.79589" lon="6.5672">
        <ele>443.4</ele>
        <time>2016-07-03T10:25:50Z</time>
      </trkpt>
      <trkpt lat="47.79579" lon="6.5672">
        <ele>444.9</ele>
        <time>2016-07-03T10:25:54Z</time>
      </trkpt>
      <trkpt lat="47.79569" lon="6.56721">
        <ele>444.2</ele>
        <time>2016-07-03T10:25:58Z</time>
      </trkpt>
      <trkpt lat="47.79559" lon="6.56722">
        <ele>444.2</ele>
        <time>2016-07-03T10:26:02Z</time>
      </trkpt>
      <trkpt lat="47.79549" lon="6.56722">
        <ele>444.6</ele>
        <time>2016-07-03T10:26:06Z</time>
      </trkpt>
      <trkpt lat="47.79538" lon="6.56722">
        <ele>444.8</ele>
        <time>2016-07-03T10:26:10Z</time>
      </trkpt>
      <trkpt lat="47.79526" lon="6.5672">
        <ele>445</ele>
        <time>2016-07-03T10:26:14Z</time>
      </trkpt>
      <trkpt lat="47.79515" lon="6.56717">
        <ele>445.1</ele>
        <time>2016-07-03T10:26:18Z</time>
      </trkpt>
      <trkpt lat="47.79504" lon="6.56712">
        <ele>445</ele>
        <time>2016-07-03T10:26:22Z</time>
      </trkpt>
      <trkpt lat="47.79495" lon="6.56705">
        <ele>445</ele>
        <time>2016-07-03T10:26:26Z</time>
      </trkpt>
      <trkpt lat="47.79486" lon="6.56697">
        <ele>445.6</ele>
        <time>2016-07-03T10:26:30Z</time>
      </trkpt>
      <trkpt lat="47.79477" lon="6.56687">
        <ele>445.2</ele>
        <time>2016-07-03T10:26:34Z</time>
      </trkpt>
      <trkpt lat="47.7947" lon="6.56677">
        <ele>444.9</ele>
        <time>2016-07-03T10:26:38Z</time>
      </trkpt>
      <trkpt lat="47.79462" lon="6.56667">
        <ele>445.3</ele>
        <time>2016-07-03T10:26:42Z</time>
      </trkpt>
      <trkpt lat="47.79454" lon="6.56657">
        <ele>446.7</ele>
        <time>2016-07-03T10:26:46Z</time>
      </trkpt>
      <trkpt lat="47.79447" lon="6.56647">
        <ele>447.5</ele>
        <time>2016-07-03T10:26:50Z</time>
      </trkpt>
      <trkpt lat="47.79439" lon="6.56636">
        <ele>448.5</ele>
        <time>2016-07-03T10:26:54Z</time>
      </trkpt>
      <trkpt lat="47.79432" lon="6.56626">
        <ele>449.5</ele>
        <time>2016-07-03T10:26:58Z</time>
      </trkpt>
      <trkpt lat="47.79425" lon="6.56614">
        <ele>450.7</ele>
        <time>2016-07-03T10:27:02Z</time>
      </trkpt>
      <trkpt lat="47.79419" lon="6.56602">
        <ele>451.9</ele>
        <time>2016-07-03T10:27:06Z</time>
      </trkpt>
      <trkpt lat="47.79414" lon="6.56587">
        <ele>452.7</ele>
        <time>2016-07-03T10:27:10Z</time>
      </trkpt>
      <trkpt lat="47.79411" lon="6.56572">
        <ele>453.8</ele>
        <time>2016-07-03T10:27:14Z</time>
      </trkpt>
      <trkpt lat="47.79408" lon="6.56557">
        <ele>453.7</ele>
        <time>2016-07-03T10:27:18Z</time>
      </trkpt>
      <trkpt lat="47.79408" lon="6.56541">
        <ele>453.4</ele>
        <time>2016-07-03T10:27:22Z</time>
      </trkpt>
      <trkpt lat="47.7941" lon="6.56524">
        <ele>454.2</ele>
        <time>2016-07-03T10:27:26Z</time>
      </trkpt>
      <trkpt lat="47.79416" lon="6.5651">
        <ele>454.3</ele>
        <time>2016-07-03T10:27:30Z</time>
      </trkpt>
      <trkpt lat="47.79421" lon="6.56499">
        <ele>455</ele>
        <time>2016-07-03T10:27:33Z</time>
      </trkpt>
      <trkpt lat="47.79427" lon="6.56484">
        <ele>455.5</ele>
        <time>2016-07-03T10:27:37Z</time>
      </trkpt>
      <trkpt lat="47.79429" lon="6.56467">
        <ele>456.1</ele>
        <time>2016-07-03T10:27:41Z</time>
      </trkpt>
      <trkpt lat="47.79429" lon="6.56453">
        <ele>456.1</ele>
        <time>2016-07-03T10:27:44Z</time>
      </trkpt>
      <trkpt lat="47.79428" lon="6.56436">
        <ele>455.8</ele>
        <time>2016-07-03T10:27:48Z</time>
      </trkpt>
      <trkpt lat="47.79427" lon="6.56418">
        <ele>456</ele>
        <time>2016-07-03T10:27:52Z</time>
      </trkpt>
      <trkpt lat="47.79419" lon="6.56405">
        <ele>455.2</ele>
        <time>2016-07-03T10:27:56Z</time>
      </trkpt>
      <trkpt lat="47.79411" lon="6.56398">
        <ele>455.1</ele>
        <time>2016-07-03T10:27:59Z</time>
      </trkpt>
      <trkpt lat="47.79403" lon="6.56391">
        <ele>455.8</ele>
        <time>2016-07-03T10:28:02Z</time>
      </trkpt>
      <trkpt lat="47.79396" lon="6.56383">
        <ele>456.1</ele>
        <time>2016-07-03T10:28:05Z</time>
      </trkpt>
      <trkpt lat="47.79389" lon="6.56374">
        <ele>455.9</ele>
        <time>2016-07-03T10:28:08Z</time>
      </trkpt>
      <trkpt lat="47.79381" lon="6.56364">
        <ele>456</ele>
        <time>2016-07-03T10:28:11Z</time>
      </trkpt>
      <trkpt lat="47.79375" lon="6.56354">
        <ele>456</ele>
        <time>2016-07-03T10:28:14Z</time>
      </trkpt>
      <trkpt lat="47.79367" lon="6.56345">
        <ele>456.9</ele>
        <time>2016-07-03T10:28:17Z</time>
      </trkpt>
      <trkpt lat="47.7936" lon="6.56335">
        <ele>457.1</ele>
        <time>2016-07-03T10:28:20Z</time>
      </trkpt>
      <trkpt lat="47.79352" lon="6.56328">
        <ele>458.4</ele>
        <time>2016-07-03T10:28:23Z</time>
      </trkpt>
      <trkpt lat="47.79342" lon="6.56323">
        <ele>459.6</ele>
        <time>2016-07-03T10:28:26Z</time>
      </trkpt>
      <trkpt lat="47.79332" lon="6.56321">
        <ele>461.2</ele>
        <time>2016-07-03T10:28:29Z</time>
      </trkpt>
      <trkpt lat="47.79321" lon="6.56319">
        <ele>461.7</ele>
        <time>2016-07-03T10:28:32Z</time>
      </trkpt>
      <trkpt lat="47.7931" lon="6.56319">
        <ele>462.1</ele>
        <time>2016-07-03T10:28:35Z</time>
      </trkpt>
      <trkpt lat="47.79298" lon="6.56317">
        <ele>463.3</ele>
        <time>2016-07-03T10:28:38Z</time>
      </trkpt>
      <trkpt lat="47.79286" lon="6.56315">
        <ele>463.3</ele>
        <time>2016-07-03T10:28:41Z</time>
      </trkpt>
      <trkpt lat="47.79274" lon="6.56312">
        <ele>463.4</ele>
        <time>2016-07-03T10:28:44Z</time>
      </trkpt>
      <trkpt lat="47.79263" lon="6.56304">
        <ele>462.4</ele>
        <time>2016-07-03T10:28:47Z</time>
      </trkpt>
      <trkpt lat="47.79254" lon="6.56292">
        <ele>461.1</ele>
        <time>2016-07-03T10:28:50Z</time>
      </trkpt>
      <trkpt lat="47.79247" lon="6.56277">
        <ele>460.3</ele>
        <time>2016-07-03T10:28:53Z</time>
      </trkpt>
      <trkpt lat="47.7924" lon="6.56261">
        <ele>460.5</ele>
        <time>2016-07-03T10:28:56Z</time>
      </trkpt>
      <trkpt lat="47.79239" lon="6.56241">
        <ele>460.5</ele>
        <time>2016-07-03T10:28:59Z</time>
      </trkpt>
      <trkpt lat="47.79239" lon="6.56227">
        <ele>460.6</ele>
        <time>2016-07-03T10:29:01Z</time>
      </trkpt>
      <trkpt lat="47.79236" lon="6.56213">
        <ele>460.1</ele>
        <time>2016-07-03T10:29:03Z</time>
      </trkpt>
      <trkpt lat="47.79231" lon="6.562">
        <ele>459.8</ele>
        <time>2016-07-03T10:29:05Z</time>
      </trkpt>
      <trkpt lat="47.79227" lon="6.56187">
        <ele>459.6</ele>
        <time>2016-07-03T10:29:07Z</time>
      </trkpt>
      <trkpt lat="47.79223" lon="6.56173">
        <ele>459.2</ele>
        <time>2016-07-03T10:29:09Z</time>
      </trkpt>
      <trkpt lat="47.79219" lon="6.5616">
        <ele>458.5</ele>
        <time>2016-07-03T10:29:11Z</time>
      </trkpt>
      <trkpt lat="47.79214" lon="6.56146">
        <ele>458.1</ele>
        <time>2016-07-03T10:29:13Z</time>
      </trkpt>
      <trkpt lat="47.79208" lon="6.56134">
        <ele>457.4</ele>
        <time>2016-07-03T10:29:15Z</time>
      </trkpt>
      <trkpt lat="47.79201" lon="6.56121">
        <ele>457.4</ele>
        <time>2016-07-03T10:29:17Z</time>
      </trkpt>
      <trkpt lat="47.79194" lon="6.56111">
        <ele>456.5</ele>
        <time>2016-07-03T10:29:19Z</time>
      </trkpt>
      <trkpt lat="47.79185" lon="6.561">
        <ele>455.4</ele>
        <time>2016-07-03T10:29:21Z</time>
      </trkpt>
      <trkpt lat="47.79176" lon="6.5609">
        <ele>454.7</ele>
        <time>2016-07-03T10:29:23Z</time>
      </trkpt>
      <trkpt lat="47.79166" lon="6.5608">
        <ele>453.9</ele>
        <time>2016-07-03T10:29:25Z</time>
      </trkpt>
      <trkpt lat="47.79157" lon="6.56068">
        <ele>453.1</ele>
        <time>2016-07-03T10:29:27Z</time>
      </trkpt>
      <trkpt lat="47.79149" lon="6.56054">
        <ele>452.9</ele>
        <time>2016-07-03T10:29:29Z</time>
      </trkpt>
      <trkpt lat="47.79139" lon="6.56041">
        <ele>453.7</ele>
        <time>2016-07-03T10:29:31Z</time>
      </trkpt>
      <trkpt lat="47.79131" lon="6.56028">
        <ele>454.1</ele>
        <time>2016-07-03T10:29:33Z</time>
      </trkpt>
      <trkpt lat="47.79123" lon="6.56015">
        <ele>453.5</ele>
        <time>2016-07-03T10:29:35Z</time>
      </trkpt>
      <trkpt lat="47.79116" lon="6.56002">
        <ele>453</ele>
        <time>2016-07-03T10:29:37Z</time>
      </trkpt>
      <trkpt lat="47.79109" lon="6.55989">
        <ele>453.7</ele>
        <time>2016-07-03T10:29:39Z</time>
      </trkpt>
      <trkpt lat="47.79103" lon="6.55976">
        <ele>454.2</ele>
        <time>2016-07-03T10:29:41Z</time>
      </trkpt>
      <trkpt lat="47.79097" lon="6.55961">
        <ele>454.8</ele>
        <time>2016-07-03T10:29:43Z</time>
      </trkpt>
      <trkpt lat="47.79092" lon="6.55947">
        <ele>455.2</ele>
        <time>2016-07-03T10:29:45Z</time>
      </trkpt>
      <trkpt lat="47.79087" lon="6.55932">
        <ele>455.8</ele>
        <time>2016-07-03T10:29:47Z</time>
      </trkpt>
      <trkpt lat="47.79081" lon="6.55919">
        <ele>455.8</ele>
        <time>2016-07-03T10:29:49Z</time>
      </trkpt>
      <trkpt lat="47.79076" lon="6.55906">
        <ele>455.6</ele>
        <time>2016-07-03T10:29:51Z</time>
      </trkpt>
      <trkpt lat="47.7907" lon="6.55893">
        <ele>455.8</ele>
        <time>2016-07-03T10:29:53Z</time>
      </trkpt>
      <trkpt lat="47.79065" lon="6.5588">
        <ele>455.9</ele>
        <time>2016-07-03T10:29:55Z</time>
      </trkpt>
      <trkpt lat="47.79059" lon="6.55868">
        <ele>455.8</ele>
        <time>2016-07-03T10:29:57Z</time>
      </trkpt>
      <trkpt lat="47.79054" lon="6.55856">
        <ele>455.8</ele>
        <time>2016-07-03T10:29:59Z</time>
      </trkpt>
      <trkpt lat="47.79049" lon="6.55845">
        <ele>455.8</ele>
        <time>2016-07-03T10:30:01Z</time>
      </trkpt>
      <trkpt lat="47.79046" lon="6.55826">
        <ele>455.5</ele>
        <time>2016-07-03T10:30:04Z</time>
      </trkpt>
      <trkpt lat="47.79048" lon="6.5581">
        <ele>456.4</ele>
        <time>2016-07-03T10:30:07Z</time>
      </trkpt>
      <trkpt lat="47.79054" lon="6.55798">
        <ele>456.6</ele>
        <time>2016-07-03T10:30:10Z</time>
      </trkpt>
      <trkpt lat="47.79062" lon="6.55789">
        <ele>456.4</ele>
        <time>2016-07-03T10:30:13Z</time>
      </trkpt>
      <trkpt lat="47.79072" lon="6.55779">
        <ele>454.5</ele>
        <time>2016-07-03T10:30:16Z</time>
      </trkpt>
      <trkpt lat="47.79081" lon="6.55766">
        <ele>454.3</ele>
        <time>2016-07-03T10:30:19Z</time>
      </trkpt>
      <trkpt lat="47.7909" lon="6.55756">
        <ele>454.5</ele>
        <time>2016-07-03T10:30:22Z</time>
      </trkpt>
      <trkpt lat="47.79099" lon="6.55745">
        <ele>454.3</ele>
        <time>2016-07-03T10:30:25Z</time>
      </trkpt>
      <trkpt lat="47.79108" lon="6.55735">
        <ele>454.6</ele>
        <time>2016-07-03T10:30:28Z</time>
      </trkpt>
      <trkpt lat="47.79116" lon="6.55725">
        <ele>455.1</ele>
        <time>2016-07-03T10:30:31Z</time>
      </trkpt>
      <trkpt lat="47.79124" lon="6.55716">
        <ele>455.8</ele>
        <time>2016-07-03T10:30:34Z</time>
      </trkpt>
      <trkpt lat="47.79132" lon="6.55706">
        <ele>456.8</ele>
        <time>2016-07-03T10:30:37Z</time>
      </trkpt>
      <trkpt lat="47.7914" lon="6.55695">
        <ele>458</ele>
        <time>2016-07-03T10:30:40Z</time>
      </trkpt>
      <trkpt lat="47.79147" lon="6.55683">
        <ele>460.1</ele>
        <time>2016-07-03T10:30:43Z</time>
      </trkpt>
      <trkpt lat="47.79151" lon="6.55669">
        <ele>461.2</ele>
        <time>2016-07-03T10:30:46Z</time>
      </trkpt>
      <trkpt lat="47.79152" lon="6.55656">
        <ele>461.4</ele>
        <time>2016-07-03T10:30:49Z</time>
      </trkpt>
      <trkpt lat="47.79151" lon="6.55642">
        <ele>460.5</ele>
        <time>2016-07-03T10:30:52Z</time>
      </trkpt>
      <trkpt lat="47.79149" lon="6.55628">
        <ele>460.8</ele>
        <time>2016-07-03T10:30:55Z</time>
      </trkpt>
      <trkpt lat="47.79144" lon="6.55612">
        <ele>463</ele>
        <time>2016-07-03T10:30:59Z</time>
      </trkpt>
      <trkpt lat="47.79139" lon="6.55598">
        <ele>464.7</ele>
        <time>2016-07-03T10:31:03Z</time>
      </trkpt>
      <trkpt lat="47.79135" lon="6.55584">
        <ele>466.2</ele>
        <time>2016-07-03T10:31:07Z</time>
      </trkpt>
      <trkpt lat="47.79133" lon="6.55571">
        <ele>467</ele>
        <time>2016-07-03T10:31:11Z</time>
      </trkpt>
      <trkpt lat="47.7913" lon="6.55558">
        <ele>467.6</ele>
        <time>2016-07-03T10:31:15Z</time>
      </trkpt>
      <trkpt lat="47.79127" lon="6.55545">
        <ele>468.6</ele>
        <time>2016-07-03T10:31:19Z</time>
      </trkpt>
      <trkpt lat="47.79124" lon="6.55531">
        <ele>469.5</ele>
        <time>2016-07-03T10:31:23Z</time>
      </trkpt>
      <trkpt lat="47.79121" lon="6.55518">
        <ele>470.1</ele>
        <time>2016-07-03T10:31:27Z</time>
      </trkpt>
      <trkpt lat="47.79119" lon="6.55501">
        <ele>473.5</ele>
        <time>2016-07-03T10:31:32Z</time>
      </trkpt>
      <trkpt lat="47.79117" lon="6.55488">
        <ele>474.4</ele>
        <time>2016-07-03T10:31:36Z</time>
      </trkpt>
      <trkpt lat="47.79114" lon="6.55473">
        <ele>475.2</ele>
        <time>2016-07-03T10:31:40Z</time>
      </trkpt>
      <trkpt lat="47.79112" lon="6.55459">
        <ele>477</ele>
        <time>2016-07-03T10:31:44Z</time>
      </trkpt>
      <trkpt lat="47.7911" lon="6.55445">
        <ele>477.9</ele>
        <time>2016-07-03T10:31:48Z</time>
      </trkpt>
      <trkpt lat="47.79107" lon="6.55431">
        <ele>478.8</ele>
        <time>2016-07-03T10:31:52Z</time>
      </trkpt>
      <trkpt lat="47.79105" lon="6.55417">
        <ele>479</ele>
        <time>2016-07-03T10:31:56Z</time>
      </trkpt>
      <trkpt lat="47.79101" lon="6.55403">
        <ele>476.4</ele>
        <time>2016-07-03T10:32:00Z</time>
      </trkpt>
      <trkpt lat="47.79097" lon="6.55389">
        <ele>475.3</ele>
        <time>2016-07-03T10:32:04Z</time>
      </trkpt>
      <trkpt lat="47.79095" lon="6.55375">
        <ele>475.1</ele>
        <time>2016-07-03T10:32:08Z</time>
      </trkpt>
      <trkpt lat="47.79093" lon="6.55362">
        <ele>475.6</ele>
        <time>2016-07-03T10:32:12Z</time>
      </trkpt>
      <trkpt lat="47.79091" lon="6.55348">
        <ele>476.9</ele>
        <time>2016-07-03T10:32:16Z</time>
      </trkpt>
      <trkpt lat="47.79089" lon="6.55335">
        <ele>478.4</ele>
        <time>2016-07-03T10:32:20Z</time>
      </trkpt>
      <trkpt lat="47.79087" lon="6.5532">
        <ele>479.8</ele>
        <time>2016-07-03T10:32:24Z</time>
      </trkpt>
      <trkpt lat="47.79087" lon="6.55305">
        <ele>481.5</ele>
        <time>2016-07-03T10:32:28Z</time>
      </trkpt>
      <trkpt lat="47.7909" lon="6.55292">
        <ele>483.5</ele>
        <time>2016-07-03T10:32:32Z</time>
      </trkpt>
      <trkpt lat="47.79092" lon="6.55278">
        <ele>483.3</ele>
        <time>2016-07-03T10:32:35Z</time>
      </trkpt>
      <trkpt lat="47.79094" lon="6.55263">
        <ele>483.1</ele>
        <time>2016-07-03T10:32:38Z</time>
      </trkpt>
      <trkpt lat="47.79097" lon="6.55245">
        <ele>482.3</ele>
        <time>2016-07-03T10:32:41Z</time>
      </trkpt>
      <trkpt lat="47.79099" lon="6.55232">
        <ele>482.1</ele>
        <time>2016-07-03T10:32:43Z</time>
      </trkpt>
      <trkpt lat="47.79103" lon="6.55213">
        <ele>482</ele>
        <time>2016-07-03T10:32:46Z</time>
      </trkpt>
      <trkpt lat="47.79107" lon="6.55195">
        <ele>481.7</ele>
        <time>2016-07-03T10:32:49Z</time>
      </trkpt>
      <trkpt lat="47.7911" lon="6.55182">
        <ele>482</ele>
        <time>2016-07-03T10:32:51Z</time>
      </trkpt>
      <trkpt lat="47.79114" lon="6.55163">
        <ele>482</ele>
        <time>2016-07-03T10:32:54Z</time>
      </trkpt>
      <trkpt lat="47.79118" lon="6.55144">
        <ele>482.5</ele>
        <time>2016-07-03T10:32:57Z</time>
      </trkpt>
      <trkpt lat="47.79121" lon="6.55131">
        <ele>484.8</ele>
        <time>2016-07-03T10:32:59Z</time>
      </trkpt>
      <trkpt lat="47.79124" lon="6.55117">
        <ele>485.9</ele>
        <time>2016-07-03T10:33:01Z</time>
      </trkpt>
      <trkpt lat="47.79127" lon="6.55104">
        <ele>487</ele>
        <time>2016-07-03T10:33:03Z</time>
      </trkpt>
      <trkpt lat="47.79131" lon="6.55085">
        <ele>488.7</ele>
        <time>2016-07-03T10:33:06Z</time>
      </trkpt>
      <trkpt lat="47.79133" lon="6.55071">
        <ele>489.4</ele>
        <time>2016-07-03T10:33:08Z</time>
      </trkpt>
      <trkpt lat="47.79136" lon="6.55058">
        <ele>489.2</ele>
        <time>2016-07-03T10:33:10Z</time>
      </trkpt>
      <trkpt lat="47.79139" lon="6.55045">
        <ele>489.7</ele>
        <time>2016-07-03T10:33:12Z</time>
      </trkpt>
      <trkpt lat="47.79142" lon="6.55032">
        <ele>489.8</ele>
        <time>2016-07-03T10:33:14Z</time>
      </trkpt>
      <trkpt lat="47.79144" lon="6.55019">
        <ele>489.6</ele>
        <time>2016-07-03T10:33:16Z</time>
      </trkpt>
      <trkpt lat="47.79147" lon="6.55005">
        <ele>490.3</ele>
        <time>2016-07-03T10:33:18Z</time>
      </trkpt>
      <trkpt lat="47.7915" lon="6.54992">
        <ele>490.3</ele>
        <time>2016-07-03T10:33:20Z</time>
      </trkpt>
      <trkpt lat="47.79153" lon="6.54979">
        <ele>491.1</ele>
        <time>2016-07-03T10:33:22Z</time>
      </trkpt>
      <trkpt lat="47.79156" lon="6.54966">
        <ele>491.4</ele>
        <time>2016-07-03T10:33:24Z</time>
      </trkpt>
      <trkpt lat="47.79159" lon="6.54952">
        <ele>491.7</ele>
        <time>2016-07-03T10:33:26Z</time>
      </trkpt>
      <trkpt lat="47.79163" lon="6.54935">
        <ele>491.4</ele>
        <time>2016-07-03T10:33:29Z</time>
      </trkpt>
      <trkpt lat="47.79166" lon="6.54921">
        <ele>491.6</ele>
        <time>2016-07-03T10:33:32Z</time>
      </trkpt>
      <trkpt lat="47.7917" lon="6.54908">
        <ele>491.2</ele>
        <time>2016-07-03T10:33:36Z</time>
      </trkpt>
      <trkpt lat="47.79173" lon="6.54894">
        <ele>491.2</ele>
        <time>2016-07-03T10:33:40Z</time>
      </trkpt>
      <trkpt lat="47.79177" lon="6.54877">
        <ele>490.7</ele>
        <time>2016-07-03T10:33:44Z</time>
      </trkpt>
      <trkpt lat="47.7918" lon="6.54862">
        <ele>492.7</ele>
        <time>2016-07-03T10:33:47Z</time>
      </trkpt>
      <trkpt lat="47.79184" lon="6.54848">
        <ele>494.2</ele>
        <time>2016-07-03T10:33:50Z</time>
      </trkpt>
      <trkpt lat="47.79187" lon="6.54833">
        <ele>493.2</ele>
        <time>2016-07-03T10:33:53Z</time>
      </trkpt>
      <trkpt lat="47.7919" lon="6.54815">
        <ele>490.4</ele>
        <time>2016-07-03T10:33:56Z</time>
      </trkpt>
      <trkpt lat="47.79192" lon="6.54801">
        <ele>489.4</ele>
        <time>2016-07-03T10:33:58Z</time>
      </trkpt>
      <trkpt lat="47.79195" lon="6.54788">
        <ele>487.6</ele>
        <time>2016-07-03T10:34:00Z</time>
      </trkpt>
      <trkpt lat="47.79198" lon="6.54774">
        <ele>486.1</ele>
        <time>2016-07-03T10:34:02Z</time>
      </trkpt>
      <trkpt lat="47.79201" lon="6.5476">
        <ele>485.5</ele>
        <time>2016-07-03T10:34:04Z</time>
      </trkpt>
      <trkpt lat="47.79204" lon="6.54746">
        <ele>485.1</ele>
        <time>2016-07-03T10:34:06Z</time>
      </trkpt>
      <trkpt lat="47.79208" lon="6.54732">
        <ele>486</ele>
        <time>2016-07-03T10:34:08Z</time>
      </trkpt>
      <trkpt lat="47.79211" lon="6.54719">
        <ele>486.2</ele>
        <time>2016-07-03T10:34:10Z</time>
      </trkpt>
      <trkpt lat="47.79214" lon="6.54706">
        <ele>486.9</ele>
        <time>2016-07-03T10:34:12Z</time>
      </trkpt>
      <trkpt lat="47.79217" lon="6.54692">
        <ele>487.3</ele>
        <time>2016-07-03T10:34:14Z</time>
      </trkpt>
      <trkpt lat="47.7922" lon="6.54678">
        <ele>487</ele>
        <time>2016-07-03T10:34:16Z</time>
      </trkpt>
      <trkpt lat="47.79223" lon="6.54664">
        <ele>486.3</ele>
        <time>2016-07-03T10:34:18Z</time>
      </trkpt>
      <trkpt lat="47.79226" lon="6.54651">
        <ele>486.5</ele>
        <time>2016-07-03T10:34:20Z</time>
      </trkpt>
      <trkpt lat="47.7923" lon="6.54633">
        <ele>486.2</ele>
        <time>2016-07-03T10:34:23Z</time>
      </trkpt>
      <trkpt lat="47.79234" lon="6.54615">
        <ele>487.4</ele>
        <time>2016-07-03T10:34:26Z</time>
      </trkpt>
      <trkpt lat="47.79238" lon="6.54599">
        <ele>486.4</ele>
        <time>2016-07-03T10:34:29Z</time>
      </trkpt>
      <trkpt lat="47.79242" lon="6.54581">
        <ele>485.7</ele>
        <time>2016-07-03T10:34:32Z</time>
      </trkpt>
      <trkpt lat="47.79247" lon="6.54563">
        <ele>485.9</ele>
        <time>2016-07-03T10:34:35Z</time>
      </trkpt>
      <trkpt lat="47.79252" lon="6.54545">
        <ele>487.7</ele>
        <time>2016-07-03T10:34:38Z</time>
      </trkpt>
      <trkpt lat="47.79256" lon="6.54527">
        <ele>488.7</ele>
        <time>2016-07-03T10:34:41Z</time>
      </trkpt>
      <trkpt lat="47.7926" lon="6.54508">
        <ele>490.3</ele>
        <time>2016-07-03T10:34:44Z</time>
      </trkpt>
      <trkpt lat="47.79263" lon="6.54495">
        <ele>491.7</ele>
        <time>2016-07-03T10:34:46Z</time>
      </trkpt>
      <trkpt lat="47.79266" lon="6.54482">
        <ele>492.1</ele>
        <time>2016-07-03T10:34:48Z</time>
      </trkpt>
      <trkpt lat="47.79269" lon="6.54468">
        <ele>491.7</ele>
        <time>2016-07-03T10:34:50Z</time>
      </trkpt>
      <trkpt lat="47.79272" lon="6.54454">
        <ele>491.3</ele>
        <time>2016-07-03T10:34:52Z</time>
      </trkpt>
      <trkpt lat="47.79275" lon="6.5444">
        <ele>490.7</ele>
        <time>2016-07-03T10:34:54Z</time>
      </trkpt>
      <trkpt lat="47.79279" lon="6.54425">
        <ele>489.7</ele>
        <time>2016-07-03T10:34:56Z</time>
      </trkpt>
      <trkpt lat="47.79282" lon="6.54411">
        <ele>489.6</ele>
        <time>2016-07-03T10:34:58Z</time>
      </trkpt>
      <trkpt lat="47.79285" lon="6.54396">
        <ele>489.2</ele>
        <time>2016-07-03T10:35:00Z</time>
      </trkpt>
      <trkpt lat="47.79289" lon="6.5438">
        <ele>488.4</ele>
        <time>2016-07-03T10:35:02Z</time>
      </trkpt>
      <trkpt lat="47.79291" lon="6.54363">
        <ele>488.3</ele>
        <time>2016-07-03T10:35:04Z</time>
      </trkpt>
      <trkpt lat="47.79295" lon="6.54347">
        <ele>487.8</ele>
        <time>2016-07-03T10:35:06Z</time>
      </trkpt>
      <trkpt lat="47.79298" lon="6.5433">
        <ele>487</ele>
        <time>2016-07-03T10:35:08Z</time>
      </trkpt>
      <trkpt lat="47.79301" lon="6.54314">
        <ele>485.8</ele>
        <time>2016-07-03T10:35:10Z</time>
      </trkpt>
      <trkpt lat="47.79304" lon="6.54297">
        <ele>483.8</ele>
        <time>2016-07-03T10:35:12Z</time>
      </trkpt>
      <trkpt lat="47.79308" lon="6.5428">
        <ele>483.7</ele>
        <time>2016-07-03T10:35:14Z</time>
      </trkpt>
      <trkpt lat="47.79311" lon="6.54264">
        <ele>483.9</ele>
        <time>2016-07-03T10:35:16Z</time>
      </trkpt>
      <trkpt lat="47.79314" lon="6.54249">
        <ele>484</ele>
        <time>2016-07-03T10:35:18Z</time>
      </trkpt>
      <trkpt lat="47.79317" lon="6.54234">
        <ele>483.8</ele>
        <time>2016-07-03T10:35:20Z</time>
      </trkpt>
      <trkpt lat="47.7932" lon="6.54219">
        <ele>483.3</ele>
        <time>2016-07-03T10:35:22Z</time>
      </trkpt>
      <trkpt lat="47.79324" lon="6.54203">
        <ele>483</ele>
        <time>2016-07-03T10:35:24Z</time>
      </trkpt>
      <trkpt lat="47.79327" lon="6.54188">
        <ele>483</ele>
        <time>2016-07-03T10:35:26Z</time>
      </trkpt>
      <trkpt lat="47.79331" lon="6.54174">
        <ele>482.8</ele>
        <time>2016-07-03T10:35:28Z</time>
      </trkpt>
      <trkpt lat="47.79334" lon="6.5416">
        <ele>482.5</ele>
        <time>2016-07-03T10:35:30Z</time>
      </trkpt>
      <trkpt lat="47.79337" lon="6.54146">
        <ele>482.4</ele>
        <time>2016-07-03T10:35:32Z</time>
      </trkpt>
      <trkpt lat="47.79339" lon="6.54132">
        <ele>482.5</ele>
        <time>2016-07-03T10:35:34Z</time>
      </trkpt>
      <trkpt lat="47.79343" lon="6.54114">
        <ele>480.9</ele>
        <time>2016-07-03T10:35:37Z</time>
      </trkpt>
      <trkpt lat="47.79345" lon="6.54096">
        <ele>479.6</ele>
        <time>2016-07-03T10:35:40Z</time>
      </trkpt>
      <trkpt lat="47.79346" lon="6.54081">
        <ele>477.6</ele>
        <time>2016-07-03T10:35:42Z</time>
      </trkpt>
      <trkpt lat="47.79348" lon="6.54064">
        <ele>477.1</ele>
        <time>2016-07-03T10:35:44Z</time>
      </trkpt>
      <trkpt lat="47.79348" lon="6.54047">
        <ele>474</ele>
        <time>2016-07-03T10:35:47Z</time>
      </trkpt>
      <trkpt lat="47.79351" lon="6.54063">
        <ele>476.5</ele>
        <time>2016-07-03T10:35:51Z</time>
      </trkpt>
      <trkpt lat="47.79353" lon="6.54081">
        <ele>475.4</ele>
        <time>2016-07-03T10:35:54Z</time>
      </trkpt>
      <trkpt lat="47.79354" lon="6.54095">
        <ele>474.1</ele>
        <time>2016-07-03T10:35:57Z</time>
      </trkpt>
      <trkpt lat="47.7935" lon="6.54107">
        <ele>474.3</ele>
        <time>2016-07-03T10:36:03Z</time>
      </trkpt>
      <trkpt lat="47.79354" lon="6.54093">
        <ele>467.8</ele>
        <time>2016-07-03T10:36:48Z</time>
      </trkpt>
      <trkpt lat="47.79351" lon="6.54079">
        <ele>465.9</ele>
        <time>2016-07-03T10:36:50Z</time>
      </trkpt>
      <trkpt lat="47.79348" lon="6.54061">
        <ele>466.5</ele>
        <time>2016-07-03T10:36:52Z</time>
      </trkpt>
      <trkpt lat="47.79346" lon="6.54042">
        <ele>468.2</ele>
        <time>2016-07-03T10:36:54Z</time>
      </trkpt>
      <trkpt lat="47.79347" lon="6.54024">
        <ele>469.2</ele>
        <time>2016-07-03T10:36:56Z</time>
      </trkpt>
      <trkpt lat="47.79347" lon="6.54006">
        <ele>469.8</ele>
        <time>2016-07-03T10:36:58Z</time>
      </trkpt>
      <trkpt lat="47.79349" lon="6.53985">
        <ele>469.9</ele>
        <time>2016-07-03T10:37:00Z</time>
      </trkpt>
      <trkpt lat="47.79349" lon="6.53964">
        <ele>469.7</ele>
        <time>2016-07-03T10:37:02Z</time>
      </trkpt>
      <trkpt lat="47.7935" lon="6.53941">
        <ele>469.6</ele>
        <time>2016-07-03T10:37:04Z</time>
      </trkpt>
      <trkpt lat="47.79352" lon="6.53919">
        <ele>468.6</ele>
        <time>2016-07-03T10:37:06Z</time>
      </trkpt>
      <trkpt lat="47.79353" lon="6.53896">
        <ele>468.2</ele>
        <time>2016-07-03T10:37:08Z</time>
      </trkpt>
      <trkpt lat="47.79355" lon="6.53875">
        <ele>467.5</ele>
        <time>2016-07-03T10:37:10Z</time>
      </trkpt>
      <trkpt lat="47.79356" lon="6.53853">
        <ele>467.2</ele>
        <time>2016-07-03T10:37:12Z</time>
      </trkpt>
      <trkpt lat="47.79358" lon="6.53833">
        <ele>467.8</ele>
        <time>2016-07-03T10:37:14Z</time>
      </trkpt>
      <trkpt lat="47.79359" lon="6.53813">
        <ele>468.5</ele>
        <time>2016-07-03T10:37:16Z</time>
      </trkpt>
      <trkpt lat="47.79361" lon="6.53795">
        <ele>468.7</ele>
        <time>2016-07-03T10:37:18Z</time>
      </trkpt>
      <trkpt lat="47.79362" lon="6.53775">
        <ele>469.3</ele>
        <time>2016-07-03T10:37:20Z</time>
      </trkpt>
      <trkpt lat="47.79363" lon="6.53754">
        <ele>471.7</ele>
        <time>2016-07-03T10:37:22Z</time>
      </trkpt>
      <trkpt lat="47.79364" lon="6.53735">
        <ele>472</ele>
        <time>2016-07-03T10:37:24Z</time>
      </trkpt>
      <trkpt lat="47.79365" lon="6.53714">
        <ele>471.1</ele>
        <time>2016-07-03T10:37:26Z</time>
      </trkpt>
      <trkpt lat="47.79366" lon="6.53693">
        <ele>471</ele>
        <time>2016-07-03T10:37:28Z</time>
      </trkpt>
      <trkpt lat="47.79365" lon="6.53675">
        <ele>470.4</ele>
        <time>2016-07-03T10:37:30Z</time>
      </trkpt>
      <trkpt lat="47.7936" lon="6.53659">
        <ele>469.3</ele>
        <time>2016-07-03T10:37:32Z</time>
      </trkpt>
      <trkpt lat="47.79349" lon="6.53649">
        <ele>468.8</ele>
        <time>2016-07-03T10:37:34Z</time>
      </trkpt>
      <trkpt lat="47.79337" lon="6.53643">
        <ele>468.6</ele>
        <time>2016-07-03T10:37:36Z</time>
      </trkpt>
      <trkpt lat="47.79325" lon="6.53637">
        <ele>468.6</ele>
        <time>2016-07-03T10:37:38Z</time>
      </trkpt>
      <trkpt lat="47.79312" lon="6.5363">
        <ele>469.4</ele>
        <time>2016-07-03T10:37:40Z</time>
      </trkpt>
      <trkpt lat="47.79301" lon="6.53624">
        <ele>469.9</ele>
        <time>2016-07-03T10:37:42Z</time>
      </trkpt>
      <trkpt lat="47.79289" lon="6.5362">
        <ele>470.6</ele>
        <time>2016-07-03T10:37:44Z</time>
      </trkpt>
      <trkpt lat="47.79279" lon="6.53615">
        <ele>470.6</ele>
        <time>2016-07-03T10:37:46Z</time>
      </trkpt>
      <trkpt lat="47.7927" lon="6.5361">
        <ele>470</ele>
        <time>2016-07-03T10:37:48Z</time>
      </trkpt>
      <trkpt lat="47.7926" lon="6.53599">
        <ele>468.5</ele>
        <time>2016-07-03T10:37:51Z</time>
      </trkpt>
      <trkpt lat="47.79262" lon="6.53583">
        <ele>469</ele>
        <time>2016-07-03T10:37:54Z</time>
      </trkpt>
      <trkpt lat="47.79264" lon="6.53569">
        <ele>469.7</ele>
        <time>2016-07-03T10:37:57Z</time>
      </trkpt>
      <trkpt lat="47.79265" lon="6.53553">
        <ele>467.6</ele>
        <time>2016-07-03T10:38:01Z</time>
      </trkpt>
      <trkpt lat="47.79266" lon="6.53552">
        <ele>458.7</ele>
        <time>2016-07-03T10:38:17Z</time>
      </trkpt>
    </trkseg>
  </trk>
</gpx>